<?xml version='1.0' encoding='UTF-8'?><gpx version="1.1" creator="JPX - https://github.com/jenetics/jpx" xmlns="http://www.topografix.com/GPX/1/1"><trk><trkseg><trkpt lat="42.83794772071219" lon="10.853108484002064"><ele>349.0</ele><time>2026-04-04T12:10:09Z</time></trkpt><trkpt lat="42.838010169833424" lon="10.853249338456335"><ele>349.0</ele><time>2026-04-04T12:10:11Z</time></trkpt><trkpt lat="42.838035963995665" lon="10.853338707620846"><ele>349.0</ele><time>2026-04-04T12:10:12Z</time></trkpt><trkpt lat="42.83806102251118" lon="10.85343287056154"><ele>349.0</ele><time>2026-04-04T12:10:13Z</time></trkpt><trkpt lat="42.838085509964344" lon="10.853579418089826"><ele>349.0</ele><time>2026-04-04T12:10:15Z</time></trkpt><trkpt lat="42.8380696131657" lon="10.853664945169905"><ele>349.0</ele><time>2026-04-04T12:10:30.999Z</time></trkpt><trkpt lat="42.83797174036823" lon="10.853672997576519"><ele>349.66666666666663</ele><time>2026-04-04T12:10:32.999Z</time></trkpt><trkpt lat="42.83791459309321" lon="10.853768189039304"><ele>350.3333333333333</ele><time>2026-04-04T12:10:34.999Z</time></trkpt><trkpt lat="42.83789495550688" lon="10.853849928456796"><ele>351.0</ele><time>2026-04-04T12:10:35.999Z</time></trkpt><trkpt lat="42.83787386694013" lon="10.853930847346696"><ele>351.6666666666667</ele><time>2026-04-04T12:10:36.999Z</time></trkpt><trkpt lat="42.83783483743799" lon="10.85401317081475"><ele>352.33333333333337</ele><time>2026-04-04T12:10:37.999Z</time></trkpt><trkpt lat="42.837728022991925" lon="10.854049907571758"><ele>353.0</ele><time>2026-04-04T12:10:39.999Z</time></trkpt><trkpt lat="42.837605378393214" lon="10.854047644529693"><ele>356.79999999999995</ele><time>2026-04-04T12:10:41.999Z</time></trkpt><trkpt lat="42.837534531891265" lon="10.853994198279908"><ele>360.6</ele><time>2026-04-04T12:10:42.999Z</time></trkpt><trkpt lat="42.83743690310102" lon="10.853969058967305"><ele>364.4</ele><time>2026-04-04T12:10:43.999Z</time></trkpt><trkpt lat="42.83737454244637" lon="10.853938962961266"><ele>368.20000000000005</ele><time>2026-04-04T12:10:44.999Z</time></trkpt><trkpt lat="42.837264477625794" lon="10.853882406964884"><ele>372.0</ele><time>2026-04-04T12:10:45.999Z</time></trkpt><trkpt lat="42.83716376793247" lon="10.853829982078556"><ele>372.0</ele><time>2026-04-04T12:10:46.999Z</time></trkpt><trkpt lat="42.83708046954071" lon="10.853743416139855"><ele>372.0</ele><time>2026-04-04T12:10:47.999Z</time></trkpt><trkpt lat="42.83699740583656" lon="10.853628931623348"><ele>372.0</ele><time>2026-04-04T12:10:48.999Z</time></trkpt><trkpt lat="42.83691388961705" lon="10.853489148029459"><ele>372.0</ele><time>2026-04-04T12:10:49.999Z</time></trkpt><trkpt lat="42.83680716598088" lon="10.8534069324242"><ele>376.0</ele><time>2026-04-04T12:10:50.999Z</time></trkpt><trkpt lat="42.836689556023074" lon="10.853354932273106"><ele>380.0</ele><time>2026-04-04T12:10:51.999Z</time></trkpt><trkpt lat="42.83657106034695" lon="10.85334502234678"><ele>384.0</ele><time>2026-04-04T12:10:52.999Z</time></trkpt><trkpt lat="42.836450060675595" lon="10.853384436049037"><ele>388.0</ele><time>2026-04-04T12:10:53.999Z</time></trkpt><trkpt lat="42.83630207196754" lon="10.85344654686916"><ele>388.0</ele><time>2026-04-04T12:10:54.999Z</time></trkpt><trkpt lat="42.83615237838025" lon="10.85352843125257"><ele>388.0</ele><time>2026-04-04T12:10:55.999Z</time></trkpt><trkpt lat="42.836010136064495" lon="10.853587193583161"><ele>388.0</ele><time>2026-04-04T12:10:56.999Z</time></trkpt><trkpt lat="42.83589542520074" lon="10.853656362019775"><ele>388.0</ele><time>2026-04-04T12:10:57.999Z</time></trkpt><trkpt lat="42.835774366464626" lon="10.853723387554902"><ele>388.0</ele><time>2026-04-04T12:10:58.999Z</time></trkpt><trkpt lat="42.83564751975419" lon="10.853784665988528"><ele>388.0</ele><time>2026-04-04T12:10:59.999Z</time></trkpt><trkpt lat="42.835490798189944" lon="10.85382276956604"><ele>388.0</ele><time>2026-04-04T12:11:00.999Z</time></trkpt><trkpt lat="42.83531512388155" lon="10.853853361538338"><ele>388.0</ele><time>2026-04-04T12:11:01.999Z</time></trkpt><trkpt lat="42.83515395494597" lon="10.853896739840474"><ele>388.0</ele><time>2026-04-04T12:11:02.999Z</time></trkpt><trkpt lat="42.8349944036276" lon="10.853941450715157"><ele>388.0</ele><time>2026-04-04T12:11:03.999Z</time></trkpt><trkpt lat="42.83484585057567" lon="10.85399034954501"><ele>393.0</ele><time>2026-04-04T12:11:04.999Z</time></trkpt><trkpt lat="42.83470762741461" lon="10.854029690513576"><ele>398.0</ele><time>2026-04-04T12:11:05.999Z</time></trkpt><trkpt lat="42.834574716356215" lon="10.854071881484732"><ele>403.0</ele><time>2026-04-04T12:11:06.999Z</time></trkpt><trkpt lat="42.83445828191562" lon="10.854118816351122"><ele>408.0</ele><time>2026-04-04T12:11:07.999Z</time></trkpt><trkpt lat="42.83437180672323" lon="10.85416381550108"><ele>408.0</ele><time>2026-04-04T12:11:08.999Z</time></trkpt><trkpt lat="42.83431508933188" lon="10.854238250411901"><ele>408.0</ele><time>2026-04-04T12:11:09.999Z</time></trkpt><trkpt lat="42.834258194574076" lon="10.854303804173938"><ele>408.0</ele><time>2026-04-04T12:11:10.999Z</time></trkpt><trkpt lat="42.83419077340875" lon="10.854324733241153"><ele>408.0</ele><time>2026-04-04T12:11:11.999Z</time></trkpt><trkpt lat="42.83406658295854" lon="10.854351012199036"><ele>408.0</ele><time>2026-04-04T12:11:12.998Z</time></trkpt><trkpt lat="42.83395647598386" lon="10.854418732560033"><ele>410.75</ele><time>2026-04-04T12:11:13.998Z</time></trkpt><trkpt lat="42.83380666525714" lon="10.854407352437553"><ele>413.5</ele><time>2026-04-04T12:11:14.998Z</time></trkpt><trkpt lat="42.833680103508605" lon="10.854444533430591"><ele>416.25</ele><time>2026-04-04T12:11:15.998Z</time></trkpt><trkpt lat="42.83354740538814" lon="10.854466045072494"><ele>419.0</ele><time>2026-04-04T12:11:16.998Z</time></trkpt><trkpt lat="42.83342702633259" lon="10.854478279957373"><ele>423.2</ele><time>2026-04-04T12:11:17.998Z</time></trkpt><trkpt lat="42.833320969910076" lon="10.854484189993578"><ele>427.4</ele><time>2026-04-04T12:11:18.998Z</time></trkpt><trkpt lat="42.833227354544924" lon="10.854499621167271"><ele>431.6</ele><time>2026-04-04T12:11:19.998Z</time></trkpt><trkpt lat="42.83315372421006" lon="10.854554585965975"><ele>435.8</ele><time>2026-04-04T12:11:20.998Z</time></trkpt><trkpt lat="42.83306370640341" lon="10.854631719934313"><ele>440.0</ele><time>2026-04-04T12:11:21.998Z</time></trkpt><trkpt lat="42.832957246511825" lon="10.85467185480427"><ele>440.0</ele><time>2026-04-04T12:11:22.998Z</time></trkpt><trkpt lat="42.8328487100676" lon="10.854675747637076"><ele>440.0</ele><time>2026-04-04T12:11:23.998Z</time></trkpt><trkpt lat="42.83272908603264" lon="10.854635389383434"><ele>440.0</ele><time>2026-04-04T12:11:24.998Z</time></trkpt><trkpt lat="42.83259886517225" lon="10.854587473622"><ele>440.0</ele><time>2026-04-04T12:11:25.998Z</time></trkpt><trkpt lat="42.83245347021354" lon="10.854542767249571"><ele>444.25</ele><time>2026-04-04T12:11:26.998Z</time></trkpt><trkpt lat="42.832320762478936" lon="10.854519989892468"><ele>448.5</ele><time>2026-04-04T12:11:27.998Z</time></trkpt><trkpt lat="42.83219027636456" lon="10.854531536449022"><ele>452.75</ele><time>2026-04-04T12:11:28.998Z</time></trkpt><trkpt lat="42.832061802007274" lon="10.854590852108695"><ele>457.0</ele><time>2026-04-04T12:11:29.998Z</time></trkpt><trkpt lat="42.83195154155416" lon="10.854623977524506"><ele>457.0</ele><time>2026-04-04T12:11:30.998Z</time></trkpt><trkpt lat="42.83187148479338" lon="10.854645383142687"><ele>457.00000000000006</ele><time>2026-04-04T12:11:31.998Z</time></trkpt><trkpt lat="42.83178626760867" lon="10.854701226275775"><ele>457.00000000000006</ele><time>2026-04-04T12:11:32.998Z</time></trkpt><trkpt lat="42.831701431967254" lon="10.854783652897448"><ele>457.0</ele><time>2026-04-04T12:11:33.998Z</time></trkpt><trkpt lat="42.83160384589011" lon="10.854839223364534"><ele>457.0</ele><time>2026-04-04T12:11:34.998Z</time></trkpt><trkpt lat="42.8315049095186" lon="10.854885728633013"><ele>458.6</ele><time>2026-04-04T12:11:35.998Z</time></trkpt><trkpt lat="42.83141013061616" lon="10.854952448682948"><ele>460.20000000000005</ele><time>2026-04-04T12:11:36.998Z</time></trkpt><trkpt lat="42.83133123098131" lon="10.855039886176256"><ele>461.8</ele><time>2026-04-04T12:11:37.998Z</time></trkpt><trkpt lat="42.83124795429308" lon="10.855124598792175"><ele>463.4</ele><time>2026-04-04T12:11:38.998Z</time></trkpt><trkpt lat="42.83116363111953" lon="10.85525102414669"><ele>465.0</ele><time>2026-04-04T12:11:39.998Z</time></trkpt><trkpt lat="42.831077308700515" lon="10.855380838653957"><ele>465.0</ele><time>2026-04-04T12:11:40.998Z</time></trkpt><trkpt lat="42.83099150054149" lon="10.855489647989188"><ele>465.0</ele><time>2026-04-04T12:11:41.998Z</time></trkpt><trkpt lat="42.8309053639132" lon="10.855521673676433"><ele>465.0</ele><time>2026-04-04T12:11:42.998Z</time></trkpt><trkpt lat="42.83078946491688" lon="10.855544961344537"><ele>465.0</ele><time>2026-04-04T12:11:43.998Z</time></trkpt><trkpt lat="42.83067717354312" lon="10.855551149419558"><ele>465.0</ele><time>2026-04-04T12:11:44.998Z</time></trkpt><trkpt lat="42.8305786877013" lon="10.855556530126332"><ele>468.2</ele><time>2026-04-04T12:11:45.998Z</time></trkpt><trkpt lat="42.83047697386371" lon="10.855533375343564"><ele>471.4</ele><time>2026-04-04T12:11:46.998Z</time></trkpt><trkpt lat="42.83038284167275" lon="10.855537393695956"><ele>474.6</ele><time>2026-04-04T12:11:47.999Z</time></trkpt><trkpt lat="42.83026332342165" lon="10.855539867442438"><ele>477.8</ele><time>2026-04-04T12:11:48.999Z</time></trkpt><trkpt lat="42.83015641463316" lon="10.855546930531721"><ele>481.0</ele><time>2026-04-04T12:11:49.999Z</time></trkpt><trkpt lat="42.83005277405099" lon="10.855579175288394"><ele>483.20000000000005</ele><time>2026-04-04T12:11:50.999Z</time></trkpt><trkpt lat="42.82995240239226" lon="10.855597249316844"><ele>485.40000000000003</ele><time>2026-04-04T12:11:51.999Z</time></trkpt><trkpt lat="42.82986173908285" lon="10.855646612701294"><ele>487.6</ele><time>2026-04-04T12:11:52.999Z</time></trkpt><trkpt lat="42.82975630739232" lon="10.855756759393632"><ele>489.8</ele><time>2026-04-04T12:11:53.999Z</time></trkpt><trkpt lat="42.829692288153055" lon="10.855881553302456"><ele>492.0</ele><time>2026-04-04T12:11:54.999Z</time></trkpt><trkpt lat="42.82963977358682" lon="10.855971288327941"><ele>492.0</ele><time>2026-04-04T12:11:55.999Z</time></trkpt><trkpt lat="42.8295777814483" lon="10.8560030400525"><ele>492.0</ele><time>2026-04-04T12:11:56.999Z</time></trkpt><trkpt lat="42.82949407468532" lon="10.85602182189814"><ele>492.0</ele><time>2026-04-04T12:11:58Z</time></trkpt><trkpt lat="42.82941780974983" lon="10.856047302976435"><ele>492.0</ele><time>2026-04-04T12:11:58.999Z</time></trkpt><trkpt lat="42.82933484101761" lon="10.856070938762732"><ele>492.0</ele><time>2026-04-04T12:12:00Z</time></trkpt><trkpt lat="42.82924721030364" lon="10.856121105237957"><ele>492.0</ele><time>2026-04-04T12:12:01Z</time></trkpt><trkpt lat="42.82915200669181" lon="10.856135050088858"><ele>497.6</ele><time>2026-04-04T12:12:02Z</time></trkpt><trkpt lat="42.829064863987796" lon="10.856116553082526"><ele>503.20000000000005</ele><time>2026-04-04T12:12:03Z</time></trkpt><trkpt lat="42.828967355635584" lon="10.856108675445038"><ele>508.8</ele><time>2026-04-04T12:12:03.999Z</time></trkpt><trkpt lat="42.82887648016574" lon="10.856109305571374"><ele>514.4</ele><time>2026-04-04T12:12:04.999Z</time></trkpt><trkpt lat="42.828776130006865" lon="10.85612038966902"><ele>520.0</ele><time>2026-04-04T12:12:05.999Z</time></trkpt><trkpt lat="42.828683835399126" lon="10.856133469575525"><ele>520.0</ele><time>2026-04-04T12:12:06.999Z</time></trkpt><trkpt lat="42.828602235614355" lon="10.856165210261993"><ele>520.0</ele><time>2026-04-04T12:12:07.999Z</time></trkpt><trkpt lat="42.82852295804642" lon="10.856227081127823"><ele>520.0</ele><time>2026-04-04T12:12:08.999Z</time></trkpt><trkpt lat="42.82843116958221" lon="10.856304784250545"><ele>520.0</ele><time>2026-04-04T12:12:09.999Z</time></trkpt><trkpt lat="42.82833968589909" lon="10.856375704858293"><ele>520.0</ele><time>2026-04-04T12:12:10.999Z</time></trkpt><trkpt lat="42.82825085533695" lon="10.856445034441652"><ele>524.2</ele><time>2026-04-04T12:12:11.999Z</time></trkpt><trkpt lat="42.82815273054101" lon="10.856518754331702"><ele>528.4</ele><time>2026-04-04T12:12:12.999Z</time></trkpt><trkpt lat="42.82805933955824" lon="10.85658258988734"><ele>532.6</ele><time>2026-04-04T12:12:13.999Z</time></trkpt><trkpt lat="42.827964544650385" lon="10.85665845667743"><ele>536.8</ele><time>2026-04-04T12:12:14.999Z</time></trkpt><trkpt lat="42.82789006592015" lon="10.856725433061008"><ele>541.0</ele><time>2026-04-04T12:12:15.999Z</time></trkpt><trkpt lat="42.8278433344426" lon="10.856791581772068"><ele>541.0</ele><time>2026-04-04T12:12:16.999Z</time></trkpt><trkpt lat="42.82781028515875" lon="10.856866979980296"><ele>541.0</ele><time>2026-04-04T12:12:17.999Z</time></trkpt><trkpt lat="42.82778127909979" lon="10.856971193607182"><ele>541.0</ele><time>2026-04-04T12:12:18.999Z</time></trkpt><trkpt lat="42.82774745534651" lon="10.85711088958929"><ele>541.0</ele><time>2026-04-04T12:12:19.999Z</time></trkpt><trkpt lat="42.827694855758885" lon="10.857243319378393"><ele>541.0</ele><time>2026-04-04T12:12:20.999Z</time></trkpt><trkpt lat="42.82763276725039" lon="10.857409710627078"><ele>545.5</ele><time>2026-04-04T12:12:21.999Z</time></trkpt><trkpt lat="42.827586248162724" lon="10.857582425770211"><ele>550.0</ele><time>2026-04-04T12:12:22.999Z</time></trkpt><trkpt lat="42.827574596640325" lon="10.857774551135211"><ele>554.5</ele><time>2026-04-04T12:12:23.999Z</time></trkpt><trkpt lat="42.82753083772737" lon="10.857936139615214"><ele>559.0</ele><time>2026-04-04T12:12:24.999Z</time></trkpt><trkpt lat="42.82750412428018" lon="10.85811776792117"><ele>560.0</ele><time>2026-04-04T12:12:25.999Z</time></trkpt><trkpt lat="42.827474922839336" lon="10.858296422546152"><ele>561.0</ele><time>2026-04-04T12:12:26.999Z</time></trkpt><trkpt lat="42.82745310665145" lon="10.858466835701124"><ele>562.0</ele><time>2026-04-04T12:12:27.999Z</time></trkpt><trkpt lat="42.82741216187995" lon="10.858631428005264"><ele>563.0</ele><time>2026-04-04T12:12:28.999Z</time></trkpt><trkpt lat="42.82738222604896" lon="10.858781115657571"><ele>563.0</ele><time>2026-04-04T12:12:29.999Z</time></trkpt><trkpt lat="42.827345256549314" lon="10.858893585547643"><ele>563.0</ele><time>2026-04-04T12:12:30.999Z</time></trkpt><trkpt lat="42.827264882381805" lon="10.85891739181438"><ele>563.0</ele><time>2026-04-04T12:12:35.999Z</time></trkpt><trkpt lat="42.82719530538023" lon="10.858884995455384"><ele>563.0</ele><time>2026-04-04T12:12:36.999Z</time></trkpt><trkpt lat="42.82711737654536" lon="10.858909038001093"><ele>563.0</ele><time>2026-04-04T12:12:37.999Z</time></trkpt><trkpt lat="42.82704142674335" lon="10.858956999080664"><ele>563.0</ele><time>2026-04-04T12:12:38.999Z</time></trkpt><trkpt lat="42.8269612244375" lon="10.858941415737512"><ele>563.0</ele><time>2026-04-04T12:12:39.999Z</time></trkpt><trkpt lat="42.826839324354964" lon="10.858941433040822"><ele>563.0</ele><time>2026-04-04T12:12:40.999Z</time></trkpt><trkpt lat="42.826731298187326" lon="10.858959891771123"><ele>563.0</ele><time>2026-04-04T12:12:41.999Z</time></trkpt><trkpt lat="42.82662020833111" lon="10.858981340689086"><ele>563.0</ele><time>2026-04-04T12:12:42.999Z</time></trkpt><trkpt lat="42.826497064828054" lon="10.859003761391156"><ele>560.8</ele><time>2026-04-04T12:12:43.999Z</time></trkpt><trkpt lat="42.826394446751124" lon="10.85900320873865"><ele>558.5999999999999</ele><time>2026-04-04T12:12:44.999Z</time></trkpt><trkpt lat="42.82630366310664" lon="10.859022942244989"><ele>556.4000000000001</ele><time>2026-04-04T12:12:45.999Z</time></trkpt><trkpt lat="42.8262075271387" lon="10.859039860093223"><ele>554.2</ele><time>2026-04-04T12:12:46.999Z</time></trkpt><trkpt lat="42.82611335702682" lon="10.859059811879742"><ele>552.0</ele><time>2026-04-04T12:12:47.999Z</time></trkpt><trkpt lat="42.82603990699368" lon="10.859092136273526"><ele>549.3333333333334</ele><time>2026-04-04T12:12:48.999Z</time></trkpt><trkpt lat="42.82596547459876" lon="10.859123870165703"><ele>546.6666666666666</ele><time>2026-04-04T12:12:49.999Z</time></trkpt><trkpt lat="42.82587859609087" lon="10.859156735284273"><ele>544.0</ele><time>2026-04-04T12:12:50.999Z</time></trkpt><trkpt lat="42.82580000827841" lon="10.859188169012127"><ele>541.3333333333333</ele><time>2026-04-04T12:12:51.999Z</time></trkpt><trkpt lat="42.8257149657647" lon="10.859248081261583"><ele>538.6666666666666</ele><time>2026-04-04T12:12:53.999Z</time></trkpt><trkpt lat="42.82565416317213" lon="10.85933359144778"><ele>536.0</ele><time>2026-04-04T12:12:55.999Z</time></trkpt><trkpt lat="42.82554454912667" lon="10.859404636338365"><ele>534.1666666666666</ele><time>2026-04-04T12:12:57.999Z</time></trkpt><trkpt lat="42.82548200961796" lon="10.859445516631475"><ele>532.3333333333333</ele><time>2026-04-04T12:12:58.999Z</time></trkpt><trkpt lat="42.82541463696199" lon="10.859496016514774"><ele>530.5</ele><time>2026-04-04T12:12:59.999Z</time></trkpt><trkpt lat="42.82535597372492" lon="10.859553923532141"><ele>528.6666666666666</ele><time>2026-04-04T12:13:00.999Z</time></trkpt><trkpt lat="42.82527021417343" lon="10.85966920245827"><ele>526.8333333333334</ele><time>2026-04-04T12:13:02.999Z</time></trkpt><trkpt lat="42.82520475764545" lon="10.859774126036426"><ele>525.0</ele><time>2026-04-04T12:13:04.999Z</time></trkpt><trkpt lat="42.825227621105704" lon="10.859880077051281"><ele>525.0</ele><time>2026-04-04T12:13:14.999Z</time></trkpt><trkpt lat="42.82527986930164" lon="10.859943174930324"><ele>525.0</ele><time>2026-04-04T12:13:15.999Z</time></trkpt><trkpt lat="42.82537916807794" lon="10.860038143731288"><ele>525.0</ele><time>2026-04-04T12:13:17.999Z</time></trkpt><trkpt lat="42.82545471206035" lon="10.860062124422043"><ele>525.0</ele><time>2026-04-04T12:13:18.999Z</time></trkpt><trkpt lat="42.825546651432155" lon="10.86004906371664"><ele>525.0</ele><time>2026-04-04T12:13:19.999Z</time></trkpt><trkpt lat="42.82565509905206" lon="10.860011165084872"><ele>525.0</ele><time>2026-04-04T12:13:20.999Z</time></trkpt><trkpt lat="42.82575529154362" lon="10.859976977562404"><ele>525.0</ele><time>2026-04-04T12:13:21.999Z</time></trkpt><trkpt lat="42.82584731941533" lon="10.860002282643347"><ele>525.0</ele><time>2026-04-04T12:13:22.999Z</time></trkpt><trkpt lat="42.8259407716725" lon="10.860077507094884"><ele>525.0</ele><time>2026-04-04T12:13:23.999Z</time></trkpt><trkpt lat="42.826038207389196" lon="10.860191565151425"><ele>525.0</ele><time>2026-04-04T12:13:24.999Z</time></trkpt><trkpt lat="42.826123218972796" lon="10.860301428420307"><ele>522.0</ele><time>2026-04-04T12:13:25.999Z</time></trkpt><trkpt lat="42.82618652647425" lon="10.860413137248571"><ele>519.0</ele><time>2026-04-04T12:13:26.999Z</time></trkpt><trkpt lat="42.8262568955797" lon="10.860502998923439"><ele>516.0</ele><time>2026-04-04T12:13:27.999Z</time></trkpt><trkpt lat="42.82634748501659" lon="10.860580257105413"><ele>513.0</ele><time>2026-04-04T12:13:28.999Z</time></trkpt><trkpt lat="42.826441959405294" lon="10.860645717845644"><ele>510.0</ele><time>2026-04-04T12:13:29.999Z</time></trkpt><trkpt lat="42.82653497186391" lon="10.860691593333812"><ele>510.0</ele><time>2026-04-04T12:13:30.999Z</time></trkpt><trkpt lat="42.82662869319309" lon="10.860731883400947"><ele>510.0</ele><time>2026-04-04T12:13:31.999Z</time></trkpt><trkpt lat="42.826714623609035" lon="10.860786755970166"><ele>510.0</ele><time>2026-04-04T12:13:32.999Z</time></trkpt><trkpt lat="42.82680613897773" lon="10.860839785071322"><ele>510.0</ele><time>2026-04-04T12:13:33.999Z</time></trkpt><trkpt lat="42.82687216527348" lon="10.860935850882667"><ele>510.0</ele><time>2026-04-04T12:13:34.999Z</time></trkpt><trkpt lat="42.82693859566592" lon="10.86106728148864"><ele>510.75</ele><time>2026-04-04T12:13:35.999Z</time></trkpt><trkpt lat="42.82700369353367" lon="10.861198900680227"><ele>511.5</ele><time>2026-04-04T12:13:36.999Z</time></trkpt><trkpt lat="42.82706770576629" lon="10.861358039360695"><ele>512.25</ele><time>2026-04-04T12:13:37.999Z</time></trkpt><trkpt lat="42.82712687455702" lon="10.861486176700046"><ele>513.0</ele><time>2026-04-04T12:13:38.999Z</time></trkpt><trkpt lat="42.82722115833048" lon="10.861629562436935"><ele>513.0</ele><time>2026-04-04T12:13:39.999Z</time></trkpt><trkpt lat="42.82730097131656" lon="10.86178008777689"><ele>513.0</ele><time>2026-04-04T12:13:40.999Z</time></trkpt><trkpt lat="42.827361752767935" lon="10.861960337763982"><ele>513.0</ele><time>2026-04-04T12:13:41.999Z</time></trkpt><trkpt lat="42.82741919798438" lon="10.862103925768489"><ele>513.0</ele><time>2026-04-04T12:13:42.999Z</time></trkpt><trkpt lat="42.82746882006525" lon="10.862188626202679"><ele>512.0</ele><time>2026-04-04T12:13:43.999Z</time></trkpt><trkpt lat="42.82752718619819" lon="10.862246728966447"><ele>510.99999999999994</ele><time>2026-04-04T12:13:44.999Z</time></trkpt><trkpt lat="42.827609170417425" lon="10.862287503353436"><ele>509.99999999999994</ele><time>2026-04-04T12:13:45.999Z</time></trkpt><trkpt lat="42.82772008433051" lon="10.862303507211848"><ele>509.0</ele><time>2026-04-04T12:13:46.999Z</time></trkpt><trkpt lat="42.827825845411525" lon="10.862316452785228"><ele>508.0</ele><time>2026-04-04T12:13:47.999Z</time></trkpt><trkpt lat="42.82790928068534" lon="10.862360346748762"><ele>508.0</ele><time>2026-04-04T12:13:48.999Z</time></trkpt><trkpt lat="42.827988109339344" lon="10.862428492829588"><ele>507.99999999999994</ele><time>2026-04-04T12:13:49.999Z</time></trkpt><trkpt lat="42.82804292240068" lon="10.862552023012572"><ele>507.99999999999994</ele><time>2026-04-04T12:13:50.999Z</time></trkpt><trkpt lat="42.82809478954893" lon="10.862691743704197"><ele>508.0</ele><time>2026-04-04T12:13:51.998Z</time></trkpt><trkpt lat="42.82814349701468" lon="10.862851801530292"><ele>508.0</ele><time>2026-04-04T12:13:52.998Z</time></trkpt><trkpt lat="42.82820019699745" lon="10.863026330047603"><ele>505.0</ele><time>2026-04-04T12:13:54Z</time></trkpt><trkpt lat="42.828286582511176" lon="10.863199453126962"><ele>502.0</ele><time>2026-04-04T12:13:55Z</time></trkpt><trkpt lat="42.82839505242597" lon="10.863407697180305"><ele>499.0</ele><time>2026-04-04T12:13:56Z</time></trkpt><trkpt lat="42.82847466160514" lon="10.86363359548848"><ele>496.0</ele><time>2026-04-04T12:13:57Z</time></trkpt><trkpt lat="42.82852926923271" lon="10.863836298139542"><ele>493.0</ele><time>2026-04-04T12:13:58Z</time></trkpt><trkpt lat="42.82857567900643" lon="10.864011119201155"><ele>490.0</ele><time>2026-04-04T12:13:59Z</time></trkpt><trkpt lat="42.82865497640084" lon="10.864174791607727"><ele>487.0</ele><time>2026-04-04T12:14:00Z</time></trkpt><trkpt lat="42.82873801688431" lon="10.86433311413649"><ele>487.0</ele><time>2026-04-04T12:14:01Z</time></trkpt><trkpt lat="42.828799012115894" lon="10.864504293442433"><ele>487.0</ele><time>2026-04-04T12:14:02Z</time></trkpt><trkpt lat="42.82887189297292" lon="10.86466811256152"><ele>487.0</ele><time>2026-04-04T12:14:03Z</time></trkpt><trkpt lat="42.82895219562263" lon="10.864822762226588"><ele>487.0</ele><time>2026-04-04T12:14:04Z</time></trkpt><trkpt lat="42.829031464561126" lon="10.864986005606006"><ele>485.6666666666667</ele><time>2026-04-04T12:14:05Z</time></trkpt><trkpt lat="42.82910302939784" lon="10.865182863224481"><ele>484.33333333333337</ele><time>2026-04-04T12:14:06Z</time></trkpt><trkpt lat="42.82917262526367" lon="10.865365330962272"><ele>483.0</ele><time>2026-04-04T12:14:07Z</time></trkpt><trkpt lat="42.82923227473106" lon="10.865534668928776"><ele>483.0</ele><time>2026-04-04T12:14:08Z</time></trkpt><trkpt lat="42.82926642811147" lon="10.865703995640885"><ele>483.0</ele><time>2026-04-04T12:14:09Z</time></trkpt><trkpt lat="42.82927485654148" lon="10.86585647132909"><ele>483.0</ele><time>2026-04-04T12:14:10Z</time></trkpt><trkpt lat="42.82928982903425" lon="10.866040286970929"><ele>483.0</ele><time>2026-04-04T12:14:11Z</time></trkpt><trkpt lat="42.829289416551326" lon="10.866221496474912"><ele>483.0</ele><time>2026-04-04T12:14:12Z</time></trkpt><trkpt lat="42.829311685122896" lon="10.866397046114288"><ele>483.0</ele><time>2026-04-04T12:14:13Z</time></trkpt><trkpt lat="42.8293475618963" lon="10.866568204772166"><ele>483.0</ele><time>2026-04-04T12:14:14Z</time></trkpt><trkpt lat="42.82935830543752" lon="10.866720197077353"><ele>483.0</ele><time>2026-04-04T12:14:15Z</time></trkpt><trkpt lat="42.82936343389273" lon="10.86687604044501"><ele>483.0</ele><time>2026-04-04T12:14:16Z</time></trkpt><trkpt lat="42.82936977648876" lon="10.867021683181715"><ele>482.99999999999994</ele><time>2026-04-04T12:14:17Z</time></trkpt><trkpt lat="42.829367054392385" lon="10.867164077486715"><ele>482.99999999999994</ele><time>2026-04-04T12:14:18Z</time></trkpt><trkpt lat="42.82936371178689" lon="10.867299148809682"><ele>483.0</ele><time>2026-04-04T12:14:19Z</time></trkpt><trkpt lat="42.82935405331167" lon="10.867432853438492"><ele>483.0</ele><time>2026-04-04T12:14:20Z</time></trkpt><trkpt lat="42.829346545202476" lon="10.867562718674764"><ele>485.59999999999997</ele><time>2026-04-04T12:14:21Z</time></trkpt><trkpt lat="42.82933909829221" lon="10.86771223335928"><ele>488.19999999999993</ele><time>2026-04-04T12:14:22Z</time></trkpt><trkpt lat="42.82933430510205" lon="10.867855856440311"><ele>490.8</ele><time>2026-04-04T12:14:23Z</time></trkpt><trkpt lat="42.82932814102233" lon="10.86801063566909"><ele>493.4</ele><time>2026-04-04T12:14:24Z</time></trkpt><trkpt lat="42.82932326917457" lon="10.868163358207651"><ele>496.0</ele><time>2026-04-04T12:14:25Z</time></trkpt><trkpt lat="42.82931895305739" lon="10.868315898583143"><ele>499.25</ele><time>2026-04-04T12:14:26Z</time></trkpt><trkpt lat="42.8293287401748" lon="10.868462801514223"><ele>502.5</ele><time>2026-04-04T12:14:27Z</time></trkpt><trkpt lat="42.82934110662796" lon="10.868627796050939"><ele>505.75</ele><time>2026-04-04T12:14:28Z</time></trkpt><trkpt lat="42.82936427114752" lon="10.868795779528924"><ele>509.0</ele><time>2026-04-04T12:14:29Z</time></trkpt><trkpt lat="42.82940479628024" lon="10.868959710793996"><ele>509.0</ele><time>2026-04-04T12:14:30Z</time></trkpt><trkpt lat="42.82944923627456" lon="10.869129483888779"><ele>509.0</ele><time>2026-04-04T12:14:31Z</time></trkpt><trkpt lat="42.82948763543532" lon="10.86928839777939"><ele>509.0</ele><time>2026-04-04T12:14:32Z</time></trkpt><trkpt lat="42.829521968944235" lon="10.869441541209804"><ele>509.0</ele><time>2026-04-04T12:14:32.999Z</time></trkpt><trkpt lat="42.829549757516126" lon="10.869599836428492"><ele>513.0</ele><time>2026-04-04T12:14:33.999Z</time></trkpt><trkpt lat="42.82958515001366" lon="10.869747775075007"><ele>517.0</ele><time>2026-04-04T12:14:34.999Z</time></trkpt><trkpt lat="42.829622046104944" lon="10.869898149923381"><ele>521.0</ele><time>2026-04-04T12:14:35.999Z</time></trkpt><trkpt lat="42.829664263011374" lon="10.870060105797581"><ele>525.0</ele><time>2026-04-04T12:14:36.999Z</time></trkpt><trkpt lat="42.82970660387471" lon="10.870211747462669"><ele>527.8</ele><time>2026-04-04T12:14:37.999Z</time></trkpt><trkpt lat="42.82975154247507" lon="10.870345210065265"><ele>530.6</ele><time>2026-04-04T12:14:38.999Z</time></trkpt><trkpt lat="42.829780465747675" lon="10.870486897621994"><ele>533.4</ele><time>2026-04-04T12:14:39.999Z</time></trkpt><trkpt lat="42.82981514952515" lon="10.870625449467129"><ele>536.2</ele><time>2026-04-04T12:14:40.999Z</time></trkpt><trkpt lat="42.829849296519555" lon="10.870758097117024"><ele>539.0</ele><time>2026-04-04T12:14:41.999Z</time></trkpt><trkpt lat="42.82988439930502" lon="10.870882538094444"><ele>540.4</ele><time>2026-04-04T12:14:42.999Z</time></trkpt><trkpt lat="42.8299165822953" lon="10.871012640664174"><ele>541.8</ele><time>2026-04-04T12:14:43.999Z</time></trkpt><trkpt lat="42.82994450331536" lon="10.871150299713035"><ele>543.2</ele><time>2026-04-04T12:14:44.999Z</time></trkpt><trkpt lat="42.8299591102007" lon="10.871285202749426"><ele>544.6</ele><time>2026-04-04T12:14:45.999Z</time></trkpt><trkpt lat="42.82996675784345" lon="10.871412335352469"><ele>546.0</ele><time>2026-04-04T12:14:46.999Z</time></trkpt><trkpt lat="42.82995960051734" lon="10.871540785569007"><ele>546.0</ele><time>2026-04-04T12:14:47.999Z</time></trkpt><trkpt lat="42.82992142587069" lon="10.87167022854858"><ele>546.0</ele><time>2026-04-04T12:14:48.999Z</time></trkpt><trkpt lat="42.82985516292419" lon="10.87181012737546"><ele>546.0</ele><time>2026-04-04T12:14:49.999Z</time></trkpt><trkpt lat="42.829781950104945" lon="10.871938108146493"><ele>546.0</ele><time>2026-04-04T12:14:50.999Z</time></trkpt><trkpt lat="42.829732450735094" lon="10.872074530376961"><ele>545.75</ele><time>2026-04-04T12:14:51.999Z</time></trkpt><trkpt lat="42.82968376704854" lon="10.872214637765778"><ele>545.5</ele><time>2026-04-04T12:14:52.999Z</time></trkpt><trkpt lat="42.82965045050172" lon="10.872390070460737"><ele>545.25</ele><time>2026-04-04T12:14:53.999Z</time></trkpt><trkpt lat="42.82963331345498" lon="10.872533430425637"><ele>545.0</ele><time>2026-04-04T12:14:54.999Z</time></trkpt><trkpt lat="42.829625682418644" lon="10.872671452121"><ele>544.4</ele><time>2026-04-04T12:14:55.999Z</time></trkpt><trkpt lat="42.829599941292415" lon="10.872810719054817"><ele>543.8</ele><time>2026-04-04T12:14:56.999Z</time></trkpt><trkpt lat="42.82953360285076" lon="10.872931888624668"><ele>543.2</ele><time>2026-04-04T12:14:57.999Z</time></trkpt><trkpt lat="42.829459032235576" lon="10.873021568043429"><ele>542.6</ele><time>2026-04-04T12:14:58.999Z</time></trkpt><trkpt lat="42.829433401164614" lon="10.873128816375523"><ele>542.0</ele><time>2026-04-04T12:14:59.999Z</time></trkpt><trkpt lat="42.829455832549236" lon="10.873304254023914"><ele>542.0</ele><time>2026-04-04T12:15:01.999Z</time></trkpt><trkpt lat="42.8294630228791" lon="10.873400933905076"><ele>542.0</ele><time>2026-04-04T12:15:02.999Z</time></trkpt><trkpt lat="42.8294715805889" lon="10.873488731773227"><ele>542.0</ele><time>2026-04-04T12:15:03.999Z</time></trkpt><trkpt lat="42.82947278876602" lon="10.873652816896403"><ele>542.0</ele><time>2026-04-04T12:15:05.999Z</time></trkpt><trkpt lat="42.82945876621663" lon="10.873747745706115"><ele>542.0</ele><time>2026-04-04T12:15:07.999Z</time></trkpt><trkpt lat="42.82943151109545" lon="10.873833130540714"><ele>542.0</ele><time>2026-04-04T12:15:57.999Z</time></trkpt><trkpt lat="42.82939175856641" lon="10.873923854292547"><ele>542.0</ele><time>2026-04-04T12:16:40Z</time></trkpt><trkpt lat="42.82935788065783" lon="10.874004812022203"><ele>542.0</ele><time>2026-04-04T12:16:41Z</time></trkpt><trkpt lat="42.8293355719401" lon="10.874111814523"><ele>542.0</ele><time>2026-04-04T12:16:42Z</time></trkpt><trkpt lat="42.82928023215765" lon="10.874211245363657"><ele>542.0</ele><time>2026-04-04T12:16:43Z</time></trkpt><trkpt lat="42.82923761563536" lon="10.874295265211739"><ele>542.0</ele><time>2026-04-04T12:16:44Z</time></trkpt><trkpt lat="42.82919621717944" lon="10.87446668746373"><ele>542.0</ele><time>2026-04-04T12:16:45Z</time></trkpt><trkpt lat="42.829156145894984" lon="10.874632529125808"><ele>543.0</ele><time>2026-04-04T12:16:46Z</time></trkpt><trkpt lat="42.82910708418517" lon="10.874761881394372"><ele>544.0</ele><time>2026-04-04T12:16:47Z</time></trkpt><trkpt lat="42.82906234410786" lon="10.8748481758381"><ele>545.0</ele><time>2026-04-04T12:16:48Z</time></trkpt><trkpt lat="42.82900990952661" lon="10.874963505779535"><ele>546.0</ele><time>2026-04-04T12:16:49Z</time></trkpt><trkpt lat="42.8288992564255" lon="10.87509327917384"><ele>547.0</ele><time>2026-04-04T12:16:50Z</time></trkpt><trkpt lat="42.828838769541214" lon="10.875218231878701"><ele>550.25</ele><time>2026-04-04T12:16:51Z</time></trkpt><trkpt lat="42.82878297301206" lon="10.875342686632097"><ele>553.5</ele><time>2026-04-04T12:16:52Z</time></trkpt><trkpt lat="42.82872412818589" lon="10.875491774853327"><ele>556.75</ele><time>2026-04-04T12:16:53Z</time></trkpt><trkpt lat="42.828657495692774" lon="10.875631959804592"><ele>560.0</ele><time>2026-04-04T12:16:53.999Z</time></trkpt><trkpt lat="42.828575032198486" lon="10.875787268640767"><ele>560.0</ele><time>2026-04-04T12:16:54.999Z</time></trkpt><trkpt lat="42.82850182011976" lon="10.87592480780856"><ele>560.0</ele><time>2026-04-04T12:16:55.999Z</time></trkpt><trkpt lat="42.8284381795131" lon="10.8760437345226"><ele>560.0</ele><time>2026-04-04T12:16:56.999Z</time></trkpt><trkpt lat="42.828387833238786" lon="10.876156484498082"><ele>560.0</ele><time>2026-04-04T12:16:57.999Z</time></trkpt><trkpt lat="42.828357769536574" lon="10.876256604029255"><ele>560.0</ele><time>2026-04-04T12:16:58.999Z</time></trkpt><trkpt lat="42.828354386529156" lon="10.876368313650401"><ele>555.6</ele><time>2026-04-04T12:16:59.999Z</time></trkpt><trkpt lat="42.82836188381477" lon="10.876500711612138"><ele>551.2</ele><time>2026-04-04T12:17:00.999Z</time></trkpt><trkpt lat="42.82837619379868" lon="10.876643673089006"><ele>546.8</ele><time>2026-04-04T12:17:01.999Z</time></trkpt><trkpt lat="42.82838496501202" lon="10.876771799891857"><ele>542.4</ele><time>2026-04-04T12:17:02.999Z</time></trkpt><trkpt lat="42.82838774290396" lon="10.876898197466875"><ele>538.0</ele><time>2026-04-04T12:17:03.999Z</time></trkpt><trkpt lat="42.82837358151915" lon="10.87702535001327"><ele>538.0</ele><time>2026-04-04T12:17:04.999Z</time></trkpt><trkpt lat="42.82835127879385" lon="10.877188710279583"><ele>538.0</ele><time>2026-04-04T12:17:05.999Z</time></trkpt><trkpt lat="42.8283037717866" lon="10.877338851756368"><ele>538.0</ele><time>2026-04-04T12:17:06.999Z</time></trkpt><trkpt lat="42.82826304327541" lon="10.877495437849262"><ele>538.0</ele><time>2026-04-04T12:17:07.999Z</time></trkpt><trkpt lat="42.82823734880313" lon="10.877634881576675"><ele>541.3333333333334</ele><time>2026-04-04T12:17:08.999Z</time></trkpt><trkpt lat="42.828207212838755" lon="10.877756479177608"><ele>544.6666666666667</ele><time>2026-04-04T12:17:09.999Z</time></trkpt><trkpt lat="42.82815586037762" lon="10.877842857313672"><ele>548.0</ele><time>2026-04-04T12:17:10.999Z</time></trkpt><trkpt lat="42.82809525545943" lon="10.877877836401739"><ele>551.3333333333334</ele><time>2026-04-04T12:17:11.999Z</time></trkpt><trkpt lat="42.82801806941243" lon="10.877841334174562"><ele>554.6666666666666</ele><time>2026-04-04T12:17:12.999Z</time></trkpt><trkpt lat="42.82797353865878" lon="10.877778720097314"><ele>558.0</ele><time>2026-04-04T12:17:13.999Z</time></trkpt><trkpt lat="42.82790441900512" lon="10.87771825432712"><ele>558.0</ele><time>2026-04-04T12:17:14.999Z</time></trkpt><trkpt lat="42.827844359645816" lon="10.877642937683687"><ele>558.0</ele><time>2026-04-04T12:17:15.999Z</time></trkpt><trkpt lat="42.82774832330017" lon="10.877538290251914"><ele>558.0</ele><time>2026-04-04T12:17:16.999Z</time></trkpt><trkpt lat="42.82760364874911" lon="10.877541125493968"><ele>558.0</ele><time>2026-04-04T12:17:17.999Z</time></trkpt><trkpt lat="42.82749277569128" lon="10.877478717823415"><ele>551.0</ele><time>2026-04-04T12:17:18.999Z</time></trkpt><trkpt lat="42.827402820920774" lon="10.877404503284737"><ele>544.0</ele><time>2026-04-04T12:17:19.999Z</time></trkpt><trkpt lat="42.82732775365036" lon="10.877356025963703"><ele>537.0</ele><time>2026-04-04T12:17:20.999Z</time></trkpt><trkpt lat="42.827246515497364" lon="10.877327424473233"><ele>530.0</ele><time>2026-04-04T12:17:21.999Z</time></trkpt><trkpt lat="42.82712152216397" lon="10.877294311185201"><ele>523.0</ele><time>2026-04-04T12:17:22.999Z</time></trkpt><trkpt lat="42.82702380222114" lon="10.877253510624758"><ele>523.0</ele><time>2026-04-04T12:17:23.999Z</time></trkpt><trkpt lat="42.82693125840191" lon="10.877207603328392"><ele>523.0</ele><time>2026-04-04T12:17:24.999Z</time></trkpt><trkpt lat="42.826840709812956" lon="10.877163843576534"><ele>523.0</ele><time>2026-04-04T12:17:25.999Z</time></trkpt><trkpt lat="42.8267499105938" lon="10.877091324239741"><ele>523.0</ele><time>2026-04-04T12:17:26.999Z</time></trkpt><trkpt lat="42.82665377107112" lon="10.87699587607953"><ele>523.0</ele><time>2026-04-04T12:17:27.999Z</time></trkpt><trkpt lat="42.82656074948897" lon="10.876931719426489"><ele>522.1666666666667</ele><time>2026-04-04T12:17:28.999Z</time></trkpt><trkpt lat="42.82647850212629" lon="10.87689007810544"><ele>521.3333333333334</ele><time>2026-04-04T12:17:29.999Z</time></trkpt><trkpt lat="42.82639651196451" lon="10.876864226765411"><ele>520.5</ele><time>2026-04-04T12:17:30.999Z</time></trkpt><trkpt lat="42.826313974848986" lon="10.876869259267234"><ele>519.6666666666666</ele><time>2026-04-04T12:17:31.999Z</time></trkpt><trkpt lat="42.82622868618722" lon="10.8769008798555"><ele>518.8333333333333</ele><time>2026-04-04T12:17:32.999Z</time></trkpt><trkpt lat="42.82615928256173" lon="10.876944949943198"><ele>518.0</ele><time>2026-04-04T12:17:33.999Z</time></trkpt><trkpt lat="42.826099248141915" lon="10.876978806651735"><ele>518.0</ele><time>2026-04-04T12:17:34.999Z</time></trkpt><trkpt lat="42.826004798860886" lon="10.877057079972813"><ele>518.0</ele><time>2026-04-04T12:17:36.999Z</time></trkpt><trkpt lat="42.82595428789084" lon="10.877121340975336"><ele>518.0</ele><time>2026-04-04T12:17:37.999Z</time></trkpt><trkpt lat="42.825925492853024" lon="10.877275157388013"><ele>518.0</ele><time>2026-04-04T12:17:39.999Z</time></trkpt><trkpt lat="42.82593913406707" lon="10.87736410802397"><ele>518.0</ele><time>2026-04-04T12:17:40.999Z</time></trkpt><trkpt lat="42.82591162824644" lon="10.877497969458906"><ele>513.0</ele><time>2026-04-04T12:17:42.999Z</time></trkpt><trkpt lat="42.82582050822293" lon="10.877495181800958"><ele>507.99999999999994</ele><time>2026-04-04T12:17:45.999Z</time></trkpt><trkpt lat="42.825736612640775" lon="10.877372743241894"><ele>502.99999999999994</ele><time>2026-04-04T12:17:47.999Z</time></trkpt><trkpt lat="42.82568503636621" lon="10.877276363002382"><ele>498.0</ele><time>2026-04-04T12:17:48.999Z</time></trkpt><trkpt lat="42.82560418583642" lon="10.877178347091279"><ele>493.0</ele><time>2026-04-04T12:17:49.999Z</time></trkpt><trkpt lat="42.82549892877832" lon="10.877036106206194"><ele>493.0</ele><time>2026-04-04T12:17:50.999Z</time></trkpt><trkpt lat="42.825394456978195" lon="10.876871719207282"><ele>493.0</ele><time>2026-04-04T12:17:51.999Z</time></trkpt><trkpt lat="42.82528932768787" lon="10.876721346906553"><ele>493.0</ele><time>2026-04-04T12:17:52.999Z</time></trkpt><trkpt lat="42.82519784266974" lon="10.876606178436859"><ele>493.0</ele><time>2026-04-04T12:17:53.999Z</time></trkpt><trkpt lat="42.82515297187152" lon="10.876489863163936"><ele>488.79999999999995</ele><time>2026-04-04T12:17:54.999Z</time></trkpt><trkpt lat="42.82509608497855" lon="10.876420891981848"><ele>484.59999999999997</ele><time>2026-04-04T12:17:55.999Z</time></trkpt><trkpt lat="42.825041079907905" lon="10.876347151654635"><ele>480.40000000000003</ele><time>2026-04-04T12:17:56.999Z</time></trkpt><trkpt lat="42.82497600919117" lon="10.876245803994763"><ele>476.20000000000005</ele><time>2026-04-04T12:17:57.999Z</time></trkpt><trkpt lat="42.824924876982756" lon="10.876128078253574"><ele>472.0</ele><time>2026-04-04T12:17:58.999Z</time></trkpt><trkpt lat="42.82485452380119" lon="10.876025753975847"><ele>471.75</ele><time>2026-04-04T12:17:59.999Z</time></trkpt><trkpt lat="42.82475886345228" lon="10.875907366202831"><ele>471.5</ele><time>2026-04-04T12:18:00.999Z</time></trkpt><trkpt lat="42.824669057925746" lon="10.875787771712076"><ele>471.25</ele><time>2026-04-04T12:18:01.999Z</time></trkpt><trkpt lat="42.82458651730495" lon="10.875678817732778"><ele>471.0</ele><time>2026-04-04T12:18:02.999Z</time></trkpt><trkpt lat="42.824506008364004" lon="10.875570357023513"><ele>471.0</ele><time>2026-04-04T12:18:03.999Z</time></trkpt><trkpt lat="42.8244287957482" lon="10.875477418410592"><ele>471.0</ele><time>2026-04-04T12:18:04.999Z</time></trkpt><trkpt lat="42.82436084927551" lon="10.875388273697723"><ele>471.0</ele><time>2026-04-04T12:18:06Z</time></trkpt><trkpt lat="42.824304997765964" lon="10.875304359123763"><ele>471.0</ele><time>2026-04-04T12:18:07Z</time></trkpt><trkpt lat="42.82425508247978" lon="10.875234469266733"><ele>471.0</ele><time>2026-04-04T12:18:08Z</time></trkpt><trkpt lat="42.82419963498062" lon="10.875187280220699"><ele>471.0</ele><time>2026-04-04T12:18:09Z</time></trkpt><trkpt lat="42.82410710293975" lon="10.875166171371855"><ele>468.4</ele><time>2026-04-04T12:18:11Z</time></trkpt><trkpt lat="42.82403472107502" lon="10.875259705804192"><ele>465.8</ele><time>2026-04-04T12:18:13Z</time></trkpt><trkpt lat="42.823986603447636" lon="10.875386320506943"><ele>463.19999999999993</ele><time>2026-04-04T12:18:15Z</time></trkpt><trkpt lat="42.82401630180047" lon="10.87549542487977"><ele>460.59999999999997</ele><time>2026-04-04T12:18:16Z</time></trkpt><trkpt lat="42.824044913282314" lon="10.875591735811675"><ele>458.0</ele><time>2026-04-04T12:18:17Z</time></trkpt><trkpt lat="42.82409535577509" lon="10.875705604996096"><ele>458.0</ele><time>2026-04-04T12:18:18Z</time></trkpt><trkpt lat="42.82414496191024" lon="10.875803086135715"><ele>457.99999999999994</ele><time>2026-04-04T12:18:19Z</time></trkpt><trkpt lat="42.824205606796475" lon="10.875907703529737"><ele>457.99999999999994</ele><time>2026-04-04T12:18:20Z</time></trkpt><trkpt lat="42.82428933715096" lon="10.876027231887283"><ele>458.0</ele><time>2026-04-04T12:18:21Z</time></trkpt><trkpt lat="42.82435671149374" lon="10.876171019083653"><ele>458.0</ele><time>2026-04-04T12:18:22Z</time></trkpt><trkpt lat="42.82444057674803" lon="10.876322751215282"><ele>457.3333333333333</ele><time>2026-04-04T12:18:23Z</time></trkpt><trkpt lat="42.82453091554527" lon="10.876496027682373"><ele>456.66666666666663</ele><time>2026-04-04T12:18:24Z</time></trkpt><trkpt lat="42.824601970301956" lon="10.876709450352964"><ele>456.0</ele><time>2026-04-04T12:18:25Z</time></trkpt><trkpt lat="42.82467567274783" lon="10.876890983507161"><ele>456.0</ele><time>2026-04-04T12:18:26Z</time></trkpt><trkpt lat="42.8247525779213" lon="10.87702257409789"><ele>456.0</ele><time>2026-04-04T12:18:27Z</time></trkpt><trkpt lat="42.82484577789172" lon="10.8771412276742"><ele>456.0</ele><time>2026-04-04T12:18:28Z</time></trkpt><trkpt lat="42.82495678052806" lon="10.877258829741013"><ele>456.0</ele><time>2026-04-04T12:18:29Z</time></trkpt><trkpt lat="42.82507890524818" lon="10.877369511966867"><ele>463.4</ele><time>2026-04-04T12:18:30Z</time></trkpt><trkpt lat="42.82517733601966" lon="10.877473121847757"><ele>470.8</ele><time>2026-04-04T12:18:31Z</time></trkpt><trkpt lat="42.82521942556623" lon="10.877584654074719"><ele>478.19999999999993</ele><time>2026-04-04T12:18:32Z</time></trkpt><trkpt lat="42.82523335771085" lon="10.877715368457585"><ele>485.59999999999997</ele><time>2026-04-04T12:18:33Z</time></trkpt><trkpt lat="42.82523226397918" lon="10.877855241767435"><ele>493.0</ele><time>2026-04-04T12:18:34Z</time></trkpt><trkpt lat="42.825237005767605" lon="10.87801967876479"><ele>493.0</ele><time>2026-04-04T12:18:35Z</time></trkpt><trkpt lat="42.82524640781077" lon="10.878170908865524"><ele>492.99999999999994</ele><time>2026-04-04T12:18:36Z</time></trkpt><trkpt lat="42.825240052689814" lon="10.87831802665517"><ele>492.99999999999994</ele><time>2026-04-04T12:18:37Z</time></trkpt><trkpt lat="42.82519047018935" lon="10.878445116952992"><ele>493.0</ele><time>2026-04-04T12:18:38Z</time></trkpt><trkpt lat="42.82510082459516" lon="10.878555038876957"><ele>493.0</ele><time>2026-04-04T12:18:39Z</time></trkpt><trkpt lat="42.82500645969256" lon="10.878686887858356"><ele>485.2</ele><time>2026-04-04T12:18:40Z</time></trkpt><trkpt lat="42.82493086351955" lon="10.878800585219635"><ele>477.4</ele><time>2026-04-04T12:18:41Z</time></trkpt><trkpt lat="42.82487805351489" lon="10.87889875535252"><ele>469.59999999999997</ele><time>2026-04-04T12:18:42Z</time></trkpt><trkpt lat="42.82488437196753" lon="10.87909790606271"><ele>461.79999999999995</ele><time>2026-04-04T12:18:44Z</time></trkpt><trkpt lat="42.824906920547924" lon="10.879207115147052"><ele>454.0</ele><time>2026-04-04T12:18:45Z</time></trkpt><trkpt lat="42.82493222231883" lon="10.879309047592475"><ele>451.4</ele><time>2026-04-04T12:18:46Z</time></trkpt><trkpt lat="42.82498790319753" lon="10.879386137991155"><ele>448.79999999999995</ele><time>2026-04-04T12:18:47Z</time></trkpt><trkpt lat="42.82503497419087" lon="10.879483996322332"><ele>446.20000000000005</ele><time>2026-04-04T12:18:48Z</time></trkpt><trkpt lat="42.825049140566314" lon="10.879600591113912"><ele>443.6</ele><time>2026-04-04T12:18:49Z</time></trkpt><trkpt lat="42.8250815847081" lon="10.8797666949766"><ele>441.0</ele><time>2026-04-04T12:18:50Z</time></trkpt><trkpt lat="42.8250881721485" lon="10.879937188844444"><ele>441.0</ele><time>2026-04-04T12:18:51Z</time></trkpt><trkpt lat="42.825112094419666" lon="10.880086974940955"><ele>441.0</ele><time>2026-04-04T12:18:52Z</time></trkpt><trkpt lat="42.82515183094422" lon="10.880218882253935"><ele>441.0</ele><time>2026-04-04T12:18:53Z</time></trkpt><trkpt lat="42.82520319438497" lon="10.88034416766289"><ele>441.0</ele><time>2026-04-04T12:18:54Z</time></trkpt><trkpt lat="42.82524865719097" lon="10.880460741694378"><ele>441.0</ele><time>2026-04-04T12:18:55Z</time></trkpt><trkpt lat="42.82527259511822" lon="10.880589287061815"><ele>446.0</ele><time>2026-04-04T12:18:56Z</time></trkpt><trkpt lat="42.82526971956474" lon="10.880722081293381"><ele>451.0</ele><time>2026-04-04T12:18:57Z</time></trkpt><trkpt lat="42.82528572579225" lon="10.880834299504519"><ele>456.0</ele><time>2026-04-04T12:18:58Z</time></trkpt><trkpt lat="42.82536948441627" lon="10.88097619670465"><ele>461.0</ele><time>2026-04-04T12:19:00Z</time></trkpt><trkpt lat="42.825434937198516" lon="10.881051763765061"><ele>466.0</ele><time>2026-04-04T12:19:01Z</time></trkpt><trkpt lat="42.82548459725362" lon="10.881131378881085"><ele>466.6</ele><time>2026-04-04T12:19:02Z</time></trkpt><trkpt lat="42.82542997928294" lon="10.8812437807743"><ele>467.20000000000005</ele><time>2026-04-04T12:19:04Z</time></trkpt><trkpt lat="42.82535982662223" lon="10.881311436451972"><ele>467.79999999999995</ele><time>2026-04-04T12:19:04.999Z</time></trkpt><trkpt lat="42.825257724643855" lon="10.881355265648544"><ele>468.4</ele><time>2026-04-04T12:19:05.999Z</time></trkpt><trkpt lat="42.82520978403299" lon="10.88141548614832"><ele>469.0</ele><time>2026-04-04T12:19:06.999Z</time></trkpt><trkpt lat="42.82520892008334" lon="10.881592759788218"><ele>469.0</ele><time>2026-04-04T12:19:08.999Z</time></trkpt><trkpt lat="42.82522447611498" lon="10.881684315454475"><ele>469.0</ele><time>2026-04-04T12:19:09.999Z</time></trkpt><trkpt lat="42.825241203751794" lon="10.88179357224263"><ele>469.0</ele><time>2026-04-04T12:19:10.999Z</time></trkpt><trkpt lat="42.82519279283582" lon="10.881932911849226"><ele>469.0</ele><time>2026-04-04T12:19:12.999Z</time></trkpt><trkpt lat="42.82511418456556" lon="10.881989755486735"><ele>469.0</ele><time>2026-04-04T12:19:14.999Z</time></trkpt><trkpt lat="42.82501667798717" lon="10.881983304430777"><ele>465.0</ele><time>2026-04-04T12:19:15.999Z</time></trkpt><trkpt lat="42.8249267044817" lon="10.881999753347651"><ele>461.0</ele><time>2026-04-04T12:19:16.999Z</time></trkpt><trkpt lat="42.82482086801053" lon="10.882030128127566"><ele>457.0</ele><time>2026-04-04T12:19:17.999Z</time></trkpt><trkpt lat="42.824696243433245" lon="10.882073481976159"><ele>453.0</ele><time>2026-04-04T12:19:18.999Z</time></trkpt><trkpt lat="42.82457018828565" lon="10.882128863470154"><ele>453.0</ele><time>2026-04-04T12:19:19.999Z</time></trkpt><trkpt lat="42.82448052864033" lon="10.882199387435293"><ele>452.99999999999994</ele><time>2026-04-04T12:19:20.999Z</time></trkpt><trkpt lat="42.82441782341452" lon="10.882294677244483"><ele>452.99999999999994</ele><time>2026-04-04T12:19:21.999Z</time></trkpt><trkpt lat="42.8243297659208" lon="10.882399401461093"><ele>453.0</ele><time>2026-04-04T12:19:22.999Z</time></trkpt><trkpt lat="42.82428117862275" lon="10.882534255347368"><ele>453.0</ele><time>2026-04-04T12:19:23.999Z</time></trkpt><trkpt lat="42.82425806055291" lon="10.882673896681588"><ele>453.2</ele><time>2026-04-04T12:19:24.999Z</time></trkpt><trkpt lat="42.82419976434042" lon="10.882771827758818"><ele>453.4</ele><time>2026-04-04T12:19:25.999Z</time></trkpt><trkpt lat="42.824128060812654" lon="10.882827438719213"><ele>453.59999999999997</ele><time>2026-04-04T12:19:26.999Z</time></trkpt><trkpt lat="42.82403334479803" lon="10.882902525090936"><ele>453.79999999999995</ele><time>2026-04-04T12:19:27.999Z</time></trkpt><trkpt lat="42.82392111819541" lon="10.882953911555413"><ele>454.0</ele><time>2026-04-04T12:19:28.999Z</time></trkpt><trkpt lat="42.823826915718506" lon="10.883019090931677"><ele>454.00000000000006</ele><time>2026-04-04T12:19:29.999Z</time></trkpt><trkpt lat="42.82375630132906" lon="10.883090082743374"><ele>454.0</ele><time>2026-04-04T12:19:30.999Z</time></trkpt><trkpt lat="42.82367088579309" lon="10.883129135105007"><ele>454.0</ele><time>2026-04-04T12:19:31.999Z</time></trkpt><trkpt lat="42.82358524481322" lon="10.883113101952203"><ele>454.0</ele><time>2026-04-04T12:19:32.999Z</time></trkpt><trkpt lat="42.82350514401829" lon="10.8830834715185"><ele>454.00000000000006</ele><time>2026-04-04T12:19:33.999Z</time></trkpt><trkpt lat="42.82340904619663" lon="10.88304269799027"><ele>454.0</ele><time>2026-04-04T12:19:34.999Z</time></trkpt><trkpt lat="42.82327896051719" lon="10.883040933905672"><ele>451.75</ele><time>2026-04-04T12:19:35.999Z</time></trkpt><trkpt lat="42.82315442409234" lon="10.883038336168232"><ele>449.5</ele><time>2026-04-04T12:19:36.999Z</time></trkpt><trkpt lat="42.82302401526759" lon="10.883044693642363"><ele>447.25</ele><time>2026-04-04T12:19:37.999Z</time></trkpt><trkpt lat="42.82291985126397" lon="10.883042748532603"><ele>445.0</ele><time>2026-04-04T12:19:38.999Z</time></trkpt><trkpt lat="42.82282099835297" lon="10.883008837011213"><ele>445.0</ele><time>2026-04-04T12:19:39.999Z</time></trkpt><trkpt lat="42.82273625373613" lon="10.882972161632084"><ele>445.0</ele><time>2026-04-04T12:19:40.999Z</time></trkpt><trkpt lat="42.82266971172214" lon="10.882934022379986"><ele>445.0</ele><time>2026-04-04T12:19:41.999Z</time></trkpt><trkpt lat="42.8225615487403" lon="10.882941269158302"><ele>445.0</ele><time>2026-04-04T12:19:43.999Z</time></trkpt><trkpt lat="42.82250108663548" lon="10.883070709564915"><ele>445.0</ele><time>2026-04-04T12:19:45.999Z</time></trkpt><trkpt lat="42.8225096757038" lon="10.88322890121194"><ele>444.6</ele><time>2026-04-04T12:19:47.999Z</time></trkpt><trkpt lat="42.82251172294983" lon="10.883358149907647"><ele>444.2</ele><time>2026-04-04T12:19:48.999Z</time></trkpt><trkpt lat="42.822513804755275" lon="10.883505859769702"><ele>443.79999999999995</ele><time>2026-04-04T12:19:49.999Z</time></trkpt><trkpt lat="42.822513587958326" lon="10.883638859632143"><ele>443.4</ele><time>2026-04-04T12:19:50.999Z</time></trkpt><trkpt lat="42.822494991977265" lon="10.883752542066503"><ele>443.0</ele><time>2026-04-04T12:19:51.999Z</time></trkpt><trkpt lat="42.82245241900961" lon="10.883831709436937"><ele>443.0</ele><time>2026-04-04T12:19:52.999Z</time></trkpt><trkpt lat="42.822368308832154" lon="10.88390757378698"><ele>442.99999999999994</ele><time>2026-04-04T12:19:53.999Z</time></trkpt><trkpt lat="42.822257609884616" lon="10.883958575412189"><ele>442.99999999999994</ele><time>2026-04-04T12:19:54.999Z</time></trkpt><trkpt lat="42.82215439197768" lon="10.883982663029064"><ele>443.0</ele><time>2026-04-04T12:19:55.999Z</time></trkpt><trkpt lat="42.82203664064664" lon="10.883996187841024"><ele>443.0</ele><time>2026-04-04T12:19:56.999Z</time></trkpt><trkpt lat="42.82191747002065" lon="10.884020460797807"><ele>437.25</ele><time>2026-04-04T12:19:57.999Z</time></trkpt><trkpt lat="42.82181412950617" lon="10.884043733441468"><ele>431.5</ele><time>2026-04-04T12:19:58.999Z</time></trkpt><trkpt lat="42.82169913640755" lon="10.88407155101056"><ele>425.75</ele><time>2026-04-04T12:19:59.999Z</time></trkpt><trkpt lat="42.82158241693921" lon="10.884118131034738"><ele>420.0</ele><time>2026-04-04T12:20:00.999Z</time></trkpt><trkpt lat="42.82145948059268" lon="10.884167688372797"><ele>420.0</ele><time>2026-04-04T12:20:01.999Z</time></trkpt><trkpt lat="42.821353496308184" lon="10.88418882265482"><ele>420.0</ele><time>2026-04-04T12:20:02.999Z</time></trkpt><trkpt lat="42.82126761000257" lon="10.88421135846696"><ele>420.0</ele><time>2026-04-04T12:20:03.999Z</time></trkpt><trkpt lat="42.82119798801889" lon="10.884239301630092"><ele>420.0</ele><time>2026-04-04T12:20:04.999Z</time></trkpt><trkpt lat="42.821090321193495" lon="10.884312296230293"><ele>420.0</ele><time>2026-04-04T12:20:06.999Z</time></trkpt><trkpt lat="42.82102077802136" lon="10.88438255949525"><ele>422.8333333333333</ele><time>2026-04-04T12:20:07.999Z</time></trkpt><trkpt lat="42.820992867795574" lon="10.884468991438881"><ele>425.66666666666663</ele><time>2026-04-04T12:20:08.999Z</time></trkpt><trkpt lat="42.82095160460316" lon="10.884573630673573"><ele>428.5</ele><time>2026-04-04T12:20:09.999Z</time></trkpt><trkpt lat="42.820902651799585" lon="10.884643177420932"><ele>431.3333333333333</ele><time>2026-04-04T12:20:10.999Z</time></trkpt><trkpt lat="42.82081773023501" lon="10.884686737105778"><ele>434.16666666666663</ele><time>2026-04-04T12:20:13Z</time></trkpt><trkpt lat="42.820754960564216" lon="10.88467797464765"><ele>437.0</ele><time>2026-04-04T12:20:15Z</time></trkpt><trkpt lat="42.820691913587495" lon="10.884609709919504"><ele>437.0</ele><time>2026-04-04T12:20:18Z</time></trkpt><trkpt lat="42.820635641153" lon="10.884515820527884"><ele>437.00000000000006</ele><time>2026-04-04T12:20:21Z</time></trkpt><trkpt lat="42.82056722386627" lon="10.884388607716524"><ele>437.00000000000006</ele><time>2026-04-04T12:20:23Z</time></trkpt><trkpt lat="42.82051025923917" lon="10.884326370311136"><ele>437.0</ele><time>2026-04-04T12:20:24Z</time></trkpt><trkpt lat="42.820430617034226" lon="10.88425172852377"><ele>437.0</ele><time>2026-04-04T12:20:25Z</time></trkpt><trkpt lat="42.820347326433875" lon="10.8841821704429"><ele>431.8</ele><time>2026-04-04T12:20:26Z</time></trkpt><trkpt lat="42.82026390495235" lon="10.88412683991326"><ele>426.6</ele><time>2026-04-04T12:20:27Z</time></trkpt><trkpt lat="42.82017339335644" lon="10.884082790345769"><ele>421.40000000000003</ele><time>2026-04-04T12:20:28Z</time></trkpt><trkpt lat="42.82007392767505" lon="10.884051593069023"><ele>416.20000000000005</ele><time>2026-04-04T12:20:29Z</time></trkpt><trkpt lat="42.81993311616487" lon="10.88403018463865"><ele>411.0</ele><time>2026-04-04T12:20:30Z</time></trkpt><trkpt lat="42.81980029475345" lon="10.88402671371087"><ele>411.0</ele><time>2026-04-04T12:20:31Z</time></trkpt><trkpt lat="42.819636802710015" lon="10.88398576418641"><ele>411.0</ele><time>2026-04-04T12:20:32Z</time></trkpt><trkpt lat="42.81946280847978" lon="10.883900561459791"><ele>411.0</ele><time>2026-04-04T12:20:33Z</time></trkpt><trkpt lat="42.81926472806449" lon="10.883811521641293"><ele>413.25</ele><time>2026-04-04T12:20:34Z</time></trkpt><trkpt lat="42.81910333869164" lon="10.883741765891255"><ele>415.5</ele><time>2026-04-04T12:20:35Z</time></trkpt><trkpt lat="42.81896892747865" lon="10.883694077701529"><ele>417.75</ele><time>2026-04-04T12:20:36Z</time></trkpt><trkpt lat="42.81887121577107" lon="10.883676258851557"><ele>420.0</ele><time>2026-04-04T12:20:37Z</time></trkpt><trkpt lat="42.81878009098832" lon="10.883693406693318"><ele>420.0</ele><time>2026-04-04T12:20:38Z</time></trkpt><trkpt lat="42.8186849617032" lon="10.88371988996564"><ele>420.0</ele><time>2026-04-04T12:20:39Z</time></trkpt><trkpt lat="42.81862116895271" lon="10.883814471740829"><ele>420.0</ele><time>2026-04-04T12:20:40Z</time></trkpt><trkpt lat="42.81855370871742" lon="10.883898889643797"><ele>420.0</ele><time>2026-04-04T12:20:41Z</time></trkpt><trkpt lat="42.81849492461313" lon="10.88403351487142"><ele>420.0</ele><time>2026-04-04T12:20:42Z</time></trkpt><trkpt lat="42.81845038041897" lon="10.884183628180756"><ele>422.0</ele><time>2026-04-04T12:20:43Z</time></trkpt><trkpt lat="42.81837852130079" lon="10.884351781772567"><ele>424.0</ele><time>2026-04-04T12:20:44Z</time></trkpt><trkpt lat="42.818263692940334" lon="10.88453622324994"><ele>426.0</ele><time>2026-04-04T12:20:45Z</time></trkpt><trkpt lat="42.818181232826724" lon="10.884707951165186"><ele>426.0</ele><time>2026-04-04T12:20:46Z</time></trkpt><trkpt lat="42.81812078618133" lon="10.884892984254424"><ele>426.0</ele><time>2026-04-04T12:20:47Z</time></trkpt><trkpt lat="42.818046514723434" lon="10.885063675058667"><ele>426.0</ele><time>2026-04-04T12:20:48Z</time></trkpt><trkpt lat="42.81796681085372" lon="10.885195943820651"><ele>426.0</ele><time>2026-04-04T12:20:49Z</time></trkpt><trkpt lat="42.81787702190983" lon="10.885287381389801"><ele>428.0</ele><time>2026-04-04T12:20:50Z</time></trkpt><trkpt lat="42.817764381511715" lon="10.885353466172436"><ele>430.0</ele><time>2026-04-04T12:20:51Z</time></trkpt><trkpt lat="42.8176337970407" lon="10.885352812749726"><ele>432.0</ele><time>2026-04-04T12:20:52Z</time></trkpt><trkpt lat="42.817493270509715" lon="10.88532249253522"><ele>434.0</ele><time>2026-04-04T12:20:53Z</time></trkpt><trkpt lat="42.81734624225282" lon="10.885323003116607"><ele>434.0</ele><time>2026-04-04T12:20:54Z</time></trkpt><trkpt lat="42.81721316381843" lon="10.88532052146"><ele>434.0</ele><time>2026-04-04T12:20:55Z</time></trkpt><trkpt lat="42.81707849739046" lon="10.885332350516022"><ele>434.0</ele><time>2026-04-04T12:20:56Z</time></trkpt><trkpt lat="42.816960472207505" lon="10.885348869587794"><ele>434.0</ele><time>2026-04-04T12:20:57Z</time></trkpt><trkpt lat="42.81685715270244" lon="10.885349395623846"><ele>432.4</ele><time>2026-04-04T12:20:58Z</time></trkpt><trkpt lat="42.81676506759815" lon="10.885348902786985"><ele>430.79999999999995</ele><time>2026-04-04T12:20:59Z</time></trkpt><trkpt lat="42.81668450352975" lon="10.885375092258048"><ele>429.20000000000005</ele><time>2026-04-04T12:21:00Z</time></trkpt><trkpt lat="42.816575163047986" lon="10.885445634957785"><ele>427.6</ele><time>2026-04-04T12:21:01Z</time></trkpt><trkpt lat="42.81648487808647" lon="10.885517650525504"><ele>426.0</ele><time>2026-04-04T12:21:02Z</time></trkpt><trkpt lat="42.81638044907287" lon="10.885587811508469"><ele>426.0</ele><time>2026-04-04T12:21:03Z</time></trkpt><trkpt lat="42.81627487003191" lon="10.885658852653522"><ele>426.0</ele><time>2026-04-04T12:21:04Z</time></trkpt><trkpt lat="42.81619199722154" lon="10.885702279220496"><ele>426.0</ele><time>2026-04-04T12:21:05Z</time></trkpt><trkpt lat="42.816098591354994" lon="10.88568714143097"><ele>426.0</ele><time>2026-04-04T12:21:06Z</time></trkpt><trkpt lat="42.8160009549818" lon="10.88561553678202"><ele>426.0</ele><time>2026-04-04T12:21:07Z</time></trkpt><trkpt lat="42.815906510859875" lon="10.88552330562392"><ele>424.6</ele><time>2026-04-04T12:21:08Z</time></trkpt><trkpt lat="42.81582779678951" lon="10.885468535808158"><ele>423.20000000000005</ele><time>2026-04-04T12:21:09Z</time></trkpt><trkpt lat="42.81574071280845" lon="10.885466980893243"><ele>421.79999999999995</ele><time>2026-04-04T12:21:10Z</time></trkpt><trkpt lat="42.81564489778481" lon="10.885488735913155"><ele>420.4</ele><time>2026-04-04T12:21:11Z</time></trkpt><trkpt lat="42.81555372030534" lon="10.885542478802535"><ele>419.0</ele><time>2026-04-04T12:21:12Z</time></trkpt><trkpt lat="42.81546214202513" lon="10.885619818672582"><ele>419.0</ele><time>2026-04-04T12:21:13Z</time></trkpt><trkpt lat="42.815352513249486" lon="10.885689556132151"><ele>419.0</ele><time>2026-04-04T12:21:14Z</time></trkpt><trkpt lat="42.815257403291554" lon="10.885774385184297"><ele>419.0</ele><time>2026-04-04T12:21:15Z</time></trkpt><trkpt lat="42.81517280198024" lon="10.885897705692063"><ele>419.0</ele><time>2026-04-04T12:21:16Z</time></trkpt><trkpt lat="42.815119242883384" lon="10.886025622745079"><ele>417.0</ele><time>2026-04-04T12:21:17Z</time></trkpt><trkpt lat="42.81508068470168" lon="10.88617454995933"><ele>415.0</ele><time>2026-04-04T12:21:18Z</time></trkpt><trkpt lat="42.81504752607402" lon="10.886352806715061"><ele>413.0</ele><time>2026-04-04T12:21:19Z</time></trkpt><trkpt lat="42.81501284326593" lon="10.886540030834439"><ele>411.0</ele><time>2026-04-04T12:21:20Z</time></trkpt><trkpt lat="42.814970395914905" lon="10.886714852615492"><ele>415.33333333333337</ele><time>2026-04-04T12:21:21Z</time></trkpt><trkpt lat="42.814896188592485" lon="10.886909997046159"><ele>419.6666666666667</ele><time>2026-04-04T12:21:21.999Z</time></trkpt><trkpt lat="42.814816067754535" lon="10.887115689339732"><ele>424.0</ele><time>2026-04-04T12:21:22.999Z</time></trkpt><trkpt lat="42.81474899223799" lon="10.887317069921773"><ele>424.0</ele><time>2026-04-04T12:21:23.999Z</time></trkpt><trkpt lat="42.81469696902" lon="10.887523292692856"><ele>424.0</ele><time>2026-04-04T12:21:24.999Z</time></trkpt><trkpt lat="42.814636944107114" lon="10.887742649531125"><ele>424.0</ele><time>2026-04-04T12:21:25.999Z</time></trkpt><trkpt lat="42.814567602181995" lon="10.887936552699609"><ele>423.33333333333337</ele><time>2026-04-04T12:21:26.999Z</time></trkpt><trkpt lat="42.81448599433209" lon="10.88811219791922"><ele>422.66666666666663</ele><time>2026-04-04T12:21:27.999Z</time></trkpt><trkpt lat="42.814396731625784" lon="10.88829982785564"><ele>422.0</ele><time>2026-04-04T12:21:28.999Z</time></trkpt><trkpt lat="42.81431154678364" lon="10.888480627557811"><ele>422.0</ele><time>2026-04-04T12:21:29.999Z</time></trkpt><trkpt lat="42.81423043221888" lon="10.888650162015004"><ele>422.0</ele><time>2026-04-04T12:21:30.999Z</time></trkpt><trkpt lat="42.81415501218987" lon="10.888804438326451"><ele>422.0</ele><time>2026-04-04T12:21:31.999Z</time></trkpt><trkpt lat="42.814089970166414" lon="10.888940752117799"><ele>422.0</ele><time>2026-04-04T12:21:32.999Z</time></trkpt><trkpt lat="42.81402979981067" lon="10.889071459111337"><ele>422.0</ele><time>2026-04-04T12:21:33.999Z</time></trkpt><trkpt lat="42.81398470320176" lon="10.889194880602995"><ele>422.0</ele><time>2026-04-04T12:21:34.999Z</time></trkpt><trkpt lat="42.81394025636843" lon="10.889300936376973"><ele>422.0</ele><time>2026-04-04T12:21:35.999Z</time></trkpt><trkpt lat="42.813901868819265" lon="10.889390199890512"><ele>422.0</ele><time>2026-04-04T12:21:36.999Z</time></trkpt><trkpt lat="42.813865011172105" lon="10.889505192360618"><ele>422.0</ele><time>2026-04-04T12:21:38.999Z</time></trkpt><trkpt lat="42.81393622631077" lon="10.889295262095477"><ele>422.0</ele><time>2026-04-04T12:21:54.999Z</time></trkpt><trkpt lat="42.814000721559346" lon="10.889143426945477"><ele>422.0</ele><time>2026-04-04T12:21:55.999Z</time></trkpt><trkpt lat="42.81406643334976" lon="10.888992697946971"><ele>422.0</ele><time>2026-04-04T12:21:56.999Z</time></trkpt><trkpt lat="42.81415189248006" lon="10.888813632933376"><ele>422.0</ele><time>2026-04-04T12:21:57.999Z</time></trkpt><trkpt lat="42.81424903212551" lon="10.888608427121303"><ele>428.66666666666663</ele><time>2026-04-04T12:21:58.999Z</time></trkpt><trkpt lat="42.81434851768183" lon="10.888396304430383"><ele>435.33333333333337</ele><time>2026-04-04T12:21:59.999Z</time></trkpt><trkpt lat="42.814450961281416" lon="10.888180838763633"><ele>442.0</ele><time>2026-04-04T12:22:00.999Z</time></trkpt><trkpt lat="42.81454859250508" lon="10.887959837094973"><ele>442.0</ele><time>2026-04-04T12:22:01.999Z</time></trkpt><trkpt lat="42.81463218595752" lon="10.887754117144773"><ele>442.0</ele><time>2026-04-04T12:22:02.999Z</time></trkpt><trkpt lat="42.81470638596669" lon="10.887530215733605"><ele>442.0</ele><time>2026-04-04T12:22:03.999Z</time></trkpt><trkpt lat="42.81476886284849" lon="10.887314941436832"><ele>437.5</ele><time>2026-04-04T12:22:04.999Z</time></trkpt><trkpt lat="42.814820446349515" lon="10.887125929719451"><ele>433.0</ele><time>2026-04-04T12:22:05.999Z</time></trkpt><trkpt lat="42.81485729411207" lon="10.8869507150928"><ele>428.5</ele><time>2026-04-04T12:22:06.999Z</time></trkpt><trkpt lat="42.8148846610427" lon="10.886781736340557"><ele>424.0</ele><time>2026-04-04T12:22:07.999Z</time></trkpt><trkpt lat="42.814919917008815" lon="10.886596580267817"><ele>420.75</ele><time>2026-04-04T12:22:08.999Z</time></trkpt><trkpt lat="42.814946002990425" lon="10.886395544778212"><ele>417.5</ele><time>2026-04-04T12:22:09.999Z</time></trkpt><trkpt lat="42.814976099882486" lon="10.886189047860181"><ele>414.25</ele><time>2026-04-04T12:22:10.999Z</time></trkpt><trkpt lat="42.81498378152698" lon="10.886034093861893"><ele>411.0</ele><time>2026-04-04T12:22:11.999Z</time></trkpt><trkpt lat="42.814997876111335" lon="10.885922343474224"><ele>409.4</ele><time>2026-04-04T12:22:12.999Z</time></trkpt><trkpt lat="42.815054556805705" lon="10.885785889364108"><ele>407.8</ele><time>2026-04-04T12:22:14.999Z</time></trkpt><trkpt lat="42.81505164172539" lon="10.885662759420812"><ele>406.2</ele><time>2026-04-04T12:22:16.999Z</time></trkpt><trkpt lat="42.81495454342154" lon="10.885580926306762"><ele>404.59999999999997</ele><time>2026-04-04T12:22:19Z</time></trkpt><trkpt lat="42.81486447471674" lon="10.885569764012013"><ele>403.0</ele><time>2026-04-04T12:22:20Z</time></trkpt><trkpt lat="42.81476851291363" lon="10.885540747458702"><ele>403.0</ele><time>2026-04-04T12:22:21Z</time></trkpt><trkpt lat="42.81468271419272" lon="10.885496246266582"><ele>403.0</ele><time>2026-04-04T12:22:22Z</time></trkpt><trkpt lat="42.814602058916975" lon="10.88540804174689"><ele>403.0</ele><time>2026-04-04T12:22:23Z</time></trkpt><trkpt lat="42.814522428295795" lon="10.885312658228198"><ele>403.0</ele><time>2026-04-04T12:22:24Z</time></trkpt><trkpt lat="42.814445987123676" lon="10.885213573453195"><ele>403.0</ele><time>2026-04-04T12:22:25Z</time></trkpt><trkpt lat="42.81436007932762" lon="10.885150676100876"><ele>400.0</ele><time>2026-04-04T12:22:26Z</time></trkpt><trkpt lat="42.814230938336536" lon="10.88510149929378"><ele>397.0</ele><time>2026-04-04T12:22:27Z</time></trkpt><trkpt lat="42.81412126266446" lon="10.885050568142299"><ele>394.0</ele><time>2026-04-04T12:22:28Z</time></trkpt><trkpt lat="42.814025669581945" lon="10.885002205752693"><ele>391.0</ele><time>2026-04-04T12:22:29Z</time></trkpt><trkpt lat="42.8139304606556" lon="10.884948227290108"><ele>391.0</ele><time>2026-04-04T12:22:30Z</time></trkpt><trkpt lat="42.81385652651588" lon="10.884896270723285"><ele>391.0</ele><time>2026-04-04T12:22:31Z</time></trkpt><trkpt lat="42.81383626693578" lon="10.8847766903138"><ele>391.0</ele><time>2026-04-04T12:22:34Z</time></trkpt><trkpt lat="42.81372261074867" lon="10.884621658774606"><ele>391.0</ele><time>2026-04-04T12:22:36Z</time></trkpt><trkpt lat="42.81363364597912" lon="10.88454011185725"><ele>391.0</ele><time>2026-04-04T12:22:37Z</time></trkpt><trkpt lat="42.813535440184715" lon="10.884509704639239"><ele>388.6</ele><time>2026-04-04T12:22:38Z</time></trkpt><trkpt lat="42.81343641442249" lon="10.884512024011524"><ele>386.20000000000005</ele><time>2026-04-04T12:22:39Z</time></trkpt><trkpt lat="42.813355843071285" lon="10.884552519883487"><ele>383.79999999999995</ele><time>2026-04-04T12:22:40Z</time></trkpt><trkpt lat="42.81326430805458" lon="10.884571970386379"><ele>381.4</ele><time>2026-04-04T12:22:41Z</time></trkpt><trkpt lat="42.81317424540151" lon="10.884576081314986"><ele>379.0</ele><time>2026-04-04T12:22:42Z</time></trkpt><trkpt lat="42.81308276289717" lon="10.88458803091453"><ele>379.0</ele><time>2026-04-04T12:22:43Z</time></trkpt><trkpt lat="42.81300702961478" lon="10.884584176314934"><ele>379.0</ele><time>2026-04-04T12:22:44Z</time></trkpt><trkpt lat="42.81293092370889" lon="10.884506611718473"><ele>379.0</ele><time>2026-04-04T12:22:46Z</time></trkpt><trkpt lat="42.81286349179012" lon="10.884432519051206"><ele>379.0</ele><time>2026-04-04T12:22:48Z</time></trkpt><trkpt lat="42.81278316993023" lon="10.88439626451745"><ele>379.0</ele><time>2026-04-04T12:22:49Z</time></trkpt><trkpt lat="42.812681459262414" lon="10.884336103039855"><ele>379.2</ele><time>2026-04-04T12:22:50Z</time></trkpt><trkpt lat="42.81257963975463" lon="10.884291862896951"><ele>379.4</ele><time>2026-04-04T12:22:51Z</time></trkpt><trkpt lat="42.81248043294942" lon="10.884237669692418"><ele>379.6</ele><time>2026-04-04T12:22:52Z</time></trkpt><trkpt lat="42.812390268523195" lon="10.88418076230879"><ele>379.8</ele><time>2026-04-04T12:22:53Z</time></trkpt><trkpt lat="42.81229982561917" lon="10.884136521874689"><ele>380.0</ele><time>2026-04-04T12:22:54Z</time></trkpt><trkpt lat="42.812225437720755" lon="10.884114270186464"><ele>380.0</ele><time>2026-04-04T12:22:55Z</time></trkpt><trkpt lat="42.812153667940926" lon="10.88411002067481"><ele>380.0</ele><time>2026-04-04T12:22:56Z</time></trkpt><trkpt lat="42.81208431485022" lon="10.884125349678282"><ele>380.0</ele><time>2026-04-04T12:22:57Z</time></trkpt><trkpt lat="42.812007220207484" lon="10.884164579337206"><ele>380.0</ele><time>2026-04-04T12:22:58Z</time></trkpt><trkpt lat="42.81192202954404" lon="10.884235338175676"><ele>380.0</ele><time>2026-04-04T12:22:59Z</time></trkpt><trkpt lat="42.811844581228534" lon="10.884281782426807"><ele>380.0</ele><time>2026-04-04T12:23:00Z</time></trkpt><trkpt lat="42.811761593502375" lon="10.884319226037919"><ele>372.6666666666667</ele><time>2026-04-04T12:23:01Z</time></trkpt><trkpt lat="42.811692894607745" lon="10.884339237214363"><ele>365.33333333333337</ele><time>2026-04-04T12:23:02Z</time></trkpt><trkpt lat="42.81161981390847" lon="10.88438401239018"><ele>358.0</ele><time>2026-04-04T12:23:03Z</time></trkpt><trkpt lat="42.811518723196855" lon="10.884412010967845"><ele>350.6666666666667</ele><time>2026-04-04T12:23:05Z</time></trkpt><trkpt lat="42.81145884268039" lon="10.884382305830728"><ele>343.3333333333333</ele><time>2026-04-04T12:23:07Z</time></trkpt><trkpt lat="42.81140082276473" lon="10.88442682130757"><ele>336.0</ele><time>2026-04-04T12:25:14Z</time></trkpt><trkpt lat="42.81131772737294" lon="10.884419228680072"><ele>336.0</ele><time>2026-04-04T12:25:16Z</time></trkpt><trkpt lat="42.811218810756294" lon="10.884427621371103"><ele>336.0</ele><time>2026-04-04T12:25:18Z</time></trkpt><trkpt lat="42.81112901226746" lon="10.884430540043013"><ele>336.0</ele><time>2026-04-04T12:25:20Z</time></trkpt><trkpt lat="42.81106415182015" lon="10.884435914449531"><ele>336.0</ele><time>2026-04-04T12:25:21Z</time></trkpt><trkpt lat="42.81099894395997" lon="10.884449986250134"><ele>336.0</ele><time>2026-04-04T12:25:22Z</time></trkpt><trkpt lat="42.810932997042215" lon="10.884437443546137"><ele>336.0</ele><time>2026-04-04T12:25:24Z</time></trkpt><trkpt lat="42.81098920512817" lon="10.884542077722127"><ele>336.0</ele><time>2026-04-04T12:26:37Z</time></trkpt><trkpt lat="42.81106530605545" lon="10.884667241545477"><ele>336.0</ele><time>2026-04-04T12:26:39Z</time></trkpt><trkpt lat="42.81116105214682" lon="10.88477760188311"><ele>336.0</ele><time>2026-04-04T12:26:41Z</time></trkpt><trkpt lat="42.81121972737536" lon="10.884840834645765"><ele>336.0</ele><time>2026-04-04T12:26:42Z</time></trkpt><trkpt lat="42.81127507782616" lon="10.884904578861834"><ele>336.0</ele><time>2026-04-04T12:26:43Z</time></trkpt><trkpt lat="42.81134180473471" lon="10.884972586851115"><ele>336.0</ele><time>2026-04-04T12:26:44Z</time></trkpt><trkpt lat="42.811416603797525" lon="10.88503572344136"><ele>336.0</ele><time>2026-04-04T12:26:45Z</time></trkpt><trkpt lat="42.81150719179327" lon="10.88508434127593"><ele>336.0</ele><time>2026-04-04T12:26:46Z</time></trkpt><trkpt lat="42.81160767954985" lon="10.885122711725108"><ele>336.0</ele><time>2026-04-04T12:26:47Z</time></trkpt><trkpt lat="42.811722588534636" lon="10.885156658513417"><ele>336.0</ele><time>2026-04-04T12:26:48Z</time></trkpt><trkpt lat="42.811852516507756" lon="10.885187805672297"><ele>333.6666666666667</ele><time>2026-04-04T12:26:49Z</time></trkpt><trkpt lat="42.81199384291635" lon="10.885237587609938"><ele>331.33333333333337</ele><time>2026-04-04T12:26:50Z</time></trkpt><trkpt lat="42.81215013732437" lon="10.885296396607858"><ele>329.0</ele><time>2026-04-04T12:26:51Z</time></trkpt><trkpt lat="42.81229165168052" lon="10.885353163560442"><ele>329.0</ele><time>2026-04-04T12:26:52Z</time></trkpt><trkpt lat="42.81240715164829" lon="10.885408554383506"><ele>329.0</ele><time>2026-04-04T12:26:53Z</time></trkpt><trkpt lat="42.81251292789299" lon="10.885471212863848"><ele>329.0</ele><time>2026-04-04T12:26:54Z</time></trkpt><trkpt lat="42.81259287669071" lon="10.885555335061678"><ele>329.0</ele><time>2026-04-04T12:26:55Z</time></trkpt><trkpt lat="42.8126770379208" lon="10.885671826141055"><ele>331.75</ele><time>2026-04-04T12:26:56Z</time></trkpt><trkpt lat="42.81280216135778" lon="10.88577533894102"><ele>334.5</ele><time>2026-04-04T12:26:57Z</time></trkpt><trkpt lat="42.81289317089419" lon="10.885869372064917"><ele>337.25</ele><time>2026-04-04T12:26:58Z</time></trkpt><trkpt lat="42.81295999908137" lon="10.886041719009786"><ele>340.0</ele><time>2026-04-04T12:26:59Z</time></trkpt><trkpt lat="42.8130444946056" lon="10.886203024949287"><ele>340.0</ele><time>2026-04-04T12:27:00Z</time></trkpt><trkpt lat="42.813109000659104" lon="10.886355842208676"><ele>340.0</ele><time>2026-04-04T12:27:01Z</time></trkpt><trkpt lat="42.81318698772984" lon="10.886476941232237"><ele>340.0</ele><time>2026-04-04T12:27:02Z</time></trkpt><trkpt lat="42.81326723247618" lon="10.886573926052451"><ele>340.0</ele><time>2026-04-04T12:27:03Z</time></trkpt><trkpt lat="42.81335816148259" lon="10.886645886840988"><ele>340.0</ele><time>2026-04-04T12:27:04Z</time></trkpt><trkpt lat="42.813446322192426" lon="10.886750247468443"><ele>340.0</ele><time>2026-04-04T12:27:05Z</time></trkpt><trkpt lat="42.81350690231114" lon="10.886830056352734"><ele>340.0</ele><time>2026-04-04T12:27:06Z</time></trkpt><trkpt lat="42.81349743302679" lon="10.886917728125894"><ele>340.0</ele><time>2026-04-04T12:27:07Z</time></trkpt><trkpt lat="42.81344556085372" lon="10.886992564501353"><ele>340.0</ele><time>2026-04-04T12:27:08Z</time></trkpt><trkpt lat="42.813377259296885" lon="10.887077651761507"><ele>340.0</ele><time>2026-04-04T12:27:09Z</time></trkpt><trkpt lat="42.813271722203865" lon="10.887196174416568"><ele>342.66666666666663</ele><time>2026-04-04T12:27:10Z</time></trkpt><trkpt lat="42.81317833261735" lon="10.887370199375535"><ele>345.3333333333333</ele><time>2026-04-04T12:27:11Z</time></trkpt><trkpt lat="42.81306265237897" lon="10.887548360593792"><ele>348.0</ele><time>2026-04-04T12:27:12Z</time></trkpt><trkpt lat="42.81296605952568" lon="10.887696285194854"><ele>344.5</ele><time>2026-04-04T12:27:13Z</time></trkpt><trkpt lat="42.812883657146" lon="10.887842550783141"><ele>341.0</ele><time>2026-04-04T12:27:14Z</time></trkpt><trkpt lat="42.81278784203316" lon="10.88801273825585"><ele>337.5</ele><time>2026-04-04T12:27:15Z</time></trkpt><trkpt lat="42.81269770025016" lon="10.888170975574289"><ele>334.0</ele><time>2026-04-04T12:27:16Z</time></trkpt><trkpt lat="42.81261689266185" lon="10.88830461287999"><ele>334.0</ele><time>2026-04-04T12:27:17Z</time></trkpt><trkpt lat="42.81256466352555" lon="10.888416513023577"><ele>334.0</ele><time>2026-04-04T12:27:18Z</time></trkpt><trkpt lat="42.812543813460415" lon="10.888593399829302"><ele>334.0</ele><time>2026-04-04T12:27:20Z</time></trkpt><trkpt lat="42.8125602938105" lon="10.888736377463443"><ele>334.0</ele><time>2026-04-04T12:27:21Z</time></trkpt><trkpt lat="42.81257772317727" lon="10.88890284297617"><ele>336.6</ele><time>2026-04-04T12:27:22Z</time></trkpt><trkpt lat="42.81258695019786" lon="10.889054469255218"><ele>339.2</ele><time>2026-04-04T12:27:23Z</time></trkpt><trkpt lat="42.81258718322176" lon="10.889206973732145"><ele>341.8</ele><time>2026-04-04T12:27:24Z</time></trkpt><trkpt lat="42.81256922303561" lon="10.889346353854307"><ele>344.40000000000003</ele><time>2026-04-04T12:27:25Z</time></trkpt><trkpt lat="42.81253344410998" lon="10.889448371411115"><ele>347.0</ele><time>2026-04-04T12:27:26Z</time></trkpt><trkpt lat="42.812469524743825" lon="10.889505866603654"><ele>351.75</ele><time>2026-04-04T12:27:27Z</time></trkpt><trkpt lat="42.81236442187583" lon="10.889561963491378"><ele>356.5</ele><time>2026-04-04T12:27:28Z</time></trkpt><trkpt lat="42.81225273332343" lon="10.889647022397302"><ele>361.25</ele><time>2026-04-04T12:27:29Z</time></trkpt><trkpt lat="42.81212120398189" lon="10.88973861546863"><ele>366.0</ele><time>2026-04-04T12:27:30Z</time></trkpt><trkpt lat="42.8119924207551" lon="10.889834532946672"><ele>366.0</ele><time>2026-04-04T12:27:31Z</time></trkpt><trkpt lat="42.81187420906577" lon="10.889887758579661"><ele>366.0</ele><time>2026-04-04T12:27:32Z</time></trkpt><trkpt lat="42.81175526463106" lon="10.88994491429598"><ele>366.0</ele><time>2026-04-04T12:27:33Z</time></trkpt><trkpt lat="42.81165978978578" lon="10.890043870223899"><ele>366.0</ele><time>2026-04-04T12:27:34Z</time></trkpt><trkpt lat="42.811564762648146" lon="10.89015704730044"><ele>367.25</ele><time>2026-04-04T12:27:35Z</time></trkpt><trkpt lat="42.81148908044059" lon="10.890303774135512"><ele>368.5</ele><time>2026-04-04T12:27:36Z</time></trkpt><trkpt lat="42.8114049543175" lon="10.890450351977043"><ele>369.75</ele><time>2026-04-04T12:27:37Z</time></trkpt><trkpt lat="42.811337683124044" lon="10.89055456567141"><ele>371.0</ele><time>2026-04-04T12:27:38Z</time></trkpt><trkpt lat="42.81125382757956" lon="10.890629679217554"><ele>371.0</ele><time>2026-04-04T12:27:39Z</time></trkpt><trkpt lat="42.81112512479386" lon="10.890696224260262"><ele>371.0</ele><time>2026-04-04T12:27:40Z</time></trkpt><trkpt lat="42.81099368489316" lon="10.890779715185595"><ele>371.0</ele><time>2026-04-04T12:27:41Z</time></trkpt><trkpt lat="42.81086354489793" lon="10.890897045217198"><ele>371.0</ele><time>2026-04-04T12:27:42Z</time></trkpt><trkpt lat="42.81074348276898" lon="10.890997875833527"><ele>371.5</ele><time>2026-04-04T12:27:43Z</time></trkpt><trkpt lat="42.810624564140305" lon="10.891079781833195"><ele>372.0</ele><time>2026-04-04T12:27:44Z</time></trkpt><trkpt lat="42.810519312090875" lon="10.891180718897889"><ele>372.5</ele><time>2026-04-04T12:27:45Z</time></trkpt><trkpt lat="42.81042035271358" lon="10.891299047950822"><ele>373.0</ele><time>2026-04-04T12:27:46Z</time></trkpt><trkpt lat="42.81031399836334" lon="10.891408762690045"><ele>373.0</ele><time>2026-04-04T12:27:47Z</time></trkpt><trkpt lat="42.810216291993314" lon="10.891509745087369"><ele>373.0</ele><time>2026-04-04T12:27:47.999Z</time></trkpt><trkpt lat="42.810137015357085" lon="10.891598284204726"><ele>373.0</ele><time>2026-04-04T12:27:48.999Z</time></trkpt><trkpt lat="42.810067711837526" lon="10.891712856408756"><ele>373.0</ele><time>2026-04-04T12:27:49.999Z</time></trkpt><trkpt lat="42.81000609332483" lon="10.891845685819117"><ele>373.0</ele><time>2026-04-04T12:27:50.999Z</time></trkpt><trkpt lat="42.809952086547696" lon="10.891948510592695"><ele>373.0</ele><time>2026-04-04T12:27:51.999Z</time></trkpt><trkpt lat="42.80993562489247" lon="10.892063563523566"><ele>373.0</ele><time>2026-04-04T12:27:53.999Z</time></trkpt><trkpt lat="42.809982019082874" lon="10.892149668867862"><ele>373.0</ele><time>2026-04-04T12:27:54.999Z</time></trkpt><trkpt lat="42.80999674915515" lon="10.892253511756342"><ele>373.0</ele><time>2026-04-04T12:27:55.999Z</time></trkpt><trkpt lat="42.809975448919076" lon="10.892359665515956"><ele>373.0</ele><time>2026-04-04T12:27:56.999Z</time></trkpt><trkpt lat="42.80992494040086" lon="10.89246855427956"><ele>373.0</ele><time>2026-04-04T12:27:57.999Z</time></trkpt><trkpt lat="42.80989259365106" lon="10.892619112576424"><ele>373.0</ele><time>2026-04-04T12:27:58.999Z</time></trkpt><trkpt lat="42.80981710762914" lon="10.892753326344344"><ele>373.0</ele><time>2026-04-04T12:27:59.999Z</time></trkpt><trkpt lat="42.809767502449546" lon="10.892913814238339"><ele>373.0</ele><time>2026-04-04T12:28:00.999Z</time></trkpt><trkpt lat="42.80972653949349" lon="10.8930659237358"><ele>373.0</ele><time>2026-04-04T12:28:01.999Z</time></trkpt><trkpt lat="42.80970331623024" lon="10.89319607232432"><ele>373.0</ele><time>2026-04-04T12:28:02.999Z</time></trkpt><trkpt lat="42.80967671990074" lon="10.893355250965634"><ele>373.0</ele><time>2026-04-04T12:28:03.999Z</time></trkpt><trkpt lat="42.809667307348576" lon="10.893521295961058"><ele>373.0</ele><time>2026-04-04T12:28:04.999Z</time></trkpt><trkpt lat="42.80967156841667" lon="10.893683315228422"><ele>373.0</ele><time>2026-04-04T12:28:05.999Z</time></trkpt><trkpt lat="42.80969601451311" lon="10.893853075469588"><ele>373.66666666666663</ele><time>2026-04-04T12:28:06.999Z</time></trkpt><trkpt lat="42.80971683049948" lon="10.893953344986674"><ele>374.3333333333333</ele><time>2026-04-04T12:28:07.999Z</time></trkpt><trkpt lat="42.80976185669691" lon="10.894079937725271"><ele>375.0</ele><time>2026-04-04T12:28:09.999Z</time></trkpt><trkpt lat="42.80974948477992" lon="10.894166778167486"><ele>375.6666666666667</ele><time>2026-04-04T12:28:10.999Z</time></trkpt><trkpt lat="42.809788389619165" lon="10.894272572670198"><ele>376.33333333333337</ele><time>2026-04-04T12:28:12.999Z</time></trkpt><trkpt lat="42.80985199268452" lon="10.894272569065068"><ele>377.0</ele><time>2026-04-04T12:28:13.999Z</time></trkpt><trkpt lat="42.80990211927852" lon="10.894218508292344"><ele>377.0</ele><time>2026-04-04T12:28:14.999Z</time></trkpt><trkpt lat="42.80993503953252" lon="10.894120951987185"><ele>377.0</ele><time>2026-04-04T12:28:15.999Z</time></trkpt><trkpt lat="42.80996722170332" lon="10.89401127546337"><ele>377.0</ele><time>2026-04-04T12:28:16.999Z</time></trkpt><trkpt lat="42.80998054862081" lon="10.893912993716713"><ele>377.0</ele><time>2026-04-04T12:28:17.999Z</time></trkpt><trkpt lat="42.809999604146064" lon="10.893819810515632"><ele>377.0</ele><time>2026-04-04T12:28:18.999Z</time></trkpt><trkpt lat="42.81004209269107" lon="10.8937202199219"><ele>377.0</ele><time>2026-04-04T12:28:19.999Z</time></trkpt><trkpt lat="42.810075502214104" lon="10.893593707314167"><ele>377.0</ele><time>2026-04-04T12:28:20.999Z</time></trkpt><trkpt lat="42.81009726788932" lon="10.893459198852025"><ele>377.0</ele><time>2026-04-04T12:28:21.999Z</time></trkpt><trkpt lat="42.81013194641542" lon="10.893368633407297"><ele>377.0</ele><time>2026-04-04T12:28:22.999Z</time></trkpt><trkpt lat="42.81016909170818" lon="10.89328975472818"><ele>377.0</ele><time>2026-04-04T12:28:23.999Z</time></trkpt><trkpt lat="42.81022579553361" lon="10.893242856110952"><ele>377.0</ele><time>2026-04-04T12:28:24.999Z</time></trkpt><trkpt lat="42.81029716438902" lon="10.89319579143332"><ele>377.0</ele><time>2026-04-04T12:28:25.999Z</time></trkpt><trkpt lat="42.81038695127474" lon="10.893142938609378"><ele>382.20000000000005</ele><time>2026-04-04T12:28:26.999Z</time></trkpt><trkpt lat="42.81048021403519" lon="10.89309384516021"><ele>387.4</ele><time>2026-04-04T12:28:27.999Z</time></trkpt><trkpt lat="42.81056993506128" lon="10.893035979546223"><ele>392.6</ele><time>2026-04-04T12:28:28.999Z</time></trkpt><trkpt lat="42.81064955538912" lon="10.89294818769219"><ele>397.79999999999995</ele><time>2026-04-04T12:28:29.999Z</time></trkpt><trkpt lat="42.81074478024158" lon="10.892837904518611"><ele>403.0</ele><time>2026-04-04T12:28:30.999Z</time></trkpt><trkpt lat="42.81083658706719" lon="10.892722143345303"><ele>403.0</ele><time>2026-04-04T12:28:31.999Z</time></trkpt><trkpt lat="42.81092679426813" lon="10.892646392390265"><ele>403.0</ele><time>2026-04-04T12:28:32.999Z</time></trkpt><trkpt lat="42.81099171192585" lon="10.892599418381899"><ele>403.0</ele><time>2026-04-04T12:28:33.999Z</time></trkpt><trkpt lat="42.811073185316644" lon="10.892536547546523"><ele>403.0</ele><time>2026-04-04T12:28:34.999Z</time></trkpt><trkpt lat="42.81116619898753" lon="10.892459285445547"><ele>403.0</ele><time>2026-04-04T12:28:36Z</time></trkpt><trkpt lat="42.8112770205613" lon="10.892379279212646"><ele>405.0</ele><time>2026-04-04T12:28:37Z</time></trkpt><trkpt lat="42.81138881819126" lon="10.892303871082762"><ele>407.0</ele><time>2026-04-04T12:28:38Z</time></trkpt><trkpt lat="42.811508106560275" lon="10.892239044246438"><ele>409.0</ele><time>2026-04-04T12:28:39Z</time></trkpt><trkpt lat="42.811645061308035" lon="10.892166599313098"><ele>411.0</ele><time>2026-04-04T12:28:40Z</time></trkpt><trkpt lat="42.81180238997265" lon="10.89207709238028"><ele>411.5</ele><time>2026-04-04T12:28:41Z</time></trkpt><trkpt lat="42.81194824199496" lon="10.891993955433293"><ele>412.0</ele><time>2026-04-04T12:28:42Z</time></trkpt><trkpt lat="42.81206928372817" lon="10.891932009119191"><ele>412.5</ele><time>2026-04-04T12:28:43Z</time></trkpt><trkpt lat="42.81218286578362" lon="10.891851841773056"><ele>413.0</ele><time>2026-04-04T12:28:44Z</time></trkpt><trkpt lat="42.812320747982994" lon="10.891776365630724"><ele>412.2</ele><time>2026-04-04T12:28:45Z</time></trkpt><trkpt lat="42.81245583408481" lon="10.891716950189897"><ele>411.4</ele><time>2026-04-04T12:28:46Z</time></trkpt><trkpt lat="42.81255794276457" lon="10.891666647058406"><ele>410.59999999999997</ele><time>2026-04-04T12:28:47Z</time></trkpt><trkpt lat="42.81265086956778" lon="10.891628632906468"><ele>409.79999999999995</ele><time>2026-04-04T12:28:48Z</time></trkpt><trkpt lat="42.81275027670662" lon="10.89161241359939"><ele>409.0</ele><time>2026-04-04T12:28:49Z</time></trkpt><trkpt lat="42.8128394195248" lon="10.891618841584275"><ele>409.0</ele><time>2026-04-04T12:28:50Z</time></trkpt><trkpt lat="42.812927428093595" lon="10.891634669769088"><ele>409.0</ele><time>2026-04-04T12:28:51Z</time></trkpt><trkpt lat="42.81302610166646" lon="10.891666858163372"><ele>409.0</ele><time>2026-04-04T12:28:52Z</time></trkpt><trkpt lat="42.81312314402326" lon="10.891714275108415"><ele>409.0</ele><time>2026-04-04T12:28:53Z</time></trkpt><trkpt lat="42.81321623675336" lon="10.891726385868715"><ele>409.0</ele><time>2026-04-04T12:28:54Z</time></trkpt><trkpt lat="42.81330451123579" lon="10.891706783566683"><ele>409.0</ele><time>2026-04-04T12:28:55Z</time></trkpt><trkpt lat="42.813393140234396" lon="10.891682956423177"><ele>409.0</ele><time>2026-04-04T12:28:56Z</time></trkpt><trkpt lat="42.813485525117386" lon="10.891653181244857"><ele>409.0</ele><time>2026-04-04T12:28:57Z</time></trkpt><trkpt lat="42.81358102629051" lon="10.891623050158412"><ele>409.0</ele><time>2026-04-04T12:28:58Z</time></trkpt><trkpt lat="42.813671300038266" lon="10.891601171841199"><ele>409.0</ele><time>2026-04-04T12:28:59Z</time></trkpt><trkpt lat="42.81376854047332" lon="10.891565187871368"><ele>408.2</ele><time>2026-04-04T12:29:00Z</time></trkpt><trkpt lat="42.813874524305334" lon="10.891539353132481"><ele>407.4</ele><time>2026-04-04T12:29:01Z</time></trkpt><trkpt lat="42.813974076367806" lon="10.891525072644189"><ele>406.6</ele><time>2026-04-04T12:29:02Z</time></trkpt><trkpt lat="42.81406864767569" lon="10.891498419216637"><ele>405.8</ele><time>2026-04-04T12:29:03Z</time></trkpt><trkpt lat="42.8141703021687" lon="10.891487863905203"><ele>405.0</ele><time>2026-04-04T12:29:04Z</time></trkpt><trkpt lat="42.81428229174208" lon="10.891486567252896"><ele>400.8</ele><time>2026-04-04T12:29:05Z</time></trkpt><trkpt lat="42.81437909204787" lon="10.8914951353441"><ele>396.6</ele><time>2026-04-04T12:29:06Z</time></trkpt><trkpt lat="42.81446112163988" lon="10.891497544404203"><ele>392.4</ele><time>2026-04-04T12:29:07Z</time></trkpt><trkpt lat="42.81454115630229" lon="10.891455092196964"><ele>388.2</ele><time>2026-04-04T12:29:08Z</time></trkpt><trkpt lat="42.81462592424438" lon="10.891380087186693"><ele>384.0</ele><time>2026-04-04T12:29:09Z</time></trkpt><trkpt lat="42.8147205121763" lon="10.891291607063351"><ele>384.0</ele><time>2026-04-04T12:29:10Z</time></trkpt><trkpt lat="42.81481608582294" lon="10.891205452927707"><ele>384.0</ele><time>2026-04-04T12:29:11Z</time></trkpt><trkpt lat="42.81491813828902" lon="10.89113587674515"><ele>384.0</ele><time>2026-04-04T12:29:12Z</time></trkpt><trkpt lat="42.81503512934658" lon="10.891061114995008"><ele>384.0</ele><time>2026-04-04T12:29:13Z</time></trkpt><trkpt lat="42.81513686834404" lon="10.890945383221709"><ele>383.0</ele><time>2026-04-04T12:29:14Z</time></trkpt><trkpt lat="42.81521678346214" lon="10.890839256673992"><ele>382.0</ele><time>2026-04-04T12:29:15Z</time></trkpt><trkpt lat="42.8153004717017" lon="10.890743323119347"><ele>381.0</ele><time>2026-04-04T12:29:16Z</time></trkpt><trkpt lat="42.81541983002146" lon="10.89064477638299"><ele>380.0</ele><time>2026-04-04T12:29:17Z</time></trkpt><trkpt lat="42.81556228641646" lon="10.890561661673885"><ele>380.0</ele><time>2026-04-04T12:29:18Z</time></trkpt><trkpt lat="42.81567514800644" lon="10.890488937609707"><ele>380.0</ele><time>2026-04-04T12:29:19Z</time></trkpt><trkpt lat="42.81576783863871" lon="10.890411705719151"><ele>380.0</ele><time>2026-04-04T12:29:20Z</time></trkpt><trkpt lat="42.81587300626398" lon="10.890361356099273"><ele>380.0</ele><time>2026-04-04T12:29:21Z</time></trkpt><trkpt lat="42.816000058605496" lon="10.890364790143911"><ele>379.75</ele><time>2026-04-04T12:29:22Z</time></trkpt><trkpt lat="42.81613542065249" lon="10.890340843130936"><ele>379.5</ele><time>2026-04-04T12:29:23Z</time></trkpt><trkpt lat="42.81624577772534" lon="10.890290602641508"><ele>379.25</ele><time>2026-04-04T12:29:24Z</time></trkpt><trkpt lat="42.81637928879497" lon="10.890226155933062"><ele>379.0</ele><time>2026-04-04T12:29:25Z</time></trkpt><trkpt lat="42.81648528954789" lon="10.890209823792691"><ele>379.0</ele><time>2026-04-04T12:29:26Z</time></trkpt><trkpt lat="42.81659644116192" lon="10.890273271004784"><ele>379.0</ele><time>2026-04-04T12:29:27Z</time></trkpt><trkpt lat="42.81672789427" lon="10.890319292275624"><ele>379.0</ele><time>2026-04-04T12:29:28Z</time></trkpt><trkpt lat="42.81683802278567" lon="10.89039659419876"><ele>379.0</ele><time>2026-04-04T12:29:29Z</time></trkpt><trkpt lat="42.81693854355805" lon="10.890429357024873"><ele>384.4</ele><time>2026-04-04T12:29:30Z</time></trkpt><trkpt lat="42.817024009044054" lon="10.89043454659272"><ele>389.79999999999995</ele><time>2026-04-04T12:29:31Z</time></trkpt><trkpt lat="42.81708945170109" lon="10.890481511213698"><ele>395.20000000000005</ele><time>2026-04-04T12:29:32Z</time></trkpt><trkpt lat="42.8171140825909" lon="10.890585169748967"><ele>400.6</ele><time>2026-04-04T12:29:33Z</time></trkpt><trkpt lat="42.81708612748557" lon="10.890702850623194"><ele>406.0</ele><time>2026-04-04T12:29:34Z</time></trkpt><trkpt lat="42.81701003926604" lon="10.890844115179675"><ele>404.8</ele><time>2026-04-04T12:29:35Z</time></trkpt><trkpt lat="42.81693698197242" lon="10.890990746955534"><ele>403.6</ele><time>2026-04-04T12:29:36Z</time></trkpt><trkpt lat="42.81689783175512" lon="10.89114651194295"><ele>402.4</ele><time>2026-04-04T12:29:37Z</time></trkpt><trkpt lat="42.8168688668765" lon="10.891270132598777"><ele>401.2</ele><time>2026-04-04T12:29:38Z</time></trkpt><trkpt lat="42.81687589313322" lon="10.89138939424801"><ele>400.0</ele><time>2026-04-04T12:29:39Z</time></trkpt><trkpt lat="42.81689807719626" lon="10.891534233698525"><ele>400.0</ele><time>2026-04-04T12:29:40Z</time></trkpt><trkpt lat="42.816936605613506" lon="10.891707339306636"><ele>400.0</ele><time>2026-04-04T12:29:41Z</time></trkpt><trkpt lat="42.81697955832179" lon="10.891879809112751"><ele>400.0</ele><time>2026-04-04T12:29:42Z</time></trkpt><trkpt lat="42.8169969412034" lon="10.892023564096307"><ele>400.0</ele><time>2026-04-04T12:29:43Z</time></trkpt><trkpt lat="42.81705165003014" lon="10.892195278382626"><ele>395.6</ele><time>2026-04-04T12:29:44Z</time></trkpt><trkpt lat="42.81707792036512" lon="10.892326119050834"><ele>391.2</ele><time>2026-04-04T12:29:45Z</time></trkpt><trkpt lat="42.81713463780199" lon="10.892423028826588"><ele>386.79999999999995</ele><time>2026-04-04T12:29:46Z</time></trkpt><trkpt lat="42.81719775055499" lon="10.892506682374519"><ele>382.4</ele><time>2026-04-04T12:29:47Z</time></trkpt><trkpt lat="42.81730580616373" lon="10.892586009792893"><ele>378.0</ele><time>2026-04-04T12:29:48Z</time></trkpt><trkpt lat="42.81742929502195" lon="10.892644574230248"><ele>371.5</ele><time>2026-04-04T12:29:49Z</time></trkpt><trkpt lat="42.81755775592317" lon="10.892692579094117"><ele>365.0</ele><time>2026-04-04T12:29:50Z</time></trkpt><trkpt lat="42.81769762101628" lon="10.892695674350852"><ele>358.5</ele><time>2026-04-04T12:29:51Z</time></trkpt><trkpt lat="42.81783752690952" lon="10.892694380561476"><ele>352.0</ele><time>2026-04-04T12:29:52Z</time></trkpt><trkpt lat="42.81799975806931" lon="10.892674522154694"><ele>350.5</ele><time>2026-04-04T12:29:53Z</time></trkpt><trkpt lat="42.81816815035386" lon="10.892642447473063"><ele>349.0</ele><time>2026-04-04T12:29:54Z</time></trkpt><trkpt lat="42.81828949608398" lon="10.892580901645287"><ele>347.5</ele><time>2026-04-04T12:29:55Z</time></trkpt><trkpt lat="42.81840716973486" lon="10.892559496603255"><ele>346.0</ele><time>2026-04-04T12:29:56Z</time></trkpt><trkpt lat="42.81854533571782" lon="10.89258260276853"><ele>351.66666666666663</ele><time>2026-04-04T12:29:57Z</time></trkpt><trkpt lat="42.81869940398226" lon="10.892634782860153"><ele>357.3333333333333</ele><time>2026-04-04T12:29:58Z</time></trkpt><trkpt lat="42.81885143148127" lon="10.8926792477255"><ele>363.0</ele><time>2026-04-04T12:29:59Z</time></trkpt><trkpt lat="42.81899576079845" lon="10.892733387016136"><ele>363.0</ele><time>2026-04-04T12:30:00Z</time></trkpt><trkpt lat="42.81913578807547" lon="10.892808537037064"><ele>363.0</ele><time>2026-04-04T12:30:01Z</time></trkpt><trkpt lat="42.81926687328141" lon="10.892864076005406"><ele>363.0</ele><time>2026-04-04T12:30:02Z</time></trkpt><trkpt lat="42.81940377699839" lon="10.892910721683345"><ele>363.0</ele><time>2026-04-04T12:30:03Z</time></trkpt><trkpt lat="42.819541159124746" lon="10.892945602248362"><ele>369.0</ele><time>2026-04-04T12:30:04Z</time></trkpt><trkpt lat="42.81963809670535" lon="10.892991404762533"><ele>375.0</ele><time>2026-04-04T12:30:05Z</time></trkpt><trkpt lat="42.81969709906316" lon="10.893041365928875"><ele>381.0</ele><time>2026-04-04T12:30:06Z</time></trkpt><trkpt lat="42.81975868679792" lon="10.893078850807365"><ele>387.0</ele><time>2026-04-04T12:30:07Z</time></trkpt><trkpt lat="42.81976482927145" lon="10.893167415414673"><ele>393.0</ele><time>2026-04-04T12:30:09Z</time></trkpt><trkpt lat="42.81971440158556" lon="10.893243412266232"><ele>399.0</ele><time>2026-04-04T12:30:10Z</time></trkpt><trkpt lat="42.819633048789" lon="10.89333597292961"><ele>402.75</ele><time>2026-04-04T12:30:11Z</time></trkpt><trkpt lat="42.819533935590684" lon="10.89343207922668"><ele>406.5</ele><time>2026-04-04T12:30:12Z</time></trkpt><trkpt lat="42.819448749903096" lon="10.893535643538147"><ele>410.25</ele><time>2026-04-04T12:30:12.999Z</time></trkpt><trkpt lat="42.819355553807675" lon="10.893664934827319"><ele>414.0</ele><time>2026-04-04T12:30:13.999Z</time></trkpt><trkpt lat="42.81924054014886" lon="10.893807167976476"><ele>406.75</ele><time>2026-04-04T12:30:14.999Z</time></trkpt><trkpt lat="42.81914018191565" lon="10.893946838135099"><ele>399.5</ele><time>2026-04-04T12:30:15.999Z</time></trkpt><trkpt lat="42.819047792981344" lon="10.894078010962424"><ele>392.25</ele><time>2026-04-04T12:30:16.999Z</time></trkpt><trkpt lat="42.81894715135119" lon="10.894220918000231"><ele>385.0</ele><time>2026-04-04T12:30:17.999Z</time></trkpt><trkpt lat="42.81887375838526" lon="10.894375549334859"><ele>385.0</ele><time>2026-04-04T12:30:18.999Z</time></trkpt><trkpt lat="42.81882567898112" lon="10.894533070265762"><ele>385.0</ele><time>2026-04-04T12:30:19.999Z</time></trkpt><trkpt lat="42.81879217743548" lon="10.894684765895343"><ele>385.0</ele><time>2026-04-04T12:30:20.999Z</time></trkpt><trkpt lat="42.818761652255596" lon="10.894870364729227"><ele>385.0</ele><time>2026-04-04T12:30:21.999Z</time></trkpt><trkpt lat="42.818730898159735" lon="10.895087965719032"><ele>383.6</ele><time>2026-04-04T12:30:22.999Z</time></trkpt><trkpt lat="42.81869654839289" lon="10.895285839118333"><ele>382.2</ele><time>2026-04-04T12:30:23.999Z</time></trkpt><trkpt lat="42.81867138373056" lon="10.895437438221732"><ele>380.79999999999995</ele><time>2026-04-04T12:30:24.999Z</time></trkpt><trkpt lat="42.81866310039629" lon="10.89555942121536"><ele>379.4</ele><time>2026-04-04T12:30:25.999Z</time></trkpt><trkpt lat="42.81868246803745" lon="10.895668357010496"><ele>378.0</ele><time>2026-04-04T12:30:26.999Z</time></trkpt><trkpt lat="42.81872499398564" lon="10.895794233227255"><ele>373.2</ele><time>2026-04-04T12:30:27.999Z</time></trkpt><trkpt lat="42.81878991592705" lon="10.895926819040533"><ele>368.4</ele><time>2026-04-04T12:30:28.999Z</time></trkpt><trkpt lat="42.81887038238564" lon="10.896041403754236"><ele>363.59999999999997</ele><time>2026-04-04T12:30:29.999Z</time></trkpt><trkpt lat="42.81893156969914" lon="10.896145016304585"><ele>358.79999999999995</ele><time>2026-04-04T12:30:30.999Z</time></trkpt><trkpt lat="42.81894415626604" lon="10.896265881821467"><ele>354.0</ele><time>2026-04-04T12:30:31.999Z</time></trkpt><trkpt lat="42.81893871217659" lon="10.896423018978242"><ele>354.0</ele><time>2026-04-04T12:30:32.999Z</time></trkpt><trkpt lat="42.8189194949402" lon="10.896595497288864"><ele>354.0</ele><time>2026-04-04T12:30:33.999Z</time></trkpt><trkpt lat="42.81891435915509" lon="10.896710962538904"><ele>354.0</ele><time>2026-04-04T12:30:34.999Z</time></trkpt><trkpt lat="42.81891909681626" lon="10.896800823173333"><ele>354.0</ele><time>2026-04-04T12:30:35.999Z</time></trkpt><trkpt lat="42.818964636866575" lon="10.896866123023246"><ele>354.0</ele><time>2026-04-04T12:30:36.999Z</time></trkpt><trkpt lat="42.81903873685151" lon="10.896911797972583"><ele>354.0</ele><time>2026-04-04T12:30:37.999Z</time></trkpt><trkpt lat="42.8191394666391" lon="10.89694989559615"><ele>348.25</ele><time>2026-04-04T12:30:38.999Z</time></trkpt><trkpt lat="42.81925107483516" lon="10.896991351005095"><ele>342.5</ele><time>2026-04-04T12:30:39.999Z</time></trkpt><trkpt lat="42.81938044836861" lon="10.897018860834459"><ele>336.75</ele><time>2026-04-04T12:30:40.999Z</time></trkpt><trkpt lat="42.81952701853254" lon="10.897038095299493"><ele>331.0</ele><time>2026-04-04T12:30:42.001Z</time></trkpt><trkpt lat="42.81965449909959" lon="10.897073964710842"><ele>331.0</ele><time>2026-04-04T12:30:43.001Z</time></trkpt><trkpt lat="42.819760388904314" lon="10.897061192493327"><ele>331.0</ele><time>2026-04-04T12:30:44.001Z</time></trkpt><trkpt lat="42.81985394651346" lon="10.897068580335386"><ele>331.0</ele><time>2026-04-04T12:30:45.001Z</time></trkpt><trkpt lat="42.81996350060207" lon="10.897050213124839"><ele>331.0</ele><time>2026-04-04T12:30:46.001Z</time></trkpt><trkpt lat="42.8200721489456" lon="10.897042131432173"><ele>331.0</ele><time>2026-04-04T12:30:47.001Z</time></trkpt><trkpt lat="42.82020735599965" lon="10.896988032519381"><ele>338.25</ele><time>2026-04-04T12:30:48.001Z</time></trkpt><trkpt lat="42.82036380666465" lon="10.896932672568038"><ele>345.5</ele><time>2026-04-04T12:30:49.001Z</time></trkpt><trkpt lat="42.82051124995772" lon="10.896889772335946"><ele>352.75</ele><time>2026-04-04T12:30:50.001Z</time></trkpt><trkpt lat="42.820642598346815" lon="10.896852430639274"><ele>360.0</ele><time>2026-04-04T12:30:51.001Z</time></trkpt><trkpt lat="42.820723295966225" lon="10.89682973136236"><ele>360.0</ele><time>2026-04-04T12:30:52.001Z</time></trkpt><trkpt lat="42.82080411079302" lon="10.896850342941223"><ele>360.0</ele><time>2026-04-04T12:30:53.001Z</time></trkpt><trkpt lat="42.82086853387184" lon="10.896874132760804"><ele>360.0</ele><time>2026-04-04T12:30:54.001Z</time></trkpt><trkpt lat="42.8209146981961" lon="10.896943931991567"><ele>360.0</ele><time>2026-04-04T12:30:56.001Z</time></trkpt><trkpt lat="42.820885416758074" lon="10.897101460795009"><ele>360.0</ele><time>2026-04-04T12:30:58Z</time></trkpt><trkpt lat="42.82080400031244" lon="10.897301683570987"><ele>360.0</ele><time>2026-04-04T12:30:59Z</time></trkpt><trkpt lat="42.82072003464195" lon="10.897565825774679"><ele>360.0</ele><time>2026-04-04T12:31:00Z</time></trkpt><trkpt lat="42.820644041984984" lon="10.897808960986062"><ele>360.0</ele><time>2026-04-04T12:31:01Z</time></trkpt><trkpt lat="42.82057574100962" lon="10.898024974738478"><ele>360.25</ele><time>2026-04-04T12:31:02Z</time></trkpt><trkpt lat="42.82054673668928" lon="10.898205197834296"><ele>360.5</ele><time>2026-04-04T12:31:03Z</time></trkpt><trkpt lat="42.82051089275054" lon="10.898368499386617"><ele>360.75</ele><time>2026-04-04T12:31:04Z</time></trkpt><trkpt lat="42.820443030407304" lon="10.898562682260149"><ele>361.0</ele><time>2026-04-04T12:31:05Z</time></trkpt><trkpt lat="42.82036681611623" lon="10.898755369550823"><ele>361.25</ele><time>2026-04-04T12:31:06Z</time></trkpt><trkpt lat="42.82027134420292" lon="10.898932195656375"><ele>361.5</ele><time>2026-04-04T12:31:07Z</time></trkpt><trkpt lat="42.82020323648909" lon="10.899108771467464"><ele>361.75</ele><time>2026-04-04T12:31:08Z</time></trkpt><trkpt lat="42.82015286072774" lon="10.899248913711443"><ele>362.0</ele><time>2026-04-04T12:31:09Z</time></trkpt><trkpt lat="42.82011988625204" lon="10.899414810600863"><ele>353.0</ele><time>2026-04-04T12:31:10Z</time></trkpt><trkpt lat="42.820107556076415" lon="10.89959629057032"><ele>344.0</ele><time>2026-04-04T12:31:11Z</time></trkpt><trkpt lat="42.820099030809786" lon="10.899776331334971"><ele>335.0</ele><time>2026-04-04T12:31:12Z</time></trkpt><trkpt lat="42.82011510692124" lon="10.89993669947595"><ele>326.0</ele><time>2026-04-04T12:31:13Z</time></trkpt><trkpt lat="42.82015618595536" lon="10.900131742904563"><ele>326.0</ele><time>2026-04-04T12:31:14Z</time></trkpt><trkpt lat="42.82017315710308" lon="10.900276275756818"><ele>326.0</ele><time>2026-04-04T12:31:15Z</time></trkpt><trkpt lat="42.820194298321276" lon="10.900430148100591"><ele>326.0</ele><time>2026-04-04T12:31:16Z</time></trkpt><trkpt lat="42.820230226982645" lon="10.900555206639373"><ele>326.0</ele><time>2026-04-04T12:31:17Z</time></trkpt><trkpt lat="42.82028412331567" lon="10.90063709529097"><ele>326.0</ele><time>2026-04-04T12:31:18Z</time></trkpt><trkpt lat="42.82036052403022" lon="10.900676025731606"><ele>326.0</ele><time>2026-04-04T12:31:19Z</time></trkpt><trkpt lat="42.820453823056745" lon="10.900695339045798"><ele>326.0</ele><time>2026-04-04T12:31:19.999Z</time></trkpt><trkpt lat="42.820572157488805" lon="10.900683260055688"><ele>326.0</ele><time>2026-04-04T12:31:20.999Z</time></trkpt><trkpt lat="42.820696032210414" lon="10.900673800413314"><ele>326.0</ele><time>2026-04-04T12:31:21.999Z</time></trkpt><trkpt lat="42.82082080896905" lon="10.900697532785257"><ele>326.0</ele><time>2026-04-04T12:31:22.999Z</time></trkpt><trkpt lat="42.82095485130786" lon="10.900725876683747"><ele>326.0</ele><time>2026-04-04T12:31:23.999Z</time></trkpt><trkpt lat="42.82107440776465" lon="10.900804032730337"><ele>326.0</ele><time>2026-04-04T12:31:24.999Z</time></trkpt><trkpt lat="42.82120814553407" lon="10.900871341836991"><ele>326.0</ele><time>2026-04-04T12:31:25.999Z</time></trkpt><trkpt lat="42.82132267907187" lon="10.900951911580925"><ele>326.20000000000005</ele><time>2026-04-04T12:31:26.999Z</time></trkpt><trkpt lat="42.821386206677694" lon="10.900991182727143"><ele>326.40000000000003</ele><time>2026-04-04T12:31:27.999Z</time></trkpt><trkpt lat="42.82149883226159" lon="10.900972249369678"><ele>326.6</ele><time>2026-04-04T12:31:28.999Z</time></trkpt><trkpt lat="42.82161667942657" lon="10.900924296119815"><ele>326.8</ele><time>2026-04-04T12:31:29.999Z</time></trkpt><trkpt lat="42.82174262380576" lon="10.9008921243106"><ele>327.0</ele><time>2026-04-04T12:31:30.999Z</time></trkpt><trkpt lat="42.821875268043115" lon="10.900890743965196"><ele>328.6666666666667</ele><time>2026-04-04T12:31:31.999Z</time></trkpt><trkpt lat="42.82198115221573" lon="10.900895884506253"><ele>330.3333333333333</ele><time>2026-04-04T12:31:32.999Z</time></trkpt><trkpt lat="42.82206032931908" lon="10.900907126645103"><ele>332.0</ele><time>2026-04-04T12:31:33.999Z</time></trkpt><trkpt lat="42.82215672814669" lon="10.900884372177027"><ele>333.66666666666663</ele><time>2026-04-04T12:31:34.999Z</time></trkpt><trkpt lat="42.82224245208466" lon="10.900850986191891"><ele>335.3333333333333</ele><time>2026-04-04T12:31:35.999Z</time></trkpt><trkpt lat="42.82231085952106" lon="10.900853108690985"><ele>337.0</ele><time>2026-04-04T12:31:36.999Z</time></trkpt><trkpt lat="42.8223624781386" lon="10.900954633145217"><ele>330.0</ele><time>2026-04-04T12:31:38.999Z</time></trkpt><trkpt lat="42.82237557174959" lon="10.901098263476264"><ele>323.0</ele><time>2026-04-04T12:31:39.999Z</time></trkpt><trkpt lat="42.82239918905818" lon="10.901296827457198"><ele>316.0</ele><time>2026-04-04T12:31:40.999Z</time></trkpt><trkpt lat="42.82244774745261" lon="10.90145666316851"><ele>309.0</ele><time>2026-04-04T12:31:41.999Z</time></trkpt><trkpt lat="42.822522348583554" lon="10.90156331656915"><ele>309.0</ele><time>2026-04-04T12:31:42.999Z</time></trkpt><trkpt lat="42.82257690717824" lon="10.901639040838482"><ele>309.0</ele><time>2026-04-04T12:31:43.999Z</time></trkpt><trkpt lat="42.82263877621477" lon="10.901724242943622"><ele>309.0</ele><time>2026-04-04T12:31:44.999Z</time></trkpt><trkpt lat="42.82273400885326" lon="10.901748964601333"><ele>309.0</ele><time>2026-04-04T12:31:45.999Z</time></trkpt><trkpt lat="42.82286888112652" lon="10.901767454138659"><ele>309.0</ele><time>2026-04-04T12:31:46.999Z</time></trkpt><trkpt lat="42.82300930341669" lon="10.901783263887534"><ele>307.8</ele><time>2026-04-04T12:31:47.999Z</time></trkpt><trkpt lat="42.82309564100612" lon="10.901835543581035"><ele>306.59999999999997</ele><time>2026-04-04T12:31:48.999Z</time></trkpt><trkpt lat="42.82315921017583" lon="10.90190224696494"><ele>305.4</ele><time>2026-04-04T12:31:49.999Z</time></trkpt><trkpt lat="42.82324187635888" lon="10.901951057390345"><ele>304.2</ele><time>2026-04-04T12:31:50.999Z</time></trkpt><trkpt lat="42.82332669921911" lon="10.902032790598943"><ele>303.0</ele><time>2026-04-04T12:31:51.999Z</time></trkpt><trkpt lat="42.82340355596084" lon="10.90213038158417"><ele>303.0</ele><time>2026-04-04T12:31:52.999Z</time></trkpt><trkpt lat="42.82348010309655" lon="10.902262126757988"><ele>303.0</ele><time>2026-04-04T12:31:53.999Z</time></trkpt><trkpt lat="42.823563380154454" lon="10.902357175855839"><ele>303.0</ele><time>2026-04-04T12:31:54.999Z</time></trkpt><trkpt lat="42.82354781322578" lon="10.902641939782882"><ele>303.0</ele><time>2026-04-04T12:31:55.999Z</time></trkpt><trkpt lat="42.82359300283796" lon="10.902789115250442"><ele>302.5</ele><time>2026-04-04T12:31:56.999Z</time></trkpt><trkpt lat="42.823630757580716" lon="10.902919373801126"><ele>302.0</ele><time>2026-04-04T12:31:57.999Z</time></trkpt><trkpt lat="42.82365916459819" lon="10.90300252251279"><ele>301.5</ele><time>2026-04-04T12:31:58.999Z</time></trkpt><trkpt lat="42.82370259124514" lon="10.903072856541016"><ele>301.0</ele><time>2026-04-04T12:31:59.999Z</time></trkpt><trkpt lat="42.823813938656315" lon="10.903076350382202"><ele>300.5</ele><time>2026-04-04T12:32:01.999Z</time></trkpt><trkpt lat="42.823877517418396" lon="10.903075560054196"><ele>300.0</ele><time>2026-04-04T12:32:03.999Z</time></trkpt><trkpt lat="42.82381828499912" lon="10.903114385661384"><ele>300.0</ele><time>2026-04-04T12:32:07.999Z</time></trkpt><trkpt lat="42.82375478754275" lon="10.903183839422118"><ele>300.0</ele><time>2026-04-04T12:32:09.999Z</time></trkpt><trkpt lat="42.82367028812692" lon="10.903229366272251"><ele>300.0</ele><time>2026-04-04T12:32:11.999Z</time></trkpt><trkpt lat="42.82360529546802" lon="10.903306840110186"><ele>300.0</ele><time>2026-04-04T12:32:12.999Z</time></trkpt><trkpt lat="42.8235095673958" lon="10.903398879387947"><ele>300.0</ele><time>2026-04-04T12:32:14.999Z</time></trkpt><trkpt lat="42.82346018129142" lon="10.90348019908571"><ele>297.6</ele><time>2026-04-04T12:32:15.999Z</time></trkpt><trkpt lat="42.82339124767038" lon="10.903583609927427"><ele>295.2</ele><time>2026-04-04T12:32:16.999Z</time></trkpt><trkpt lat="42.823313819303465" lon="10.903714799670436"><ele>292.8</ele><time>2026-04-04T12:32:17.999Z</time></trkpt><trkpt lat="42.82323529517549" lon="10.903829969823915"><ele>290.4</ele><time>2026-04-04T12:32:18.999Z</time></trkpt><trkpt lat="42.82317654604132" lon="10.903930341879345"><ele>288.0</ele><time>2026-04-04T12:32:19.999Z</time></trkpt><trkpt lat="42.823124647778954" lon="10.904044247716262"><ele>288.0</ele><time>2026-04-04T12:32:20.999Z</time></trkpt><trkpt lat="42.823086622835625" lon="10.90413971310812"><ele>288.0</ele><time>2026-04-04T12:32:21.999Z</time></trkpt><trkpt lat="42.82306497360001" lon="10.904240962876818"><ele>288.0</ele><time>2026-04-04T12:32:22.999Z</time></trkpt><trkpt lat="42.823039111277204" lon="10.904353739092073"><ele>288.0</ele><time>2026-04-04T12:32:23.999Z</time></trkpt><trkpt lat="42.82297984336743" lon="10.904460198190781"><ele>288.0</ele><time>2026-04-04T12:32:24.999Z</time></trkpt><trkpt lat="42.822932734716346" lon="10.904555238289564"><ele>288.0</ele><time>2026-04-04T12:32:25.999Z</time></trkpt><trkpt lat="42.82287913078346" lon="10.90466487024641"><ele>288.5</ele><time>2026-04-04T12:32:26.998Z</time></trkpt><trkpt lat="42.822854538168826" lon="10.904755679304683"><ele>289.0</ele><time>2026-04-04T12:32:27.998Z</time></trkpt><trkpt lat="42.82278903650922" lon="10.904835335576525"><ele>289.5</ele><time>2026-04-04T12:32:29.998Z</time></trkpt><trkpt lat="42.82270033644359" lon="10.904794994781058"><ele>290.0</ele><time>2026-04-04T12:32:33.998Z</time></trkpt><trkpt lat="42.82261861211012" lon="10.904777616777487"><ele>290.5</ele><time>2026-04-04T12:32:34.998Z</time></trkpt><trkpt lat="42.82253214876028" lon="10.904806633456667"><ele>291.0</ele><time>2026-04-04T12:32:36.998Z</time></trkpt><trkpt lat="42.822462184605484" lon="10.904806804548288"><ele>283.40000000000003</ele><time>2026-04-04T12:32:39.998Z</time></trkpt><trkpt lat="42.822458517539786" lon="10.904935041633104"><ele>275.8</ele><time>2026-04-04T12:32:45.998Z</time></trkpt><trkpt lat="42.82240980371703" lon="10.905065391842887"><ele>268.20000000000005</ele><time>2026-04-04T12:32:48Z</time></trkpt><trkpt lat="42.822362539647806" lon="10.905166030527418"><ele>260.6</ele><time>2026-04-04T12:32:50Z</time></trkpt><trkpt lat="42.822380838983364" lon="10.905289117097857"><ele>253.0</ele><time>2026-04-04T12:32:52Z</time></trkpt><trkpt lat="42.82241922768253" lon="10.905374932300257"><ele>252.8</ele><time>2026-04-04T12:32:53Z</time></trkpt><trkpt lat="42.82246467467878" lon="10.905479836882067"><ele>252.60000000000002</ele><time>2026-04-04T12:32:54Z</time></trkpt><trkpt lat="42.82251414363694" lon="10.905604269743419"><ele>252.39999999999998</ele><time>2026-04-04T12:32:55Z</time></trkpt><trkpt lat="42.82255638804614" lon="10.90572754773546"><ele>252.2</ele><time>2026-04-04T12:32:56Z</time></trkpt><trkpt lat="42.822605463164045" lon="10.905871654973492"><ele>252.0</ele><time>2026-04-04T12:32:57Z</time></trkpt><trkpt lat="42.82263372106265" lon="10.906003049781493"><ele>251.2</ele><time>2026-04-04T12:32:58Z</time></trkpt><trkpt lat="42.82262885988191" lon="10.90612849705113"><ele>250.39999999999998</ele><time>2026-04-04T12:32:59Z</time></trkpt><trkpt lat="42.822613375475676" lon="10.906266527816472"><ele>249.60000000000002</ele><time>2026-04-04T12:33:00Z</time></trkpt><trkpt lat="42.82262046773279" lon="10.90642621710495"><ele>248.8</ele><time>2026-04-04T12:33:01Z</time></trkpt><trkpt lat="42.82266062585934" lon="10.906576190763936"><ele>248.0</ele><time>2026-04-04T12:33:02Z</time></trkpt><trkpt lat="42.82271486649677" lon="10.9066662736943"><ele>251.4</ele><time>2026-04-04T12:33:03Z</time></trkpt><trkpt lat="42.82278325247477" lon="10.906707633953333"><ele>254.8</ele><time>2026-04-04T12:33:04Z</time></trkpt><trkpt lat="42.82288574198594" lon="10.906728831472995"><ele>258.2</ele><time>2026-04-04T12:33:05Z</time></trkpt><trkpt lat="42.82299393256544" lon="10.906758761418864"><ele>261.6</ele><time>2026-04-04T12:33:05.999Z</time></trkpt><trkpt lat="42.82312048994049" lon="10.906743672148192"><ele>265.0</ele><time>2026-04-04T12:33:06.999Z</time></trkpt><trkpt lat="42.82322289827244" lon="10.906747818382158"><ele>265.0</ele><time>2026-04-04T12:33:07.999Z</time></trkpt><trkpt lat="42.823299015674856" lon="10.906813233622822"><ele>265.0</ele><time>2026-04-04T12:33:08.999Z</time></trkpt><trkpt lat="42.82334893445878" lon="10.9069694300553"><ele>265.0</ele><time>2026-04-04T12:33:10.999Z</time></trkpt><trkpt lat="42.82339847257079" lon="10.907113756188751"><ele>265.0</ele><time>2026-04-04T12:33:11.999Z</time></trkpt><trkpt lat="42.82339480367" lon="10.907276073875908"><ele>265.0</ele><time>2026-04-04T12:33:12.999Z</time></trkpt><trkpt lat="42.82341020207237" lon="10.907466883357388"><ele>265.0</ele><time>2026-04-04T12:33:13.999Z</time></trkpt><trkpt lat="42.823421943364394" lon="10.90767277420528"><ele>265.0</ele><time>2026-04-04T12:33:14.999Z</time></trkpt><trkpt lat="42.82340627441875" lon="10.9078468376477"><ele>265.0</ele><time>2026-04-04T12:33:15.999Z</time></trkpt><trkpt lat="42.82341080418446" lon="10.908010345120031"><ele>264.5</ele><time>2026-04-04T12:33:16.999Z</time></trkpt><trkpt lat="42.823455598624484" lon="10.908153237375027"><ele>264.0</ele><time>2026-04-04T12:33:17.999Z</time></trkpt><trkpt lat="42.82353098843265" lon="10.908265412681356"><ele>263.5</ele><time>2026-04-04T12:33:18.999Z</time></trkpt><trkpt lat="42.82361002866977" lon="10.908365737925704"><ele>263.0</ele><time>2026-04-04T12:33:19.999Z</time></trkpt><trkpt lat="42.82372114981359" lon="10.908439888299782"><ele>264.0</ele><time>2026-04-04T12:33:20.999Z</time></trkpt><trkpt lat="42.82382993076386" lon="10.908551818481623"><ele>265.0</ele><time>2026-04-04T12:33:21.999Z</time></trkpt><trkpt lat="42.82389239443561" lon="10.908685976829611"><ele>266.0</ele><time>2026-04-04T12:33:22.999Z</time></trkpt><trkpt lat="42.82393367778719" lon="10.908828853031139"><ele>267.0</ele><time>2026-04-04T12:33:23.999Z</time></trkpt><trkpt lat="42.82398376785822" lon="10.908944859298172"><ele>267.0</ele><time>2026-04-04T12:33:24.999Z</time></trkpt><trkpt lat="42.82405051239503" lon="10.909022594561323"><ele>267.0</ele><time>2026-04-04T12:33:25.999Z</time></trkpt><trkpt lat="42.82415465029771" lon="10.909068451053061"><ele>267.0</ele><time>2026-04-04T12:33:26.999Z</time></trkpt><trkpt lat="42.824277455574354" lon="10.909113158932463"><ele>267.0</ele><time>2026-04-04T12:33:27.999Z</time></trkpt><trkpt lat="42.82441120704848" lon="10.909152144123427"><ele>265.0</ele><time>2026-04-04T12:33:28.999Z</time></trkpt><trkpt lat="42.82455824086604" lon="10.909189336757036"><ele>263.0</ele><time>2026-04-04T12:33:29.999Z</time></trkpt><trkpt lat="42.82472064824902" lon="10.909240781791192"><ele>261.0</ele><time>2026-04-04T12:33:30.999Z</time></trkpt><trkpt lat="42.82487359884334" lon="10.909249394463535"><ele>261.0</ele><time>2026-04-04T12:33:31.999Z</time></trkpt><trkpt lat="42.82503011392156" lon="10.909269465136529"><ele>261.0</ele><time>2026-04-04T12:33:32.999Z</time></trkpt><trkpt lat="42.82516883167087" lon="10.909335852896723"><ele>261.0</ele><time>2026-04-04T12:33:33.999Z</time></trkpt><trkpt lat="42.825298002792806" lon="10.909416256682336"><ele>261.0</ele><time>2026-04-04T12:33:34.999Z</time></trkpt><trkpt lat="42.82542916384992" lon="10.909472249004837"><ele>266.25</ele><time>2026-04-04T12:33:35.999Z</time></trkpt><trkpt lat="42.82556970020897" lon="10.909513533671127"><ele>271.5</ele><time>2026-04-04T12:33:36.999Z</time></trkpt><trkpt lat="42.825649258837835" lon="10.909596084802741"><ele>276.75</ele><time>2026-04-04T12:33:37.999Z</time></trkpt><trkpt lat="42.82572200013095" lon="10.90968741576005"><ele>282.0</ele><time>2026-04-04T12:33:38.999Z</time></trkpt><trkpt lat="42.82576401023614" lon="10.90983714412693"><ele>282.0</ele><time>2026-04-04T12:33:39.999Z</time></trkpt><trkpt lat="42.82579741028933" lon="10.910009908037445"><ele>282.0</ele><time>2026-04-04T12:33:40.999Z</time></trkpt><trkpt lat="42.825822662771756" lon="10.910204974761003"><ele>282.0</ele><time>2026-04-04T12:33:41.999Z</time></trkpt><trkpt lat="42.82585742141876" lon="10.910397905802446"><ele>282.0</ele><time>2026-04-04T12:33:42.999Z</time></trkpt><trkpt lat="42.82591711248082" lon="10.91056108642966"><ele>282.0</ele><time>2026-04-04T12:33:43.999Z</time></trkpt><trkpt lat="42.8259763529249" lon="10.910711579626422"><ele>282.0</ele><time>2026-04-04T12:33:44.999Z</time></trkpt><trkpt lat="42.826045537325506" lon="10.910852293637637"><ele>282.0</ele><time>2026-04-04T12:33:45.999Z</time></trkpt><trkpt lat="42.82611983747739" lon="10.910985073923442"><ele>282.0</ele><time>2026-04-04T12:33:46.999Z</time></trkpt><trkpt lat="42.82620001905785" lon="10.911117458469775"><ele>282.0</ele><time>2026-04-04T12:33:47.999Z</time></trkpt><trkpt lat="42.8262701229207" lon="10.911271861742284"><ele>282.0</ele><time>2026-04-04T12:33:48.999Z</time></trkpt><trkpt lat="42.82631767395227" lon="10.911458549856263"><ele>282.0</ele><time>2026-04-04T12:33:49.999Z</time></trkpt><trkpt lat="42.826346928406814" lon="10.911658212994142"><ele>282.0</ele><time>2026-04-04T12:33:50.999Z</time></trkpt><trkpt lat="42.82638331597178" lon="10.911848802572141"><ele>284.25</ele><time>2026-04-04T12:33:51.998Z</time></trkpt><trkpt lat="42.82640624983646" lon="10.91202998090921"><ele>286.5</ele><time>2026-04-04T12:33:52.998Z</time></trkpt><trkpt lat="42.826437413841305" lon="10.912200320261872"><ele>288.75</ele><time>2026-04-04T12:33:53.998Z</time></trkpt><trkpt lat="42.826482692416235" lon="10.912364615772532"><ele>291.0</ele><time>2026-04-04T12:33:54.998Z</time></trkpt><trkpt lat="42.82654650912388" lon="10.912508472753853"><ele>291.25</ele><time>2026-04-04T12:33:55.998Z</time></trkpt><trkpt lat="42.826629076817916" lon="10.91264030663323"><ele>291.5</ele><time>2026-04-04T12:33:56.998Z</time></trkpt><trkpt lat="42.82671278142225" lon="10.912766445478763"><ele>291.75</ele><time>2026-04-04T12:33:57.998Z</time></trkpt><trkpt lat="42.826795311223364" lon="10.912882393149415"><ele>292.0</ele><time>2026-04-04T12:33:58.998Z</time></trkpt><trkpt lat="42.82684586865702" lon="10.912996112850761"><ele>289.8</ele><time>2026-04-04T12:33:59.998Z</time></trkpt><trkpt lat="42.826875553241685" lon="10.913108344147153"><ele>287.6</ele><time>2026-04-04T12:34:00.998Z</time></trkpt><trkpt lat="42.8269019346911" lon="10.913228506403872"><ele>285.40000000000003</ele><time>2026-04-04T12:34:01.998Z</time></trkpt><trkpt lat="42.826906368564295" lon="10.91335312355856"><ele>283.2</ele><time>2026-04-04T12:34:02.998Z</time></trkpt><trkpt lat="42.826896866533296" lon="10.913513794793552"><ele>281.0</ele><time>2026-04-04T12:34:03.998Z</time></trkpt><trkpt lat="42.82689202540062" lon="10.913688408558182"><ele>281.0</ele><time>2026-04-04T12:34:04.998Z</time></trkpt><trkpt lat="42.826920773259154" lon="10.913862075160226"><ele>281.0</ele><time>2026-04-04T12:34:05.998Z</time></trkpt><trkpt lat="42.826954069165026" lon="10.9140426867167"><ele>281.0</ele><time>2026-04-04T12:34:06.998Z</time></trkpt><trkpt lat="42.82699051858627" lon="10.914192216882357"><ele>281.0</ele><time>2026-04-04T12:34:07.998Z</time></trkpt><trkpt lat="42.82704983082872" lon="10.914306077874079"><ele>279.75</ele><time>2026-04-04T12:34:08.998Z</time></trkpt><trkpt lat="42.82713305296826" lon="10.914408655080189"><ele>278.5</ele><time>2026-04-04T12:34:09.998Z</time></trkpt><trkpt lat="42.82720321543779" lon="10.914536162728972"><ele>277.25</ele><time>2026-04-04T12:34:10.998Z</time></trkpt><trkpt lat="42.82725206906476" lon="10.91467889019282"><ele>276.0</ele><time>2026-04-04T12:34:11.998Z</time></trkpt><trkpt lat="42.82729885192312" lon="10.914821988006205"><ele>276.0</ele><time>2026-04-04T12:34:12.998Z</time></trkpt><trkpt lat="42.82728428972222" lon="10.914941492062693"><ele>276.0</ele><time>2026-04-04T12:34:13.998Z</time></trkpt><trkpt lat="42.827285079126675" lon="10.915075155162718"><ele>276.0</ele><time>2026-04-04T12:34:14.998Z</time></trkpt><trkpt lat="42.827270986267536" lon="10.915205811745391"><ele>276.0</ele><time>2026-04-04T12:34:15.998Z</time></trkpt><trkpt lat="42.827242569602525" lon="10.915330322599003"><ele>276.0</ele><time>2026-04-04T12:34:16.998Z</time></trkpt><trkpt lat="42.82718729910205" lon="10.915438111431408"><ele>273.2</ele><time>2026-04-04T12:34:17.998Z</time></trkpt><trkpt lat="42.827111713047195" lon="10.915571910195773"><ele>270.40000000000003</ele><time>2026-04-04T12:34:18.998Z</time></trkpt><trkpt lat="42.82703301709167" lon="10.915686866893964"><ele>267.6</ele><time>2026-04-04T12:34:19.998Z</time></trkpt><trkpt lat="42.8269711124332" lon="10.915801542103912"><ele>264.8</ele><time>2026-04-04T12:34:20.998Z</time></trkpt><trkpt lat="42.82692999970933" lon="10.91591615230742"><ele>262.0</ele><time>2026-04-04T12:34:21.998Z</time></trkpt><trkpt lat="42.82690840237057" lon="10.916020418051168"><ele>260.57142857142856</ele><time>2026-04-04T12:34:22.998Z</time></trkpt><trkpt lat="42.826908043233445" lon="10.916126098110167"><ele>259.14285714285717</ele><time>2026-04-04T12:34:23.998Z</time></trkpt><trkpt lat="42.826919054782" lon="10.916226468183462"><ele>257.7142857142857</ele><time>2026-04-04T12:34:24.998Z</time></trkpt><trkpt lat="42.82694975693797" lon="10.91631280965532"><ele>256.2857142857143</ele><time>2026-04-04T12:34:25.998Z</time></trkpt><trkpt lat="42.82698735815064" lon="10.916384254233163"><ele>254.85714285714286</ele><time>2026-04-04T12:34:26.998Z</time></trkpt><trkpt lat="42.82702575569712" lon="10.916465945695856"><ele>253.42857142857144</ele><time>2026-04-04T12:34:27.998Z</time></trkpt><trkpt lat="42.827081606019256" lon="10.916533294778628"><ele>252.0</ele><time>2026-04-04T12:34:28.998Z</time></trkpt><trkpt lat="42.82715223337817" lon="10.916594033232288"><ele>252.0</ele><time>2026-04-04T12:34:29.998Z</time></trkpt><trkpt lat="42.82722606449766" lon="10.916663241234389"><ele>252.0</ele><time>2026-04-04T12:34:30.998Z</time></trkpt><trkpt lat="42.82728217427862" lon="10.916726914070232"><ele>252.0</ele><time>2026-04-04T12:34:31.998Z</time></trkpt><trkpt lat="42.827333588734895" lon="10.916778158248992"><ele>252.0</ele><time>2026-04-04T12:34:32.998Z</time></trkpt><trkpt lat="42.8273917157792" lon="10.916818164161844"><ele>252.0</ele><time>2026-04-04T12:34:33.998Z</time></trkpt><trkpt lat="42.82748718325598" lon="10.916939636195771"><ele>252.0</ele><time>2026-04-04T12:34:35.998Z</time></trkpt><trkpt lat="42.827538473387676" lon="10.917022141421656"><ele>248.25</ele><time>2026-04-04T12:34:36.998Z</time></trkpt><trkpt lat="42.82759563246189" lon="10.917109639589624"><ele>244.5</ele><time>2026-04-04T12:34:37.998Z</time></trkpt><trkpt lat="42.82765133010375" lon="10.917230728141112"><ele>240.75</ele><time>2026-04-04T12:34:38.998Z</time></trkpt><trkpt lat="42.8277171438229" lon="10.91740713781551"><ele>237.0</ele><time>2026-04-04T12:34:39.998Z</time></trkpt><trkpt lat="42.827781940781776" lon="10.917588656768302"><ele>233.0</ele><time>2026-04-04T12:34:40.998Z</time></trkpt><trkpt lat="42.827829820072466" lon="10.917734101288039"><ele>229.0</ele><time>2026-04-04T12:34:41.998Z</time></trkpt><trkpt lat="42.82789104773963" lon="10.917890602214282"><ele>225.0</ele><time>2026-04-04T12:34:42.998Z</time></trkpt><trkpt lat="42.827963788101485" lon="10.918038271570095"><ele>221.0</ele><time>2026-04-04T12:34:43.998Z</time></trkpt><trkpt lat="42.82802373010571" lon="10.918217843823228"><ele>221.0</ele><time>2026-04-04T12:34:44.998Z</time></trkpt><trkpt lat="42.828096981544476" lon="10.918421567159573"><ele>221.0</ele><time>2026-04-04T12:34:45.998Z</time></trkpt><trkpt lat="42.828175879915406" lon="10.918628440734977"><ele>221.0</ele><time>2026-04-04T12:34:46.998Z</time></trkpt><trkpt lat="42.828251737237785" lon="10.918801410683729"><ele>221.0</ele><time>2026-04-04T12:34:47.998Z</time></trkpt><trkpt lat="42.82829962343352" lon="10.918952674261204"><ele>221.00000000000003</ele><time>2026-04-04T12:34:48.998Z</time></trkpt><trkpt lat="42.82835460367197" lon="10.919099974406334"><ele>221.00000000000003</ele><time>2026-04-04T12:34:49.998Z</time></trkpt><trkpt lat="42.82839405591174" lon="10.919239190181692"><ele>221.0</ele><time>2026-04-04T12:34:50.998Z</time></trkpt><trkpt lat="42.828411633445775" lon="10.919355100085678"><ele>221.0</ele><time>2026-04-04T12:34:51.998Z</time></trkpt><trkpt lat="42.82840990497861" lon="10.919468098957793"><ele>220.25</ele><time>2026-04-04T12:34:52.998Z</time></trkpt><trkpt lat="42.8284215536861" lon="10.919622697382808"><ele>219.5</ele><time>2026-04-04T12:34:53.999Z</time></trkpt><trkpt lat="42.82843809087567" lon="10.919775297204684"><ele>218.75</ele><time>2026-04-04T12:34:54.999Z</time></trkpt><trkpt lat="42.82846854633433" lon="10.91991886064536"><ele>218.0</ele><time>2026-04-04T12:34:55.999Z</time></trkpt><trkpt lat="42.82850431484811" lon="10.92008203996909"><ele>215.60000000000002</ele><time>2026-04-04T12:34:56.999Z</time></trkpt><trkpt lat="42.82854224206737" lon="10.920250500130507"><ele>213.20000000000002</ele><time>2026-04-04T12:34:57.999Z</time></trkpt><trkpt lat="42.828557992330815" lon="10.920415630245593"><ele>210.8</ele><time>2026-04-04T12:34:58.999Z</time></trkpt><trkpt lat="42.828578691269236" lon="10.920552904692236"><ele>208.4</ele><time>2026-04-04T12:34:59.999Z</time></trkpt><trkpt lat="42.82858813108947" lon="10.920680610850656"><ele>206.0</ele><time>2026-04-04T12:35:00.999Z</time></trkpt><trkpt lat="42.82859611235714" lon="10.920838916195313"><ele>205.4</ele><time>2026-04-04T12:35:01.999Z</time></trkpt><trkpt lat="42.82857161518511" lon="10.92096461151716"><ele>204.8</ele><time>2026-04-04T12:35:02.999Z</time></trkpt><trkpt lat="42.828547982763965" lon="10.921056007968021"><ele>204.20000000000002</ele><time>2026-04-04T12:35:03.999Z</time></trkpt><trkpt lat="42.82849634639195" lon="10.921170218546612"><ele>203.60000000000002</ele><time>2026-04-04T12:35:05.999Z</time></trkpt><trkpt lat="42.82841720560743" lon="10.921296377319843"><ele>203.0</ele><time>2026-04-04T12:35:07.999Z</time></trkpt><trkpt lat="42.828396373223065" lon="10.921434603761963"><ele>203.0</ele><time>2026-04-04T12:35:08.999Z</time></trkpt><trkpt lat="42.82837110328119" lon="10.921578390450662"><ele>203.0</ele><time>2026-04-04T12:35:09.999Z</time></trkpt><trkpt lat="42.82832518006763" lon="10.921691835395066"><ele>203.0</ele><time>2026-04-04T12:35:10.999Z</time></trkpt><trkpt lat="42.82826168140952" lon="10.921805208197947"><ele>203.0</ele><time>2026-04-04T12:35:11.999Z</time></trkpt><trkpt lat="42.82820905076212" lon="10.921918485658383"><ele>203.0</ele><time>2026-04-04T12:35:12.999Z</time></trkpt><trkpt lat="42.82816975031607" lon="10.92200169017146"><ele>200.60000000000002</ele><time>2026-04-04T12:35:13.999Z</time></trkpt><trkpt lat="42.82817386970147" lon="10.922176184288006"><ele>198.20000000000002</ele><time>2026-04-04T12:35:15.999Z</time></trkpt><trkpt lat="42.82816433846951" lon="10.922268436914434"><ele>195.8</ele><time>2026-04-04T12:35:16.999Z</time></trkpt><trkpt lat="42.82813985835246" lon="10.922378893808519"><ele>193.4</ele><time>2026-04-04T12:35:18.999Z</time></trkpt><trkpt lat="42.82819983847421" lon="10.9224056787117"><ele>191.0</ele><time>2026-04-04T12:35:24.999Z</time></trkpt><trkpt lat="42.82831449456973" lon="10.922413181846983"><ele>191.0</ele><time>2026-04-04T12:35:29.999Z</time></trkpt><trkpt lat="42.8283973596702" lon="10.922414621738694"><ele>191.0</ele><time>2026-04-04T12:35:30.999Z</time></trkpt><trkpt lat="42.82847101328679" lon="10.922404555739005"><ele>191.0</ele><time>2026-04-04T12:35:31.999Z</time></trkpt><trkpt lat="42.82854867755468" lon="10.922386035078189"><ele>191.0</ele><time>2026-04-04T12:35:32.999Z</time></trkpt><trkpt lat="42.828627057410216" lon="10.922362801277245"><ele>191.0</ele><time>2026-04-04T12:35:33.999Z</time></trkpt><trkpt lat="42.82870715020497" lon="10.922341421636558"><ele>191.0</ele><time>2026-04-04T12:35:34.999Z</time></trkpt><trkpt lat="42.82877331643722" lon="10.92230468174287"><ele>187.60000000000002</ele><time>2026-04-04T12:35:35.999Z</time></trkpt><trkpt lat="42.82883326413599" lon="10.922192305244135"><ele>184.2</ele><time>2026-04-04T12:35:37.999Z</time></trkpt><trkpt lat="42.82886914641719" lon="10.922108754682423"><ele>180.8</ele><time>2026-04-04T12:35:38.999Z</time></trkpt><trkpt lat="42.828928029520775" lon="10.922007710624682"><ele>177.39999999999998</ele><time>2026-04-04T12:35:39.999Z</time></trkpt><trkpt lat="42.82900421795848" lon="10.921953302613085"><ele>174.0</ele><time>2026-04-04T12:35:40.999Z</time></trkpt><trkpt lat="42.82910153390488" lon="10.92194245884882"><ele>174.0</ele><time>2026-04-04T12:35:41.999Z</time></trkpt><trkpt lat="42.829188692921406" lon="10.921939285071918"><ele>174.0</ele><time>2026-04-04T12:35:42.999Z</time></trkpt><trkpt lat="42.829255467732956" lon="10.921913080758545"><ele>174.0</ele><time>2026-04-04T12:35:43.999Z</time></trkpt><trkpt lat="42.82934273631979" lon="10.921922087686063"><ele>174.0</ele><time>2026-04-04T12:35:44.999Z</time></trkpt><trkpt lat="42.82943150829736" lon="10.92192871863906"><ele>174.0</ele><time>2026-04-04T12:35:45.999Z</time></trkpt><trkpt lat="42.82953035472924" lon="10.921942585106223"><ele>174.0</ele><time>2026-04-04T12:35:46.999Z</time></trkpt><trkpt lat="42.82963040268655" lon="10.921924431199585"><ele>172.39999999999998</ele><time>2026-04-04T12:35:47.999Z</time></trkpt><trkpt lat="42.82973175257059" lon="10.921893976328894"><ele>170.8</ele><time>2026-04-04T12:35:48.999Z</time></trkpt><trkpt lat="42.82981423166481" lon="10.92179820961479"><ele>169.2</ele><time>2026-04-04T12:35:49.999Z</time></trkpt><trkpt lat="42.829927494361726" lon="10.9216885445965"><ele>167.60000000000002</ele><time>2026-04-04T12:35:50.999Z</time></trkpt><trkpt lat="42.82998152414465" lon="10.921576324281334"><ele>166.0</ele><time>2026-04-04T12:35:51.999Z</time></trkpt><trkpt lat="42.83003166671105" lon="10.921442368874303"><ele>166.0</ele><time>2026-04-04T12:35:52.999Z</time></trkpt><trkpt lat="42.83007645948332" lon="10.921287200170216"><ele>166.0</ele><time>2026-04-04T12:35:53.999Z</time></trkpt><trkpt lat="42.830125347134434" lon="10.92115023428602"><ele>166.0</ele><time>2026-04-04T12:35:54.999Z</time></trkpt><trkpt lat="42.83016872778366" lon="10.921009904234708"><ele>166.0</ele><time>2026-04-04T12:35:55.999Z</time></trkpt><trkpt lat="42.830203144161786" lon="10.920872543733884"><ele>159.0</ele><time>2026-04-04T12:35:56.999Z</time></trkpt><trkpt lat="42.830246033541606" lon="10.920735618110655"><ele>152.0</ele><time>2026-04-04T12:35:57.999Z</time></trkpt><trkpt lat="42.83028260161058" lon="10.920613283509287"><ele>145.0</ele><time>2026-04-04T12:35:58.999Z</time></trkpt><trkpt lat="42.83031226099353" lon="10.920499566975751"><ele>138.0</ele><time>2026-04-04T12:35:59.999Z</time></trkpt><trkpt lat="42.83033264293179" lon="10.920397905122776"><ele>131.0</ele><time>2026-04-04T12:36:00.999Z</time></trkpt><trkpt lat="42.83028702716102" lon="10.920302662940625"><ele>131.0</ele><time>2026-04-04T12:36:01.999Z</time></trkpt><trkpt lat="42.83024278743605" lon="10.920189058954652"><ele>131.0</ele><time>2026-04-04T12:36:02.999Z</time></trkpt><trkpt lat="42.83025549995286" lon="10.920079659395105"><ele>131.0</ele><time>2026-04-04T12:36:04.999Z</time></trkpt><trkpt lat="42.83041178463939" lon="10.920074076139626"><ele>131.0</ele><time>2026-04-04T12:36:06.999Z</time></trkpt><trkpt lat="42.830509144964644" lon="10.920074354545275"><ele>131.0</ele><time>2026-04-04T12:36:07.999Z</time></trkpt><trkpt lat="42.83059763249512" lon="10.920056276577169"><ele>132.5</ele><time>2026-04-04T12:36:08.999Z</time></trkpt><trkpt lat="42.83066996632963" lon="10.920035542126158"><ele>134.0</ele><time>2026-04-04T12:36:09.999Z</time></trkpt><trkpt lat="42.83075845052173" lon="10.920019149076449"><ele>135.5</ele><time>2026-04-04T12:36:10.999Z</time></trkpt><trkpt lat="42.83084558408912" lon="10.920037515361118"><ele>137.0</ele><time>2026-04-04T12:36:11.999Z</time></trkpt><trkpt lat="42.83090891658849" lon="10.920003111812651"><ele>138.5</ele><time>2026-04-04T12:36:12.999Z</time></trkpt><trkpt lat="42.830979205052" lon="10.919949008770526"><ele>140.0</ele><time>2026-04-04T12:36:13.999Z</time></trkpt><trkpt lat="42.831058482632464" lon="10.919871197303246"><ele>136.66666666666666</ele><time>2026-04-04T12:36:14.999Z</time></trkpt><trkpt lat="42.83112070524056" lon="10.919769729174352"><ele>133.33333333333331</ele><time>2026-04-04T12:36:15.999Z</time></trkpt><trkpt lat="42.83114599792409" lon="10.919661511984405"><ele>130.0</ele><time>2026-04-04T12:36:16.999Z</time></trkpt><trkpt lat="42.83117266991034" lon="10.919540294462863"><ele>126.66666666666666</ele><time>2026-04-04T12:36:17.999Z</time></trkpt><trkpt lat="42.83118867106526" lon="10.919406154124708"><ele>123.33333333333333</ele><time>2026-04-04T12:36:18.999Z</time></trkpt><trkpt lat="42.83124241344656" lon="10.91933147861861"><ele>120.0</ele><time>2026-04-04T12:36:19.999Z</time></trkpt><trkpt lat="42.83132319167107" lon="10.919289792636327"><ele>120.0</ele><time>2026-04-04T12:36:20.999Z</time></trkpt><trkpt lat="42.83138964445095" lon="10.919270350049418"><ele>120.0</ele><time>2026-04-04T12:36:21.999Z</time></trkpt><trkpt lat="42.831471389478885" lon="10.919282274869897"><ele>120.0</ele><time>2026-04-04T12:36:23.999Z</time></trkpt><trkpt lat="42.831490233007145" lon="10.919391220343037"><ele>120.0</ele><time>2026-04-04T12:36:24.999Z</time></trkpt><trkpt lat="42.83148296366549" lon="10.919553149271103"><ele>120.0</ele><time>2026-04-04T12:36:26.999Z</time></trkpt><trkpt lat="42.831501824001805" lon="10.919707325081884"><ele>120.0</ele><time>2026-04-04T12:36:27.999Z</time></trkpt><trkpt lat="42.831498270467016" lon="10.919869302957702"><ele>120.0</ele><time>2026-04-04T12:36:28.999Z</time></trkpt><trkpt lat="42.831492650233116" lon="10.920113968157008"><ele>120.0</ele><time>2026-04-04T12:36:29.999Z</time></trkpt><trkpt lat="42.83147888762045" lon="10.92037361275532"><ele>119.0</ele><time>2026-04-04T12:36:30.999Z</time></trkpt><trkpt lat="42.83145699470583" lon="10.920600963012044"><ele>118.0</ele><time>2026-04-04T12:36:31.999Z</time></trkpt><trkpt lat="42.83143398573614" lon="10.920809901839712"><ele>117.0</ele><time>2026-04-04T12:36:32.999Z</time></trkpt><trkpt lat="42.83140383812773" lon="10.921001989626863"><ele>115.66666666666666</ele><time>2026-04-04T12:36:33.999Z</time></trkpt><trkpt lat="42.83134039211314" lon="10.921203960372477"><ele>114.33333333333333</ele><time>2026-04-04T12:36:34.999Z</time></trkpt><trkpt lat="42.8312722510643" lon="10.921414764353356"><ele>113.0</ele><time>2026-04-04T12:36:35.999Z</time></trkpt><trkpt lat="42.83121525975663" lon="10.921598485186617"><ele>112.75</ele><time>2026-04-04T12:36:36.999Z</time></trkpt><trkpt lat="42.83116145276317" lon="10.921782261928835"><ele>112.5</ele><time>2026-04-04T12:36:37.999Z</time></trkpt><trkpt lat="42.83111293137232" lon="10.921953750750871"><ele>112.25</ele><time>2026-04-04T12:36:38.999Z</time></trkpt><trkpt lat="42.8310619521156" lon="10.922138670767668"><ele>112.0</ele><time>2026-04-04T12:36:39.999Z</time></trkpt><trkpt lat="42.83099577168686" lon="10.92230857616944"><ele>111.75</ele><time>2026-04-04T12:36:40.999Z</time></trkpt><trkpt lat="42.83092191975449" lon="10.922452136766037"><ele>111.5</ele><time>2026-04-04T12:36:41.999Z</time></trkpt><trkpt lat="42.830849019292096" lon="10.922604128333557"><ele>111.25</ele><time>2026-04-04T12:36:42.999Z</time></trkpt><trkpt lat="42.830779116288085" lon="10.922766449375324"><ele>111.0</ele><time>2026-04-04T12:36:43.999Z</time></trkpt><trkpt lat="42.83070656765487" lon="10.922918327979406"><ele>111.0</ele><time>2026-04-04T12:36:44.999Z</time></trkpt><trkpt lat="42.830649010330596" lon="10.923099704021883"><ele>111.0</ele><time>2026-04-04T12:36:45.999Z</time></trkpt><trkpt lat="42.83065181677688" lon="10.92323040472829"><ele>111.0</ele><time>2026-04-04T12:36:46.999Z</time></trkpt><trkpt lat="42.83068159414962" lon="10.923384257911149"><ele>111.0</ele><time>2026-04-04T12:36:47.999Z</time></trkpt><trkpt lat="42.830743773461336" lon="10.923537638320447"><ele>110.25</ele><time>2026-04-04T12:36:48.999Z</time></trkpt><trkpt lat="42.8307485580787" lon="10.923713246730307"><ele>109.5</ele><time>2026-04-04T12:36:49.999Z</time></trkpt><trkpt lat="42.83075321284755" lon="10.923870473000083"><ele>108.75</ele><time>2026-04-04T12:36:50.999Z</time></trkpt><trkpt lat="42.83079629464586" lon="10.924028375347627"><ele>108.0</ele><time>2026-04-04T12:36:51.999Z</time></trkpt><trkpt lat="42.830838842570174" lon="10.924208683516328"><ele>106.25</ele><time>2026-04-04T12:36:52.999Z</time></trkpt><trkpt lat="42.83086793003926" lon="10.924384482940441"><ele>104.5</ele><time>2026-04-04T12:36:53.999Z</time></trkpt><trkpt lat="42.830877736507986" lon="10.9245476457336"><ele>102.75</ele><time>2026-04-04T12:36:54.999Z</time></trkpt><trkpt lat="42.83087278521229" lon="10.924715558541056"><ele>101.0</ele><time>2026-04-04T12:36:55.998Z</time></trkpt><trkpt lat="42.83085168205867" lon="10.924884209607885"><ele>101.0</ele><time>2026-04-04T12:36:56.998Z</time></trkpt><trkpt lat="42.83080877847852" lon="10.925047689621065"><ele>101.0</ele><time>2026-04-04T12:36:57.998Z</time></trkpt><trkpt lat="42.83076547911056" lon="10.925223821967755"><ele>101.0</ele><time>2026-04-04T12:36:58.998Z</time></trkpt><trkpt lat="42.830751650795584" lon="10.925404856537781"><ele>101.0</ele><time>2026-04-04T12:37:00Z</time></trkpt><trkpt lat="42.8307285732188" lon="10.92555277016458"><ele>100.25</ele><time>2026-04-04T12:37:01Z</time></trkpt><trkpt lat="42.830685767236204" lon="10.92572817426022"><ele>99.5</ele><time>2026-04-04T12:37:02Z</time></trkpt><trkpt lat="42.83064853123105" lon="10.925913758520398"><ele>98.75</ele><time>2026-04-04T12:37:03Z</time></trkpt><trkpt lat="42.83062763907654" lon="10.926128773173186"><ele>98.0</ele><time>2026-04-04T12:37:04Z</time></trkpt><trkpt lat="42.83061038390892" lon="10.926339387935803"><ele>97.75</ele><time>2026-04-04T12:37:05Z</time></trkpt><trkpt lat="42.830606558749665" lon="10.926538347572958"><ele>97.5</ele><time>2026-04-04T12:37:06Z</time></trkpt><trkpt lat="42.83059723246476" lon="10.926724856247986"><ele>97.25</ele><time>2026-04-04T12:37:07Z</time></trkpt><trkpt lat="42.83059699554742" lon="10.926929751301065"><ele>97.0</ele><time>2026-04-04T12:37:08Z</time></trkpt><trkpt lat="42.830614302536056" lon="10.927159374906807"><ele>96.0</ele><time>2026-04-04T12:37:09Z</time></trkpt><trkpt lat="42.83064376132432" lon="10.927386446482378"><ele>95.0</ele><time>2026-04-04T12:37:10Z</time></trkpt><trkpt lat="42.83065559310156" lon="10.92758668960798"><ele>94.0</ele><time>2026-04-04T12:37:11Z</time></trkpt><trkpt lat="42.83066170303211" lon="10.92775568027433"><ele>93.0</ele><time>2026-04-04T12:37:12Z</time></trkpt><trkpt lat="42.8306788357362" lon="10.927902764293165"><ele>92.5</ele><time>2026-04-04T12:37:13Z</time></trkpt><trkpt lat="42.830719888316565" lon="10.928045300869426"><ele>92.0</ele><time>2026-04-04T12:37:14Z</time></trkpt><trkpt lat="42.83077517811536" lon="10.928216886398937"><ele>91.5</ele><time>2026-04-04T12:37:15Z</time></trkpt><trkpt lat="42.8308160552584" lon="10.928408149176219"><ele>91.0</ele><time>2026-04-04T12:37:16Z</time></trkpt><trkpt lat="42.83082654817213" lon="10.928595045089208"><ele>90.25</ele><time>2026-04-04T12:37:17Z</time></trkpt><trkpt lat="42.8308138592183" lon="10.928757462821874"><ele>89.5</ele><time>2026-04-04T12:37:18Z</time></trkpt><trkpt lat="42.83081012326889" lon="10.928919509249143"><ele>88.75</ele><time>2026-04-04T12:37:19Z</time></trkpt><trkpt lat="42.83079112184665" lon="10.929082533246495"><ele>88.0</ele><time>2026-04-04T12:37:20Z</time></trkpt><trkpt lat="42.830753194337824" lon="10.92921861962435"><ele>87.25</ele><time>2026-04-04T12:37:21Z</time></trkpt><trkpt lat="42.83073269579083" lon="10.92935219115834"><ele>86.5</ele><time>2026-04-04T12:37:22Z</time></trkpt><trkpt lat="42.830721275751195" lon="10.929493782917003"><ele>85.75</ele><time>2026-04-04T12:37:23Z</time></trkpt><trkpt lat="42.83074164139327" lon="10.929668170279166"><ele>85.0</ele><time>2026-04-04T12:37:24Z</time></trkpt><trkpt lat="42.83071606610753" lon="10.929866049729142"><ele>85.0</ele><time>2026-04-04T12:37:25Z</time></trkpt><trkpt lat="42.830701382489984" lon="10.930047359741442"><ele>85.0</ele><time>2026-04-04T12:37:26Z</time></trkpt><trkpt lat="42.83067598468709" lon="10.930258205455921"><ele>85.0</ele><time>2026-04-04T12:37:27Z</time></trkpt><trkpt lat="42.830664686731375" lon="10.930452483887445"><ele>85.0</ele><time>2026-04-04T12:37:28Z</time></trkpt><trkpt lat="42.83064246617438" lon="10.930638648023992"><ele>85.0</ele><time>2026-04-04T12:37:29Z</time></trkpt><trkpt lat="42.83061600765747" lon="10.930789033155568"><ele>85.0</ele><time>2026-04-04T12:37:30Z</time></trkpt><trkpt lat="42.830586090568346" lon="10.930924890821732"><ele>85.0</ele><time>2026-04-04T12:37:31Z</time></trkpt><trkpt lat="42.83057974217157" lon="10.931071848371591"><ele>85.0</ele><time>2026-04-04T12:37:32Z</time></trkpt><trkpt lat="42.83059801881105" lon="10.931230004440017"><ele>85.0</ele><time>2026-04-04T12:37:33Z</time></trkpt><trkpt lat="42.83060971507027" lon="10.931392480017674"><ele>84.75</ele><time>2026-04-04T12:37:34Z</time></trkpt><trkpt lat="42.83060396692494" lon="10.931557859036278"><ele>84.5</ele><time>2026-04-04T12:37:35Z</time></trkpt><trkpt lat="42.83057078443677" lon="10.931720800813856"><ele>84.25</ele><time>2026-04-04T12:37:36Z</time></trkpt><trkpt lat="42.83053145780308" lon="10.93189202175302"><ele>84.0</ele><time>2026-04-04T12:37:37Z</time></trkpt><trkpt lat="42.830485394930335" lon="10.932058632677691"><ele>83.5</ele><time>2026-04-04T12:37:38Z</time></trkpt><trkpt lat="42.830402009096076" lon="10.93218473346675"><ele>83.0</ele><time>2026-04-04T12:37:39Z</time></trkpt><trkpt lat="42.830327623401786" lon="10.932287908732421"><ele>82.5</ele><time>2026-04-04T12:37:40Z</time></trkpt><trkpt lat="42.830235657103806" lon="10.932373464391135"><ele>82.0</ele><time>2026-04-04T12:37:41Z</time></trkpt><trkpt lat="42.83013091631503" lon="10.932463530777012"><ele>82.25</ele><time>2026-04-04T12:37:42Z</time></trkpt><trkpt lat="42.83002843190651" lon="10.93256408370154"><ele>82.5</ele><time>2026-04-04T12:37:43Z</time></trkpt><trkpt lat="42.82994066247976" lon="10.932697544028157"><ele>82.75</ele><time>2026-04-04T12:37:43.999Z</time></trkpt><trkpt lat="42.82986020127251" lon="10.932827476426327"><ele>83.0</ele><time>2026-04-04T12:37:44.999Z</time></trkpt><trkpt lat="42.82982550445673" lon="10.932941016604559"><ele>83.0</ele><time>2026-04-04T12:37:45.999Z</time></trkpt><trkpt lat="42.82983842006643" lon="10.933033703635171"><ele>83.0</ele><time>2026-04-04T12:37:46.999Z</time></trkpt><trkpt lat="42.829858311286614" lon="10.933140786446444"><ele>83.0</ele><time>2026-04-04T12:37:47.999Z</time></trkpt><trkpt lat="42.829879800941804" lon="10.933287160896425"><ele>83.0</ele><time>2026-04-04T12:37:48.999Z</time></trkpt><trkpt lat="42.829889895663065" lon="10.933453655385932"><ele>83.0</ele><time>2026-04-04T12:37:49.999Z</time></trkpt><trkpt lat="42.82986436270464" lon="10.93362545428199"><ele>81.5</ele><time>2026-04-04T12:37:50.999Z</time></trkpt><trkpt lat="42.829835396323055" lon="10.933807408613239"><ele>80.0</ele><time>2026-04-04T12:37:51.999Z</time></trkpt><trkpt lat="42.82983203054256" lon="10.934002670447272"><ele>78.5</ele><time>2026-04-04T12:37:52.999Z</time></trkpt><trkpt lat="42.82982854195257" lon="10.934178897839617"><ele>77.0</ele><time>2026-04-04T12:37:53.999Z</time></trkpt><trkpt lat="42.82982524029743" lon="10.93432282543567"><ele>76.5</ele><time>2026-04-04T12:37:54.999Z</time></trkpt><trkpt lat="42.829798520588284" lon="10.934444950276223"><ele>76.0</ele><time>2026-04-04T12:37:55.999Z</time></trkpt><trkpt lat="42.82974445225043" lon="10.934593995311584"><ele>75.5</ele><time>2026-04-04T12:37:56.999Z</time></trkpt><trkpt lat="42.829659621526424" lon="10.934747111573065"><ele>75.0</ele><time>2026-04-04T12:37:57.999Z</time></trkpt><trkpt lat="42.82955565792546" lon="10.934913486580172"><ele>75.0</ele><time>2026-04-04T12:37:58.999Z</time></trkpt><trkpt lat="42.82944961290823" lon="10.935090801384037"><ele>75.0</ele><time>2026-04-04T12:37:59.999Z</time></trkpt><trkpt lat="42.82935599296818" lon="10.935270274416066"><ele>75.0</ele><time>2026-04-04T12:38:00.999Z</time></trkpt><trkpt lat="42.8292743683452" lon="10.935434020085367"><ele>75.5</ele><time>2026-04-04T12:38:01.999Z</time></trkpt><trkpt lat="42.829175760645064" lon="10.935597517432575"><ele>76.0</ele><time>2026-04-04T12:38:02.999Z</time></trkpt><trkpt lat="42.82908227981606" lon="10.935739399589583"><ele>76.5</ele><time>2026-04-04T12:38:03.999Z</time></trkpt><trkpt lat="42.82899246949858" lon="10.935853452683926"><ele>77.0</ele><time>2026-04-04T12:38:04.999Z</time></trkpt><trkpt lat="42.82891232858627" lon="10.935972798199023"><ele>76.0</ele><time>2026-04-04T12:38:05.999Z</time></trkpt><trkpt lat="42.82882921442478" lon="10.936100919047922"><ele>75.0</ele><time>2026-04-04T12:38:06.999Z</time></trkpt><trkpt lat="42.828754014847036" lon="10.936270689047934"><ele>74.0</ele><time>2026-04-04T12:38:07.999Z</time></trkpt><trkpt lat="42.8286779504238" lon="10.9364538195187"><ele>73.0</ele><time>2026-04-04T12:38:08.999Z</time></trkpt><trkpt lat="42.828590066000686" lon="10.93663972010741"><ele>73.66666666666666</ele><time>2026-04-04T12:38:09.999Z</time></trkpt><trkpt lat="42.82851416755218" lon="10.936822243992998"><ele>74.33333333333333</ele><time>2026-04-04T12:38:10.999Z</time></trkpt><trkpt lat="42.82843961557045" lon="10.937013050854944"><ele>75.0</ele><time>2026-04-04T12:38:11.999Z</time></trkpt><trkpt lat="42.828358627773774" lon="10.93720870401281"><ele>75.0</ele><time>2026-04-04T12:38:12.999Z</time></trkpt><trkpt lat="42.82828993277697" lon="10.937382888540693"><ele>75.0</ele><time>2026-04-04T12:38:13.999Z</time></trkpt><trkpt lat="42.82821411182657" lon="10.937546122007996"><ele>75.0</ele><time>2026-04-04T12:38:14.999Z</time></trkpt><trkpt lat="42.82811898125802" lon="10.937727986508472"><ele>72.66666666666667</ele><time>2026-04-04T12:38:15.999Z</time></trkpt><trkpt lat="42.828021724193164" lon="10.937906814943723"><ele>70.33333333333334</ele><time>2026-04-04T12:38:16.999Z</time></trkpt><trkpt lat="42.82793824892859" lon="10.938091004230305"><ele>68.0</ele><time>2026-04-04T12:38:17.999Z</time></trkpt><trkpt lat="42.827872334385965" lon="10.93825469285111"><ele>67.25</ele><time>2026-04-04T12:38:18.999Z</time></trkpt><trkpt lat="42.82781457948483" lon="10.938418579655334"><ele>66.5</ele><time>2026-04-04T12:38:19.999Z</time></trkpt><trkpt lat="42.82773303696131" lon="10.938597530595612"><ele>65.75</ele><time>2026-04-04T12:38:20.999Z</time></trkpt><trkpt lat="42.82765752290649" lon="10.938780336970257"><ele>65.0</ele><time>2026-04-04T12:38:21.999Z</time></trkpt><trkpt lat="42.82757732794526" lon="10.93894462925869"><ele>66.0</ele><time>2026-04-04T12:38:22.999Z</time></trkpt><trkpt lat="42.827492524412065" lon="10.939091721348852"><ele>67.0</ele><time>2026-04-04T12:38:23.999Z</time></trkpt><trkpt lat="42.82742322223163" lon="10.93924420393323"><ele>68.0</ele><time>2026-04-04T12:38:24.999Z</time></trkpt><trkpt lat="42.827358540282574" lon="10.939425307607422"><ele>69.0</ele><time>2026-04-04T12:38:25.999Z</time></trkpt><trkpt lat="42.82730812541351" lon="10.939624879460748"><ele>69.0</ele><time>2026-04-04T12:38:26.999Z</time></trkpt><trkpt lat="42.827257350971635" lon="10.939826009026532"><ele>69.0</ele><time>2026-04-04T12:38:27.999Z</time></trkpt><trkpt lat="42.82719707227347" lon="10.9400118049342"><ele>69.0</ele><time>2026-04-04T12:38:28.999Z</time></trkpt><trkpt lat="42.827145515763576" lon="10.940167576616332"><ele>69.0</ele><time>2026-04-04T12:38:29.999Z</time></trkpt><trkpt lat="42.82710424147395" lon="10.94033564387551"><ele>68.0</ele><time>2026-04-04T12:38:30.999Z</time></trkpt><trkpt lat="42.82706535940603" lon="10.94051243831684"><ele>67.0</ele><time>2026-04-04T12:38:31.999Z</time></trkpt><trkpt lat="42.827053035300494" lon="10.94069960490454"><ele>66.0</ele><time>2026-04-04T12:38:32.999Z</time></trkpt><trkpt lat="42.82701441315495" lon="10.94088781943985"><ele>65.0</ele><time>2026-04-04T12:38:33.999Z</time></trkpt><trkpt lat="42.826968037218684" lon="10.941068625726595"><ele>65.0</ele><time>2026-04-04T12:38:34.999Z</time></trkpt><trkpt lat="42.82690203818051" lon="10.94126111108944"><ele>65.0</ele><time>2026-04-04T12:38:35.999Z</time></trkpt><trkpt lat="42.82686745919125" lon="10.941440175697942"><ele>65.0</ele><time>2026-04-04T12:38:36.999Z</time></trkpt><trkpt lat="42.82684159594869" lon="10.941616849904676"><ele>65.0</ele><time>2026-04-04T12:38:37.999Z</time></trkpt><trkpt lat="42.82678875583062" lon="10.941790768797494"><ele>64.75</ele><time>2026-04-04T12:38:38.999Z</time></trkpt><trkpt lat="42.82673428598389" lon="10.94195494503332"><ele>64.5</ele><time>2026-04-04T12:38:39.999Z</time></trkpt><trkpt lat="42.82669787254181" lon="10.942121014722371"><ele>64.25</ele><time>2026-04-04T12:38:40.999Z</time></trkpt><trkpt lat="42.82666004914409" lon="10.942277433491451"><ele>64.0</ele><time>2026-04-04T12:38:41.999Z</time></trkpt><trkpt lat="42.8266078746062" lon="10.942433740861393"><ele>62.6</ele><time>2026-04-04T12:38:42.999Z</time></trkpt><trkpt lat="42.82656757916822" lon="10.942568906626994"><ele>61.2</ele><time>2026-04-04T12:38:43.999Z</time></trkpt><trkpt lat="42.826525586108495" lon="10.942709329032343"><ele>59.800000000000004</ele><time>2026-04-04T12:38:44.999Z</time></trkpt><trkpt lat="42.82649554895568" lon="10.942853164583786"><ele>58.400000000000006</ele><time>2026-04-04T12:38:45.999Z</time></trkpt><trkpt lat="42.82645672106686" lon="10.942987535481732"><ele>57.0</ele><time>2026-04-04T12:38:46.999Z</time></trkpt><trkpt lat="42.82639518943993" lon="10.943119918016405"><ele>57.0</ele><time>2026-04-04T12:38:47.999Z</time></trkpt><trkpt lat="42.82634405215385" lon="10.943216777009365"><ele>57.0</ele><time>2026-04-04T12:38:48.999Z</time></trkpt><trkpt lat="42.826313248126795" lon="10.943333198008395"><ele>57.0</ele><time>2026-04-04T12:38:49.999Z</time></trkpt><trkpt lat="42.82626054315012" lon="10.943455199552611"><ele>57.0</ele><time>2026-04-04T12:38:50.999Z</time></trkpt><trkpt lat="42.82618976956967" lon="10.943558859819428"><ele>57.0</ele><time>2026-04-04T12:38:51.999Z</time></trkpt><trkpt lat="42.82611206390264" lon="10.943663194960596"><ele>57.25</ele><time>2026-04-04T12:38:52.999Z</time></trkpt><trkpt lat="42.826042840398586" lon="10.943779722512764"><ele>57.5</ele><time>2026-04-04T12:38:53.999Z</time></trkpt><trkpt lat="42.82598121871854" lon="10.943909611087939"><ele>57.75</ele><time>2026-04-04T12:38:54.999Z</time></trkpt><trkpt lat="42.825916265806164" lon="10.944060084081315"><ele>58.0</ele><time>2026-04-04T12:38:55.999Z</time></trkpt><trkpt lat="42.82585280657991" lon="10.944182368557623"><ele>57.2</ele><time>2026-04-04T12:38:56.999Z</time></trkpt><trkpt lat="42.82579045501" lon="10.944284376082681"><ele>56.4</ele><time>2026-04-04T12:38:57.999Z</time></trkpt><trkpt lat="42.825733116901205" lon="10.944379546672629"><ele>55.60000000000001</ele><time>2026-04-04T12:38:58.999Z</time></trkpt><trkpt lat="42.825695780746216" lon="10.944461791146024"><ele>54.800000000000004</ele><time>2026-04-04T12:38:59.999Z</time></trkpt><trkpt lat="42.82567472289349" lon="10.944546504530306"><ele>54.0</ele><time>2026-04-04T12:39:00.999Z</time></trkpt><trkpt lat="42.82571839341813" lon="10.944712127304838"><ele>54.0</ele><time>2026-04-04T12:39:02.999Z</time></trkpt><trkpt lat="42.82570524249124" lon="10.944798972883005"><ele>54.00000000000001</ele><time>2026-04-04T12:39:03.999Z</time></trkpt><trkpt lat="42.825660345046074" lon="10.94490430286591"><ele>54.00000000000001</ele><time>2026-04-04T12:39:04.999Z</time></trkpt><trkpt lat="42.82559357285947" lon="10.945015697610051"><ele>54.0</ele><time>2026-04-04T12:39:06Z</time></trkpt><trkpt lat="42.82553030818088" lon="10.945135533043837"><ele>54.0</ele><time>2026-04-04T12:39:07Z</time></trkpt><trkpt lat="42.825480917632255" lon="10.945255719208232"><ele>53.800000000000004</ele><time>2026-04-04T12:39:08Z</time></trkpt><trkpt lat="42.82544995742339" lon="10.945366524588358"><ele>53.60000000000001</ele><time>2026-04-04T12:39:09Z</time></trkpt><trkpt lat="42.82541973408747" lon="10.945509294678411"><ele>53.4</ele><time>2026-04-04T12:39:11Z</time></trkpt><trkpt lat="42.82538475516298" lon="10.945673929849589"><ele>53.2</ele><time>2026-04-04T12:39:13Z</time></trkpt><trkpt lat="42.82539366615261" lon="10.945797577046916"><ele>53.0</ele><time>2026-04-04T12:39:15Z</time></trkpt><trkpt lat="42.82549922737836" lon="10.945829994404583"><ele>53.00000000000001</ele><time>2026-04-04T12:39:17Z</time></trkpt><trkpt lat="42.82558630967343" lon="10.945851566011367"><ele>53.0</ele><time>2026-04-04T12:39:19Z</time></trkpt><trkpt lat="42.82556940798698" lon="10.945939647710247"><ele>53.0</ele><time>2026-04-04T12:39:21Z</time></trkpt><trkpt lat="42.825519343060996" lon="10.946003336838999"><ele>53.0</ele><time>2026-04-04T12:39:22Z</time></trkpt><trkpt lat="42.825441416175345" lon="10.946075537318247"><ele>53.00000000000001</ele><time>2026-04-04T12:39:23Z</time></trkpt><trkpt lat="42.82540437198889" lon="10.946153504622336"><ele>53.0</ele><time>2026-04-04T12:39:24Z</time></trkpt><trkpt lat="42.825451667710844" lon="10.946260190711111"><ele>53.0</ele><time>2026-04-04T12:39:26Z</time></trkpt><trkpt lat="42.82552265220324" lon="10.946242420418969"><ele>53.0</ele><time>2026-04-04T12:39:27Z</time></trkpt><trkpt lat="42.82561823699837" lon="10.946196923433382"><ele>53.0</ele><time>2026-04-04T12:39:28Z</time></trkpt><trkpt lat="42.825722950212985" lon="10.946174666362218"><ele>53.0</ele><time>2026-04-04T12:39:29Z</time></trkpt><trkpt lat="42.82584791495702" lon="10.94615883695187"><ele>53.0</ele><time>2026-04-04T12:39:30Z</time></trkpt><trkpt lat="42.82597422142315" lon="10.946151001698341"><ele>53.25</ele><time>2026-04-04T12:39:31Z</time></trkpt><trkpt lat="42.82610771278781" lon="10.946138527821"><ele>53.5</ele><time>2026-04-04T12:39:32Z</time></trkpt><trkpt lat="42.82624739228112" lon="10.94611830319484"><ele>53.75</ele><time>2026-04-04T12:39:33Z</time></trkpt><trkpt lat="42.82639001690771" lon="10.946105780353975"><ele>54.0</ele><time>2026-04-04T12:39:34Z</time></trkpt><trkpt lat="42.82653272257324" lon="10.946091014971275"><ele>54.0</ele><time>2026-04-04T12:39:35Z</time></trkpt><trkpt lat="42.826675100336" lon="10.946078485994388"><ele>54.0</ele><time>2026-04-04T12:39:36Z</time></trkpt><trkpt lat="42.82682050120514" lon="10.946062425771968"><ele>54.0</ele><time>2026-04-04T12:39:37Z</time></trkpt><trkpt lat="42.82696329227211" lon="10.94605079870676"><ele>54.0</ele><time>2026-04-04T12:39:38Z</time></trkpt><trkpt lat="42.82710718418317" lon="10.946035446212552"><ele>54.0</ele><time>2026-04-04T12:39:39Z</time></trkpt><trkpt lat="42.82725105143931" lon="10.946023126301244"><ele>54.0</ele><time>2026-04-04T12:39:40Z</time></trkpt><trkpt lat="42.82739269122607" lon="10.946008314125642"><ele>54.0</ele><time>2026-04-04T12:39:41Z</time></trkpt><trkpt lat="42.82753313619025" lon="10.945994419586894"><ele>54.0</ele><time>2026-04-04T12:39:42Z</time></trkpt><trkpt lat="42.82767266533759" lon="10.945984414236658"><ele>54.25</ele><time>2026-04-04T12:39:43Z</time></trkpt><trkpt lat="42.827817126896505" lon="10.94597320455472"><ele>54.5</ele><time>2026-04-04T12:39:44Z</time></trkpt><trkpt lat="42.82796262844786" lon="10.945958520039103"><ele>54.75</ele><time>2026-04-04T12:39:45Z</time></trkpt><trkpt lat="42.82811154131361" lon="10.945945233399119"><ele>55.0</ele><time>2026-04-04T12:39:46Z</time></trkpt><trkpt lat="42.82825885321567" lon="10.94593542458912"><ele>55.0</ele><time>2026-04-04T12:39:47Z</time></trkpt><trkpt lat="42.828408573283625" lon="10.94592163327833"><ele>55.0</ele><time>2026-04-04T12:39:48Z</time></trkpt><trkpt lat="42.828560338911785" lon="10.945906218478244"><ele>55.0</ele><time>2026-04-04T12:39:49Z</time></trkpt><trkpt lat="42.82871405279741" lon="10.94589010441409"><ele>55.33333333333333</ele><time>2026-04-04T12:39:50Z</time></trkpt><trkpt lat="42.82887037697193" lon="10.945878801037082"><ele>55.66666666666667</ele><time>2026-04-04T12:39:51Z</time></trkpt><trkpt lat="42.82902678689412" lon="10.945866572374827"><ele>56.0</ele><time>2026-04-04T12:39:52Z</time></trkpt><trkpt lat="42.829186482848165" lon="10.945847748321473"><ele>57.333333333333336</ele><time>2026-04-04T12:39:53Z</time></trkpt><trkpt lat="42.82934382675605" lon="10.945827132837191"><ele>58.66666666666667</ele><time>2026-04-04T12:39:54Z</time></trkpt><trkpt lat="42.82950113468005" lon="10.945809138201792"><ele>60.0</ele><time>2026-04-04T12:39:54.999Z</time></trkpt><trkpt lat="42.829656471484235" lon="10.9457953662692"><ele>60.0</ele><time>2026-04-04T12:39:55.999Z</time></trkpt><trkpt lat="42.82981230922363" lon="10.945780136817529"><ele>60.0</ele><time>2026-04-04T12:39:56.999Z</time></trkpt><trkpt lat="42.82996474700477" lon="10.945763395802452"><ele>60.0</ele><time>2026-04-04T12:39:57.999Z</time></trkpt><trkpt lat="42.830114436171954" lon="10.945748025520404"><ele>60.33333333333333</ele><time>2026-04-04T12:39:58.999Z</time></trkpt><trkpt lat="42.83026488382214" lon="10.945733699706548"><ele>60.666666666666664</ele><time>2026-04-04T12:39:59.999Z</time></trkpt><trkpt lat="42.830418529977" lon="10.945722904763976"><ele>61.0</ele><time>2026-04-04T12:40:00.999Z</time></trkpt><trkpt lat="42.83057344216193" lon="10.945713666110217"><ele>61.0</ele><time>2026-04-04T12:40:01.999Z</time></trkpt><trkpt lat="42.83072943987755" lon="10.94570030318402"><ele>61.0</ele><time>2026-04-04T12:40:02.999Z</time></trkpt><trkpt lat="42.830885305642035" lon="10.945686992599232"><ele>61.0</ele><time>2026-04-04T12:40:03.999Z</time></trkpt><trkpt lat="42.83104164780519" lon="10.945671043982536"><ele>63.666666666666664</ele><time>2026-04-04T12:40:04.999Z</time></trkpt><trkpt lat="42.83119993493582" lon="10.945655158387375"><ele>66.33333333333333</ele><time>2026-04-04T12:40:05.999Z</time></trkpt><trkpt lat="42.83135889263746" lon="10.945639496089417"><ele>69.0</ele><time>2026-04-04T12:40:06.999Z</time></trkpt><trkpt lat="42.831516431298894" lon="10.945625648451843"><ele>69.0</ele><time>2026-04-04T12:40:07.999Z</time></trkpt><trkpt lat="42.83167469003497" lon="10.945612064401047"><ele>69.0</ele><time>2026-04-04T12:40:08.999Z</time></trkpt><trkpt lat="42.831831360828474" lon="10.945596395651727"><ele>69.0</ele><time>2026-04-04T12:40:09.999Z</time></trkpt><trkpt lat="42.83198529772472" lon="10.945582036458472"><ele>71.0</ele><time>2026-04-04T12:40:10.999Z</time></trkpt><trkpt lat="42.83213831575218" lon="10.945567785237362"><ele>73.0</ele><time>2026-04-04T12:40:11.999Z</time></trkpt><trkpt lat="42.832290961980405" lon="10.9455522575307"><ele>75.0</ele><time>2026-04-04T12:40:12.999Z</time></trkpt><trkpt lat="42.832441173225696" lon="10.945534610035702"><ele>75.0</ele><time>2026-04-04T12:40:13.999Z</time></trkpt><trkpt lat="42.83258990976262" lon="10.945516396129786"><ele>75.0</ele><time>2026-04-04T12:40:14.999Z</time></trkpt><trkpt lat="42.83273615993994" lon="10.945501027942756"><ele>75.0</ele><time>2026-04-04T12:40:15.999Z</time></trkpt><trkpt lat="42.832885157270645" lon="10.94548920710346"><ele>75.0</ele><time>2026-04-04T12:40:16.999Z</time></trkpt><trkpt lat="42.83303335839106" lon="10.945475878315408"><ele>75.33333333333333</ele><time>2026-04-04T12:40:17.999Z</time></trkpt><trkpt lat="42.83318362791783" lon="10.94545946490849"><ele>75.66666666666666</ele><time>2026-04-04T12:40:18.999Z</time></trkpt><trkpt lat="42.83333624506897" lon="10.94544757010448"><ele>76.0</ele><time>2026-04-04T12:40:19.999Z</time></trkpt><trkpt lat="42.833491735469266" lon="10.945445784374943"><ele>76.0</ele><time>2026-04-04T12:40:20.999Z</time></trkpt><trkpt lat="42.83364882548899" lon="10.945460134302468"><ele>76.0</ele><time>2026-04-04T12:40:21.999Z</time></trkpt><trkpt lat="42.83380865835209" lon="10.945500219148986"><ele>76.0</ele><time>2026-04-04T12:40:22.999Z</time></trkpt><trkpt lat="42.83396434130443" lon="10.94556433736811"><ele>76.0</ele><time>2026-04-04T12:40:23.999Z</time></trkpt><trkpt lat="42.834110335021464" lon="10.945660474991506"><ele>76.0</ele><time>2026-04-04T12:40:24.999Z</time></trkpt><trkpt lat="42.83424780602908" lon="10.945787926278381"><ele>76.0</ele><time>2026-04-04T12:40:25.999Z</time></trkpt><trkpt lat="42.83437938051929" lon="10.945930231804708"><ele>77.0</ele><time>2026-04-04T12:40:26.999Z</time></trkpt><trkpt lat="42.83450844690791" lon="10.94607153902359"><ele>78.0</ele><time>2026-04-04T12:40:27.999Z</time></trkpt><trkpt lat="42.834640578369175" lon="10.946213803465962"><ele>79.0</ele><time>2026-04-04T12:40:28.999Z</time></trkpt><trkpt lat="42.83477449693203" lon="10.946356250425675"><ele>79.0</ele><time>2026-04-04T12:40:29.999Z</time></trkpt><trkpt lat="42.83490755554043" lon="10.946495976799167"><ele>79.0</ele><time>2026-04-04T12:40:30.999Z</time></trkpt><trkpt lat="42.83504051146656" lon="10.946638111443738"><ele>79.0</ele><time>2026-04-04T12:40:31.999Z</time></trkpt><trkpt lat="42.83517506336006" lon="10.946783760064509"><ele>81.66666666666666</ele><time>2026-04-04T12:40:32.999Z</time></trkpt><trkpt lat="42.83530864164362" lon="10.946929855719365"><ele>84.33333333333333</ele><time>2026-04-04T12:40:33.999Z</time></trkpt><trkpt lat="42.835440992856654" lon="10.947077473511348"><ele>87.0</ele><time>2026-04-04T12:40:34.999Z</time></trkpt><trkpt lat="42.835574999051154" lon="10.947217179376791"><ele>87.0</ele><time>2026-04-04T12:40:35.999Z</time></trkpt><trkpt lat="42.835714982563" lon="10.947344289254588"><ele>87.0</ele><time>2026-04-04T12:40:36.999Z</time></trkpt><trkpt lat="42.83585930144965" lon="10.94745490825078"><ele>87.0</ele><time>2026-04-04T12:40:37.999Z</time></trkpt><trkpt lat="42.83600979936793" lon="10.947546126329376"><ele>88.33333333333333</ele><time>2026-04-04T12:40:38.999Z</time></trkpt><trkpt lat="42.836162119543566" lon="10.947622100546448"><ele>89.66666666666666</ele><time>2026-04-04T12:40:39.999Z</time></trkpt><trkpt lat="42.836317306688606" lon="10.947693251481663"><ele>91.0</ele><time>2026-04-04T12:40:40.999Z</time></trkpt><trkpt lat="42.836470987609445" lon="10.947767242798639"><ele>91.0</ele><time>2026-04-04T12:40:41.999Z</time></trkpt><trkpt lat="42.836624343544145" lon="10.947843887424934"><ele>91.0</ele><time>2026-04-04T12:40:42.999Z</time></trkpt><trkpt lat="42.836775166486795" lon="10.947915612996095"><ele>91.0</ele><time>2026-04-04T12:40:43.999Z</time></trkpt><trkpt lat="42.83692967390182" lon="10.947988846204105"><ele>91.0</ele><time>2026-04-04T12:40:44.999Z</time></trkpt><trkpt lat="42.8370859123603" lon="10.948061287807246"><ele>91.0</ele><time>2026-04-04T12:40:45.999Z</time></trkpt><trkpt lat="42.83724517909784" lon="10.948130516358114"><ele>91.0</ele><time>2026-04-04T12:40:46.999Z</time></trkpt><trkpt lat="42.83740429694909" lon="10.948200263883917"><ele>91.0</ele><time>2026-04-04T12:40:47.999Z</time></trkpt><trkpt lat="42.837559959047134" lon="10.948268529341027"><ele>91.0</ele><time>2026-04-04T12:40:48.999Z</time></trkpt><trkpt lat="42.837716587081005" lon="10.94832878836567"><ele>91.0</ele><time>2026-04-04T12:40:49.999Z</time></trkpt><trkpt lat="42.83787449734445" lon="10.948380939001623"><ele>92.0</ele><time>2026-04-04T12:40:50.999Z</time></trkpt><trkpt lat="42.83803289505361" lon="10.948428281872223"><ele>93.0</ele><time>2026-04-04T12:40:51.999Z</time></trkpt><trkpt lat="42.83819448937191" lon="10.948471683010055"><ele>94.0</ele><time>2026-04-04T12:40:52.999Z</time></trkpt><trkpt lat="42.83835573803915" lon="10.948512095931903"><ele>95.0</ele><time>2026-04-04T12:40:53.999Z</time></trkpt><trkpt lat="42.838513346393455" lon="10.948555852703043"><ele>96.0</ele><time>2026-04-04T12:40:54.999Z</time></trkpt><trkpt lat="42.83867285759705" lon="10.948596043214259"><ele>97.0</ele><time>2026-04-04T12:40:55.999Z</time></trkpt><trkpt lat="42.838830903105006" lon="10.948629455728641"><ele>97.0</ele><time>2026-04-04T12:40:56.999Z</time></trkpt><trkpt lat="42.838990557833405" lon="10.948655341762596"><ele>97.0</ele><time>2026-04-04T12:40:57.999Z</time></trkpt><trkpt lat="42.839150226833794" lon="10.948674146010587"><ele>97.0</ele><time>2026-04-04T12:40:58.999Z</time></trkpt><trkpt lat="42.83931014560152" lon="10.948683011342393"><ele>98.0</ele><time>2026-04-04T12:40:59.999Z</time></trkpt><trkpt lat="42.8394691717369" lon="10.948689493595598"><ele>99.0</ele><time>2026-04-04T12:41:00.999Z</time></trkpt><trkpt lat="42.83962960727327" lon="10.948696343009143"><ele>100.0</ele><time>2026-04-04T12:41:01.999Z</time></trkpt><trkpt lat="42.839789279117085" lon="10.94868346665287"><ele>100.0</ele><time>2026-04-04T12:41:02.999Z</time></trkpt><trkpt lat="42.839948689729944" lon="10.948659875476396"><ele>100.0</ele><time>2026-04-04T12:41:03.999Z</time></trkpt><trkpt lat="42.84011030862068" lon="10.94863918348637"><ele>100.0</ele><time>2026-04-04T12:41:04.999Z</time></trkpt><trkpt lat="42.84027353010057" lon="10.948615973092144"><ele>102.66666666666667</ele><time>2026-04-04T12:41:05.999Z</time></trkpt><trkpt lat="42.84043408739695" lon="10.948588167838443"><ele>105.33333333333334</ele><time>2026-04-04T12:41:06.999Z</time></trkpt><trkpt lat="42.84059398561342" lon="10.948556120848357"><ele>108.0</ele><time>2026-04-04T12:41:07.999Z</time></trkpt><trkpt lat="42.840752305832" lon="10.948528282045789"><ele>108.0</ele><time>2026-04-04T12:41:08.999Z</time></trkpt><trkpt lat="42.84091300712846" lon="10.948500613280155"><ele>108.0</ele><time>2026-04-04T12:41:09.999Z</time></trkpt><trkpt lat="42.84106872979321" lon="10.94847387410456"><ele>108.0</ele><time>2026-04-04T12:41:10.999Z</time></trkpt><trkpt lat="42.84122415547572" lon="10.948447084164446"><ele>108.0</ele><time>2026-04-04T12:41:12Z</time></trkpt><trkpt lat="42.841380219410006" lon="10.948420809284363"><ele>108.0</ele><time>2026-04-04T12:41:13Z</time></trkpt><trkpt lat="42.841534172112766" lon="10.948388814866947"><ele>108.0</ele><time>2026-04-04T12:41:14Z</time></trkpt><trkpt lat="42.84168677813574" lon="10.948341331160758"><ele>109.66666666666666</ele><time>2026-04-04T12:41:15Z</time></trkpt><trkpt lat="42.84183576600605" lon="10.94827238038283"><ele>111.33333333333333</ele><time>2026-04-04T12:41:16Z</time></trkpt><trkpt lat="42.84198358351712" lon="10.948188429830127"><ele>113.0</ele><time>2026-04-04T12:41:17Z</time></trkpt><trkpt lat="42.84213487283808" lon="10.948100701781087"><ele>113.0</ele><time>2026-04-04T12:41:18Z</time></trkpt><trkpt lat="42.84229143929759" lon="10.948016034542528"><ele>113.0</ele><time>2026-04-04T12:41:19Z</time></trkpt><trkpt lat="42.84244743154478" lon="10.947930372309282"><ele>113.0</ele><time>2026-04-04T12:41:20Z</time></trkpt><trkpt lat="42.84260340471372" lon="10.947840436213037"><ele>114.66666666666666</ele><time>2026-04-04T12:41:21Z</time></trkpt><trkpt lat="42.84276180298773" lon="10.947748570737044"><ele>116.33333333333334</ele><time>2026-04-04T12:41:22Z</time></trkpt><trkpt lat="42.842919854207466" lon="10.947655959566308"><ele>118.0</ele><time>2026-04-04T12:41:23Z</time></trkpt><trkpt lat="42.843080158254295" lon="10.947558028916486"><ele>116.66666666666667</ele><time>2026-04-04T12:41:24Z</time></trkpt><trkpt lat="42.84324170473202" lon="10.947457667450882"><ele>115.33333333333334</ele><time>2026-04-04T12:41:25Z</time></trkpt><trkpt lat="42.84340012232665" lon="10.947354351803355"><ele>114.0</ele><time>2026-04-04T12:41:26Z</time></trkpt><trkpt lat="42.843548690411254" lon="10.947265960740294"><ele>112.66666666666666</ele><time>2026-04-04T12:41:27Z</time></trkpt><trkpt lat="42.84369662364965" lon="10.947165035440063"><ele>111.33333333333333</ele><time>2026-04-04T12:41:28Z</time></trkpt><trkpt lat="42.84384020154822" lon="10.947073543560382"><ele>110.0</ele><time>2026-04-04T12:41:29Z</time></trkpt><trkpt lat="42.84398461085306" lon="10.946993655492273"><ele>110.0</ele><time>2026-04-04T12:41:30Z</time></trkpt><trkpt lat="42.84412781339427" lon="10.946913689024951"><ele>110.0</ele><time>2026-04-04T12:41:31Z</time></trkpt><trkpt lat="42.84427036231787" lon="10.946840931170918"><ele>110.0</ele><time>2026-04-04T12:41:32Z</time></trkpt><trkpt lat="42.84441393991364" lon="10.946769382410825"><ele>106.33333333333333</ele><time>2026-04-04T12:41:33Z</time></trkpt><trkpt lat="42.84455719092121" lon="10.946701137896955"><ele>102.66666666666666</ele><time>2026-04-04T12:41:34Z</time></trkpt><trkpt lat="42.84470469572649" lon="10.94664991557933"><ele>99.0</ele><time>2026-04-04T12:41:35Z</time></trkpt><trkpt lat="42.84485911850981" lon="10.946630495146406"><ele>99.0</ele><time>2026-04-04T12:41:36Z</time></trkpt><trkpt lat="42.84500787504759" lon="10.946650787283643"><ele>99.0</ele><time>2026-04-04T12:41:37Z</time></trkpt><trkpt lat="42.84515920896152" lon="10.946715472919626"><ele>99.0</ele><time>2026-04-04T12:41:38Z</time></trkpt><trkpt lat="42.84530450388579" lon="10.946804256182691"><ele>98.33333333333334</ele><time>2026-04-04T12:41:39Z</time></trkpt><trkpt lat="42.845452210716765" lon="10.946901864683781"><ele>97.66666666666667</ele><time>2026-04-04T12:41:40Z</time></trkpt><trkpt lat="42.845605200339534" lon="10.946997250435885"><ele>97.0</ele><time>2026-04-04T12:41:41Z</time></trkpt><trkpt lat="42.845757782171816" lon="10.947089763307904"><ele>97.0</ele><time>2026-04-04T12:41:42Z</time></trkpt><trkpt lat="42.84591085244147" lon="10.947173597087053"><ele>97.0</ele><time>2026-04-04T12:41:43Z</time></trkpt><trkpt lat="42.84606340316536" lon="10.947262618251113"><ele>97.0</ele><time>2026-04-04T12:41:44Z</time></trkpt><trkpt lat="42.84621627125656" lon="10.94735784578428"><ele>95.66666666666667</ele><time>2026-04-04T12:41:45Z</time></trkpt><trkpt lat="42.846374824506114" lon="10.947454512217192"><ele>94.33333333333334</ele><time>2026-04-04T12:41:46Z</time></trkpt><trkpt lat="42.846534746915985" lon="10.947541665202317"><ele>93.0</ele><time>2026-04-04T12:41:47Z</time></trkpt><trkpt lat="42.8466967468625" lon="10.947623900903983"><ele>89.33333333333333</ele><time>2026-04-04T12:41:48Z</time></trkpt><trkpt lat="42.84686180742975" lon="10.94770372968492"><ele>85.66666666666666</ele><time>2026-04-04T12:41:49Z</time></trkpt><trkpt lat="42.847028944066764" lon="10.947780122663836"><ele>82.0</ele><time>2026-04-04T12:41:50Z</time></trkpt><trkpt lat="42.84719634292903" lon="10.947859670506256"><ele>82.0</ele><time>2026-04-04T12:41:51Z</time></trkpt><trkpt lat="42.84735217957704" lon="10.94793842733367"><ele>82.0</ele><time>2026-04-04T12:41:52Z</time></trkpt><trkpt lat="42.84750478663879" lon="10.948006267116487"><ele>82.0</ele><time>2026-04-04T12:41:53Z</time></trkpt><trkpt lat="42.84765772861646" lon="10.948067299839929"><ele>80.66666666666666</ele><time>2026-04-04T12:41:54Z</time></trkpt><trkpt lat="42.8478107432968" lon="10.948128482074122"><ele>79.33333333333333</ele><time>2026-04-04T12:41:55Z</time></trkpt><trkpt lat="42.84796754280351" lon="10.94819558463685"><ele>78.0</ele><time>2026-04-04T12:41:56Z</time></trkpt><trkpt lat="42.848123391175605" lon="10.94825048875398"><ele>78.0</ele><time>2026-04-04T12:41:57Z</time></trkpt><trkpt lat="42.848280437431484" lon="10.94828385902819"><ele>78.0</ele><time>2026-04-04T12:41:58Z</time></trkpt><trkpt lat="42.84844386267992" lon="10.948295350600924"><ele>78.0</ele><time>2026-04-04T12:41:59Z</time></trkpt><trkpt lat="42.848608415643454" lon="10.948284487577258"><ele>76.66666666666667</ele><time>2026-04-04T12:42:00Z</time></trkpt><trkpt lat="42.84877644030812" lon="10.948262673743477"><ele>75.33333333333334</ele><time>2026-04-04T12:42:01Z</time></trkpt><trkpt lat="42.8489441099678" lon="10.94824058022075"><ele>74.0</ele><time>2026-04-04T12:42:02Z</time></trkpt><trkpt lat="42.849111394921714" lon="10.94821430767311"><ele>74.0</ele><time>2026-04-04T12:42:02.999Z</time></trkpt><trkpt lat="42.84927989965011" lon="10.948187123412616"><ele>74.0</ele><time>2026-04-04T12:42:03.999Z</time></trkpt><trkpt lat="42.849447438282475" lon="10.94816056762682"><ele>74.0</ele><time>2026-04-04T12:42:04.999Z</time></trkpt><trkpt lat="42.84961399589115" lon="10.94813333497884"><ele>73.33333333333334</ele><time>2026-04-04T12:42:05.999Z</time></trkpt><trkpt lat="42.84977753722304" lon="10.948103797336481"><ele>72.66666666666667</ele><time>2026-04-04T12:42:06.999Z</time></trkpt><trkpt lat="42.8499413943908" lon="10.948066573286296"><ele>72.0</ele><time>2026-04-04T12:42:07.999Z</time></trkpt><trkpt lat="42.85010860916669" lon="10.94803329142884"><ele>71.33333333333333</ele><time>2026-04-04T12:42:08.999Z</time></trkpt><trkpt lat="42.85027742235698" lon="10.948003539516714"><ele>70.66666666666666</ele><time>2026-04-04T12:42:09.999Z</time></trkpt><trkpt lat="42.850446121128996" lon="10.947976309096813"><ele>70.0</ele><time>2026-04-04T12:42:10.999Z</time></trkpt><trkpt lat="42.850615093930855" lon="10.947945895936998"><ele>70.0</ele><time>2026-04-04T12:42:11.999Z</time></trkpt><trkpt lat="42.85078254857844" lon="10.947914484416195"><ele>70.0</ele><time>2026-04-04T12:42:12.999Z</time></trkpt><trkpt lat="42.85094951938205" lon="10.947884348736503"><ele>70.0</ele><time>2026-04-04T12:42:13.999Z</time></trkpt><trkpt lat="42.851113390611104" lon="10.947854795488032"><ele>70.33333333333333</ele><time>2026-04-04T12:42:14.999Z</time></trkpt><trkpt lat="42.85127630940075" lon="10.947824007532912"><ele>70.66666666666667</ele><time>2026-04-04T12:42:15.999Z</time></trkpt><trkpt lat="42.851439525135945" lon="10.947789082684363"><ele>71.0</ele><time>2026-04-04T12:42:16.999Z</time></trkpt><trkpt lat="42.851598942240194" lon="10.947760792942011"><ele>71.0</ele><time>2026-04-04T12:42:17.999Z</time></trkpt><trkpt lat="42.851760085326305" lon="10.947734054313763"><ele>71.0</ele><time>2026-04-04T12:42:18.999Z</time></trkpt><trkpt lat="42.85191756761981" lon="10.947701505876092"><ele>71.0</ele><time>2026-04-04T12:42:19.999Z</time></trkpt><trkpt lat="42.85207635854506" lon="10.947670353998674"><ele>72.33333333333334</ele><time>2026-04-04T12:42:20.999Z</time></trkpt><trkpt lat="42.85223495117026" lon="10.947638625337609"><ele>73.66666666666667</ele><time>2026-04-04T12:42:21.999Z</time></trkpt><trkpt lat="42.85239245575248" lon="10.94761167622031"><ele>75.0</ele><time>2026-04-04T12:42:22.999Z</time></trkpt><trkpt lat="42.852555579616414" lon="10.947591944608945"><ele>76.66666666666667</ele><time>2026-04-04T12:42:23.999Z</time></trkpt><trkpt lat="42.85271871388015" lon="10.94757532932287"><ele>78.33333333333334</ele><time>2026-04-04T12:42:24.999Z</time></trkpt><trkpt lat="42.85288571454599" lon="10.947560713202156"><ele>80.0</ele><time>2026-04-04T12:42:25.999Z</time></trkpt><trkpt lat="42.853050808709554" lon="10.947553512349549"><ele>80.0</ele><time>2026-04-04T12:42:26.999Z</time></trkpt><trkpt lat="42.853215364118405" lon="10.947553741508044"><ele>80.0</ele><time>2026-04-04T12:42:27.999Z</time></trkpt><trkpt lat="42.8533817741063" lon="10.94756318900199"><ele>80.0</ele><time>2026-04-04T12:42:28.999Z</time></trkpt><trkpt lat="42.853546496781654" lon="10.94757953221671"><ele>77.66666666666667</ele><time>2026-04-04T12:42:29.999Z</time></trkpt><trkpt lat="42.853714396999976" lon="10.947593174011223"><ele>75.33333333333333</ele><time>2026-04-04T12:42:30.999Z</time></trkpt><trkpt lat="42.85388458060039" lon="10.947604368955574"><ele>73.0</ele><time>2026-04-04T12:42:31.999Z</time></trkpt><trkpt lat="42.854053787505364" lon="10.947612990195918"><ele>73.0</ele><time>2026-04-04T12:42:32.999Z</time></trkpt><trkpt lat="42.85422147334361" lon="10.947624728478203"><ele>73.0</ele><time>2026-04-04T12:42:33.999Z</time></trkpt><trkpt lat="42.85438656206474" lon="10.947638380243044"><ele>73.0</ele><time>2026-04-04T12:42:34.999Z</time></trkpt><trkpt lat="42.85455242535774" lon="10.947646683671453"><ele>70.0</ele><time>2026-04-04T12:42:35.999Z</time></trkpt><trkpt lat="42.85471721965844" lon="10.947643449524762"><ele>67.0</ele><time>2026-04-04T12:42:36.999Z</time></trkpt><trkpt lat="42.854880015768394" lon="10.947615892403121"><ele>64.0</ele><time>2026-04-04T12:42:37.999Z</time></trkpt><trkpt lat="42.85504119782495" lon="10.947563630806766"><ele>62.666666666666664</ele><time>2026-04-04T12:42:38.999Z</time></trkpt><trkpt lat="42.85520044820803" lon="10.947496500803044"><ele>61.33333333333333</ele><time>2026-04-04T12:42:39.999Z</time></trkpt><trkpt lat="42.85535502969859" lon="10.947416770958199"><ele>60.0</ele><time>2026-04-04T12:42:40.999Z</time></trkpt><trkpt lat="42.85550773504502" lon="10.947331511850303"><ele>60.0</ele><time>2026-04-04T12:42:41.999Z</time></trkpt><trkpt lat="42.85565929388389" lon="10.94724320990162"><ele>60.0</ele><time>2026-04-04T12:42:42.999Z</time></trkpt><trkpt lat="42.85580706004038" lon="10.94715390918982"><ele>60.0</ele><time>2026-04-04T12:42:43.999Z</time></trkpt><trkpt lat="42.85595808070415" lon="10.947062886240735"><ele>59.33333333333333</ele><time>2026-04-04T12:42:44.999Z</time></trkpt><trkpt lat="42.85610748189849" lon="10.946973391893545"><ele>58.666666666666664</ele><time>2026-04-04T12:42:45.999Z</time></trkpt><trkpt lat="42.85625836416909" lon="10.94688245634635"><ele>58.0</ele><time>2026-04-04T12:42:46.999Z</time></trkpt><trkpt lat="42.85640898488859" lon="10.946796663206948"><ele>58.0</ele><time>2026-04-04T12:42:47.999Z</time></trkpt><trkpt lat="42.85655614285227" lon="10.946712003376808"><ele>58.0</ele><time>2026-04-04T12:42:48.999Z</time></trkpt><trkpt lat="42.856694469575196" lon="10.94663380659681"><ele>58.0</ele><time>2026-04-04T12:42:49.999Z</time></trkpt><trkpt lat="42.85682205785706" lon="10.946563314208152"><ele>58.0</ele><time>2026-04-04T12:42:50.999Z</time></trkpt><trkpt lat="42.85693903808621" lon="10.946497180376575"><ele>56.8</ele><time>2026-04-04T12:42:51.999Z</time></trkpt><trkpt lat="42.85704735920592" lon="10.946437870649287"><ele>55.599999999999994</ele><time>2026-04-04T12:42:52.999Z</time></trkpt><trkpt lat="42.85714642238774" lon="10.946382837042728"><ele>54.400000000000006</ele><time>2026-04-04T12:42:53.999Z</time></trkpt><trkpt lat="42.85723860320454" lon="10.946331749701452"><ele>53.2</ele><time>2026-04-04T12:42:54.999Z</time></trkpt><trkpt lat="42.85732510246161" lon="10.946287230604092"><ele>52.0</ele><time>2026-04-04T12:42:55.999Z</time></trkpt><trkpt lat="42.85739261847756" lon="10.946235946669304"><ele>51.99999999999999</ele><time>2026-04-04T12:42:56.999Z</time></trkpt><trkpt lat="42.857447530303716" lon="10.946170806468668"><ele>52.0</ele><time>2026-04-04T12:42:57.999Z</time></trkpt><trkpt lat="42.85747768372649" lon="10.946082960619355"><ele>52.0</ele><time>2026-04-04T12:42:58.999Z</time></trkpt><trkpt lat="42.85749469900417" lon="10.945982262986833"><ele>52.0</ele><time>2026-04-04T12:42:59.999Z</time></trkpt><trkpt lat="42.857531258352246" lon="10.945883447360504"><ele>51.99999999999999</ele><time>2026-04-04T12:43:00.999Z</time></trkpt><trkpt lat="42.8575833854399" lon="10.945790511035607"><ele>52.0</ele><time>2026-04-04T12:43:01.999Z</time></trkpt><trkpt lat="42.8576454936575" lon="10.945689658881998"><ele>52.0</ele><time>2026-04-04T12:43:02.999Z</time></trkpt><trkpt lat="42.85772843330532" lon="10.945591539650716"><ele>52.0</ele><time>2026-04-04T12:43:03.999Z</time></trkpt><trkpt lat="42.857834291756674" lon="10.945509649871987"><ele>52.0</ele><time>2026-04-04T12:43:04.999Z</time></trkpt><trkpt lat="42.85794168180205" lon="10.945417998876973"><ele>52.0</ele><time>2026-04-04T12:43:05.999Z</time></trkpt><trkpt lat="42.85802789148831" lon="10.94530682737519"><ele>52.0</ele><time>2026-04-04T12:43:06.999Z</time></trkpt><trkpt lat="42.85809392315064" lon="10.945178814082965"><ele>52.0</ele><time>2026-04-04T12:43:07.999Z</time></trkpt><trkpt lat="42.858148536642524" lon="10.945029553521316"><ele>52.0</ele><time>2026-04-04T12:43:08.999Z</time></trkpt><trkpt lat="42.8582004545267" lon="10.944836832693909"><ele>52.0</ele><time>2026-04-04T12:43:09.999Z</time></trkpt><trkpt lat="42.85826412234445" lon="10.944630914277273"><ele>53.75</ele><time>2026-04-04T12:43:10.999Z</time></trkpt><trkpt lat="42.85832539810285" lon="10.944434068232875"><ele>55.5</ele><time>2026-04-04T12:43:11.999Z</time></trkpt><trkpt lat="42.85838366228282" lon="10.944276460136436"><ele>57.25</ele><time>2026-04-04T12:43:12.999Z</time></trkpt><trkpt lat="42.858430311359534" lon="10.944128834699823"><ele>59.0</ele><time>2026-04-04T12:43:13.999Z</time></trkpt><trkpt lat="42.858479877576144" lon="10.943948741299044"><ele>60.333333333333336</ele><time>2026-04-04T12:43:14.999Z</time></trkpt><trkpt lat="42.85852305982025" lon="10.943723726158085"><ele>61.66666666666667</ele><time>2026-04-04T12:43:15.999Z</time></trkpt><trkpt lat="42.85855386321144" lon="10.943494589057241"><ele>63.0</ele><time>2026-04-04T12:43:16.999Z</time></trkpt><trkpt lat="42.858588664236" lon="10.943244432722686"><ele>66.66666666666667</ele><time>2026-04-04T12:43:18Z</time></trkpt><trkpt lat="42.8586286486862" lon="10.94296886938558"><ele>70.33333333333334</ele><time>2026-04-04T12:43:19Z</time></trkpt><trkpt lat="42.85867004477626" lon="10.942693280159906"><ele>74.0</ele><time>2026-04-04T12:43:20Z</time></trkpt><trkpt lat="42.858700646511174" lon="10.942463006748019"><ele>76.66666666666667</ele><time>2026-04-04T12:43:21Z</time></trkpt><trkpt lat="42.85869961437094" lon="10.942245410624123"><ele>79.33333333333333</ele><time>2026-04-04T12:43:22Z</time></trkpt><trkpt lat="42.85874632987271" lon="10.942034908830244"><ele>82.0</ele><time>2026-04-04T12:43:23Z</time></trkpt><trkpt lat="42.85880075302019" lon="10.941824054370832"><ele>85.33333333333333</ele><time>2026-04-04T12:43:24Z</time></trkpt><trkpt lat="42.85885697686398" lon="10.941619302930322"><ele>88.66666666666667</ele><time>2026-04-04T12:43:25Z</time></trkpt><trkpt lat="42.85888773933" lon="10.941397393176201"><ele>92.0</ele><time>2026-04-04T12:43:26Z</time></trkpt><trkpt lat="42.858918754565295" lon="10.941226833065063"><ele>92.0</ele><time>2026-04-04T12:43:27Z</time></trkpt><trkpt lat="42.85894547624626" lon="10.941031239720767"><ele>92.0</ele><time>2026-04-04T12:43:28Z</time></trkpt><trkpt lat="42.85895395911551" lon="10.940773778956782"><ele>92.0</ele><time>2026-04-04T12:43:29Z</time></trkpt><trkpt lat="42.85895590914677" lon="10.940503018220372"><ele>92.25</ele><time>2026-04-04T12:43:30Z</time></trkpt><trkpt lat="42.85896128414499" lon="10.940292274395746"><ele>92.5</ele><time>2026-04-04T12:43:31Z</time></trkpt><trkpt lat="42.85897466166314" lon="10.940088546834493"><ele>92.75</ele><time>2026-04-04T12:43:32Z</time></trkpt><trkpt lat="42.85899214576063" lon="10.9399148414499"><ele>93.0</ele><time>2026-04-04T12:43:33Z</time></trkpt><trkpt lat="42.85902465386874" lon="10.939720359367714"><ele>92.0</ele><time>2026-04-04T12:43:34Z</time></trkpt><trkpt lat="42.85909106677736" lon="10.93949812016726"><ele>91.0</ele><time>2026-04-04T12:43:35Z</time></trkpt><trkpt lat="42.85918167957184" lon="10.939255174711727"><ele>90.0</ele><time>2026-04-04T12:43:36Z</time></trkpt><trkpt lat="42.85927354726453" lon="10.93900562342361"><ele>90.66666666666667</ele><time>2026-04-04T12:43:37Z</time></trkpt><trkpt lat="42.85933891149399" lon="10.93878626840119"><ele>91.33333333333334</ele><time>2026-04-04T12:43:38Z</time></trkpt><trkpt lat="42.859400930747796" lon="10.938592457980794"><ele>92.0</ele><time>2026-04-04T12:43:39Z</time></trkpt><trkpt lat="42.85946721275337" lon="10.938394601232867"><ele>90.66666666666667</ele><time>2026-04-04T12:43:40Z</time></trkpt><trkpt lat="42.8595442442518" lon="10.938195575118215"><ele>89.33333333333333</ele><time>2026-04-04T12:43:41Z</time></trkpt><trkpt lat="42.859622833116525" lon="10.938006440112913"><ele>88.0</ele><time>2026-04-04T12:43:42Z</time></trkpt><trkpt lat="42.859696679952144" lon="10.937815521693238"><ele>88.0</ele><time>2026-04-04T12:43:43Z</time></trkpt><trkpt lat="42.8597581965461" lon="10.93764484764075"><ele>88.0</ele><time>2026-04-04T12:43:44Z</time></trkpt><trkpt lat="42.85982130906789" lon="10.937492844032096"><ele>88.0</ele><time>2026-04-04T12:43:45Z</time></trkpt><trkpt lat="42.85987338299459" lon="10.937378080612131"><ele>88.0</ele><time>2026-04-04T12:43:46Z</time></trkpt><trkpt lat="42.85993238783032" lon="10.937298573969272"><ele>88.0</ele><time>2026-04-04T12:43:47Z</time></trkpt><trkpt lat="42.86002923162389" lon="10.937259928208997"><ele>88.4</ele><time>2026-04-04T12:43:49Z</time></trkpt><trkpt lat="42.86012766603214" lon="10.937383985234845"><ele>88.80000000000001</ele><time>2026-04-04T12:43:51Z</time></trkpt><trkpt lat="42.8601858919592" lon="10.937475365031446"><ele>89.2</ele><time>2026-04-04T12:43:52Z</time></trkpt><trkpt lat="42.86024398210302" lon="10.937565964822005"><ele>89.6</ele><time>2026-04-04T12:43:53Z</time></trkpt><trkpt lat="42.8603278554797" lon="10.937655808179528"><ele>90.0</ele><time>2026-04-04T12:43:54Z</time></trkpt><trkpt lat="42.8604256744755" lon="10.937747181597619"><ele>92.2</ele><time>2026-04-04T12:43:55Z</time></trkpt><trkpt lat="42.86052478294432" lon="10.937819340712291"><ele>94.4</ele><time>2026-04-04T12:43:56Z</time></trkpt><trkpt lat="42.86061944177281" lon="10.937836927763076"><ele>96.6</ele><time>2026-04-04T12:43:57Z</time></trkpt><trkpt lat="42.8606854548939" lon="10.937799326635822"><ele>98.8</ele><time>2026-04-04T12:43:58Z</time></trkpt><trkpt lat="42.860782500446" lon="10.937735712772964"><ele>101.0</ele><time>2026-04-04T12:43:59Z</time></trkpt><trkpt lat="42.86086663796929" lon="10.937643613657025"><ele>99.25</ele><time>2026-04-04T12:44:00Z</time></trkpt><trkpt lat="42.86096487225286" lon="10.937487701054302"><ele>97.5</ele><time>2026-04-04T12:44:01Z</time></trkpt><trkpt lat="42.86106465627638" lon="10.937344808931996"><ele>95.75</ele><time>2026-04-04T12:44:02Z</time></trkpt><trkpt lat="42.861184726322335" lon="10.937234673199711"><ele>94.0</ele><time>2026-04-04T12:44:03Z</time></trkpt><trkpt lat="42.86126956207335" lon="10.937131583028556"><ele>94.0</ele><time>2026-04-04T12:44:04Z</time></trkpt><trkpt lat="42.86136951014568" lon="10.93701104843954"><ele>94.0</ele><time>2026-04-04T12:44:05Z</time></trkpt><trkpt lat="42.86145156590796" lon="10.936910805277256"><ele>94.0</ele><time>2026-04-04T12:44:06Z</time></trkpt><trkpt lat="42.86150773530797" lon="10.936837632987972"><ele>94.0</ele><time>2026-04-04T12:44:07Z</time></trkpt><trkpt lat="42.86158275102237" lon="10.936777304432251"><ele>94.0</ele><time>2026-04-04T12:44:08Z</time></trkpt><trkpt lat="42.86166440370689" lon="10.936760457781324"><ele>94.0</ele><time>2026-04-04T12:44:09Z</time></trkpt><trkpt lat="42.8617709107901" lon="10.93677580995213"><ele>94.0</ele><time>2026-04-04T12:44:10Z</time></trkpt><trkpt lat="42.86188466742594" lon="10.936840625666969"><ele>94.0</ele><time>2026-04-04T12:44:11Z</time></trkpt><trkpt lat="42.861959229405144" lon="10.936874968330784"><ele>94.0</ele><time>2026-04-04T12:44:12Z</time></trkpt><trkpt lat="42.86203203140179" lon="10.936884602439543"><ele>94.0</ele><time>2026-04-04T12:44:13Z</time></trkpt><trkpt lat="42.86209413501762" lon="10.936854966615604"><ele>94.0</ele><time>2026-04-04T12:44:14Z</time></trkpt><trkpt lat="42.86214007963415" lon="10.936689919740411"><ele>92.25</ele><time>2026-04-04T12:44:16Z</time></trkpt><trkpt lat="42.862147974279665" lon="10.936536632517948"><ele>90.5</ele><time>2026-04-04T12:44:17Z</time></trkpt><trkpt lat="42.86221128162215" lon="10.936410602250643"><ele>88.75</ele><time>2026-04-04T12:44:18Z</time></trkpt><trkpt lat="42.86229335851903" lon="10.936293729249119"><ele>87.0</ele><time>2026-04-04T12:44:19Z</time></trkpt><trkpt lat="42.862347955023615" lon="10.936150313472627"><ele>87.0</ele><time>2026-04-04T12:44:20Z</time></trkpt><trkpt lat="42.86243798099771" lon="10.936045825807316"><ele>87.0</ele><time>2026-04-04T12:44:21Z</time></trkpt><trkpt lat="42.862519600182885" lon="10.935950481450199"><ele>87.0</ele><time>2026-04-04T12:44:22Z</time></trkpt><trkpt lat="42.86260863695081" lon="10.93587279643165"><ele>87.0</ele><time>2026-04-04T12:44:23Z</time></trkpt><trkpt lat="42.86271383831845" lon="10.935811634620686"><ele>87.0</ele><time>2026-04-04T12:44:24Z</time></trkpt><trkpt lat="42.86282283786533" lon="10.935788074642504"><ele>86.25</ele><time>2026-04-04T12:44:25Z</time></trkpt><trkpt lat="42.86294414528864" lon="10.935760374330053"><ele>85.5</ele><time>2026-04-04T12:44:25.999Z</time></trkpt><trkpt lat="42.86308574010488" lon="10.935738447431973"><ele>84.75</ele><time>2026-04-04T12:44:26.999Z</time></trkpt><trkpt lat="42.863223444058534" lon="10.935708537477986"><ele>84.0</ele><time>2026-04-04T12:44:27.999Z</time></trkpt><trkpt lat="42.86335699643297" lon="10.935685174640756"><ele>84.0</ele><time>2026-04-04T12:44:28.999Z</time></trkpt><trkpt lat="42.863502969192616" lon="10.93566953059939"><ele>84.0</ele><time>2026-04-04T12:44:29.999Z</time></trkpt><trkpt lat="42.86365996597482" lon="10.935661932011014"><ele>84.0</ele><time>2026-04-04T12:44:30.999Z</time></trkpt><trkpt lat="42.863817842660396" lon="10.935636718942927"><ele>84.0</ele><time>2026-04-04T12:44:31.999Z</time></trkpt><trkpt lat="42.86397992333478" lon="10.935618495403993"><ele>84.0</ele><time>2026-04-04T12:44:32.999Z</time></trkpt><trkpt lat="42.86411915849687" lon="10.935587977283793"><ele>84.0</ele><time>2026-04-04T12:44:33.999Z</time></trkpt><trkpt lat="42.86425533889751" lon="10.935589904825095"><ele>84.0</ele><time>2026-04-04T12:44:34.999Z</time></trkpt><trkpt lat="42.864373945844825" lon="10.935588753607446"><ele>85.0</ele><time>2026-04-04T12:44:35.999Z</time></trkpt><trkpt lat="42.86448523484339" lon="10.935572909061493"><ele>86.0</ele><time>2026-04-04T12:44:36.999Z</time></trkpt><trkpt lat="42.86459877778132" lon="10.9355184941082"><ele>87.0</ele><time>2026-04-04T12:44:37.999Z</time></trkpt><trkpt lat="42.8647158130138" lon="10.935426830075157"><ele>88.0</ele><time>2026-04-04T12:44:38.999Z</time></trkpt><trkpt lat="42.86483686231211" lon="10.935325903247831"><ele>88.0</ele><time>2026-04-04T12:44:39.999Z</time></trkpt><trkpt lat="42.86497713181576" lon="10.935255261908642"><ele>88.0</ele><time>2026-04-04T12:44:40.999Z</time></trkpt><trkpt lat="42.86512643175806" lon="10.935181504968073"><ele>88.0</ele><time>2026-04-04T12:44:41.999Z</time></trkpt><trkpt lat="42.86526993266193" lon="10.93509621405899"><ele>87.0</ele><time>2026-04-04T12:44:42.999Z</time></trkpt><trkpt lat="42.86542318384943" lon="10.935021687771904"><ele>86.0</ele><time>2026-04-04T12:44:43.999Z</time></trkpt><trkpt lat="42.86557256601363" lon="10.934944127752226"><ele>85.0</ele><time>2026-04-04T12:44:44.999Z</time></trkpt><trkpt lat="42.865707709769566" lon="10.934865773445868"><ele>85.0</ele><time>2026-04-04T12:44:45.999Z</time></trkpt><trkpt lat="42.86583320753283" lon="10.934795879492365"><ele>85.0</ele><time>2026-04-04T12:44:46.999Z</time></trkpt><trkpt lat="42.865970983518295" lon="10.934735286290366"><ele>85.0</ele><time>2026-04-04T12:44:47.999Z</time></trkpt><trkpt lat="42.86612076853217" lon="10.934680314636397"><ele>85.0</ele><time>2026-04-04T12:44:48.999Z</time></trkpt><trkpt lat="42.86625932878855" lon="10.934620090550924"><ele>87.0</ele><time>2026-04-04T12:44:49.999Z</time></trkpt><trkpt lat="42.866385175627464" lon="10.934567118559166"><ele>89.0</ele><time>2026-04-04T12:44:50.999Z</time></trkpt><trkpt lat="42.86649337660239" lon="10.934515155746583"><ele>91.0</ele><time>2026-04-04T12:44:51.999Z</time></trkpt><trkpt lat="42.86660187974369" lon="10.93447337790231"><ele>93.0</ele><time>2026-04-04T12:44:52.999Z</time></trkpt><trkpt lat="42.866724806821374" lon="10.934461241459752"><ele>90.4</ele><time>2026-04-04T12:44:53.999Z</time></trkpt><trkpt lat="42.866860984032115" lon="10.934468482989823"><ele>87.80000000000001</ele><time>2026-04-04T12:44:54.999Z</time></trkpt><trkpt lat="42.866984811462416" lon="10.934485361393856"><ele>85.2</ele><time>2026-04-04T12:44:55.999Z</time></trkpt><trkpt lat="42.867085171598546" lon="10.93449880536355"><ele>82.6</ele><time>2026-04-04T12:44:56.999Z</time></trkpt><trkpt lat="42.86714845664234" lon="10.934547715687225"><ele>80.0</ele><time>2026-04-04T12:44:57.999Z</time></trkpt><trkpt lat="42.8672482136979" lon="10.934640857631331"><ele>80.0</ele><time>2026-04-04T12:44:59.999Z</time></trkpt><trkpt lat="42.86732418644276" lon="10.934646739867912"><ele>80.0</ele><time>2026-04-04T12:45:00.999Z</time></trkpt><trkpt lat="42.86743078976102" lon="10.934631813627055"><ele>80.0</ele><time>2026-04-04T12:45:01.999Z</time></trkpt><trkpt lat="42.86755361157611" lon="10.934626815215728"><ele>80.0</ele><time>2026-04-04T12:45:02.999Z</time></trkpt><trkpt lat="42.86766032655992" lon="10.934606090301651"><ele>80.0</ele><time>2026-04-04T12:45:03.999Z</time></trkpt><trkpt lat="42.8677671087692" lon="10.934598950508791"><ele>81.8</ele><time>2026-04-04T12:45:04.999Z</time></trkpt><trkpt lat="42.86787700413972" lon="10.934585285805337"><ele>83.6</ele><time>2026-04-04T12:45:05.999Z</time></trkpt><trkpt lat="42.86797096828092" lon="10.934557468172034"><ele>85.4</ele><time>2026-04-04T12:45:06.999Z</time></trkpt><trkpt lat="42.86805724658708" lon="10.934456581175812"><ele>87.2</ele><time>2026-04-04T12:45:07.999Z</time></trkpt><trkpt lat="42.8681523525773" lon="10.93433769377662"><ele>89.0</ele><time>2026-04-04T12:45:08.999Z</time></trkpt><trkpt lat="42.8682757878428" lon="10.934237804208681"><ele>88.5</ele><time>2026-04-04T12:45:09.999Z</time></trkpt><trkpt lat="42.86841144454327" lon="10.934115819723367"><ele>88.0</ele><time>2026-04-04T12:45:10.999Z</time></trkpt><trkpt lat="42.86851899836282" lon="10.934015286907805"><ele>87.5</ele><time>2026-04-04T12:45:11.999Z</time></trkpt><trkpt lat="42.868627589597985" lon="10.933931639277247"><ele>87.0</ele><time>2026-04-04T12:45:12.999Z</time></trkpt><trkpt lat="42.86871127895937" lon="10.933802745544314"><ele>87.0</ele><time>2026-04-04T12:45:13.999Z</time></trkpt><trkpt lat="42.86879451453546" lon="10.933657919866027"><ele>87.0</ele><time>2026-04-04T12:45:14.999Z</time></trkpt><trkpt lat="42.86887200354349" lon="10.93352229954584"><ele>87.0</ele><time>2026-04-04T12:45:15.999Z</time></trkpt><trkpt lat="42.86896311965202" lon="10.93345220464974"><ele>87.0</ele><time>2026-04-04T12:45:16.999Z</time></trkpt><trkpt lat="42.8690767560771" lon="10.933351117341092"><ele>82.6</ele><time>2026-04-04T12:45:17.999Z</time></trkpt><trkpt lat="42.86918528619195" lon="10.933269470863422"><ele>78.19999999999999</ele><time>2026-04-04T12:45:18.999Z</time></trkpt><trkpt lat="42.86929704945762" lon="10.933205376792433"><ele>73.8</ele><time>2026-04-04T12:45:19.999Z</time></trkpt><trkpt lat="42.869406808066124" lon="10.933159495530987"><ele>69.4</ele><time>2026-04-04T12:45:20.999Z</time></trkpt><trkpt lat="42.86948496483652" lon="10.933145074767676"><ele>65.0</ele><time>2026-04-04T12:45:21.999Z</time></trkpt><trkpt lat="42.86959999627864" lon="10.933196960965647"><ele>66.25</ele><time>2026-04-04T12:45:22.999Z</time></trkpt><trkpt lat="42.86970163912656" lon="10.933242996195885"><ele>67.5</ele><time>2026-04-04T12:45:24Z</time></trkpt><trkpt lat="42.86982120025233" lon="10.933322205099255"><ele>68.75</ele><time>2026-04-04T12:45:25Z</time></trkpt><trkpt lat="42.869938263986064" lon="10.933359026353834"><ele>70.0</ele><time>2026-04-04T12:45:26Z</time></trkpt><trkpt lat="42.87002445712269" lon="10.933394533132693"><ele>70.0</ele><time>2026-04-04T12:45:27Z</time></trkpt><trkpt lat="42.870108015013045" lon="10.933457411070101"><ele>70.0</ele><time>2026-04-04T12:45:28Z</time></trkpt><trkpt lat="42.87017010969493" lon="10.933517835929493"><ele>70.0</ele><time>2026-04-04T12:45:29Z</time></trkpt><trkpt lat="42.870254256394915" lon="10.933609134762182"><ele>70.0</ele><time>2026-04-04T12:45:30Z</time></trkpt><trkpt lat="42.87033588905017" lon="10.93371207489677"><ele>70.0</ele><time>2026-04-04T12:45:31Z</time></trkpt><trkpt lat="42.87044927909742" lon="10.933775808816993"><ele>68.2</ele><time>2026-04-04T12:45:32Z</time></trkpt><trkpt lat="42.8705220148359" lon="10.933813226245807"><ele>66.4</ele><time>2026-04-04T12:45:33Z</time></trkpt><trkpt lat="42.870668212238535" lon="10.93376121588334"><ele>64.6</ele><time>2026-04-04T12:45:35Z</time></trkpt><trkpt lat="42.870767024259294" lon="10.933750779514689"><ele>62.8</ele><time>2026-04-04T12:45:36Z</time></trkpt><trkpt lat="42.87086019438818" lon="10.93375925035612"><ele>61.0</ele><time>2026-04-04T12:45:37Z</time></trkpt><trkpt lat="42.87094206143034" lon="10.93375167154347"><ele>58.4</ele><time>2026-04-04T12:45:38Z</time></trkpt><trkpt lat="42.8710105697724" lon="10.933703841188697"><ele>55.8</ele><time>2026-04-04T12:45:39Z</time></trkpt><trkpt lat="42.87110799993666" lon="10.933633866835326"><ele>53.199999999999996</ele><time>2026-04-04T12:45:40Z</time></trkpt><trkpt lat="42.8711937217195" lon="10.933520391427628"><ele>50.599999999999994</ele><time>2026-04-04T12:45:41Z</time></trkpt><trkpt lat="42.871273071110586" lon="10.933407240589139"><ele>48.0</ele><time>2026-04-04T12:45:42Z</time></trkpt><trkpt lat="42.8713603327227" lon="10.933292655931428"><ele>47.75</ele><time>2026-04-04T12:45:43Z</time></trkpt><trkpt lat="42.87146345470078" lon="10.933178739863001"><ele>47.5</ele><time>2026-04-04T12:45:44Z</time></trkpt><trkpt lat="42.87156534400205" lon="10.933060220157484"><ele>47.25</ele><time>2026-04-04T12:45:45Z</time></trkpt><trkpt lat="42.871662189039604" lon="10.932940567470549"><ele>47.0</ele><time>2026-04-04T12:45:46Z</time></trkpt><trkpt lat="42.87173662605782" lon="10.932830116441375"><ele>46.8</ele><time>2026-04-04T12:45:47Z</time></trkpt><trkpt lat="42.8718115526349" lon="10.932735733679989"><ele>46.6</ele><time>2026-04-04T12:45:48Z</time></trkpt><trkpt lat="42.871912529346375" lon="10.93267424322745"><ele>46.4</ele><time>2026-04-04T12:45:49Z</time></trkpt><trkpt lat="42.87200890347879" lon="10.932640477494658"><ele>46.199999999999996</ele><time>2026-04-04T12:45:50Z</time></trkpt><trkpt lat="42.87205672616285" lon="10.932555280908684"><ele>46.0</ele><time>2026-04-04T12:45:52Z</time></trkpt><trkpt lat="42.87204275444791" lon="10.9324562538009"><ele>46.0</ele><time>2026-04-04T12:45:53Z</time></trkpt><trkpt lat="42.87212784753179" lon="10.932362388802328"><ele>46.0</ele><time>2026-04-04T12:45:55Z</time></trkpt><trkpt lat="42.872227791406736" lon="10.932344836599052"><ele>46.0</ele><time>2026-04-04T12:45:56Z</time></trkpt><trkpt lat="42.87232453469178" lon="10.932282228753348"><ele>46.0</ele><time>2026-04-04T12:45:57Z</time></trkpt><trkpt lat="42.87244861927519" lon="10.932208907192049"><ele>46.0</ele><time>2026-04-04T12:45:58Z</time></trkpt><trkpt lat="42.872604431965115" lon="10.932167675704509"><ele>46.0</ele><time>2026-04-04T12:45:59Z</time></trkpt><trkpt lat="42.872732123776466" lon="10.932122607965246"><ele>46.0</ele><time>2026-04-04T12:46:00Z</time></trkpt><trkpt lat="42.872810035605816" lon="10.932037524065352"><ele>46.0</ele><time>2026-04-04T12:46:01Z</time></trkpt><trkpt lat="42.87289794087519" lon="10.931947686832132"><ele>45.8</ele><time>2026-04-04T12:46:02Z</time></trkpt><trkpt lat="42.87298838541288" lon="10.931827849578145"><ele>45.599999999999994</ele><time>2026-04-04T12:46:03Z</time></trkpt><trkpt lat="42.873065453602266" lon="10.93173329208957"><ele>45.4</ele><time>2026-04-04T12:46:04Z</time></trkpt><trkpt lat="42.87313419587487" lon="10.931705935447972"><ele>45.2</ele><time>2026-04-04T12:46:05Z</time></trkpt><trkpt lat="42.87324715037934" lon="10.931686442521292"><ele>45.0</ele><time>2026-04-04T12:46:06Z</time></trkpt><trkpt lat="42.873308547386934" lon="10.931657366224805"><ele>45.0</ele><time>2026-04-04T12:46:07Z</time></trkpt><trkpt lat="42.873281251145244" lon="10.931483130806678"><ele>45.0</ele><time>2026-04-04T12:46:09Z</time></trkpt><trkpt lat="42.87324038893981" lon="10.931357783053055"><ele>45.0</ele><time>2026-04-04T12:46:10Z</time></trkpt><trkpt lat="42.87323843481836" lon="10.931252215285388"><ele>45.0</ele><time>2026-04-04T12:46:11Z</time></trkpt><trkpt lat="42.87322397800814" lon="10.931098704375135"><ele>45.0</ele><time>2026-04-04T12:46:12Z</time></trkpt><trkpt lat="42.87325591511779" lon="10.930979738511477"><ele>45.0</ele><time>2026-04-04T12:46:13Z</time></trkpt><trkpt lat="42.87328397887907" lon="10.930840122894555"><ele>45.0</ele><time>2026-04-04T12:46:14Z</time></trkpt><trkpt lat="42.87331158288496" lon="10.930675619408545"><ele>45.0</ele><time>2026-04-04T12:46:15Z</time></trkpt><trkpt lat="42.87333393447169" lon="10.930471881050416"><ele>45.0</ele><time>2026-04-04T12:46:16Z</time></trkpt><trkpt lat="42.87337146105407" lon="10.930288294824463"><ele>45.0</ele><time>2026-04-04T12:46:17Z</time></trkpt><trkpt lat="42.87339244910819" lon="10.93015401104411"><ele>45.0</ele><time>2026-04-04T12:46:18Z</time></trkpt><trkpt lat="42.873389151838765" lon="10.930029548052318"><ele>45.0</ele><time>2026-04-04T12:46:19Z</time></trkpt><trkpt lat="42.87336329769406" lon="10.929882679107864"><ele>45.0</ele><time>2026-04-04T12:46:20Z</time></trkpt><trkpt lat="42.87331898141255" lon="10.92970695297994"><ele>45.0</ele><time>2026-04-04T12:46:21Z</time></trkpt><trkpt lat="42.873258093445784" lon="10.92952498492887"><ele>45.4</ele><time>2026-04-04T12:46:22Z</time></trkpt><trkpt lat="42.87319663015986" lon="10.929357526357968"><ele>45.8</ele><time>2026-04-04T12:46:23Z</time></trkpt><trkpt lat="42.87315067079069" lon="10.929240727810736"><ele>46.2</ele><time>2026-04-04T12:46:24Z</time></trkpt><trkpt lat="42.87307813813938" lon="10.929136432477584"><ele>46.6</ele><time>2026-04-04T12:46:26Z</time></trkpt><trkpt lat="42.872997344758936" lon="10.929129418686927"><ele>47.0</ele><time>2026-04-04T12:46:27Z</time></trkpt><trkpt lat="42.872891000950595" lon="10.929143631471183"><ele>47.0</ele><time>2026-04-04T12:46:28Z</time></trkpt><trkpt lat="42.87277628045808" lon="10.929170878966678"><ele>47.0</ele><time>2026-04-04T12:46:29Z</time></trkpt><trkpt lat="42.872656239907265" lon="10.929235924394423"><ele>47.0</ele><time>2026-04-04T12:46:30Z</time></trkpt><trkpt lat="42.87255928107386" lon="10.92928370477059"><ele>47.0</ele><time>2026-04-04T12:46:31Z</time></trkpt><trkpt lat="42.87248861044554" lon="10.929308993806774"><ele>47.0</ele><time>2026-04-04T12:46:32Z</time></trkpt><trkpt lat="42.87241669742786" lon="10.929270168576855"><ele>47.8</ele><time>2026-04-04T12:46:33Z</time></trkpt><trkpt lat="42.87236360535319" lon="10.929196313823692"><ele>48.6</ele><time>2026-04-04T12:46:34Z</time></trkpt><trkpt lat="42.87235195813436" lon="10.929094615968788"><ele>49.4</ele><time>2026-04-04T12:46:35Z</time></trkpt><trkpt lat="42.87234434442753" lon="10.928934886151506"><ele>50.199999999999996</ele><time>2026-04-04T12:46:36Z</time></trkpt><trkpt lat="42.872339383288015" lon="10.928750059713227"><ele>51.0</ele><time>2026-04-04T12:46:36.999Z</time></trkpt><trkpt lat="42.872357785860636" lon="10.928572272354767"><ele>51.0</ele><time>2026-04-04T12:46:37.999Z</time></trkpt><trkpt lat="42.872364358409556" lon="10.928412235854115"><ele>51.0</ele><time>2026-04-04T12:46:38.999Z</time></trkpt><trkpt lat="42.87241209471067" lon="10.928290813965239"><ele>51.0</ele><time>2026-04-04T12:46:39.999Z</time></trkpt><trkpt lat="42.87248415380736" lon="10.92816127807739"><ele>51.0</ele><time>2026-04-04T12:46:40.999Z</time></trkpt><trkpt lat="42.87256264666353" lon="10.92801786460324"><ele>51.833333333333336</ele><time>2026-04-04T12:46:41.999Z</time></trkpt><trkpt lat="42.872615337548865" lon="10.927845887394595"><ele>52.66666666666667</ele><time>2026-04-04T12:46:42.999Z</time></trkpt><trkpt lat="42.87265265763868" lon="10.927722953930251"><ele>53.5</ele><time>2026-04-04T12:46:43.999Z</time></trkpt><trkpt lat="42.87263337495444" lon="10.9276313817925"><ele>54.333333333333336</ele><time>2026-04-04T12:46:44.999Z</time></trkpt><trkpt lat="42.87262643103842" lon="10.927545085539386"><ele>55.16666666666667</ele><time>2026-04-04T12:46:45.999Z</time></trkpt><trkpt lat="42.87263597839241" lon="10.927448655301234"><ele>56.0</ele><time>2026-04-04T12:46:46.999Z</time></trkpt><trkpt lat="42.872649100985754" lon="10.927337759864463"><ele>55.66666666666667</ele><time>2026-04-04T12:46:47.999Z</time></trkpt><trkpt lat="42.87262868611973" lon="10.927221577892979"><ele>55.333333333333336</ele><time>2026-04-04T12:46:48.999Z</time></trkpt><trkpt lat="42.87260993478237" lon="10.927105956353683"><ele>55.0</ele><time>2026-04-04T12:46:49.999Z</time></trkpt><trkpt lat="42.872600690816505" lon="10.92698722049045"><ele>54.66666666666667</ele><time>2026-04-04T12:46:50.999Z</time></trkpt><trkpt lat="42.87260368046268" lon="10.926878037779101"><ele>54.333333333333336</ele><time>2026-04-04T12:46:51.999Z</time></trkpt><trkpt lat="42.872560861681144" lon="10.926789967347002"><ele>54.0</ele><time>2026-04-04T12:46:52.999Z</time></trkpt><trkpt lat="42.87246323684507" lon="10.926716356063135"><ele>54.0</ele><time>2026-04-04T12:46:53.999Z</time></trkpt><trkpt lat="42.8723901821486" lon="10.926637686981982"><ele>54.00000000000001</ele><time>2026-04-04T12:46:54.999Z</time></trkpt><trkpt lat="42.87234934663251" lon="10.926532742216805"><ele>54.00000000000001</ele><time>2026-04-04T12:46:55.999Z</time></trkpt><trkpt lat="42.8722950757441" lon="10.926396913548677"><ele>54.0</ele><time>2026-04-04T12:46:56.999Z</time></trkpt><trkpt lat="42.87222165664584" lon="10.926265602687906"><ele>54.0</ele><time>2026-04-04T12:46:57.999Z</time></trkpt><trkpt lat="42.8721858297074" lon="10.926156614290674"><ele>54.0</ele><time>2026-04-04T12:46:58.999Z</time></trkpt><trkpt lat="42.87219300382996" lon="10.926018432123483"><ele>54.00000000000001</ele><time>2026-04-04T12:46:59.999Z</time></trkpt><trkpt lat="42.87222137542164" lon="10.925877120471164"><ele>54.00000000000001</ele><time>2026-04-04T12:47:00.999Z</time></trkpt><trkpt lat="42.87223716469276" lon="10.925758502805664"><ele>54.0</ele><time>2026-04-04T12:47:01.999Z</time></trkpt><trkpt lat="42.8721570341579" lon="10.925637245997521"><ele>54.0</ele><time>2026-04-04T12:47:03.999Z</time></trkpt><trkpt lat="42.87209067847777" lon="10.925601411099395"><ele>55.0</ele><time>2026-04-04T12:47:04.999Z</time></trkpt><trkpt lat="42.87201086365759" lon="10.925566817718202"><ele>56.00000000000001</ele><time>2026-04-04T12:47:05.999Z</time></trkpt><trkpt lat="42.8719453529586" lon="10.925473878084265"><ele>57.00000000000001</ele><time>2026-04-04T12:47:06.999Z</time></trkpt><trkpt lat="42.87188255999447" lon="10.925367897101799"><ele>58.0</ele><time>2026-04-04T12:47:07.999Z</time></trkpt><trkpt lat="42.871837297562095" lon="10.925245629790085"><ele>59.0</ele><time>2026-04-04T12:47:08.999Z</time></trkpt><trkpt lat="42.87177583953534" lon="10.92515930396"><ele>58.2</ele><time>2026-04-04T12:47:09.999Z</time></trkpt><trkpt lat="42.871705615746116" lon="10.925103413550897"><ele>57.400000000000006</ele><time>2026-04-04T12:47:10.999Z</time></trkpt><trkpt lat="42.871613795302025" lon="10.925079843324735"><ele>56.6</ele><time>2026-04-04T12:47:11.999Z</time></trkpt><trkpt lat="42.87150616930237" lon="10.925057065459653"><ele>55.8</ele><time>2026-04-04T12:47:12.999Z</time></trkpt><trkpt lat="42.871387260417436" lon="10.925047061921639"><ele>55.0</ele><time>2026-04-04T12:47:13.999Z</time></trkpt><trkpt lat="42.871273891974205" lon="10.925031557885942"><ele>55.0</ele><time>2026-04-04T12:47:14.999Z</time></trkpt><trkpt lat="42.87119123735448" lon="10.924987906994943"><ele>55.0</ele><time>2026-04-04T12:47:15.999Z</time></trkpt><trkpt lat="42.87113555805415" lon="10.924908017358351"><ele>55.0</ele><time>2026-04-04T12:47:16.999Z</time></trkpt><trkpt lat="42.87105745477696" lon="10.92480894288555"><ele>55.0</ele><time>2026-04-04T12:47:17.999Z</time></trkpt><trkpt lat="42.87096296345979" lon="10.924721898639541"><ele>55.0</ele><time>2026-04-04T12:47:18.999Z</time></trkpt><trkpt lat="42.87085270926399" lon="10.924663912196388"><ele>55.33333333333333</ele><time>2026-04-04T12:47:19.999Z</time></trkpt><trkpt lat="42.870751934821875" lon="10.924617076056698"><ele>55.666666666666664</ele><time>2026-04-04T12:47:20.999Z</time></trkpt><trkpt lat="42.870680163557836" lon="10.924560832649837"><ele>56.0</ele><time>2026-04-04T12:47:21.999Z</time></trkpt><trkpt lat="42.87064554042576" lon="10.924475767292307"><ele>56.33333333333333</ele><time>2026-04-04T12:47:22.999Z</time></trkpt><trkpt lat="42.870644236035716" lon="10.924382740682596"><ele>56.666666666666664</ele><time>2026-04-04T12:47:23.999Z</time></trkpt><trkpt lat="42.87064890280118" lon="10.924273511540447"><ele>57.0</ele><time>2026-04-04T12:47:24.999Z</time></trkpt><trkpt lat="42.87064826334465" lon="10.924124054320151"><ele>57.75</ele><time>2026-04-04T12:47:25.999Z</time></trkpt><trkpt lat="42.8706677635989" lon="10.923928595027652"><ele>58.5</ele><time>2026-04-04T12:47:26.999Z</time></trkpt><trkpt lat="42.87070782145776" lon="10.923780131638463"><ele>59.25</ele><time>2026-04-04T12:47:27.999Z</time></trkpt><trkpt lat="42.87071757887561" lon="10.923637451441087"><ele>60.0</ele><time>2026-04-04T12:47:29Z</time></trkpt><trkpt lat="42.870700543027894" lon="10.923525033509986"><ele>60.666666666666664</ele><time>2026-04-04T12:47:30Z</time></trkpt><trkpt lat="42.870739445131" lon="10.923389530305009"><ele>61.33333333333333</ele><time>2026-04-04T12:47:32Z</time></trkpt><trkpt lat="42.8707815140737" lon="10.923313099053948"><ele>62.0</ele><time>2026-04-04T12:47:33Z</time></trkpt><trkpt lat="42.87082116191927" lon="10.923199187872939"><ele>62.666666666666664</ele><time>2026-04-04T12:47:34Z</time></trkpt><trkpt lat="42.870866710724215" lon="10.923113602058011"><ele>63.33333333333333</ele><time>2026-04-04T12:47:35Z</time></trkpt><trkpt lat="42.87091924543246" lon="10.923009333537856"><ele>64.0</ele><time>2026-04-04T12:47:36Z</time></trkpt><trkpt lat="42.87095078670307" lon="10.922913981463344"><ele>64.0</ele><time>2026-04-04T12:47:37Z</time></trkpt><trkpt lat="42.870999807935625" lon="10.922770384684071"><ele>64.0</ele><time>2026-04-04T12:47:38Z</time></trkpt><trkpt lat="42.871085901917425" lon="10.922631413205387"><ele>64.0</ele><time>2026-04-04T12:47:39Z</time></trkpt><trkpt lat="42.871166616272106" lon="10.92251220309862"><ele>64.0</ele><time>2026-04-04T12:47:40Z</time></trkpt><trkpt lat="42.871238152617124" lon="10.922385861806456"><ele>64.4</ele><time>2026-04-04T12:47:41Z</time></trkpt><trkpt lat="42.871286834250725" lon="10.922276416126525"><ele>64.80000000000001</ele><time>2026-04-04T12:47:42Z</time></trkpt><trkpt lat="42.871329834095725" lon="10.92220601740586"><ele>65.19999999999999</ele><time>2026-04-04T12:47:43Z</time></trkpt><trkpt lat="42.87143437042939" lon="10.922069473744576"><ele>65.6</ele><time>2026-04-04T12:47:45Z</time></trkpt><trkpt lat="42.87151302727514" lon="10.921994459435107"><ele>66.0</ele><time>2026-04-04T12:47:46Z</time></trkpt><trkpt lat="42.87160622696847" lon="10.921952643596784"><ele>66.0</ele><time>2026-04-04T12:47:47Z</time></trkpt><trkpt lat="42.87171613252605" lon="10.921927517610756"><ele>66.0</ele><time>2026-04-04T12:47:48Z</time></trkpt><trkpt lat="42.87181343378845" lon="10.921912264400449"><ele>66.0</ele><time>2026-04-04T12:47:49Z</time></trkpt><trkpt lat="42.87189657956566" lon="10.921900888902174"><ele>66.0</ele><time>2026-04-04T12:47:50Z</time></trkpt><trkpt lat="42.87196373180332" lon="10.921854954744642"><ele>66.0</ele><time>2026-04-04T12:47:51Z</time></trkpt><trkpt lat="42.87203140037048" lon="10.921772298394579"><ele>69.0</ele><time>2026-04-04T12:47:52Z</time></trkpt><trkpt lat="42.872102706233775" lon="10.92167662290376"><ele>72.0</ele><time>2026-04-04T12:47:53Z</time></trkpt><trkpt lat="42.872180616045824" lon="10.921574513226773"><ele>75.0</ele><time>2026-04-04T12:47:54Z</time></trkpt><trkpt lat="42.872268090365296" lon="10.921479022383089"><ele>78.0</ele><time>2026-04-04T12:47:55Z</time></trkpt><trkpt lat="42.87236972255469" lon="10.921436873551267"><ele>81.0</ele><time>2026-04-04T12:47:56Z</time></trkpt><trkpt lat="42.872464080245095" lon="10.92138341160331"><ele>81.0</ele><time>2026-04-04T12:47:57Z</time></trkpt><trkpt lat="42.87255051429326" lon="10.921303110058922"><ele>81.0</ele><time>2026-04-04T12:47:58Z</time></trkpt><trkpt lat="42.8726236501814" lon="10.921190061935896"><ele>81.0</ele><time>2026-04-04T12:47:59Z</time></trkpt><trkpt lat="42.872702946769735" lon="10.921070867964083"><ele>81.0</ele><time>2026-04-04T12:48:00Z</time></trkpt><trkpt lat="42.87278659553978" lon="10.920946794514881"><ele>84.25</ele><time>2026-04-04T12:48:01Z</time></trkpt><trkpt lat="42.87287050165195" lon="10.920808800687881"><ele>87.5</ele><time>2026-04-04T12:48:02Z</time></trkpt><trkpt lat="42.87294709480564" lon="10.920692946883811"><ele>90.75</ele><time>2026-04-04T12:48:03Z</time></trkpt><trkpt lat="42.87298234344016" lon="10.920569934648087"><ele>94.0</ele><time>2026-04-04T12:48:04Z</time></trkpt><trkpt lat="42.87298775306094" lon="10.920414101468188"><ele>94.0</ele><time>2026-04-04T12:48:06Z</time></trkpt><trkpt lat="42.87302941552448" lon="10.920304110334753"><ele>94.0</ele><time>2026-04-04T12:48:07Z</time></trkpt><trkpt lat="42.8730714318686" lon="10.92016408389842"><ele>94.0</ele><time>2026-04-04T12:48:08Z</time></trkpt><trkpt lat="42.87311565679393" lon="10.920018045503676"><ele>94.0</ele><time>2026-04-04T12:48:09Z</time></trkpt><trkpt lat="42.873172417644575" lon="10.91988469037493"><ele>94.0</ele><time>2026-04-04T12:48:10Z</time></trkpt><trkpt lat="42.87322627310151" lon="10.919774834090314"><ele>94.2</ele><time>2026-04-04T12:48:11Z</time></trkpt><trkpt lat="42.87325967082644" lon="10.919662082583667"><ele>94.4</ele><time>2026-04-04T12:48:12Z</time></trkpt><trkpt lat="42.87329733097629" lon="10.919544978264165"><ele>94.6</ele><time>2026-04-04T12:48:13Z</time></trkpt><trkpt lat="42.87333720339878" lon="10.919419919695413"><ele>94.8</ele><time>2026-04-04T12:48:14Z</time></trkpt><trkpt lat="42.87337624248676" lon="10.919278107178197"><ele>95.0</ele><time>2026-04-04T12:48:15Z</time></trkpt><trkpt lat="42.87341907964953" lon="10.919085526389857"><ele>97.5</ele><time>2026-04-04T12:48:16Z</time></trkpt><trkpt lat="42.87343977528945" lon="10.918906213701543"><ele>100.0</ele><time>2026-04-04T12:48:17Z</time></trkpt><trkpt lat="42.873446073167344" lon="10.918743072091768"><ele>102.5</ele><time>2026-04-04T12:48:18Z</time></trkpt><trkpt lat="42.8734845518521" lon="10.918604858515991"><ele>105.0</ele><time>2026-04-04T12:48:19Z</time></trkpt><trkpt lat="42.87352156434796" lon="10.918458038387367"><ele>105.2</ele><time>2026-04-04T12:48:20Z</time></trkpt><trkpt lat="42.873551072287675" lon="10.918321234924358"><ele>105.4</ele><time>2026-04-04T12:48:21Z</time></trkpt><trkpt lat="42.8735875981629" lon="10.918211864141526"><ele>105.6</ele><time>2026-04-04T12:48:22Z</time></trkpt><trkpt lat="42.87360949461964" lon="10.918089826039628"><ele>105.8</ele><time>2026-04-04T12:48:23Z</time></trkpt><trkpt lat="42.87359889684852" lon="10.917952144053173"><ele>106.0</ele><time>2026-04-04T12:48:24Z</time></trkpt><trkpt lat="42.873603167300004" lon="10.917801409080676"><ele>106.0</ele><time>2026-04-04T12:48:25Z</time></trkpt><trkpt lat="42.87362909671997" lon="10.917664964245946"><ele>106.0</ele><time>2026-04-04T12:48:26Z</time></trkpt><trkpt lat="42.873653944034395" lon="10.917515273817617"><ele>106.0</ele><time>2026-04-04T12:48:27Z</time></trkpt><trkpt lat="42.87368008011866" lon="10.917374616903885"><ele>106.0</ele><time>2026-04-04T12:48:28Z</time></trkpt><trkpt lat="42.873704205811656" lon="10.917282975650405"><ele>106.0</ele><time>2026-04-04T12:48:29Z</time></trkpt><trkpt lat="42.873748698260066" lon="10.917206328683578"><ele>105.66666666666667</ele><time>2026-04-04T12:48:31Z</time></trkpt><trkpt lat="42.87375046564895" lon="10.917104561591012"><ele>105.33333333333334</ele><time>2026-04-04T12:48:33Z</time></trkpt><trkpt lat="42.873729683650986" lon="10.917008635996195"><ele>105.0</ele><time>2026-04-04T12:48:34Z</time></trkpt><trkpt lat="42.87372668243977" lon="10.916877869541151"><ele>104.66666666666666</ele><time>2026-04-04T12:48:35Z</time></trkpt><trkpt lat="42.87373071819063" lon="10.916737931531667"><ele>104.33333333333333</ele><time>2026-04-04T12:48:36Z</time></trkpt><trkpt lat="42.873780527576365" lon="10.916648611362278"><ele>104.0</ele><time>2026-04-04T12:48:37Z</time></trkpt><trkpt lat="42.87382511442457" lon="10.916549136446022"><ele>104.0</ele><time>2026-04-04T12:48:38Z</time></trkpt><trkpt lat="42.87392613237775" lon="10.916487649527937"><ele>104.0</ele><time>2026-04-04T12:48:40Z</time></trkpt><trkpt lat="42.87403873459088" lon="10.916425822559118"><ele>104.0</ele><time>2026-04-04T12:48:41Z</time></trkpt><trkpt lat="42.874136762145646" lon="10.916343750081616"><ele>104.0</ele><time>2026-04-04T12:48:42Z</time></trkpt><trkpt lat="42.874250894485215" lon="10.916243598996394"><ele>106.25</ele><time>2026-04-04T12:48:43Z</time></trkpt><trkpt lat="42.87439129184797" lon="10.916177127649947"><ele>108.5</ele><time>2026-04-04T12:48:44Z</time></trkpt><trkpt lat="42.8744775340825" lon="10.916132880143527"><ele>110.75</ele><time>2026-04-04T12:48:45Z</time></trkpt><trkpt lat="42.8746215623772" lon="10.916091585468898"><ele>113.0</ele><time>2026-04-04T12:48:46Z</time></trkpt><trkpt lat="42.87476606535979" lon="10.916019265526966"><ele>113.0</ele><time>2026-04-04T12:48:47Z</time></trkpt><trkpt lat="42.87489198018298" lon="10.9159803199165"><ele>113.00000000000001</ele><time>2026-04-04T12:48:48Z</time></trkpt><trkpt lat="42.874990927962685" lon="10.915912783752082"><ele>113.00000000000001</ele><time>2026-04-04T12:48:49Z</time></trkpt><trkpt lat="42.87506511358174" lon="10.915880269302423"><ele>113.0</ele><time>2026-04-04T12:48:50Z</time></trkpt><trkpt lat="42.87513957672053" lon="10.915891494125736"><ele>113.0</ele><time>2026-04-04T12:48:53Z</time></trkpt><trkpt lat="42.87511964865354" lon="10.915788632952411"><ele>113.66666666666666</ele><time>2026-04-04T12:49:07.999Z</time></trkpt><trkpt lat="42.87508022300652" lon="10.915719383238097"><ele>114.33333333333333</ele><time>2026-04-04T12:49:08.999Z</time></trkpt><trkpt lat="42.875049026774526" lon="10.915633722327874"><ele>115.0</ele><time>2026-04-04T12:49:09.999Z</time></trkpt><trkpt lat="42.87505382512725" lon="10.915525161639888"><ele>115.66666666666666</ele><time>2026-04-04T12:49:10.999Z</time></trkpt><trkpt lat="42.87508212874189" lon="10.915417034533881"><ele>116.33333333333333</ele><time>2026-04-04T12:49:11.999Z</time></trkpt><trkpt lat="42.87509539705164" lon="10.91529087761141"><ele>117.0</ele><time>2026-04-04T12:49:12.999Z</time></trkpt><trkpt lat="42.875091510743104" lon="10.915181855687653"><ele>118.25</ele><time>2026-04-04T12:49:13.999Z</time></trkpt><trkpt lat="42.87511554560448" lon="10.915029898523384"><ele>119.5</ele><time>2026-04-04T12:49:14.999Z</time></trkpt><trkpt lat="42.875108157877534" lon="10.91486044742145"><ele>120.75</ele><time>2026-04-04T12:49:15.999Z</time></trkpt><trkpt lat="42.87511241723854" lon="10.914752988326844"><ele>122.0</ele><time>2026-04-04T12:49:16.999Z</time></trkpt><trkpt lat="42.87509212769716" lon="10.914565069725212"><ele>122.0</ele><time>2026-04-04T12:49:17.999Z</time></trkpt><trkpt lat="42.875063508878746" lon="10.914385431428947"><ele>122.0</ele><time>2026-04-04T12:49:18.999Z</time></trkpt><trkpt lat="42.875059582094266" lon="10.914209606142684"><ele>122.0</ele><time>2026-04-04T12:49:19.999Z</time></trkpt><trkpt lat="42.87502361964959" lon="10.914044484111374"><ele>122.0</ele><time>2026-04-04T12:49:20.999Z</time></trkpt><trkpt lat="42.87496572438199" lon="10.913988577894468"><ele>123.39999999999999</ele><time>2026-04-04T12:49:21.999Z</time></trkpt><trkpt lat="42.874895175511476" lon="10.913936472038966"><ele>124.79999999999998</ele><time>2026-04-04T12:49:22.999Z</time></trkpt><trkpt lat="42.874796241471685" lon="10.913879780247756"><ele>126.2</ele><time>2026-04-04T12:49:23.999Z</time></trkpt><trkpt lat="42.8746973612742" lon="10.9138061417285"><ele>127.6</ele><time>2026-04-04T12:49:24.999Z</time></trkpt><trkpt lat="42.87460685500849" lon="10.913694938337718"><ele>129.0</ele><time>2026-04-04T12:49:25.999Z</time></trkpt><trkpt lat="42.87453494679387" lon="10.91358030816734"><ele>129.0</ele><time>2026-04-04T12:49:26.999Z</time></trkpt><trkpt lat="42.874450282129324" lon="10.913477938796229"><ele>129.0</ele><time>2026-04-04T12:49:27.999Z</time></trkpt><trkpt lat="42.87434858841618" lon="10.913399267379617"><ele>129.0</ele><time>2026-04-04T12:49:28.999Z</time></trkpt><trkpt lat="42.87421191893825" lon="10.913348173669121"><ele>129.0</ele><time>2026-04-04T12:49:29.999Z</time></trkpt><trkpt lat="42.87409301152986" lon="10.91326013923981"><ele>132.0</ele><time>2026-04-04T12:49:30.999Z</time></trkpt><trkpt lat="42.87400084576982" lon="10.91316809005414"><ele>135.0</ele><time>2026-04-04T12:49:31.999Z</time></trkpt><trkpt lat="42.8739110152867" lon="10.913073945390744"><ele>138.0</ele><time>2026-04-04T12:49:32.999Z</time></trkpt><trkpt lat="42.87385117782255" lon="10.913012320739064"><ele>141.0</ele><time>2026-04-04T12:49:33.999Z</time></trkpt><trkpt lat="42.87381833858058" lon="10.912915375953625"><ele>144.0</ele><time>2026-04-04T12:49:35Z</time></trkpt><trkpt lat="42.87378303703146" lon="10.912833489976505"><ele>144.0</ele><time>2026-04-04T12:49:36Z</time></trkpt><trkpt lat="42.873733395095954" lon="10.91272007659675"><ele>144.0</ele><time>2026-04-04T12:49:37Z</time></trkpt><trkpt lat="42.87370533309463" lon="10.912580241690842"><ele>144.0</ele><time>2026-04-04T12:49:38Z</time></trkpt><trkpt lat="42.873695897518544" lon="10.912437170502388"><ele>144.0</ele><time>2026-04-04T12:49:39Z</time></trkpt><trkpt lat="42.87367269641326" lon="10.912314798121333"><ele>144.0</ele><time>2026-04-04T12:49:40Z</time></trkpt><trkpt lat="42.873623301954325" lon="10.91221363738237"><ele>143.5</ele><time>2026-04-04T12:49:41Z</time></trkpt><trkpt lat="42.87353029061837" lon="10.912119884090712"><ele>143.0</ele><time>2026-04-04T12:49:42Z</time></trkpt><trkpt lat="42.87344141617968" lon="10.9120101381559"><ele>142.5</ele><time>2026-04-04T12:49:43Z</time></trkpt><trkpt lat="42.87334495591385" lon="10.911882059831562"><ele>142.0</ele><time>2026-04-04T12:49:44Z</time></trkpt><trkpt lat="42.873245919383706" lon="10.911766600085734"><ele>142.25</ele><time>2026-04-04T12:49:45Z</time></trkpt><trkpt lat="42.873161798746324" lon="10.911667223026587"><ele>142.5</ele><time>2026-04-04T12:49:46Z</time></trkpt><trkpt lat="42.87307208885436" lon="10.911601594825132"><ele>142.75</ele><time>2026-04-04T12:49:47Z</time></trkpt><trkpt lat="42.872961666383816" lon="10.911562906703084"><ele>143.0</ele><time>2026-04-04T12:49:48Z</time></trkpt><trkpt lat="42.87283594074696" lon="10.91150912088159"><ele>143.0</ele><time>2026-04-04T12:49:49Z</time></trkpt><trkpt lat="42.872731622539185" lon="10.911452639766996"><ele>143.0</ele><time>2026-04-04T12:49:50Z</time></trkpt><trkpt lat="42.8726117547109" lon="10.911404648194425"><ele>143.0</ele><time>2026-04-04T12:49:51Z</time></trkpt><trkpt lat="42.8724729209763" lon="10.911346814725812"><ele>143.0</ele><time>2026-04-04T12:49:52Z</time></trkpt><trkpt lat="42.87237581302053" lon="10.911265236857647"><ele>144.25</ele><time>2026-04-04T12:49:53Z</time></trkpt><trkpt lat="42.872300357891895" lon="10.911175669283987"><ele>145.5</ele><time>2026-04-04T12:49:54Z</time></trkpt><trkpt lat="42.872247151072344" lon="10.91102594922708"><ele>146.75</ele><time>2026-04-04T12:49:55Z</time></trkpt><trkpt lat="42.872195815890336" lon="10.910841787585536"><ele>148.0</ele><time>2026-04-04T12:49:56Z</time></trkpt><trkpt lat="42.87211488776421" lon="10.910655557978362"><ele>148.0</ele><time>2026-04-04T12:49:57Z</time></trkpt><trkpt lat="42.87202730499046" lon="10.910487603867816"><ele>148.0</ele><time>2026-04-04T12:49:58Z</time></trkpt><trkpt lat="42.8719616407176" lon="10.910340512886352"><ele>148.0</ele><time>2026-04-04T12:49:59Z</time></trkpt><trkpt lat="42.87191522524354" lon="10.91023870538344"><ele>148.0</ele><time>2026-04-04T12:50:00Z</time></trkpt><trkpt lat="42.87185832567586" lon="10.910138711507868"><ele>146.75</ele><time>2026-04-04T12:50:01Z</time></trkpt><trkpt lat="42.87176117413634" lon="10.910024423906922"><ele>145.5</ele><time>2026-04-04T12:50:02Z</time></trkpt><trkpt lat="42.87164134728488" lon="10.909896083591175"><ele>144.25</ele><time>2026-04-04T12:50:03Z</time></trkpt><trkpt lat="42.87153178242065" lon="10.90976861852413"><ele>143.0</ele><time>2026-04-04T12:50:04Z</time></trkpt><trkpt lat="42.87144037932722" lon="10.909634849641634"><ele>143.0</ele><time>2026-04-04T12:50:05Z</time></trkpt><trkpt lat="42.87134693212842" lon="10.909534619771769"><ele>143.0</ele><time>2026-04-04T12:50:06Z</time></trkpt><trkpt lat="42.87126128438409" lon="10.909421097048625"><ele>143.0</ele><time>2026-04-04T12:50:07Z</time></trkpt><trkpt lat="42.87118994796647" lon="10.909313862623979"><ele>143.0</ele><time>2026-04-04T12:50:08Z</time></trkpt><trkpt lat="42.87112292569666" lon="10.90919902230327"><ele>144.0</ele><time>2026-04-04T12:50:09Z</time></trkpt><trkpt lat="42.87104201686283" lon="10.90907214954202"><ele>145.0</ele><time>2026-04-04T12:50:10Z</time></trkpt><trkpt lat="42.87096467851773" lon="10.908928122544756"><ele>146.0</ele><time>2026-04-04T12:50:11Z</time></trkpt><trkpt lat="42.8708834991063" lon="10.90872042744132"><ele>147.0</ele><time>2026-04-04T12:50:12Z</time></trkpt><trkpt lat="42.870796547170045" lon="10.908508743381297"><ele>141.66666666666666</ele><time>2026-04-04T12:50:13Z</time></trkpt><trkpt lat="42.87070134844395" lon="10.908304496421483"><ele>136.33333333333331</ele><time>2026-04-04T12:50:14Z</time></trkpt><trkpt lat="42.87060743228153" lon="10.908104216629988"><ele>131.0</ele><time>2026-04-04T12:50:15Z</time></trkpt><trkpt lat="42.87051436131214" lon="10.907919226849263"><ele>131.0</ele><time>2026-04-04T12:50:16Z</time></trkpt><trkpt lat="42.870419819918375" lon="10.907735967918615"><ele>131.0</ele><time>2026-04-04T12:50:17Z</time></trkpt><trkpt lat="42.87033087750074" lon="10.907574854344318"><ele>131.0</ele><time>2026-04-04T12:50:18Z</time></trkpt><trkpt lat="42.870248537692476" lon="10.907396335926068"><ele>130.0</ele><time>2026-04-04T12:50:19Z</time></trkpt><trkpt lat="42.87016504031254" lon="10.907223128785509"><ele>129.0</ele><time>2026-04-04T12:50:20Z</time></trkpt><trkpt lat="42.87008750106403" lon="10.907095696908456"><ele>128.0</ele><time>2026-04-04T12:50:21Z</time></trkpt><trkpt lat="42.87001195690239" lon="10.906980011776067"><ele>127.0</ele><time>2026-04-04T12:50:22Z</time></trkpt><trkpt lat="42.869939692409076" lon="10.906875089189986"><ele>124.25</ele><time>2026-04-04T12:50:23Z</time></trkpt><trkpt lat="42.869854207829505" lon="10.90676667910928"><ele>121.5</ele><time>2026-04-04T12:50:24Z</time></trkpt><trkpt lat="42.86973967623023" lon="10.906692594690243"><ele>118.75</ele><time>2026-04-04T12:50:25Z</time></trkpt><trkpt lat="42.86964177212389" lon="10.906593428415357"><ele>116.0</ele><time>2026-04-04T12:50:26Z</time></trkpt><trkpt lat="42.86953766075656" lon="10.906536569598556"><ele>114.25</ele><time>2026-04-04T12:50:27Z</time></trkpt><trkpt lat="42.86942906698892" lon="10.906479577993256"><ele>112.5</ele><time>2026-04-04T12:50:28Z</time></trkpt><trkpt lat="42.86929676822606" lon="10.906389780898266"><ele>110.75</ele><time>2026-04-04T12:50:29Z</time></trkpt><trkpt lat="42.869155083281896" lon="10.90633365250323"><ele>109.0</ele><time>2026-04-04T12:50:30Z</time></trkpt><trkpt lat="42.86902470977563" lon="10.90628422893163"><ele>107.4</ele><time>2026-04-04T12:50:31Z</time></trkpt><trkpt lat="42.86891923705565" lon="10.906265271543376"><ele>105.80000000000001</ele><time>2026-04-04T12:50:32Z</time></trkpt><trkpt lat="42.868818878506005" lon="10.906211638935503"><ele>104.19999999999999</ele><time>2026-04-04T12:50:33Z</time></trkpt><trkpt lat="42.86871866504237" lon="10.906128096939852"><ele>102.6</ele><time>2026-04-04T12:50:34Z</time></trkpt><trkpt lat="42.868638624631856" lon="10.9060121535484"><ele>101.0</ele><time>2026-04-04T12:50:35Z</time></trkpt><trkpt lat="42.86855928357618" lon="10.905911972446733"><ele>100.25</ele><time>2026-04-04T12:50:36Z</time></trkpt><trkpt lat="42.86846275720485" lon="10.905766219672223"><ele>99.5</ele><time>2026-04-04T12:50:37Z</time></trkpt><trkpt lat="42.868383140876254" lon="10.905599641821233"><ele>98.75</ele><time>2026-04-04T12:50:38Z</time></trkpt><trkpt lat="42.868291974676154" lon="10.905421257114753"><ele>98.0</ele><time>2026-04-04T12:50:39Z</time></trkpt><trkpt lat="42.86821145153768" lon="10.905240242777166"><ele>100.25</ele><time>2026-04-04T12:50:40Z</time></trkpt><trkpt lat="42.86813908892639" lon="10.905073217290152"><ele>102.5</ele><time>2026-04-04T12:50:41Z</time></trkpt><trkpt lat="42.86804095955702" lon="10.904926754427937"><ele>104.75</ele><time>2026-04-04T12:50:42Z</time></trkpt><trkpt lat="42.86794507515894" lon="10.90479892421665"><ele>107.0</ele><time>2026-04-04T12:50:43Z</time></trkpt><trkpt lat="42.867848648382505" lon="10.904648511602302"><ele>107.0</ele><time>2026-04-04T12:50:44Z</time></trkpt><trkpt lat="42.867775133932746" lon="10.904504258293704"><ele>107.0</ele><time>2026-04-04T12:50:45Z</time></trkpt><trkpt lat="42.86771474166913" lon="10.904355518427387"><ele>107.0</ele><time>2026-04-04T12:50:46Z</time></trkpt><trkpt lat="42.86764433430456" lon="10.90415279242697"><ele>107.0</ele><time>2026-04-04T12:50:47Z</time></trkpt><trkpt lat="42.86759722050489" lon="10.903948123562335"><ele>107.0</ele><time>2026-04-04T12:50:48Z</time></trkpt><trkpt lat="42.867558653165474" lon="10.903803161300296"><ele>107.0</ele><time>2026-04-04T12:50:49Z</time></trkpt><trkpt lat="42.867535819139704" lon="10.903667467503057"><ele>107.0</ele><time>2026-04-04T12:50:50Z</time></trkpt><trkpt lat="42.867552357468306" lon="10.903510693223733"><ele>107.0</ele><time>2026-04-04T12:50:51Z</time></trkpt><trkpt lat="42.86756514487931" lon="10.903298191788302"><ele>107.0</ele><time>2026-04-04T12:50:52Z</time></trkpt><trkpt lat="42.86755123621155" lon="10.903100515733978"><ele>107.0</ele><time>2026-04-04T12:50:53Z</time></trkpt><trkpt lat="42.867512021671146" lon="10.902868845026125"><ele>107.0</ele><time>2026-04-04T12:50:54Z</time></trkpt><trkpt lat="42.86749491220081" lon="10.902572690955154"><ele>107.33333333333333</ele><time>2026-04-04T12:50:55Z</time></trkpt><trkpt lat="42.86750100721823" lon="10.90229032616092"><ele>107.66666666666666</ele><time>2026-04-04T12:50:56Z</time></trkpt><trkpt lat="42.86748687507581" lon="10.902055982433838"><ele>108.0</ele><time>2026-04-04T12:50:57Z</time></trkpt><trkpt lat="42.86749210806761" lon="10.901829884979538"><ele>109.0</ele><time>2026-04-04T12:50:58Z</time></trkpt><trkpt lat="42.86747264323057" lon="10.901588320297744"><ele>110.0</ele><time>2026-04-04T12:50:59Z</time></trkpt><trkpt lat="42.86746018251498" lon="10.901394680942005"><ele>111.0</ele><time>2026-04-04T12:51:00Z</time></trkpt><trkpt lat="42.867471408959446" lon="10.90122623848972"><ele>112.0</ele><time>2026-04-04T12:51:01Z</time></trkpt><trkpt lat="42.86746931050785" lon="10.90105989788998"><ele>113.33333333333334</ele><time>2026-04-04T12:51:02Z</time></trkpt><trkpt lat="42.867526089588786" lon="10.900880189361995"><ele>114.66666666666666</ele><time>2026-04-04T12:51:03Z</time></trkpt><trkpt lat="42.867590139847714" lon="10.9006971178992"><ele>116.0</ele><time>2026-04-04T12:51:04Z</time></trkpt><trkpt lat="42.86766478348636" lon="10.900492907017162"><ele>117.75</ele><time>2026-04-04T12:51:05Z</time></trkpt><trkpt lat="42.867719108619106" lon="10.90027546210027"><ele>119.5</ele><time>2026-04-04T12:51:06Z</time></trkpt><trkpt lat="42.867756730984176" lon="10.900081141499136"><ele>121.25</ele><time>2026-04-04T12:51:07Z</time></trkpt><trkpt lat="42.867773526465484" lon="10.899918438284118"><ele>123.0</ele><time>2026-04-04T12:51:08Z</time></trkpt><trkpt lat="42.867785558599884" lon="10.899791562456812"><ele>123.0</ele><time>2026-04-04T12:51:09Z</time></trkpt><trkpt lat="42.86777199562993" lon="10.899679848338264"><ele>123.00000000000001</ele><time>2026-04-04T12:51:10Z</time></trkpt><trkpt lat="42.86771466162221" lon="10.899578237721636"><ele>123.00000000000001</ele><time>2026-04-04T12:51:10.999Z</time></trkpt><trkpt lat="42.86763761172924" lon="10.899449305698527"><ele>123.0</ele><time>2026-04-04T12:51:11.999Z</time></trkpt><trkpt lat="42.86756203914537" lon="10.899331966991118"><ele>123.0</ele><time>2026-04-04T12:51:12.999Z</time></trkpt><trkpt lat="42.867492405714735" lon="10.899217587603978"><ele>122.5</ele><time>2026-04-04T12:51:13.999Z</time></trkpt><trkpt lat="42.86744924397052" lon="10.899063695310954"><ele>122.0</ele><time>2026-04-04T12:51:14.999Z</time></trkpt><trkpt lat="42.86741501050757" lon="10.89888566730891"><ele>121.5</ele><time>2026-04-04T12:51:15.999Z</time></trkpt><trkpt lat="42.86739123976008" lon="10.898732057652325"><ele>121.0</ele><time>2026-04-04T12:51:16.999Z</time></trkpt><trkpt lat="42.86737477713294" lon="10.898556958037824"><ele>123.5</ele><time>2026-04-04T12:51:17.999Z</time></trkpt><trkpt lat="42.8673570220743" lon="10.898363695414336"><ele>126.0</ele><time>2026-04-04T12:51:18.999Z</time></trkpt><trkpt lat="42.86732813062769" lon="10.898169501170875"><ele>128.5</ele><time>2026-04-04T12:51:19.999Z</time></trkpt><trkpt lat="42.867314189735566" lon="10.897985650371195"><ele>131.0</ele><time>2026-04-04T12:51:20.999Z</time></trkpt><trkpt lat="42.86730819355699" lon="10.897791151899714"><ele>131.0</ele><time>2026-04-04T12:51:21.999Z</time></trkpt><trkpt lat="42.867317690030475" lon="10.897598213409651"><ele>131.0</ele><time>2026-04-04T12:51:22.999Z</time></trkpt><trkpt lat="42.86733353951064" lon="10.89742129780927"><ele>131.0</ele><time>2026-04-04T12:51:23.999Z</time></trkpt><trkpt lat="42.867362672535904" lon="10.897212647657657"><ele>131.0</ele><time>2026-04-04T12:51:24.999Z</time></trkpt><trkpt lat="42.86738946467983" lon="10.897002648472029"><ele>132.25</ele><time>2026-04-04T12:51:25.999Z</time></trkpt><trkpt lat="42.867398730467904" lon="10.896792634397958"><ele>133.5</ele><time>2026-04-04T12:51:26.999Z</time></trkpt><trkpt lat="42.86738982398532" lon="10.896595305912605"><ele>134.75</ele><time>2026-04-04T12:51:27.999Z</time></trkpt><trkpt lat="42.86736024150239" lon="10.896420076446976"><ele>136.0</ele><time>2026-04-04T12:51:28.999Z</time></trkpt><trkpt lat="42.86734861381664" lon="10.896234009555888"><ele>136.0</ele><time>2026-04-04T12:51:29.999Z</time></trkpt><trkpt lat="42.867327639978846" lon="10.89602815450718"><ele>136.0</ele><time>2026-04-04T12:51:30.999Z</time></trkpt><trkpt lat="42.86731310740949" lon="10.895835809936507"><ele>136.0</ele><time>2026-04-04T12:51:31.999Z</time></trkpt><trkpt lat="42.86730204999247" lon="10.895654761439339"><ele>136.0</ele><time>2026-04-04T12:51:32.999Z</time></trkpt><trkpt lat="42.86730700947382" lon="10.895488357959909"><ele>135.8</ele><time>2026-04-04T12:51:33.999Z</time></trkpt><trkpt lat="42.86731275317179" lon="10.89533389938988"><ele>135.6</ele><time>2026-04-04T12:51:34.999Z</time></trkpt><trkpt lat="42.86731182849299" lon="10.895203617424812"><ele>135.4</ele><time>2026-04-04T12:51:35.999Z</time></trkpt><trkpt lat="42.867299041216896" lon="10.895078603353053"><ele>135.2</ele><time>2026-04-04T12:51:36.999Z</time></trkpt><trkpt lat="42.8672657691671" lon="10.894960544614298"><ele>135.0</ele><time>2026-04-04T12:51:37.999Z</time></trkpt><trkpt lat="42.86721727980345" lon="10.894818895706445"><ele>137.25</ele><time>2026-04-04T12:51:38.999Z</time></trkpt><trkpt lat="42.86715190385286" lon="10.894701682190806"><ele>139.5</ele><time>2026-04-04T12:51:39.999Z</time></trkpt><trkpt lat="42.86709351810291" lon="10.894538469817196"><ele>141.75</ele><time>2026-04-04T12:51:41Z</time></trkpt><trkpt lat="42.86704711424617" lon="10.894393211549076"><ele>144.0</ele><time>2026-04-04T12:51:42.001Z</time></trkpt><trkpt lat="42.86701561516026" lon="10.894247275604615"><ele>148.0</ele><time>2026-04-04T12:51:43Z</time></trkpt><trkpt lat="42.86698544193893" lon="10.894121579392024"><ele>152.0</ele><time>2026-04-04T12:51:44Z</time></trkpt><trkpt lat="42.86695717655477" lon="10.89398925443051"><ele>156.0</ele><time>2026-04-04T12:51:45.001Z</time></trkpt><trkpt lat="42.866922470566536" lon="10.893829018723425"><ele>160.0</ele><time>2026-04-04T12:51:46Z</time></trkpt><trkpt lat="42.86686895153461" lon="10.893664570429266"><ele>160.0</ele><time>2026-04-04T12:51:47Z</time></trkpt><trkpt lat="42.866866537620794" lon="10.893480160871034"><ele>160.0</ele><time>2026-04-04T12:51:48.001Z</time></trkpt><trkpt lat="42.86684250134005" lon="10.89329210995057"><ele>160.0</ele><time>2026-04-04T12:51:49Z</time></trkpt><trkpt lat="42.86679908556597" lon="10.893095638710763"><ele>160.0</ele><time>2026-04-04T12:51:50.001Z</time></trkpt><trkpt lat="42.86671669608345" lon="10.892895960885495"><ele>159.33333333333334</ele><time>2026-04-04T12:51:51.001Z</time></trkpt><trkpt lat="42.866611865366345" lon="10.892665854485585"><ele>158.66666666666666</ele><time>2026-04-04T12:51:52Z</time></trkpt><trkpt lat="42.86650417132187" lon="10.892469015469374"><ele>158.0</ele><time>2026-04-04T12:51:53.001Z</time></trkpt><trkpt lat="42.8664394141702" lon="10.89232380730635"><ele>158.0</ele><time>2026-04-04T12:51:54.001Z</time></trkpt><trkpt lat="42.866366378583955" lon="10.89214989256913"><ele>158.0</ele><time>2026-04-04T12:51:55.001Z</time></trkpt><trkpt lat="42.866290823975135" lon="10.891962047636547"><ele>158.0</ele><time>2026-04-04T12:51:56Z</time></trkpt><trkpt lat="42.86625938340926" lon="10.891777363650991"><ele>158.0</ele><time>2026-04-04T12:51:57Z</time></trkpt><trkpt lat="42.86623900596929" lon="10.89160724797612"><ele>158.75</ele><time>2026-04-04T12:51:58Z</time></trkpt><trkpt lat="42.86618910918186" lon="10.891453170038773"><ele>159.5</ele><time>2026-04-04T12:51:59Z</time></trkpt><trkpt lat="42.86617814128629" lon="10.891270844201449"><ele>160.25</ele><time>2026-04-04T12:52:00Z</time></trkpt><trkpt lat="42.86617306495477" lon="10.891109634270133"><ele>161.0</ele><time>2026-04-04T12:52:01Z</time></trkpt><trkpt lat="42.866149433631115" lon="10.890931023085232"><ele>160.75</ele><time>2026-04-04T12:52:02Z</time></trkpt><trkpt lat="42.86611596835253" lon="10.890748678960877"><ele>160.5</ele><time>2026-04-04T12:52:03Z</time></trkpt><trkpt lat="42.86608434418639" lon="10.890594663772603"><ele>160.25</ele><time>2026-04-04T12:52:04Z</time></trkpt><trkpt lat="42.86604615207484" lon="10.890456843015746"><ele>160.0</ele><time>2026-04-04T12:52:05Z</time></trkpt><trkpt lat="42.86598723985441" lon="10.890329816695091"><ele>160.0</ele><time>2026-04-04T12:52:06Z</time></trkpt><trkpt lat="42.86594542950034" lon="10.890214596097678"><ele>160.0</ele><time>2026-04-04T12:52:07Z</time></trkpt><trkpt lat="42.8659350315736" lon="10.890103084557417"><ele>160.0</ele><time>2026-04-04T12:52:08Z</time></trkpt><trkpt lat="42.86594353674499" lon="10.889986934803895"><ele>160.0</ele><time>2026-04-04T12:52:09Z</time></trkpt><trkpt lat="42.86597877756707" lon="10.8898849406889"><ele>160.0</ele><time>2026-04-04T12:52:10Z</time></trkpt><trkpt lat="42.86603055217315" lon="10.889784057033866"><ele>160.0</ele><time>2026-04-04T12:52:11Z</time></trkpt><trkpt lat="42.86609767140227" lon="10.88964923715354"><ele>157.25</ele><time>2026-04-04T12:52:12Z</time></trkpt><trkpt lat="42.86616946301053" lon="10.889509464910338"><ele>154.5</ele><time>2026-04-04T12:52:13Z</time></trkpt><trkpt lat="42.866249843976306" lon="10.889380529606235"><ele>151.75</ele><time>2026-04-04T12:52:14Z</time></trkpt><trkpt lat="42.86633314783664" lon="10.889277304816835"><ele>149.0</ele><time>2026-04-04T12:52:15Z</time></trkpt><trkpt lat="42.86644558725366" lon="10.88920808906837"><ele>147.6</ele><time>2026-04-04T12:52:16Z</time></trkpt><trkpt lat="42.8665563582152" lon="10.889158504523861"><ele>146.2</ele><time>2026-04-04T12:52:17Z</time></trkpt><trkpt lat="42.866668987349776" lon="10.889123397813435"><ele>144.79999999999998</ele><time>2026-04-04T12:52:18Z</time></trkpt><trkpt lat="42.86677204343819" lon="10.88907629219015"><ele>143.4</ele><time>2026-04-04T12:52:18.999Z</time></trkpt><trkpt lat="42.86685188077173" lon="10.888984008705236"><ele>142.0</ele><time>2026-04-04T12:52:19.999Z</time></trkpt><trkpt lat="42.866908792323365" lon="10.888878306232328"><ele>142.0</ele><time>2026-04-04T12:52:20.999Z</time></trkpt><trkpt lat="42.8669862329646" lon="10.888778250128091"><ele>142.0</ele><time>2026-04-04T12:52:21.999Z</time></trkpt><trkpt lat="42.86705467849466" lon="10.888699968792688"><ele>142.0</ele><time>2026-04-04T12:52:22.999Z</time></trkpt><trkpt lat="42.86712605147331" lon="10.888678428112469"><ele>142.0</ele><time>2026-04-04T12:52:23.999Z</time></trkpt><trkpt lat="42.86722632263018" lon="10.888668654013053"><ele>142.0</ele><time>2026-04-04T12:52:24.999Z</time></trkpt><trkpt lat="42.86734693459852" lon="10.888639359098109"><ele>142.0</ele><time>2026-04-04T12:52:25.999Z</time></trkpt><trkpt lat="42.86747444134648" lon="10.888606823290932"><ele>142.0</ele><time>2026-04-04T12:52:26.999Z</time></trkpt><trkpt lat="42.867610378841675" lon="10.888572737370733"><ele>142.0</ele><time>2026-04-04T12:52:27.999Z</time></trkpt><trkpt lat="42.86775361789196" lon="10.888549301547915"><ele>142.0</ele><time>2026-04-04T12:52:28.999Z</time></trkpt><trkpt lat="42.86788402550206" lon="10.888546605033163"><ele>142.0</ele><time>2026-04-04T12:52:29.999Z</time></trkpt><trkpt lat="42.867991180785296" lon="10.888548752391126"><ele>142.0</ele><time>2026-04-04T12:52:30.999Z</time></trkpt><trkpt lat="42.86808311752791" lon="10.888525328737648"><ele>142.0</ele><time>2026-04-04T12:52:31.999Z</time></trkpt><trkpt lat="42.868188302384944" lon="10.888484671140482"><ele>142.0</ele><time>2026-04-04T12:52:32.999Z</time></trkpt><trkpt lat="42.86828969793697" lon="10.88840622472303"><ele>142.0</ele><time>2026-04-04T12:52:33.999Z</time></trkpt><trkpt lat="42.868396026617305" lon="10.88829302623371"><ele>141.33333333333334</ele><time>2026-04-04T12:52:34.999Z</time></trkpt><trkpt lat="42.8685148195763" lon="10.888182713609352"><ele>140.66666666666666</ele><time>2026-04-04T12:52:35.999Z</time></trkpt><trkpt lat="42.86864474843527" lon="10.888053352099938"><ele>140.0</ele><time>2026-04-04T12:52:36.999Z</time></trkpt><trkpt lat="42.86878162794896" lon="10.887944301746817"><ele>140.0</ele><time>2026-04-04T12:52:37.999Z</time></trkpt><trkpt lat="42.86891021418601" lon="10.887857810927304"><ele>140.0</ele><time>2026-04-04T12:52:38.999Z</time></trkpt><trkpt lat="42.86903011385116" lon="10.887789432023133"><ele>140.0</ele><time>2026-04-04T12:52:39.999Z</time></trkpt><trkpt lat="42.86915015942806" lon="10.887756584686127"><ele>140.0</ele><time>2026-04-04T12:52:40.999Z</time></trkpt><trkpt lat="42.86928984798347" lon="10.887760395930217"><ele>143.0</ele><time>2026-04-04T12:52:41.999Z</time></trkpt><trkpt lat="42.869458362471484" lon="10.887746381636342"><ele>146.0</ele><time>2026-04-04T12:52:42.999Z</time></trkpt><trkpt lat="42.86962925945872" lon="10.887761477850049"><ele>149.0</ele><time>2026-04-04T12:52:43.999Z</time></trkpt><trkpt lat="42.86979502933693" lon="10.887757782112827"><ele>149.0</ele><time>2026-04-04T12:52:44.999Z</time></trkpt><trkpt lat="42.869946499201454" lon="10.887723294580319"><ele>149.0</ele><time>2026-04-04T12:52:45.999Z</time></trkpt><trkpt lat="42.87013077449028" lon="10.887695133583433"><ele>149.0</ele><time>2026-04-04T12:52:46.999Z</time></trkpt><trkpt lat="42.870329779975606" lon="10.88764374547717"><ele>150.0</ele><time>2026-04-04T12:52:47.999Z</time></trkpt><trkpt lat="42.870544601558656" lon="10.887604760009122"><ele>151.0</ele><time>2026-04-04T12:52:48.999Z</time></trkpt><trkpt lat="42.87072613829975" lon="10.887565593040087"><ele>152.0</ele><time>2026-04-04T12:52:49.999Z</time></trkpt><trkpt lat="42.870858824146744" lon="10.88750407668545"><ele>149.33333333333331</ele><time>2026-04-04T12:52:50.999Z</time></trkpt><trkpt lat="42.870986363028216" lon="10.887399083161357"><ele>146.66666666666666</ele><time>2026-04-04T12:52:51.999Z</time></trkpt><trkpt lat="42.87115241301961" lon="10.887306674237017"><ele>144.0</ele><time>2026-04-04T12:52:52.999Z</time></trkpt><trkpt lat="42.87130709521719" lon="10.88725823702784"><ele>144.0</ele><time>2026-04-04T12:52:53.999Z</time></trkpt><trkpt lat="42.87145225100906" lon="10.887169157041328"><ele>144.0</ele><time>2026-04-04T12:52:54.999Z</time></trkpt><trkpt lat="42.87158377783193" lon="10.887125229931018"><ele>144.0</ele><time>2026-04-04T12:52:55.999Z</time></trkpt><trkpt lat="42.8716771839018" lon="10.88708256575828"><ele>144.0</ele><time>2026-04-04T12:52:56.999Z</time></trkpt><trkpt lat="42.87176634592279" lon="10.886978426345424"><ele>144.66666666666666</ele><time>2026-04-04T12:52:57.999Z</time></trkpt><trkpt lat="42.87184472273906" lon="10.88683487549243"><ele>145.33333333333331</ele><time>2026-04-04T12:52:58.999Z</time></trkpt><trkpt lat="42.8719593911935" lon="10.886705915343583"><ele>146.0</ele><time>2026-04-04T12:52:59.999Z</time></trkpt><trkpt lat="42.87206977276522" lon="10.886524471489162"><ele>146.0</ele><time>2026-04-04T12:53:00.999Z</time></trkpt><trkpt lat="42.872233964365044" lon="10.886324725764956"><ele>146.0</ele><time>2026-04-04T12:53:01.999Z</time></trkpt><trkpt lat="42.872374094922996" lon="10.88612305803059"><ele>146.0</ele><time>2026-04-04T12:53:02.999Z</time></trkpt><trkpt lat="42.87250910455737" lon="10.885970905781614"><ele>149.66666666666666</ele><time>2026-04-04T12:53:03.999Z</time></trkpt><trkpt lat="42.87263565349961" lon="10.885789735115758"><ele>153.33333333333334</ele><time>2026-04-04T12:53:04.999Z</time></trkpt><trkpt lat="42.87273224573491" lon="10.885601139871959"><ele>157.0</ele><time>2026-04-04T12:53:05.999Z</time></trkpt><trkpt lat="42.87281469295038" lon="10.885440600464367"><ele>157.0</ele><time>2026-04-04T12:53:06.999Z</time></trkpt><trkpt lat="42.87292946569793" lon="10.885241175609051"><ele>157.0</ele><time>2026-04-04T12:53:07.999Z</time></trkpt><trkpt lat="42.87307638676686" lon="10.88506076114078"><ele>157.0</ele><time>2026-04-04T12:53:08.999Z</time></trkpt><trkpt lat="42.87321489206693" lon="10.884885597460478"><ele>155.0</ele><time>2026-04-04T12:53:09.999Z</time></trkpt><trkpt lat="42.87333012614871" lon="10.884728908458442"><ele>153.0</ele><time>2026-04-04T12:53:10.999Z</time></trkpt><trkpt lat="42.87344009987454" lon="10.884595534278935"><ele>151.0</ele><time>2026-04-04T12:53:11.999Z</time></trkpt><trkpt lat="42.87355792762041" lon="10.884474212819535"><ele>152.0</ele><time>2026-04-04T12:53:12.999Z</time></trkpt><trkpt lat="42.87368635999322" lon="10.884375922444018"><ele>153.0</ele><time>2026-04-04T12:53:13.999Z</time></trkpt><trkpt lat="42.87383096141748" lon="10.884278797258867"><ele>154.0</ele><time>2026-04-04T12:53:14.999Z</time></trkpt><trkpt lat="42.87400215247272" lon="10.884192071583888"><ele>154.0</ele><time>2026-04-04T12:53:15.999Z</time></trkpt><trkpt lat="42.874170276073706" lon="10.884101674768853"><ele>154.0</ele><time>2026-04-04T12:53:16.999Z</time></trkpt><trkpt lat="42.8743231070379" lon="10.884024518347887"><ele>154.0</ele><time>2026-04-04T12:53:17.999Z</time></trkpt><trkpt lat="42.874468194740636" lon="10.883907578686769"><ele>156.33333333333334</ele><time>2026-04-04T12:53:18.999Z</time></trkpt><trkpt lat="42.87461007841258" lon="10.88376329922979"><ele>158.66666666666666</ele><time>2026-04-04T12:53:19.999Z</time></trkpt><trkpt lat="42.87472829626767" lon="10.88360695157923"><ele>161.0</ele><time>2026-04-04T12:53:20.999Z</time></trkpt><trkpt lat="42.87486874039109" lon="10.883481601668086"><ele>161.0</ele><time>2026-04-04T12:53:21.999Z</time></trkpt><trkpt lat="42.8749799944301" lon="10.883388360039607"><ele>161.0</ele><time>2026-04-04T12:53:22.999Z</time></trkpt><trkpt lat="42.87512004719024" lon="10.883321193344774"><ele>161.0</ele><time>2026-04-04T12:53:23.999Z</time></trkpt><trkpt lat="42.875257713843155" lon="10.883213644033862"><ele>161.0</ele><time>2026-04-04T12:53:24.999Z</time></trkpt><trkpt lat="42.87539959580258" lon="10.883136483037923"><ele>162.66666666666666</ele><time>2026-04-04T12:53:25.999Z</time></trkpt><trkpt lat="42.875568713815326" lon="10.883145039084576"><ele>164.33333333333334</ele><time>2026-04-04T12:53:26.999Z</time></trkpt><trkpt lat="42.875716800213006" lon="10.8830745409799"><ele>166.0</ele><time>2026-04-04T12:53:27.999Z</time></trkpt><trkpt lat="42.875854125385054" lon="10.882986031191114"><ele>169.25</ele><time>2026-04-04T12:53:28.998Z</time></trkpt><trkpt lat="42.875979334526114" lon="10.882911845531405"><ele>172.5</ele><time>2026-04-04T12:53:29.998Z</time></trkpt><trkpt lat="42.876107215379044" lon="10.882870378970354"><ele>175.75</ele><time>2026-04-04T12:53:30.998Z</time></trkpt><trkpt lat="42.87623179177424" lon="10.882875623410646"><ele>179.0</ele><time>2026-04-04T12:53:31.998Z</time></trkpt><trkpt lat="42.87635126276221" lon="10.882878613153197"><ele>179.0</ele><time>2026-04-04T12:53:32.998Z</time></trkpt><trkpt lat="42.876438581345404" lon="10.882849142147029"><ele>179.0</ele><time>2026-04-04T12:53:33.998Z</time></trkpt><trkpt lat="42.87654226414575" lon="10.882810052992749"><ele>179.0</ele><time>2026-04-04T12:53:34.998Z</time></trkpt><trkpt lat="42.876661685456625" lon="10.882745475553644"><ele>179.0</ele><time>2026-04-04T12:53:35.998Z</time></trkpt><trkpt lat="42.87678867954602" lon="10.882717234867004"><ele>180.25</ele><time>2026-04-04T12:53:36.998Z</time></trkpt><trkpt lat="42.87692494145129" lon="10.882669563401235"><ele>181.5</ele><time>2026-04-04T12:53:37.998Z</time></trkpt><trkpt lat="42.87706619255405" lon="10.88262149403148"><ele>182.75</ele><time>2026-04-04T12:53:38.998Z</time></trkpt><trkpt lat="42.8771977581492" lon="10.882568294345296"><ele>184.0</ele><time>2026-04-04T12:53:39.998Z</time></trkpt><trkpt lat="42.87733147978761" lon="10.8825441003269"><ele>185.0</ele><time>2026-04-04T12:53:40.998Z</time></trkpt><trkpt lat="42.87743643022906" lon="10.882536077194363"><ele>186.0</ele><time>2026-04-04T12:53:41.998Z</time></trkpt><trkpt lat="42.87751148586789" lon="10.882516642493826"><ele>187.0</ele><time>2026-04-04T12:53:42.998Z</time></trkpt><trkpt lat="42.877565519065115" lon="10.882589126521681"><ele>188.0</ele><time>2026-04-04T12:53:44.998Z</time></trkpt><trkpt lat="42.87764755932034" lon="10.882761994762777"><ele>189.0</ele><time>2026-04-04T12:53:47Z</time></trkpt><trkpt lat="42.8776977442599" lon="10.882880990115488"><ele>189.0</ele><time>2026-04-04T12:53:48Z</time></trkpt><trkpt lat="42.87775781558374" lon="10.882983071043919"><ele>189.0</ele><time>2026-04-04T12:53:49Z</time></trkpt><trkpt lat="42.87781041404093" lon="10.883065326850728"><ele>189.0</ele><time>2026-04-04T12:53:50Z</time></trkpt><trkpt lat="42.87791681881056" lon="10.88317386564867"><ele>189.0</ele><time>2026-04-04T12:53:52Z</time></trkpt><trkpt lat="42.87798542706703" lon="10.8832135069902"><ele>189.0</ele><time>2026-04-04T12:53:53Z</time></trkpt><trkpt lat="42.87806318989176" lon="10.883262610466652"><ele>189.0</ele><time>2026-04-04T12:53:54Z</time></trkpt><trkpt lat="42.87816007692079" lon="10.883318921344976"><ele>189.0</ele><time>2026-04-04T12:53:55Z</time></trkpt><trkpt lat="42.878263481171004" lon="10.883377011951474"><ele>189.0</ele><time>2026-04-04T12:53:56Z</time></trkpt><trkpt lat="42.8783661155558" lon="10.88341239508698"><ele>189.0</ele><time>2026-04-04T12:53:57Z</time></trkpt><trkpt lat="42.87847384251031" lon="10.883418583321484"><ele>189.0</ele><time>2026-04-04T12:53:58Z</time></trkpt><trkpt lat="42.87855349444087" lon="10.883443054478478"><ele>191.25</ele><time>2026-04-04T12:53:59Z</time></trkpt><trkpt lat="42.87866125393129" lon="10.88343482147345"><ele>193.5</ele><time>2026-04-04T12:54:00Z</time></trkpt><trkpt lat="42.8787822512383" lon="10.883413650047508"><ele>195.75</ele><time>2026-04-04T12:54:01Z</time></trkpt><trkpt lat="42.87890889322271" lon="10.883407421100177"><ele>198.0</ele><time>2026-04-04T12:54:02Z</time></trkpt><trkpt lat="42.879033544111394" lon="10.8833926182855"><ele>198.0</ele><time>2026-04-04T12:54:03Z</time></trkpt><trkpt lat="42.879144609060305" lon="10.883351159630912"><ele>198.0</ele><time>2026-04-04T12:54:04Z</time></trkpt><trkpt lat="42.87923264455621" lon="10.883276983896783"><ele>198.0</ele><time>2026-04-04T12:54:05Z</time></trkpt><trkpt lat="42.87932529566305" lon="10.883196629849786"><ele>198.0</ele><time>2026-04-04T12:54:06Z</time></trkpt><trkpt lat="42.879407146222924" lon="10.883167001481134"><ele>198.0</ele><time>2026-04-04T12:54:07Z</time></trkpt><trkpt lat="42.87949700473913" lon="10.883188359038257"><ele>199.75</ele><time>2026-04-04T12:54:08Z</time></trkpt><trkpt lat="42.87961632252613" lon="10.88319269901617"><ele>201.5</ele><time>2026-04-04T12:54:09Z</time></trkpt><trkpt lat="42.879746475507254" lon="10.883145486729955"><ele>203.25</ele><time>2026-04-04T12:54:10Z</time></trkpt><trkpt lat="42.87987428160045" lon="10.883085127066233"><ele>205.0</ele><time>2026-04-04T12:54:11Z</time></trkpt><trkpt lat="42.87999400971147" lon="10.883057649243343"><ele>207.0</ele><time>2026-04-04T12:54:12Z</time></trkpt><trkpt lat="42.88013064302743" lon="10.883041687641496"><ele>209.0</ele><time>2026-04-04T12:54:13Z</time></trkpt><trkpt lat="42.880265538620634" lon="10.882985337188364"><ele>211.0</ele><time>2026-04-04T12:54:14Z</time></trkpt><trkpt lat="42.880382482085956" lon="10.882917182888193"><ele>213.0</ele><time>2026-04-04T12:54:14.999Z</time></trkpt><trkpt lat="42.88048297411813" lon="10.88289696610145"><ele>213.0</ele><time>2026-04-04T12:54:15.999Z</time></trkpt><trkpt lat="42.88059601559317" lon="10.882941748412675"><ele>213.0</ele><time>2026-04-04T12:54:16.999Z</time></trkpt><trkpt lat="42.880717924176324" lon="10.883042763399715"><ele>213.0</ele><time>2026-04-04T12:54:17.999Z</time></trkpt><trkpt lat="42.88085274335061" lon="10.88308223160851"><ele>213.0</ele><time>2026-04-04T12:54:18.999Z</time></trkpt><trkpt lat="42.88096766015437" lon="10.883127209508922"><ele>213.4</ele><time>2026-04-04T12:54:19.999Z</time></trkpt><trkpt lat="42.88106318363976" lon="10.883137030835485"><ele>213.8</ele><time>2026-04-04T12:54:20.999Z</time></trkpt><trkpt lat="42.8811285726538" lon="10.883123816188457"><ele>214.2</ele><time>2026-04-04T12:54:21.999Z</time></trkpt><trkpt lat="42.88121621244055" lon="10.88307207273531"><ele>214.6</ele><time>2026-04-04T12:54:22.999Z</time></trkpt><trkpt lat="42.88132993459878" lon="10.883001452494012"><ele>215.0</ele><time>2026-04-04T12:54:23.999Z</time></trkpt><trkpt lat="42.88145785037147" lon="10.882939773916195"><ele>215.0</ele><time>2026-04-04T12:54:24.999Z</time></trkpt><trkpt lat="42.88159215783764" lon="10.882879327801154"><ele>215.0</ele><time>2026-04-04T12:54:25.999Z</time></trkpt><trkpt lat="42.88171642784773" lon="10.882870168801295"><ele>215.0</ele><time>2026-04-04T12:54:26.999Z</time></trkpt><trkpt lat="42.88184164360893" lon="10.882864211346293"><ele>215.0</ele><time>2026-04-04T12:54:27.999Z</time></trkpt><trkpt lat="42.88198642997252" lon="10.882903106419791"><ele>218.0</ele><time>2026-04-04T12:54:28.999Z</time></trkpt><trkpt lat="42.882145744715984" lon="10.882970950191268"><ele>221.0</ele><time>2026-04-04T12:54:29.999Z</time></trkpt><trkpt lat="42.882288001364934" lon="10.883059582278229"><ele>224.0</ele><time>2026-04-04T12:54:30.999Z</time></trkpt><trkpt lat="42.882452029787224" lon="10.883123912000476"><ele>228.25</ele><time>2026-04-04T12:54:31.999Z</time></trkpt><trkpt lat="42.882639615220995" lon="10.88316402847652"><ele>232.5</ele><time>2026-04-04T12:54:32.999Z</time></trkpt><trkpt lat="42.8827739214828" lon="10.883216744579306"><ele>236.75</ele><time>2026-04-04T12:54:33.999Z</time></trkpt><trkpt lat="42.88288336820329" lon="10.883262346294778"><ele>241.0</ele><time>2026-04-04T12:54:34.999Z</time></trkpt><trkpt lat="42.88298606073559" lon="10.883311117805903"><ele>241.0</ele><time>2026-04-04T12:54:35.999Z</time></trkpt><trkpt lat="42.883075909442965" lon="10.883395701344206"><ele>241.0</ele><time>2026-04-04T12:54:36.999Z</time></trkpt><trkpt lat="42.88317963103496" lon="10.883485122416158"><ele>241.0</ele><time>2026-04-04T12:54:37.999Z</time></trkpt><trkpt lat="42.88328337328817" lon="10.88356111830396"><ele>241.0</ele><time>2026-04-04T12:54:38.999Z</time></trkpt><trkpt lat="42.883389484248895" lon="10.883631031163786"><ele>242.0</ele><time>2026-04-04T12:54:39.999Z</time></trkpt><trkpt lat="42.88348777395374" lon="10.883689725825404"><ele>243.0</ele><time>2026-04-04T12:54:40.999Z</time></trkpt><trkpt lat="42.88359369676546" lon="10.88378167355336"><ele>244.0</ele><time>2026-04-04T12:54:41.999Z</time></trkpt><trkpt lat="42.883718016886235" lon="10.883844961703279"><ele>245.0</ele><time>2026-04-04T12:54:42.999Z</time></trkpt><trkpt lat="42.88383763236787" lon="10.883922583606756"><ele>245.0</ele><time>2026-04-04T12:54:43.999Z</time></trkpt><trkpt lat="42.883951893869245" lon="10.883958370237405"><ele>245.0</ele><time>2026-04-04T12:54:44.999Z</time></trkpt><trkpt lat="42.884090632419245" lon="10.883911332260247"><ele>245.0</ele><time>2026-04-04T12:54:45.999Z</time></trkpt><trkpt lat="42.8842424597193" lon="10.883902858725925"><ele>245.0</ele><time>2026-04-04T12:54:46.999Z</time></trkpt><trkpt lat="42.88438670545894" lon="10.883901088939613"><ele>249.66666666666669</ele><time>2026-04-04T12:54:47.999Z</time></trkpt><trkpt lat="42.88454336600965" lon="10.883898527558246"><ele>254.33333333333331</ele><time>2026-04-04T12:54:48.999Z</time></trkpt><trkpt lat="42.8846969908901" lon="10.8839103064853"><ele>259.0</ele><time>2026-04-04T12:54:49.999Z</time></trkpt><trkpt lat="42.88484450998202" lon="10.883954200759613"><ele>259.0</ele><time>2026-04-04T12:54:50.999Z</time></trkpt><trkpt lat="42.884992715844085" lon="10.884014232283455"><ele>259.0</ele><time>2026-04-04T12:54:51.999Z</time></trkpt><trkpt lat="42.88512486851917" lon="10.884086268222283"><ele>259.0</ele><time>2026-04-04T12:54:52.999Z</time></trkpt><trkpt lat="42.885248066532995" lon="10.884171427061524"><ele>259.0</ele><time>2026-04-04T12:54:53.999Z</time></trkpt><trkpt lat="42.885369607914086" lon="10.884272205679128"><ele>261.66666666666663</ele><time>2026-04-04T12:54:54.999Z</time></trkpt><trkpt lat="42.88548890795105" lon="10.884384619638423"><ele>264.3333333333333</ele><time>2026-04-04T12:54:55.999Z</time></trkpt><trkpt lat="42.88561823065457" lon="10.884515099745299"><ele>267.0</ele><time>2026-04-04T12:54:56.999Z</time></trkpt><trkpt lat="42.88574502377952" lon="10.884640281992795"><ele>267.0</ele><time>2026-04-04T12:54:57.999Z</time></trkpt><trkpt lat="42.885850273923595" lon="10.884762011572665"><ele>267.0</ele><time>2026-04-04T12:54:58.999Z</time></trkpt><trkpt lat="42.885949900725656" lon="10.88487762968218"><ele>267.0</ele><time>2026-04-04T12:54:59.999Z</time></trkpt><trkpt lat="42.88604534391233" lon="10.884968101529891"><ele>267.0</ele><time>2026-04-04T12:55:00.999Z</time></trkpt><trkpt lat="42.886116553871176" lon="10.885030214388475"><ele>271.6</ele><time>2026-04-04T12:55:01.999Z</time></trkpt><trkpt lat="42.886151134511195" lon="10.88518991345115"><ele>276.2</ele><time>2026-04-04T12:55:03.999Z</time></trkpt><trkpt lat="42.88613422304003" lon="10.885339269868814"><ele>280.8</ele><time>2026-04-04T12:55:04.999Z</time></trkpt><trkpt lat="42.88610997096432" lon="10.885449243758334"><ele>285.4</ele><time>2026-04-04T12:55:05.999Z</time></trkpt><trkpt lat="42.88604215392221" lon="10.885499398984013"><ele>290.0</ele><time>2026-04-04T12:55:06.999Z</time></trkpt><trkpt lat="42.88595063281548" lon="10.885538715722879"><ele>287.5</ele><time>2026-04-04T12:55:07.999Z</time></trkpt><trkpt lat="42.885833938276114" lon="10.885546515579458"><ele>285.0</ele><time>2026-04-04T12:55:08.999Z</time></trkpt><trkpt lat="42.885709973312366" lon="10.88555832599751"><ele>282.5</ele><time>2026-04-04T12:55:09.999Z</time></trkpt><trkpt lat="42.885576121589075" lon="10.885583706255508"><ele>280.0</ele><time>2026-04-04T12:55:10.999Z</time></trkpt><trkpt lat="42.885427347052726" lon="10.88560711759685"><ele>280.0</ele><time>2026-04-04T12:55:11.999Z</time></trkpt><trkpt lat="42.885281965583005" lon="10.885621335423128"><ele>280.0</ele><time>2026-04-04T12:55:12.999Z</time></trkpt><trkpt lat="42.88513414616998" lon="10.88565909615446"><ele>280.0</ele><time>2026-04-04T12:55:13.999Z</time></trkpt><trkpt lat="42.8850110154954" lon="10.885665176829798"><ele>280.0</ele><time>2026-04-04T12:55:14.999Z</time></trkpt><trkpt lat="42.88488349057039" lon="10.885666984999181"><ele>281.0</ele><time>2026-04-04T12:55:15.999Z</time></trkpt><trkpt lat="42.8847415259231" lon="10.885690793798002"><ele>282.0</ele><time>2026-04-04T12:55:16.999Z</time></trkpt><trkpt lat="42.88460961289159" lon="10.885756799395443"><ele>283.0</ele><time>2026-04-04T12:55:17.999Z</time></trkpt><trkpt lat="42.884483514520305" lon="10.88584091861358"><ele>284.0</ele><time>2026-04-04T12:55:18.999Z</time></trkpt><trkpt lat="42.88437254204312" lon="10.885929981628824"><ele>286.59999999999997</ele><time>2026-04-04T12:55:19.999Z</time></trkpt><trkpt lat="42.88430801769745" lon="10.886020601611762"><ele>289.2</ele><time>2026-04-04T12:55:20.999Z</time></trkpt><trkpt lat="42.88425022119473" lon="10.886119282761054"><ele>291.79999999999995</ele><time>2026-04-04T12:55:21.999Z</time></trkpt><trkpt lat="42.88419504920829" lon="10.886252081866877"><ele>294.4</ele><time>2026-04-04T12:55:22.999Z</time></trkpt><trkpt lat="42.88412870474599" lon="10.88635850039951"><ele>297.0</ele><time>2026-04-04T12:55:23.999Z</time></trkpt><trkpt lat="42.88403112772864" lon="10.886488095753993"><ele>297.0</ele><time>2026-04-04T12:55:24.999Z</time></trkpt><trkpt lat="42.8839276915777" lon="10.886629827513906"><ele>297.0</ele><time>2026-04-04T12:55:25.999Z</time></trkpt><trkpt lat="42.88385048229866" lon="10.886753447606221"><ele>297.0</ele><time>2026-04-04T12:55:26.999Z</time></trkpt><trkpt lat="42.88375821504145" lon="10.886852483583482"><ele>297.0</ele><time>2026-04-04T12:55:27.999Z</time></trkpt><trkpt lat="42.88370230799056" lon="10.886894337390585"><ele>297.0</ele><time>2026-04-04T12:55:28.999Z</time></trkpt><trkpt lat="42.88362861654055" lon="10.88688212648321"><ele>295.75</ele><time>2026-04-04T12:55:29.999Z</time></trkpt><trkpt lat="42.883530886118486" lon="10.886831735548638"><ele>294.5</ele><time>2026-04-04T12:55:30.999Z</time></trkpt><trkpt lat="42.883414408114454" lon="10.886740684138724"><ele>293.25</ele><time>2026-04-04T12:55:31.999Z</time></trkpt><trkpt lat="42.88332770574022" lon="10.88665881671211"><ele>292.0</ele><time>2026-04-04T12:55:32.999Z</time></trkpt><trkpt lat="42.88331121570069" lon="10.886344942722467"><ele>292.0</ele><time>2026-04-04T12:55:34.999Z</time></trkpt><trkpt lat="42.88324010527335" lon="10.886258032808215"><ele>292.0</ele><time>2026-04-04T12:55:35.999Z</time></trkpt><trkpt lat="42.883184103449615" lon="10.886184436085614"><ele>292.0</ele><time>2026-04-04T12:55:36.999Z</time></trkpt><trkpt lat="42.88309785557148" lon="10.886165586099242"><ele>292.0</ele><time>2026-04-04T12:55:38.999Z</time></trkpt><trkpt lat="42.882993737817614" lon="10.88628219091994"><ele>292.0</ele><time>2026-04-04T12:55:40.999Z</time></trkpt><trkpt lat="42.88290161151623" lon="10.886368672814578"><ele>292.0</ele><time>2026-04-04T12:55:41.999Z</time></trkpt><trkpt lat="42.882849704514534" lon="10.886471671525308"><ele>292.0</ele><time>2026-04-04T12:55:42.999Z</time></trkpt><trkpt lat="42.882824201558385" lon="10.886593963104504"><ele>292.0</ele><time>2026-04-04T12:55:43.999Z</time></trkpt><trkpt lat="42.882826345776245" lon="10.886752144248325"><ele>292.0</ele><time>2026-04-04T12:55:44.999Z</time></trkpt><trkpt lat="42.88282998361745" lon="10.886951394156696"><ele>292.0</ele><time>2026-04-04T12:55:45.998Z</time></trkpt><trkpt lat="42.88283045546929" lon="10.887088265843989"><ele>297.0</ele><time>2026-04-04T12:55:46.998Z</time></trkpt><trkpt lat="42.88277949506284" lon="10.88722125440451"><ele>302.0</ele><time>2026-04-04T12:55:47.998Z</time></trkpt><trkpt lat="42.882724375932135" lon="10.887376025604732"><ele>307.0</ele><time>2026-04-04T12:55:48.998Z</time></trkpt><trkpt lat="42.882642451548406" lon="10.887536818978338"><ele>312.0</ele><time>2026-04-04T12:55:49.998Z</time></trkpt><trkpt lat="42.88255692461326" lon="10.887672250896486"><ele>312.0</ele><time>2026-04-04T12:55:50.998Z</time></trkpt><trkpt lat="42.88242828571806" lon="10.887863564894898"><ele>312.0</ele><time>2026-04-04T12:55:51.998Z</time></trkpt><trkpt lat="42.88231784519777" lon="10.887932541830114"><ele>312.0</ele><time>2026-04-04T12:55:53Z</time></trkpt><trkpt lat="42.882218011830886" lon="10.887990362153568"><ele>312.0</ele><time>2026-04-04T12:55:54Z</time></trkpt><trkpt lat="42.88209262311562" lon="10.888027437211331"><ele>312.0</ele><time>2026-04-04T12:55:55Z</time></trkpt><trkpt lat="42.88195836194382" lon="10.888065894284953"><ele>312.0</ele><time>2026-04-04T12:55:56Z</time></trkpt><trkpt lat="42.881829768483016" lon="10.888120389303591"><ele>312.0</ele><time>2026-04-04T12:55:57Z</time></trkpt><trkpt lat="42.881717064281716" lon="10.888164080431752"><ele>312.0</ele><time>2026-04-04T12:55:58Z</time></trkpt><trkpt lat="42.88162368880287" lon="10.888207809219807"><ele>310.6</ele><time>2026-04-04T12:55:59Z</time></trkpt><trkpt lat="42.88153088129839" lon="10.888244208970573"><ele>309.2</ele><time>2026-04-04T12:56:00Z</time></trkpt><trkpt lat="42.88145550207563" lon="10.888291363008147"><ele>307.8</ele><time>2026-04-04T12:56:01Z</time></trkpt><trkpt lat="42.881390289684916" lon="10.888427703565986"><ele>306.4</ele><time>2026-04-04T12:56:03Z</time></trkpt><trkpt lat="42.881387136191826" lon="10.88854427857497"><ele>305.0</ele><time>2026-04-04T12:56:04Z</time></trkpt><trkpt lat="42.88142096224253" lon="10.888670475775987"><ele>305.0</ele><time>2026-04-04T12:56:05Z</time></trkpt><trkpt lat="42.88143603546593" lon="10.88880830451413"><ele>305.0</ele><time>2026-04-04T12:56:06Z</time></trkpt><trkpt lat="42.881428014071034" lon="10.888955567206095"><ele>305.0</ele><time>2026-04-04T12:56:07Z</time></trkpt><trkpt lat="42.88141694973188" lon="10.889109439776547"><ele>305.0</ele><time>2026-04-04T12:56:08Z</time></trkpt><trkpt lat="42.881392530701014" lon="10.88928556026079"><ele>303.75</ele><time>2026-04-04T12:56:09Z</time></trkpt><trkpt lat="42.881364503868646" lon="10.889486476726423"><ele>302.5</ele><time>2026-04-04T12:56:10Z</time></trkpt><trkpt lat="42.881360590529276" lon="10.889660191713837"><ele>301.25</ele><time>2026-04-04T12:56:11Z</time></trkpt><trkpt lat="42.88136439390849" lon="10.889799280088022"><ele>300.0</ele><time>2026-04-04T12:56:12Z</time></trkpt><trkpt lat="42.881395339665076" lon="10.889915426451527"><ele>300.0</ele><time>2026-04-04T12:56:13Z</time></trkpt><trkpt lat="42.88144231031783" lon="10.89000430891312"><ele>300.0</ele><time>2026-04-04T12:56:14Z</time></trkpt><trkpt lat="42.88149164134586" lon="10.890089224771526"><ele>300.0</ele><time>2026-04-04T12:56:15Z</time></trkpt><trkpt lat="42.88156232610855" lon="10.890145154903331"><ele>300.0</ele><time>2026-04-04T12:56:16Z</time></trkpt><trkpt lat="42.88165411165784" lon="10.89021150702696"><ele>300.0</ele><time>2026-04-04T12:56:17Z</time></trkpt><trkpt lat="42.88178521740967" lon="10.890301508147896"><ele>297.75</ele><time>2026-04-04T12:56:18Z</time></trkpt><trkpt lat="42.88190404823752" lon="10.890384541153232"><ele>295.5</ele><time>2026-04-04T12:56:19Z</time></trkpt><trkpt lat="42.88201552496861" lon="10.890480792670418"><ele>293.25</ele><time>2026-04-04T12:56:20Z</time></trkpt><trkpt lat="42.882121294095704" lon="10.890559313339882"><ele>291.0</ele><time>2026-04-04T12:56:21Z</time></trkpt><trkpt lat="42.882211967625494" lon="10.890626620708014"><ele>291.0</ele><time>2026-04-04T12:56:22Z</time></trkpt><trkpt lat="42.882297273169506" lon="10.890668898596868"><ele>291.0</ele><time>2026-04-04T12:56:23Z</time></trkpt><trkpt lat="42.882395872657725" lon="10.890700694715076"><ele>291.0</ele><time>2026-04-04T12:56:24Z</time></trkpt><trkpt lat="42.88250246932135" lon="10.890719384639361"><ele>291.0</ele><time>2026-04-04T12:56:25Z</time></trkpt><trkpt lat="42.88261302780234" lon="10.89072819851196"><ele>291.0</ele><time>2026-04-04T12:56:26Z</time></trkpt><trkpt lat="42.88271701456067" lon="10.890718180509728"><ele>293.8</ele><time>2026-04-04T12:56:27Z</time></trkpt><trkpt lat="42.88280614927347" lon="10.8907024426086"><ele>296.6</ele><time>2026-04-04T12:56:28Z</time></trkpt><trkpt lat="42.88289344818132" lon="10.890729949981575"><ele>299.4</ele><time>2026-04-04T12:56:30Z</time></trkpt><trkpt lat="42.88285629599995" lon="10.890802341677075"><ele>302.2</ele><time>2026-04-04T12:56:31.999Z</time></trkpt><trkpt lat="42.882797574247284" lon="10.890926619895117"><ele>305.0</ele><time>2026-04-04T12:56:33.999Z</time></trkpt><trkpt lat="42.88269265576177" lon="10.891104814826543"><ele>302.75</ele><time>2026-04-04T12:56:35.999Z</time></trkpt><trkpt lat="42.88258483492945" lon="10.891228765547455"><ele>300.5</ele><time>2026-04-04T12:56:36.999Z</time></trkpt><trkpt lat="42.88245939458687" lon="10.891352367682304"><ele>298.25</ele><time>2026-04-04T12:56:37.999Z</time></trkpt><trkpt lat="42.8823839126883" lon="10.891445489231852"><ele>296.0</ele><time>2026-04-04T12:56:38.999Z</time></trkpt><trkpt lat="42.882311748323055" lon="10.891561286400435"><ele>296.0</ele><time>2026-04-04T12:56:39.999Z</time></trkpt><trkpt lat="42.88222343239056" lon="10.891634674095332"><ele>296.0</ele><time>2026-04-04T12:56:40.999Z</time></trkpt><trkpt lat="42.88209122312466" lon="10.891689757034275"><ele>296.0</ele><time>2026-04-04T12:56:41.999Z</time></trkpt><trkpt lat="42.881960611028475" lon="10.89172050398512"><ele>296.0</ele><time>2026-04-04T12:56:42.999Z</time></trkpt><trkpt lat="42.8818541216422" lon="10.891785445804453"><ele>295.0</ele><time>2026-04-04T12:56:43.999Z</time></trkpt><trkpt lat="42.88174463989484" lon="10.8918888289994"><ele>294.0</ele><time>2026-04-04T12:56:44.999Z</time></trkpt><trkpt lat="42.88163459066924" lon="10.892003087541148"><ele>293.0</ele><time>2026-04-04T12:56:45.999Z</time></trkpt><trkpt lat="42.88153831767251" lon="10.892094203819788"><ele>292.0</ele><time>2026-04-04T12:56:46.999Z</time></trkpt><trkpt lat="42.8814513395617" lon="10.892190680580775"><ele>292.0</ele><time>2026-04-04T12:56:47.999Z</time></trkpt><trkpt lat="42.88137077666662" lon="10.892321524297591"><ele>292.0</ele><time>2026-04-04T12:56:48.999Z</time></trkpt><trkpt lat="42.88128592182582" lon="10.892453889220183"><ele>292.0</ele><time>2026-04-04T12:56:49.999Z</time></trkpt><trkpt lat="42.881194312931235" lon="10.892566255614042"><ele>292.0</ele><time>2026-04-04T12:56:50.999Z</time></trkpt><trkpt lat="42.88110610180717" lon="10.892665718066189"><ele>292.6</ele><time>2026-04-04T12:56:51.999Z</time></trkpt><trkpt lat="42.88101221937371" lon="10.892756826399308"><ele>293.2</ele><time>2026-04-04T12:56:52.999Z</time></trkpt><trkpt lat="42.88092304742314" lon="10.892815263025307"><ele>293.8</ele><time>2026-04-04T12:56:53.999Z</time></trkpt><trkpt lat="42.880838091500834" lon="10.892870257817686"><ele>294.4</ele><time>2026-04-04T12:56:54.999Z</time></trkpt><trkpt lat="42.880750812493915" lon="10.892955928050398"><ele>295.0</ele><time>2026-04-04T12:56:55.999Z</time></trkpt><trkpt lat="42.880690613937425" lon="10.893051756521144"><ele>295.0</ele><time>2026-04-04T12:56:56.999Z</time></trkpt><trkpt lat="42.88062518455752" lon="10.893131190787816"><ele>295.0</ele><time>2026-04-04T12:56:57.999Z</time></trkpt><trkpt lat="42.88058321340909" lon="10.893197424055003"><ele>295.0</ele><time>2026-04-04T12:56:58.999Z</time></trkpt><trkpt lat="42.880682991830156" lon="10.893198332581887"><ele>295.0</ele><time>2026-04-04T12:57:04.999Z</time></trkpt><trkpt lat="42.88074648263004" lon="10.893160560501455"><ele>295.0</ele><time>2026-04-04T12:57:05.999Z</time></trkpt><trkpt lat="42.88085886419191" lon="10.893100878913724"><ele>295.0</ele><time>2026-04-04T12:57:07.999Z</time></trkpt><trkpt lat="42.880937428879825" lon="10.893059870234286"><ele>295.0</ele><time>2026-04-04T12:57:08.999Z</time></trkpt><trkpt lat="42.881028536336466" lon="10.89299801541404"><ele>295.0</ele><time>2026-04-04T12:57:09.999Z</time></trkpt><trkpt lat="42.88110916047918" lon="10.892949804173536"><ele>295.0</ele><time>2026-04-04T12:57:10.999Z</time></trkpt><trkpt lat="42.88118731617543" lon="10.89292376131356"><ele>295.0</ele><time>2026-04-04T12:57:11.999Z</time></trkpt><trkpt lat="42.88125667499126" lon="10.892915786314651"><ele>295.0</ele><time>2026-04-04T12:57:12.999Z</time></trkpt><trkpt lat="42.88133939933938" lon="10.89291889929348"><ele>295.0</ele><time>2026-04-04T12:57:13.999Z</time></trkpt><trkpt lat="42.88142997383158" lon="10.892930691777078"><ele>295.0</ele><time>2026-04-04T12:57:14.999Z</time></trkpt><trkpt lat="42.88151850229723" lon="10.892948447645999"><ele>295.0</ele><time>2026-04-04T12:57:15.999Z</time></trkpt><trkpt lat="42.8816062643736" lon="10.89296796790593"><ele>295.0</ele><time>2026-04-04T12:57:16.999Z</time></trkpt><trkpt lat="42.88169809978365" lon="10.892997791386378"><ele>295.0</ele><time>2026-04-04T12:57:17.999Z</time></trkpt><trkpt lat="42.88179122886705" lon="10.893002682767605"><ele>295.0</ele><time>2026-04-04T12:57:18.999Z</time></trkpt><trkpt lat="42.88191872497561" lon="10.89299561617694"><ele>296.5</ele><time>2026-04-04T12:57:19.999Z</time></trkpt><trkpt lat="42.88205460769872" lon="10.893001975197924"><ele>298.0</ele><time>2026-04-04T12:57:20.999Z</time></trkpt><trkpt lat="42.88218308817071" lon="10.892967132215452"><ele>299.5</ele><time>2026-04-04T12:57:21.999Z</time></trkpt><trkpt lat="42.88229628255272" lon="10.892934263165838"><ele>301.0</ele><time>2026-04-04T12:57:22.999Z</time></trkpt><trkpt lat="42.88239333481841" lon="10.892907998560519"><ele>301.0</ele><time>2026-04-04T12:57:23.999Z</time></trkpt><trkpt lat="42.88251082853272" lon="10.892900119597252"><ele>301.0</ele><time>2026-04-04T12:57:24.999Z</time></trkpt><trkpt lat="42.88263741805273" lon="10.892905135624174"><ele>301.0</ele><time>2026-04-04T12:57:25.999Z</time></trkpt><trkpt lat="42.88274432680582" lon="10.892877352835454"><ele>301.0</ele><time>2026-04-04T12:57:26.999Z</time></trkpt><trkpt lat="42.88285010946404" lon="10.892823703146039"><ele>302.2</ele><time>2026-04-04T12:57:27.999Z</time></trkpt><trkpt lat="42.882926128234125" lon="10.892739117386016"><ele>303.40000000000003</ele><time>2026-04-04T12:57:28.999Z</time></trkpt><trkpt lat="42.88298888685039" lon="10.892647286961157"><ele>304.6</ele><time>2026-04-04T12:57:29.999Z</time></trkpt><trkpt lat="42.883062276216286" lon="10.892513072155825"><ele>305.8</ele><time>2026-04-04T12:57:30.999Z</time></trkpt><trkpt lat="42.88313993125434" lon="10.892390024710906"><ele>307.0</ele><time>2026-04-04T12:57:31.999Z</time></trkpt><trkpt lat="42.883224626588685" lon="10.892266865458511"><ele>309.6</ele><time>2026-04-04T12:57:32.999Z</time></trkpt><trkpt lat="42.88330636940032" lon="10.892159292498516"><ele>312.2</ele><time>2026-04-04T12:57:33.999Z</time></trkpt><trkpt lat="42.8833764195926" lon="10.892059664282147"><ele>314.8</ele><time>2026-04-04T12:57:34.999Z</time></trkpt><trkpt lat="42.88345210568371" lon="10.891979293371639"><ele>317.4</ele><time>2026-04-04T12:57:35.999Z</time></trkpt><trkpt lat="42.883523315910814" lon="10.891942536253952"><ele>320.0</ele><time>2026-04-04T12:57:36.999Z</time></trkpt><trkpt lat="42.883602518126665" lon="10.891929808911181"><ele>322.6</ele><time>2026-04-04T12:57:37.999Z</time></trkpt><trkpt lat="42.88369477794299" lon="10.891935079010974"><ele>325.2</ele><time>2026-04-04T12:57:38.999Z</time></trkpt><trkpt lat="42.8837959442695" lon="10.891943732887357"><ele>327.79999999999995</ele><time>2026-04-04T12:57:39.999Z</time></trkpt><trkpt lat="42.88391045039182" lon="10.89196380210468"><ele>330.4</ele><time>2026-04-04T12:57:40.999Z</time></trkpt><trkpt lat="42.88401672280109" lon="10.891968496775107"><ele>333.0</ele><time>2026-04-04T12:57:41.999Z</time></trkpt><trkpt lat="42.88412322609712" lon="10.891972768332936"><ele>333.0</ele><time>2026-04-04T12:57:42.999Z</time></trkpt><trkpt lat="42.88421676249602" lon="10.891972153434295"><ele>333.0</ele><time>2026-04-04T12:57:43.999Z</time></trkpt><trkpt lat="42.884341920234625" lon="10.891933902445404"><ele>333.0</ele><time>2026-04-04T12:57:44.999Z</time></trkpt><trkpt lat="42.8844847221185" lon="10.891866974032126"><ele>333.0</ele><time>2026-04-04T12:57:45.999Z</time></trkpt><trkpt lat="42.88463256911962" lon="10.891775053368407"><ele>340.0</ele><time>2026-04-04T12:57:46.999Z</time></trkpt><trkpt lat="42.88475123506701" lon="10.891680341404378"><ele>347.0</ele><time>2026-04-04T12:57:47.999Z</time></trkpt><trkpt lat="42.88485134486966" lon="10.891567059171937"><ele>354.0</ele><time>2026-04-04T12:57:48.999Z</time></trkpt><trkpt lat="42.884949612220225" lon="10.891452928802645"><ele>361.0</ele><time>2026-04-04T12:57:49.999Z</time></trkpt><trkpt lat="42.88503522147195" lon="10.891354209587375"><ele>372.66666666666663</ele><time>2026-04-04T12:57:50.999Z</time></trkpt><trkpt lat="42.88509932270331" lon="10.891186344882465"><ele>384.3333333333333</ele><time>2026-04-04T12:57:51.999Z</time></trkpt><trkpt lat="42.885177961974925" lon="10.890977257253136"><ele>396.0</ele><time>2026-04-04T12:57:52.999Z</time></trkpt><trkpt lat="42.885242629821015" lon="10.890784072690312"><ele>396.0</ele><time>2026-04-04T12:57:53.999Z</time></trkpt><trkpt lat="42.88523352878334" lon="10.890581507702517"><ele>396.0</ele><time>2026-04-04T12:57:54.999Z</time></trkpt><trkpt lat="42.88524239267595" lon="10.890382559484122"><ele>396.0</ele><time>2026-04-04T12:57:55.999Z</time></trkpt><trkpt lat="42.885231550227346" lon="10.890172283471708"><ele>396.0</ele><time>2026-04-04T12:57:56.999Z</time></trkpt><trkpt lat="42.8852112624514" lon="10.88997318413589"><ele>394.0</ele><time>2026-04-04T12:57:57.998Z</time></trkpt><trkpt lat="42.88517810535306" lon="10.889774858014762"><ele>392.0</ele><time>2026-04-04T12:57:59Z</time></trkpt><trkpt lat="42.88511980363016" lon="10.889595143840774"><ele>390.0</ele><time>2026-04-04T12:58:00Z</time></trkpt><trkpt lat="42.885073944151785" lon="10.889434533830594"><ele>388.0</ele><time>2026-04-04T12:58:01Z</time></trkpt><trkpt lat="42.885066751524604" lon="10.88929683811875"><ele>385.2</ele><time>2026-04-04T12:58:02Z</time></trkpt><trkpt lat="42.88508548656772" lon="10.889210356286908"><ele>382.4</ele><time>2026-04-04T12:58:03Z</time></trkpt><trkpt lat="42.88516092640256" lon="10.88911489698692"><ele>379.59999999999997</ele><time>2026-04-04T12:58:05Z</time></trkpt><trkpt lat="42.88522805896335" lon="10.88908901556247"><ele>376.79999999999995</ele><time>2026-04-04T12:58:06Z</time></trkpt><trkpt lat="42.885329670485376" lon="10.889100081580397"><ele>374.0</ele><time>2026-04-04T12:58:07Z</time></trkpt><trkpt lat="42.8854396067499" lon="10.889115184218575"><ele>374.0</ele><time>2026-04-04T12:58:08Z</time></trkpt><trkpt lat="42.88555800652343" lon="10.889134535947415"><ele>374.0</ele><time>2026-04-04T12:58:09Z</time></trkpt><trkpt lat="42.88566538264288" lon="10.889145338854634"><ele>374.0</ele><time>2026-04-04T12:58:10Z</time></trkpt><trkpt lat="42.88576199146536" lon="10.889100645251052"><ele>374.0</ele><time>2026-04-04T12:58:11Z</time></trkpt><trkpt lat="42.88587493094223" lon="10.889073835721492"><ele>374.0</ele><time>2026-04-04T12:58:12Z</time></trkpt><trkpt lat="42.88598932204032" lon="10.889072787013852"><ele>376.25</ele><time>2026-04-04T12:58:13Z</time></trkpt><trkpt lat="42.886123685300575" lon="10.889088819559973"><ele>378.5</ele><time>2026-04-04T12:58:14Z</time></trkpt><trkpt lat="42.88625313608212" lon="10.889101740715692"><ele>380.75</ele><time>2026-04-04T12:58:15Z</time></trkpt><trkpt lat="42.88639204684923" lon="10.889120879129216"><ele>383.0</ele><time>2026-04-04T12:58:16Z</time></trkpt><trkpt lat="42.886522449572716" lon="10.88914820673024"><ele>383.0</ele><time>2026-04-04T12:58:17Z</time></trkpt><trkpt lat="42.88664674459095" lon="10.88921365573201"><ele>383.0</ele><time>2026-04-04T12:58:18Z</time></trkpt><trkpt lat="42.8867598007268" lon="10.889271673504036"><ele>383.0</ele><time>2026-04-04T12:58:19Z</time></trkpt><trkpt lat="42.8868562355088" lon="10.889266943681271"><ele>383.0</ele><time>2026-04-04T12:58:20Z</time></trkpt><trkpt lat="42.88695618417406" lon="10.889244039054413"><ele>386.0</ele><time>2026-04-04T12:58:21Z</time></trkpt><trkpt lat="42.88703934195435" lon="10.889160670537269"><ele>389.0</ele><time>2026-04-04T12:58:22Z</time></trkpt><trkpt lat="42.88714045739444" lon="10.889045243717872"><ele>392.0</ele><time>2026-04-04T12:58:23Z</time></trkpt><trkpt lat="42.887241841246556" lon="10.888913660083022"><ele>395.0</ele><time>2026-04-04T12:58:24Z</time></trkpt><trkpt lat="42.88733939611444" lon="10.888779758071587"><ele>395.0</ele><time>2026-04-04T12:58:25Z</time></trkpt><trkpt lat="42.88742756629953" lon="10.888660221264523"><ele>395.0</ele><time>2026-04-04T12:58:26Z</time></trkpt><trkpt lat="42.88750617781309" lon="10.888559968249567"><ele>395.0</ele><time>2026-04-04T12:58:27Z</time></trkpt><trkpt lat="42.88758688364963" lon="10.888460810895324"><ele>395.0</ele><time>2026-04-04T12:58:28Z</time></trkpt><trkpt lat="42.8876693650919" lon="10.888348826550803"><ele>394.5</ele><time>2026-04-04T12:58:29Z</time></trkpt><trkpt lat="42.887751884282075" lon="10.88821932432894"><ele>394.0</ele><time>2026-04-04T12:58:30Z</time></trkpt><trkpt lat="42.887841440565346" lon="10.888109443243374"><ele>393.5</ele><time>2026-04-04T12:58:31Z</time></trkpt><trkpt lat="42.887924586401475" lon="10.888018466740132"><ele>393.0</ele><time>2026-04-04T12:58:32Z</time></trkpt><trkpt lat="42.888023191113824" lon="10.887934708255969"><ele>393.0</ele><time>2026-04-04T12:58:33Z</time></trkpt><trkpt lat="42.88813646185208" lon="10.887862826074317"><ele>393.0</ele><time>2026-04-04T12:58:34Z</time></trkpt><trkpt lat="42.88825313153685" lon="10.887796599687237"><ele>393.0</ele><time>2026-04-04T12:58:35Z</time></trkpt><trkpt lat="42.88837480204144" lon="10.887718680459148"><ele>393.0</ele><time>2026-04-04T12:58:36Z</time></trkpt><trkpt lat="42.88851089273817" lon="10.887635346321696"><ele>391.0</ele><time>2026-04-04T12:58:37Z</time></trkpt><trkpt lat="42.88865389765289" lon="10.887560513420338"><ele>389.0</ele><time>2026-04-04T12:58:38Z</time></trkpt><trkpt lat="42.88876894725049" lon="10.887498139074047"><ele>387.0</ele><time>2026-04-04T12:58:39Z</time></trkpt><trkpt lat="42.888891891204125" lon="10.887420664722002"><ele>385.0</ele><time>2026-04-04T12:58:40Z</time></trkpt><trkpt lat="42.88902455535061" lon="10.887320777364144"><ele>385.0</ele><time>2026-04-04T12:58:40.999Z</time></trkpt><trkpt lat="42.88916224447673" lon="10.887189615269845"><ele>385.0</ele><time>2026-04-04T12:58:41.999Z</time></trkpt><trkpt lat="42.88929810344266" lon="10.887075894385157"><ele>385.0</ele><time>2026-04-04T12:58:42.999Z</time></trkpt><trkpt lat="42.889434300537154" lon="10.886978830430284"><ele>385.0</ele><time>2026-04-04T12:58:43.999Z</time></trkpt><trkpt lat="42.88955031326799" lon="10.886890902196864"><ele>385.0</ele><time>2026-04-04T12:58:44.999Z</time></trkpt><trkpt lat="42.88964919375152" lon="10.886796099181035"><ele>385.0</ele><time>2026-04-04T12:58:45.999Z</time></trkpt><trkpt lat="42.889735243788856" lon="10.886718070253828"><ele>385.0</ele><time>2026-04-04T12:58:46.999Z</time></trkpt><trkpt lat="42.88981684919292" lon="10.886632570263982"><ele>385.5</ele><time>2026-04-04T12:58:47.999Z</time></trkpt><trkpt lat="42.889893940270575" lon="10.886510231238034"><ele>386.0</ele><time>2026-04-04T12:58:48.999Z</time></trkpt><trkpt lat="42.88999030579694" lon="10.886372439639208"><ele>386.5</ele><time>2026-04-04T12:58:49.999Z</time></trkpt><trkpt lat="42.89010558731814" lon="10.88623561150131"><ele>387.0</ele><time>2026-04-04T12:58:50.999Z</time></trkpt><trkpt lat="42.8902154041758" lon="10.886111633063324"><ele>390.6</ele><time>2026-04-04T12:58:51.999Z</time></trkpt><trkpt lat="42.890300729618694" lon="10.886010643630895"><ele>394.20000000000005</ele><time>2026-04-04T12:58:52.999Z</time></trkpt><trkpt lat="42.89037416245519" lon="10.885921480946198"><ele>397.8</ele><time>2026-04-04T12:58:53.999Z</time></trkpt><trkpt lat="42.89041084455257" lon="10.885829649255815"><ele>401.4</ele><time>2026-04-04T12:58:54.999Z</time></trkpt><trkpt lat="42.8904140591489" lon="10.885722435926962"><ele>405.0</ele><time>2026-04-04T12:58:55.999Z</time></trkpt><trkpt lat="42.89039312264468" lon="10.88558197958909"><ele>406.75</ele><time>2026-04-04T12:58:56.999Z</time></trkpt><trkpt lat="42.89034628527452" lon="10.885455029172967"><ele>408.5</ele><time>2026-04-04T12:58:57.999Z</time></trkpt><trkpt lat="42.89026600188797" lon="10.88532905101399"><ele>410.25</ele><time>2026-04-04T12:58:58.999Z</time></trkpt><trkpt lat="42.89017960134559" lon="10.885199781269202"><ele>412.0</ele><time>2026-04-04T12:58:59.999Z</time></trkpt><trkpt lat="42.890089578666064" lon="10.885064391387658"><ele>406.75</ele><time>2026-04-04T12:59:00.999Z</time></trkpt><trkpt lat="42.89000345182375" lon="10.884916569927736"><ele>401.5</ele><time>2026-04-04T12:59:01.999Z</time></trkpt><trkpt lat="42.88990668205721" lon="10.884773795563001"><ele>396.25</ele><time>2026-04-04T12:59:02.999Z</time></trkpt><trkpt lat="42.88980386346842" lon="10.884631440197092"><ele>391.0</ele><time>2026-04-04T12:59:03.999Z</time></trkpt><trkpt lat="42.88970599951254" lon="10.884501930182607"><ele>391.0</ele><time>2026-04-04T12:59:04.999Z</time></trkpt><trkpt lat="42.88962029161568" lon="10.884372921474387"><ele>391.0</ele><time>2026-04-04T12:59:05.999Z</time></trkpt><trkpt lat="42.889532557825746" lon="10.884237399857055"><ele>391.0</ele><time>2026-04-04T12:59:06.999Z</time></trkpt><trkpt lat="42.88945547933993" lon="10.884099002587787"><ele>391.0</ele><time>2026-04-04T12:59:07.999Z</time></trkpt><trkpt lat="42.88936208014353" lon="10.883967303168747"><ele>389.0</ele><time>2026-04-04T12:59:08.999Z</time></trkpt><trkpt lat="42.889259189069755" lon="10.883831596966607"><ele>387.0</ele><time>2026-04-04T12:59:09.999Z</time></trkpt><trkpt lat="42.88916022548334" lon="10.883715608491348"><ele>385.0</ele><time>2026-04-04T12:59:10.999Z</time></trkpt><trkpt lat="42.889057813444964" lon="10.883633802739439"><ele>383.0</ele><time>2026-04-04T12:59:11.999Z</time></trkpt><trkpt lat="42.888938330803995" lon="10.883582215140976"><ele>383.0</ele><time>2026-04-04T12:59:12.999Z</time></trkpt><trkpt lat="42.8888063486087" lon="10.883539065010748"><ele>383.0</ele><time>2026-04-04T12:59:13.999Z</time></trkpt><trkpt lat="42.888671970236956" lon="10.883470427782349"><ele>383.0</ele><time>2026-04-04T12:59:14.999Z</time></trkpt><trkpt lat="42.88855154980593" lon="10.883385438769269"><ele>383.0</ele><time>2026-04-04T12:59:15.999Z</time></trkpt><trkpt lat="42.888450587580216" lon="10.883314465313086"><ele>383.0</ele><time>2026-04-04T12:59:16.999Z</time></trkpt><trkpt lat="42.88835723048482" lon="10.883261640843758"><ele>383.0</ele><time>2026-04-04T12:59:17.999Z</time></trkpt><trkpt lat="42.88826898831128" lon="10.883208755279805"><ele>383.0</ele><time>2026-04-04T12:59:18.999Z</time></trkpt><trkpt lat="42.88820005271317" lon="10.883148407330467"><ele>383.0</ele><time>2026-04-04T12:59:19.999Z</time></trkpt><trkpt lat="42.88819160907726" lon="10.883005207291946"><ele>383.0</ele><time>2026-04-04T12:59:21.999Z</time></trkpt><trkpt lat="42.888209637381756" lon="10.882908162842613"><ele>383.0</ele><time>2026-04-04T12:59:22.999Z</time></trkpt><trkpt lat="42.88821632624053" lon="10.882821030983353"><ele>383.0</ele><time>2026-04-04T12:59:23.999Z</time></trkpt><trkpt lat="42.888243137045805" lon="10.88271464479837"><ele>383.0</ele><time>2026-04-04T12:59:29.999Z</time></trkpt><trkpt lat="42.88832788119572" lon="10.882569278755305"><ele>383.0</ele><time>2026-04-04T12:59:31.999Z</time></trkpt><trkpt lat="42.88838262696124" lon="10.882457288701229"><ele>383.0</ele><time>2026-04-04T12:59:32.999Z</time></trkpt><trkpt lat="42.88844077336843" lon="10.882330306815213"><ele>386.75</ele><time>2026-04-04T12:59:33.999Z</time></trkpt><trkpt lat="42.88853281739224" lon="10.882184762055815"><ele>390.5</ele><time>2026-04-04T12:59:34.999Z</time></trkpt><trkpt lat="42.88859093785249" lon="10.882051697169294"><ele>394.25</ele><time>2026-04-04T12:59:35.999Z</time></trkpt><trkpt lat="42.88866842315665" lon="10.88192833591906"><ele>398.0</ele><time>2026-04-04T12:59:36.999Z</time></trkpt><trkpt lat="42.88872299739302" lon="10.881821087220473"><ele>392.75</ele><time>2026-04-04T12:59:37.999Z</time></trkpt><trkpt lat="42.88879178099925" lon="10.881703786080909"><ele>387.5</ele><time>2026-04-04T12:59:38.999Z</time></trkpt><trkpt lat="42.88887231494065" lon="10.881573434597305"><ele>382.25</ele><time>2026-04-04T12:59:39.999Z</time></trkpt><trkpt lat="42.888953977273715" lon="10.881436608837799"><ele>377.0</ele><time>2026-04-04T12:59:40.999Z</time></trkpt><trkpt lat="42.88902791070755" lon="10.881286244640261"><ele>377.0</ele><time>2026-04-04T12:59:41.999Z</time></trkpt><trkpt lat="42.889108355536365" lon="10.881138746370253"><ele>377.0</ele><time>2026-04-04T12:59:42.999Z</time></trkpt><trkpt lat="42.88919357684681" lon="10.880957349011828"><ele>377.0</ele><time>2026-04-04T12:59:43.999Z</time></trkpt><trkpt lat="42.8892916607874" lon="10.880774355469379"><ele>377.33333333333337</ele><time>2026-04-04T12:59:44.999Z</time></trkpt><trkpt lat="42.889387591821865" lon="10.880584507111958"><ele>377.6666666666667</ele><time>2026-04-04T12:59:45.999Z</time></trkpt><trkpt lat="42.88948842283486" lon="10.880411381712191"><ele>378.0</ele><time>2026-04-04T12:59:46.999Z</time></trkpt><trkpt lat="42.889573646951796" lon="10.880243025223157"><ele>372.5</ele><time>2026-04-04T12:59:47.999Z</time></trkpt><trkpt lat="42.88966138816902" lon="10.880080078201713"><ele>367.0</ele><time>2026-04-04T12:59:48.999Z</time></trkpt><trkpt lat="42.889744361525835" lon="10.879922405439277"><ele>361.5</ele><time>2026-04-04T12:59:49.999Z</time></trkpt><trkpt lat="42.88981601687954" lon="10.879776895541598"><ele>356.0</ele><time>2026-04-04T12:59:50.999Z</time></trkpt><trkpt lat="42.88989824098238" lon="10.879655563587386"><ele>356.0</ele><time>2026-04-04T12:59:51.999Z</time></trkpt><trkpt lat="42.88999855740051" lon="10.879545516615716"><ele>356.0</ele><time>2026-04-04T12:59:52.999Z</time></trkpt><trkpt lat="42.890118552306724" lon="10.879440504870972"><ele>356.0</ele><time>2026-04-04T12:59:53.999Z</time></trkpt><trkpt lat="42.890253925876685" lon="10.879349439038556"><ele>356.0</ele><time>2026-04-04T12:59:54.999Z</time></trkpt><trkpt lat="42.89038179241685" lon="10.879282211929539"><ele>356.25</ele><time>2026-04-04T12:59:55.999Z</time></trkpt><trkpt lat="42.890492112199055" lon="10.879202703059297"><ele>356.5</ele><time>2026-04-04T12:59:56.999Z</time></trkpt><trkpt lat="42.89060921276414" lon="10.879102886562464"><ele>356.75</ele><time>2026-04-04T12:59:57.999Z</time></trkpt><trkpt lat="42.89072819757145" lon="10.8789820011129"><ele>357.0</ele><time>2026-04-04T12:59:58.999Z</time></trkpt><trkpt lat="42.890841925056044" lon="10.878863142456346"><ele>357.0</ele><time>2026-04-04T12:59:59.999Z</time></trkpt><trkpt lat="42.890898531494514" lon="10.878741748823815"><ele>357.0</ele><time>2026-04-04T13:00:00.999Z</time></trkpt><trkpt lat="42.890939278720545" lon="10.878595208252296"><ele>357.0</ele><time>2026-04-04T13:00:01.999Z</time></trkpt><trkpt lat="42.89096575338266" lon="10.878457661081104"><ele>357.0</ele><time>2026-04-04T13:00:02.999Z</time></trkpt><trkpt lat="42.89097851000907" lon="10.878326280531068"><ele>357.0</ele><time>2026-04-04T13:00:03.999Z</time></trkpt><trkpt lat="42.89098404947158" lon="10.878196789644742"><ele>355.6</ele><time>2026-04-04T13:00:05Z</time></trkpt><trkpt lat="42.89096066950003" lon="10.878080647211393"><ele>354.20000000000005</ele><time>2026-04-04T13:00:06Z</time></trkpt><trkpt lat="42.890989062580225" lon="10.877973872388269"><ele>352.8</ele><time>2026-04-04T13:00:09Z</time></trkpt><trkpt lat="42.89111051249929" lon="10.877937927305782"><ele>351.4</ele><time>2026-04-04T13:00:11Z</time></trkpt><trkpt lat="42.89119066004873" lon="10.877971163828517"><ele>350.0</ele><time>2026-04-04T13:00:12Z</time></trkpt><trkpt lat="42.891279520678225" lon="10.878010091037968"><ele>350.0</ele><time>2026-04-04T13:00:13Z</time></trkpt><trkpt lat="42.89138279871234" lon="10.878045956752466"><ele>350.0</ele><time>2026-04-04T13:00:14Z</time></trkpt><trkpt lat="42.891491758520836" lon="10.87808466425193"><ele>350.0</ele><time>2026-04-04T13:00:15Z</time></trkpt><trkpt lat="42.891600594611496" lon="10.87811850295003"><ele>350.0</ele><time>2026-04-04T13:00:16Z</time></trkpt><trkpt lat="42.891708174265055" lon="10.878162383038093"><ele>350.0</ele><time>2026-04-04T13:00:17Z</time></trkpt><trkpt lat="42.891837685498665" lon="10.878210441562308"><ele>348.25</ele><time>2026-04-04T13:00:18Z</time></trkpt><trkpt lat="42.89196511698345" lon="10.8782477155539"><ele>346.5</ele><time>2026-04-04T13:00:19Z</time></trkpt><trkpt lat="42.89210174999906" lon="10.878301760110267"><ele>344.75</ele><time>2026-04-04T13:00:20Z</time></trkpt><trkpt lat="42.892217680557096" lon="10.878375266844312"><ele>343.0</ele><time>2026-04-04T13:00:21Z</time></trkpt><trkpt lat="42.892304797766556" lon="10.878454163940402"><ele>347.0</ele><time>2026-04-04T13:00:22Z</time></trkpt><trkpt lat="42.8923817706728" lon="10.878553130491909"><ele>351.0</ele><time>2026-04-04T13:00:23Z</time></trkpt><trkpt lat="42.89246305372976" lon="10.878658359324382"><ele>355.0</ele><time>2026-04-04T13:00:24Z</time></trkpt><trkpt lat="42.89253673723124" lon="10.878757950007062"><ele>359.0</ele><time>2026-04-04T13:00:25Z</time></trkpt><trkpt lat="42.89260635812589" lon="10.878822771927306"><ele>363.0</ele><time>2026-04-04T13:00:26Z</time></trkpt><trkpt lat="42.89269273353237" lon="10.878794181333024"><ele>365.0</ele><time>2026-04-04T13:00:29Z</time></trkpt><trkpt lat="42.89271468208515" lon="10.878667377430432"><ele>367.0</ele><time>2026-04-04T13:00:31Z</time></trkpt><trkpt lat="42.892715829134" lon="10.87854026803182"><ele>369.0</ele><time>2026-04-04T13:00:32Z</time></trkpt><trkpt lat="42.892728347661105" lon="10.878400069637557"><ele>371.0</ele><time>2026-04-04T13:00:33Z</time></trkpt><trkpt lat="42.89272716534066" lon="10.878234669187641"><ele>373.0</ele><time>2026-04-04T13:00:34Z</time></trkpt><trkpt lat="42.89270243700284" lon="10.878040851801897"><ele>367.5</ele><time>2026-04-04T13:00:35Z</time></trkpt><trkpt lat="42.892702973385234" lon="10.877881592401602"><ele>362.0</ele><time>2026-04-04T13:00:36Z</time></trkpt><trkpt lat="42.89265943541138" lon="10.877710599045878"><ele>356.5</ele><time>2026-04-04T13:00:37Z</time></trkpt><trkpt lat="42.89270270520166" lon="10.877565443247901"><ele>351.0</ele><time>2026-04-04T13:00:38Z</time></trkpt><trkpt lat="42.892754682688874" lon="10.877431360284733"><ele>346.25</ele><time>2026-04-04T13:00:39Z</time></trkpt><trkpt lat="42.892808887273915" lon="10.877296608044016"><ele>341.5</ele><time>2026-04-04T13:00:40Z</time></trkpt><trkpt lat="42.892905045595136" lon="10.877165185698383"><ele>336.75</ele><time>2026-04-04T13:00:41Z</time></trkpt><trkpt lat="42.89301961578243" lon="10.877038822867155"><ele>332.0</ele><time>2026-04-04T13:00:42Z</time></trkpt><trkpt lat="42.89314499560197" lon="10.876946927589522"><ele>332.0</ele><time>2026-04-04T13:00:43Z</time></trkpt><trkpt lat="42.89329916010536" lon="10.87684091482842"><ele>332.0</ele><time>2026-04-04T13:00:44Z</time></trkpt><trkpt lat="42.89348018386577" lon="10.876735342161505"><ele>332.0</ele><time>2026-04-04T13:00:45Z</time></trkpt><trkpt lat="42.89364029278664" lon="10.876600889889584"><ele>326.6666666666667</ele><time>2026-04-04T13:00:46Z</time></trkpt><trkpt lat="42.89378531762108" lon="10.876495509049956"><ele>321.3333333333333</ele><time>2026-04-04T13:00:47Z</time></trkpt><trkpt lat="42.89392127570933" lon="10.876386050544"><ele>316.0</ele><time>2026-04-04T13:00:48Z</time></trkpt><trkpt lat="42.89407527318393" lon="10.876277511058325"><ele>316.0</ele><time>2026-04-04T13:00:49Z</time></trkpt><trkpt lat="42.8942068020382" lon="10.876187552681658"><ele>316.0</ele><time>2026-04-04T13:00:50Z</time></trkpt><trkpt lat="42.89431274434268" lon="10.87607630628867"><ele>316.0</ele><time>2026-04-04T13:00:51Z</time></trkpt><trkpt lat="42.894394703022186" lon="10.87596230275456"><ele>316.0</ele><time>2026-04-04T13:00:52Z</time></trkpt><trkpt lat="42.89448106161989" lon="10.875832321637692"><ele>314.66666666666663</ele><time>2026-04-04T13:00:53Z</time></trkpt><trkpt lat="42.89458860068707" lon="10.875644118367873"><ele>313.3333333333333</ele><time>2026-04-04T13:00:53.999Z</time></trkpt><trkpt lat="42.894693402700575" lon="10.875471514076404"><ele>312.0</ele><time>2026-04-04T13:00:54.999Z</time></trkpt><trkpt lat="42.89480503832831" lon="10.875296832120236"><ele>312.0</ele><time>2026-04-04T13:00:55.999Z</time></trkpt><trkpt lat="42.89491631471788" lon="10.87512631788767"><ele>312.0</ele><time>2026-04-04T13:00:56.999Z</time></trkpt><trkpt lat="42.89504022171454" lon="10.874963011623743"><ele>312.0</ele><time>2026-04-04T13:00:57.999Z</time></trkpt><trkpt lat="42.89517339690448" lon="10.874810139132366"><ele>309.3333333333333</ele><time>2026-04-04T13:00:58.999Z</time></trkpt><trkpt lat="42.89530771693707" lon="10.874655612160145"><ele>306.66666666666663</ele><time>2026-04-04T13:00:59.999Z</time></trkpt><trkpt lat="42.89543821884196" lon="10.874509468188235"><ele>304.0</ele><time>2026-04-04T13:01:00.999Z</time></trkpt><trkpt lat="42.89555127957331" lon="10.874409420671999"><ele>304.0</ele><time>2026-04-04T13:01:01.999Z</time></trkpt><trkpt lat="42.89564735954874" lon="10.874328249027904"><ele>304.0</ele><time>2026-04-04T13:01:02.999Z</time></trkpt><trkpt lat="42.8957393329366" lon="10.87428735696842"><ele>304.0</ele><time>2026-04-04T13:01:03.999Z</time></trkpt><trkpt lat="42.89583567380645" lon="10.874283832692655"><ele>304.0</ele><time>2026-04-04T13:01:04.999Z</time></trkpt><trkpt lat="42.895945692787095" lon="10.874312313222346"><ele>304.0</ele><time>2026-04-04T13:01:05.999Z</time></trkpt><trkpt lat="42.896072648299906" lon="10.874348287134907"><ele>298.5</ele><time>2026-04-04T13:01:06.999Z</time></trkpt><trkpt lat="42.8961860591161" lon="10.874374848271497"><ele>293.0</ele><time>2026-04-04T13:01:07.999Z</time></trkpt><trkpt lat="42.89631594916332" lon="10.87441116149471"><ele>287.5</ele><time>2026-04-04T13:01:08.999Z</time></trkpt><trkpt lat="42.896431829278455" lon="10.874444175090328"><ele>282.0</ele><time>2026-04-04T13:01:09.999Z</time></trkpt><trkpt lat="42.896517034792005" lon="10.874490743242658"><ele>282.0</ele><time>2026-04-04T13:01:10.999Z</time></trkpt><trkpt lat="42.896629950483465" lon="10.874563446484828"><ele>282.0</ele><time>2026-04-04T13:01:11.999Z</time></trkpt><trkpt lat="42.89670987428229" lon="10.874636196224573"><ele>282.0</ele><time>2026-04-04T13:01:12.999Z</time></trkpt><trkpt lat="42.89677473577167" lon="10.874704522285855"><ele>282.0</ele><time>2026-04-04T13:01:13.999Z</time></trkpt><trkpt lat="42.896831539804076" lon="10.874825074044674"><ele>282.0</ele><time>2026-04-04T13:01:14.999Z</time></trkpt><trkpt lat="42.896885700042276" lon="10.874944063973219"><ele>280.4</ele><time>2026-04-04T13:01:15.999Z</time></trkpt><trkpt lat="42.89694280422771" lon="10.875052612893953"><ele>278.79999999999995</ele><time>2026-04-04T13:01:16.999Z</time></trkpt><trkpt lat="42.8970059997047" lon="10.875150653247772"><ele>277.2</ele><time>2026-04-04T13:01:17.999Z</time></trkpt><trkpt lat="42.8970766930945" lon="10.875236146669005"><ele>275.59999999999997</ele><time>2026-04-04T13:01:18.999Z</time></trkpt><trkpt lat="42.89716657899283" lon="10.87531677053681"><ele>274.0</ele><time>2026-04-04T13:01:19.999Z</time></trkpt><trkpt lat="42.89727864312504" lon="10.875386263269776"><ele>274.0</ele><time>2026-04-04T13:01:20.999Z</time></trkpt><trkpt lat="42.89740156759051" lon="10.875455018550506"><ele>274.0</ele><time>2026-04-04T13:01:21.999Z</time></trkpt><trkpt lat="42.89752340689805" lon="10.875549600394576"><ele>274.0</ele><time>2026-04-04T13:01:22.999Z</time></trkpt><trkpt lat="42.89764412908329" lon="10.875654096017723"><ele>274.0</ele><time>2026-04-04T13:01:23.999Z</time></trkpt><trkpt lat="42.89775585335854" lon="10.875739252460907"><ele>274.2</ele><time>2026-04-04T13:01:24.999Z</time></trkpt><trkpt lat="42.89785926424978" lon="10.87578005493575"><ele>274.4</ele><time>2026-04-04T13:01:25.999Z</time></trkpt><trkpt lat="42.8979588559579" lon="10.875793764491586"><ele>274.6</ele><time>2026-04-04T13:01:26.999Z</time></trkpt><trkpt lat="42.89806515704008" lon="10.87577502713042"><ele>274.8</ele><time>2026-04-04T13:01:27.999Z</time></trkpt><trkpt lat="42.898182006651616" lon="10.875732857909354"><ele>275.0</ele><time>2026-04-04T13:01:28.999Z</time></trkpt><trkpt lat="42.898307802519845" lon="10.875676565434516"><ele>276.0</ele><time>2026-04-04T13:01:29.999Z</time></trkpt><trkpt lat="42.8984308962302" lon="10.875635526669367"><ele>277.0</ele><time>2026-04-04T13:01:30.999Z</time></trkpt><trkpt lat="42.898558486290916" lon="10.875608263345907"><ele>278.0</ele><time>2026-04-04T13:01:31.999Z</time></trkpt><trkpt lat="42.89868608435315" lon="10.875609403046482"><ele>279.0</ele><time>2026-04-04T13:01:32.999Z</time></trkpt><trkpt lat="42.89881249789034" lon="10.87561637412129"><ele>279.0</ele><time>2026-04-04T13:01:33.999Z</time></trkpt><trkpt lat="42.898935694554524" lon="10.875633997305119"><ele>279.0</ele><time>2026-04-04T13:01:34.999Z</time></trkpt><trkpt lat="42.899066541534324" lon="10.87565622324876"><ele>279.0</ele><time>2026-04-04T13:01:35.999Z</time></trkpt><trkpt lat="42.89919044320745" lon="10.875698983987668"><ele>279.0</ele><time>2026-04-04T13:01:36.999Z</time></trkpt><trkpt lat="42.89933563410308" lon="10.875770577260386"><ele>275.25</ele><time>2026-04-04T13:01:37.999Z</time></trkpt><trkpt lat="42.899454536032685" lon="10.875844028316815"><ele>271.5</ele><time>2026-04-04T13:01:38.999Z</time></trkpt><trkpt lat="42.89955679668875" lon="10.875908885536894"><ele>267.75</ele><time>2026-04-04T13:01:39.999Z</time></trkpt><trkpt lat="42.89966571116342" lon="10.875932324496233"><ele>264.0</ele><time>2026-04-04T13:01:40.999Z</time></trkpt><trkpt lat="42.8997736402629" lon="10.87590845869908"><ele>264.0</ele><time>2026-04-04T13:01:41.999Z</time></trkpt><trkpt lat="42.89990610955203" lon="10.875888653951641"><ele>264.0</ele><time>2026-04-04T13:01:42.999Z</time></trkpt><trkpt lat="42.90002471070814" lon="10.875894573232442"><ele>264.0</ele><time>2026-04-04T13:01:43.999Z</time></trkpt><trkpt lat="42.90012855542774" lon="10.875932076277651"><ele>264.0</ele><time>2026-04-04T13:01:44.999Z</time></trkpt><trkpt lat="42.90023482972883" lon="10.876004032565122"><ele>266.2</ele><time>2026-04-04T13:01:45.999Z</time></trkpt><trkpt lat="42.90033770483025" lon="10.876053746785795"><ele>268.4</ele><time>2026-04-04T13:01:46.999Z</time></trkpt><trkpt lat="42.90044688767426" lon="10.876092913874265"><ele>270.6</ele><time>2026-04-04T13:01:47.999Z</time></trkpt><trkpt lat="42.90054555385578" lon="10.876102651259856"><ele>272.8</ele><time>2026-04-04T13:01:48.999Z</time></trkpt><trkpt lat="42.90064919122388" lon="10.876086673921105"><ele>275.0</ele><time>2026-04-04T13:01:49.999Z</time></trkpt><trkpt lat="42.900752351757546" lon="10.876058500650974"><ele>275.0</ele><time>2026-04-04T13:01:50.999Z</time></trkpt><trkpt lat="42.900863942234174" lon="10.876014434900155"><ele>275.0</ele><time>2026-04-04T13:01:51.999Z</time></trkpt><trkpt lat="42.90097453815016" lon="10.875948514257214"><ele>275.0</ele><time>2026-04-04T13:01:52.999Z</time></trkpt><trkpt lat="42.901087231022856" lon="10.87589784252043"><ele>275.0</ele><time>2026-04-04T13:01:53.999Z</time></trkpt><trkpt lat="42.90120730363328" lon="10.875852227456354"><ele>270.4</ele><time>2026-04-04T13:01:54.999Z</time></trkpt><trkpt lat="42.90132071271357" lon="10.875832397752797"><ele>265.8</ele><time>2026-04-04T13:01:55.999Z</time></trkpt><trkpt lat="42.90141411085113" lon="10.87579164194569"><ele>261.2</ele><time>2026-04-04T13:01:56.999Z</time></trkpt><trkpt lat="42.901509928513285" lon="10.875757362842585"><ele>256.6</ele><time>2026-04-04T13:01:57.999Z</time></trkpt><trkpt lat="42.90159934389141" lon="10.875738166873942"><ele>252.0</ele><time>2026-04-04T13:01:58.999Z</time></trkpt><trkpt lat="42.90168836228681" lon="10.875742789906996"><ele>249.2</ele><time>2026-04-04T13:01:59.999Z</time></trkpt><trkpt lat="42.90177870771593" lon="10.875775434235026"><ele>246.39999999999998</ele><time>2026-04-04T13:02:00.999Z</time></trkpt><trkpt lat="42.901875478362484" lon="10.875814121568789"><ele>243.60000000000002</ele><time>2026-04-04T13:02:01.999Z</time></trkpt><trkpt lat="42.90198091004292" lon="10.875862529837578"><ele>240.8</ele><time>2026-04-04T13:02:02.999Z</time></trkpt><trkpt lat="42.90208110677776" lon="10.875908053560103"><ele>238.0</ele><time>2026-04-04T13:02:03.999Z</time></trkpt><trkpt lat="42.90218636972496" lon="10.875926945188045"><ele>238.66666666666666</ele><time>2026-04-04T13:02:04.999Z</time></trkpt><trkpt lat="42.902277550118924" lon="10.875937732557425"><ele>239.33333333333331</ele><time>2026-04-04T13:02:05.999Z</time></trkpt><trkpt lat="42.90236200274126" lon="10.875954500648854"><ele>240.0</ele><time>2026-04-04T13:02:06.999Z</time></trkpt><trkpt lat="42.90244614618873" lon="10.875973329700338"><ele>240.66666666666669</ele><time>2026-04-04T13:02:07.999Z</time></trkpt><trkpt lat="42.902531783132446" lon="10.876006209913768"><ele>241.33333333333334</ele><time>2026-04-04T13:02:09.999Z</time></trkpt><trkpt lat="42.90255715015119" lon="10.876089546498227"><ele>242.0</ele><time>2026-04-04T13:02:12Z</time></trkpt><trkpt lat="42.90254796997981" lon="10.87619327347979"><ele>242.0</ele><time>2026-04-04T13:02:13Z</time></trkpt><trkpt lat="42.90251598977461" lon="10.876296455825933"><ele>242.0</ele><time>2026-04-04T13:02:14Z</time></trkpt><trkpt lat="42.902507657460184" lon="10.876409617731607"><ele>242.0</ele><time>2026-04-04T13:02:15Z</time></trkpt><trkpt lat="42.902532849817504" lon="10.876534094233808"><ele>242.0</ele><time>2026-04-04T13:02:16Z</time></trkpt><trkpt lat="42.902591289732555" lon="10.876668268583144"><ele>242.0</ele><time>2026-04-04T13:02:17Z</time></trkpt><trkpt lat="42.90264120347769" lon="10.876825175593133"><ele>240.39999999999998</ele><time>2026-04-04T13:02:18Z</time></trkpt><trkpt lat="42.90268348109536" lon="10.876929341698103"><ele>238.79999999999998</ele><time>2026-04-04T13:02:19Z</time></trkpt><trkpt lat="42.90270215640479" lon="10.87701814388519"><ele>237.2</ele><time>2026-04-04T13:02:20Z</time></trkpt><trkpt lat="42.90266640065949" lon="10.8771112013743"><ele>235.6</ele><time>2026-04-04T13:02:21Z</time></trkpt><trkpt lat="42.902595523235945" lon="10.877208647091132"><ele>234.0</ele><time>2026-04-04T13:02:22Z</time></trkpt><trkpt lat="42.90249168567691" lon="10.877324672506097"><ele>234.0</ele><time>2026-04-04T13:02:23Z</time></trkpt><trkpt lat="42.902394366662925" lon="10.87745424543226"><ele>234.0</ele><time>2026-04-04T13:02:24Z</time></trkpt><trkpt lat="42.9022805377947" lon="10.87761206589985"><ele>234.0</ele><time>2026-04-04T13:02:25Z</time></trkpt><trkpt lat="42.90216569551773" lon="10.877751990115032"><ele>232.75</ele><time>2026-04-04T13:02:26Z</time></trkpt><trkpt lat="42.902038939711986" lon="10.877855067139244"><ele>231.5</ele><time>2026-04-04T13:02:27Z</time></trkpt><trkpt lat="42.90192257557665" lon="10.877933068592471"><ele>230.25</ele><time>2026-04-04T13:02:28Z</time></trkpt><trkpt lat="42.901838912184346" lon="10.87804505590154"><ele>229.0</ele><time>2026-04-04T13:02:29Z</time></trkpt><trkpt lat="42.901757317323266" lon="10.878171197431831"><ele>236.0</ele><time>2026-04-04T13:02:30Z</time></trkpt><trkpt lat="42.901674543760784" lon="10.878356021113936"><ele>243.0</ele><time>2026-04-04T13:02:31Z</time></trkpt><trkpt lat="42.9015862048111" lon="10.878535267020865"><ele>250.0</ele><time>2026-04-04T13:02:32Z</time></trkpt><trkpt lat="42.901476670980976" lon="10.8786958442381"><ele>249.6</ele><time>2026-04-04T13:02:34Z</time></trkpt><trkpt lat="42.90162885094864" lon="10.878711840685552"><ele>249.2</ele><time>2026-04-04T13:02:35Z</time></trkpt><trkpt lat="42.90164088291076" lon="10.87879621734614"><ele>248.8</ele><time>2026-04-04T13:02:36Z</time></trkpt><trkpt lat="42.90171692549932" lon="10.878872856218505"><ele>248.4</ele><time>2026-04-04T13:02:37Z</time></trkpt><trkpt lat="42.90177144481504" lon="10.878948931104512"><ele>248.0</ele><time>2026-04-04T13:02:38Z</time></trkpt><trkpt lat="42.90182799929592" lon="10.879002638910398"><ele>248.0</ele><time>2026-04-04T13:02:39Z</time></trkpt><trkpt lat="42.90200353251609" lon="10.87893427571253"><ele>248.0</ele><time>2026-04-04T13:02:40Z</time></trkpt><trkpt lat="42.90246329942384" lon="10.878887085548016"><ele>242.5</ele><time>2026-04-04T13:02:42Z</time></trkpt><trkpt lat="42.90258482490168" lon="10.87890684318135"><ele>237.0</ele><time>2026-04-04T13:02:43Z</time></trkpt><trkpt lat="42.90271917401979" lon="10.878908135245776"><ele>231.5</ele><time>2026-04-04T13:02:44Z</time></trkpt><trkpt lat="42.90281094378988" lon="10.878902176317816"><ele>226.0</ele><time>2026-04-04T13:02:45Z</time></trkpt><trkpt lat="42.90291870119485" lon="10.878969041418367"><ele>226.0</ele><time>2026-04-04T13:02:46Z</time></trkpt><trkpt lat="42.90301857273574" lon="10.879037781179639"><ele>226.00000000000003</ele><time>2026-04-04T13:02:47Z</time></trkpt><trkpt lat="42.90308346334589" lon="10.879134122899083"><ele>226.00000000000003</ele><time>2026-04-04T13:02:48Z</time></trkpt><trkpt lat="42.90312061016336" lon="10.879228393060348"><ele>226.0</ele><time>2026-04-04T13:02:49Z</time></trkpt><trkpt lat="42.90315607925412" lon="10.879313850611528"><ele>226.0</ele><time>2026-04-04T13:02:50Z</time></trkpt><trkpt lat="42.90325381816664" lon="10.87944402027122"><ele>229.8</ele><time>2026-04-04T13:02:52Z</time></trkpt><trkpt lat="42.9033224553016" lon="10.879498179276275"><ele>233.60000000000002</ele><time>2026-04-04T13:02:53Z</time></trkpt><trkpt lat="42.903396885366256" lon="10.879510159460724"><ele>237.4</ele><time>2026-04-04T13:02:54Z</time></trkpt><trkpt lat="42.903488331975936" lon="10.879479889068017"><ele>241.2</ele><time>2026-04-04T13:02:55Z</time></trkpt><trkpt lat="42.903587192000096" lon="10.879417938780003"><ele>245.0</ele><time>2026-04-04T13:02:56Z</time></trkpt><trkpt lat="42.90369237003476" lon="10.879350640403645"><ele>246.25</ele><time>2026-04-04T13:02:57Z</time></trkpt><trkpt lat="42.90380759249244" lon="10.87931816183848"><ele>247.5</ele><time>2026-04-04T13:02:58Z</time></trkpt><trkpt lat="42.90393831123231" lon="10.879332446054631"><ele>248.75</ele><time>2026-04-04T13:02:59Z</time></trkpt><trkpt lat="42.904049955767384" lon="10.879357584776466"><ele>250.0</ele><time>2026-04-04T13:03:00Z</time></trkpt><trkpt lat="42.90415478016694" lon="10.879336312158303"><ele>247.5</ele><time>2026-04-04T13:03:01Z</time></trkpt><trkpt lat="42.90426657209313" lon="10.879261920736404"><ele>245.0</ele><time>2026-04-04T13:03:02Z</time></trkpt><trkpt lat="42.9043858130001" lon="10.879184523903326"><ele>242.5</ele><time>2026-04-04T13:03:03Z</time></trkpt><trkpt lat="42.90452384953737" lon="10.879114665494876"><ele>240.0</ele><time>2026-04-04T13:03:04Z</time></trkpt><trkpt lat="42.904658599416756" lon="10.879037536963567"><ele>240.0</ele><time>2026-04-04T13:03:05Z</time></trkpt><trkpt lat="42.90479389429339" lon="10.878947126046262"><ele>240.0</ele><time>2026-04-04T13:03:06Z</time></trkpt><trkpt lat="42.90491714833247" lon="10.878891141698046"><ele>240.0</ele><time>2026-04-04T13:03:07Z</time></trkpt><trkpt lat="42.90503562448443" lon="10.878861726644228"><ele>240.0</ele><time>2026-04-04T13:03:08Z</time></trkpt><trkpt lat="42.90516585946528" lon="10.878830849515055"><ele>240.0</ele><time>2026-04-04T13:03:09Z</time></trkpt><trkpt lat="42.90530574489917" lon="10.878775179204768"><ele>240.0</ele><time>2026-04-04T13:03:09.999Z</time></trkpt><trkpt lat="42.90543856131934" lon="10.878692214706632"><ele>240.0</ele><time>2026-04-04T13:03:10.999Z</time></trkpt><trkpt lat="42.905554693201985" lon="10.878625170003264"><ele>240.0</ele><time>2026-04-04T13:03:11.999Z</time></trkpt><trkpt lat="42.90564643261641" lon="10.878584104350262"><ele>240.0</ele><time>2026-04-04T13:03:12.999Z</time></trkpt><trkpt lat="42.90572093066658" lon="10.878570863946578"><ele>240.0</ele><time>2026-04-04T13:03:13.999Z</time></trkpt><trkpt lat="42.90579159889734" lon="10.878597019817134"><ele>240.0</ele><time>2026-04-04T13:03:14.999Z</time></trkpt><trkpt lat="42.90588190357132" lon="10.878686888130131"><ele>240.0</ele><time>2026-04-04T13:03:15.999Z</time></trkpt><trkpt lat="42.90598376390039" lon="10.878771466247938"><ele>240.0</ele><time>2026-04-04T13:03:16.999Z</time></trkpt><trkpt lat="42.90609337088758" lon="10.878828569194342"><ele>239.5</ele><time>2026-04-04T13:03:17.999Z</time></trkpt><trkpt lat="42.90617425423628" lon="10.878934021225183"><ele>239.0</ele><time>2026-04-04T13:03:18.999Z</time></trkpt><trkpt lat="42.906259416139754" lon="10.879047757783788"><ele>238.5</ele><time>2026-04-04T13:03:19.999Z</time></trkpt><trkpt lat="42.90634482439622" lon="10.879142787327867"><ele>238.0</ele><time>2026-04-04T13:03:20.999Z</time></trkpt><trkpt lat="42.90637724898539" lon="10.87933039414723"><ele>238.0</ele><time>2026-04-04T13:03:21.999Z</time></trkpt><trkpt lat="42.906451345519436" lon="10.8793872025925"><ele>238.0</ele><time>2026-04-04T13:03:22.999Z</time></trkpt><trkpt lat="42.906541557099025" lon="10.879457157293784"><ele>238.0</ele><time>2026-04-04T13:03:23.999Z</time></trkpt><trkpt lat="42.90661714643256" lon="10.879520927164677"><ele>238.0</ele><time>2026-04-04T13:03:24.999Z</time></trkpt><trkpt lat="42.9067252957269" lon="10.87955432924106"><ele>238.0</ele><time>2026-04-04T13:03:26.999Z</time></trkpt><trkpt lat="42.906786018982835" lon="10.879634916465873"><ele>236.25</ele><time>2026-04-04T13:03:27.999Z</time></trkpt><trkpt lat="42.90685326041526" lon="10.879770922859231"><ele>234.5</ele><time>2026-04-04T13:03:29.999Z</time></trkpt><trkpt lat="42.906922457570225" lon="10.879872582171712"><ele>232.75</ele><time>2026-04-04T13:03:30.999Z</time></trkpt><trkpt lat="42.906998831523524" lon="10.879945719147281"><ele>231.0</ele><time>2026-04-04T13:03:31.999Z</time></trkpt><trkpt lat="42.906911687736255" lon="10.880277529095462"><ele>231.0</ele><time>2026-04-04T13:03:32.999Z</time></trkpt><trkpt lat="42.906986694169234" lon="10.880406077981084"><ele>231.0</ele><time>2026-04-04T13:03:33.999Z</time></trkpt><trkpt lat="42.90702112132594" lon="10.88057657854815"><ele>231.0</ele><time>2026-04-04T13:03:34.999Z</time></trkpt><trkpt lat="42.90702521141234" lon="10.880724338074279"><ele>231.0</ele><time>2026-04-04T13:03:35.999Z</time></trkpt><trkpt lat="42.90701751876032" lon="10.88088175028336"><ele>233.20000000000002</ele><time>2026-04-04T13:03:36.999Z</time></trkpt><trkpt lat="42.9070185172704" lon="10.88105455697221"><ele>235.40000000000003</ele><time>2026-04-04T13:03:37.999Z</time></trkpt><trkpt lat="42.907032218373494" lon="10.881200440749645"><ele>237.6</ele><time>2026-04-04T13:03:38.999Z</time></trkpt><trkpt lat="42.907089518953846" lon="10.881306045485882"><ele>239.8</ele><time>2026-04-04T13:03:39.999Z</time></trkpt><trkpt lat="42.907151656785906" lon="10.881341134485396"><ele>242.0</ele><time>2026-04-04T13:03:40.999Z</time></trkpt><trkpt lat="42.90727943569714" lon="10.881426414270008"><ele>242.0</ele><time>2026-04-04T13:03:42.999Z</time></trkpt><trkpt lat="42.907406657660665" lon="10.881402639591784"><ele>242.0</ele><time>2026-04-04T13:03:43.999Z</time></trkpt><trkpt lat="42.90754203536125" lon="10.881328378921893"><ele>242.0</ele><time>2026-04-04T13:03:44.999Z</time></trkpt><trkpt lat="42.90765682034814" lon="10.88122082555659"><ele>242.0</ele><time>2026-04-04T13:03:45.999Z</time></trkpt><trkpt lat="42.9077338531041" lon="10.881116023316151"><ele>240.75</ele><time>2026-04-04T13:03:46.999Z</time></trkpt><trkpt lat="42.90780975456149" lon="10.881003909066838"><ele>239.5</ele><time>2026-04-04T13:03:47.999Z</time></trkpt><trkpt lat="42.907904291071475" lon="10.8809282002937"><ele>238.25</ele><time>2026-04-04T13:03:48.999Z</time></trkpt><trkpt lat="42.90800299862764" lon="10.880820864372078"><ele>237.0</ele><time>2026-04-04T13:03:49.999Z</time></trkpt><trkpt lat="42.90808871008287" lon="10.88071733401986"><ele>237.0</ele><time>2026-04-04T13:03:50.999Z</time></trkpt><trkpt lat="42.90819090809754" lon="10.88062778710728"><ele>237.0</ele><time>2026-04-04T13:03:51.999Z</time></trkpt><trkpt lat="42.908301850319454" lon="10.88057116884163"><ele>237.0</ele><time>2026-04-04T13:03:52.999Z</time></trkpt><trkpt lat="42.9084135546086" lon="10.880538503140457"><ele>237.0</ele><time>2026-04-04T13:03:53.999Z</time></trkpt><trkpt lat="42.908540866811016" lon="10.880535483755077"><ele>235.75</ele><time>2026-04-04T13:03:54.999Z</time></trkpt><trkpt lat="42.90865527110243" lon="10.880538108553747"><ele>234.5</ele><time>2026-04-04T13:03:55.999Z</time></trkpt><trkpt lat="42.908762425483374" lon="10.880561729759084"><ele>233.25</ele><time>2026-04-04T13:03:56.999Z</time></trkpt><trkpt lat="42.908869783549356" lon="10.880600146429682"><ele>232.0</ele><time>2026-04-04T13:03:57.999Z</time></trkpt><trkpt lat="42.908986539705026" lon="10.880697723371654"><ele>232.0</ele><time>2026-04-04T13:03:58.999Z</time></trkpt><trkpt lat="42.90908435130481" lon="10.880809191714697"><ele>232.0</ele><time>2026-04-04T13:03:59.999Z</time></trkpt><trkpt lat="42.90917656423262" lon="10.880916654334989"><ele>232.0</ele><time>2026-04-04T13:04:00.999Z</time></trkpt><trkpt lat="42.90925467547602" lon="10.881039663477347"><ele>232.0</ele><time>2026-04-04T13:04:01.999Z</time></trkpt><trkpt lat="42.90933412790722" lon="10.881173695320648"><ele>231.5</ele><time>2026-04-04T13:04:02.999Z</time></trkpt><trkpt lat="42.90941838926794" lon="10.881324845174342"><ele>231.0</ele><time>2026-04-04T13:04:03.999Z</time></trkpt><trkpt lat="42.90952760987717" lon="10.881493588974608"><ele>230.5</ele><time>2026-04-04T13:04:04.999Z</time></trkpt><trkpt lat="42.909615636948594" lon="10.881634517455387"><ele>230.0</ele><time>2026-04-04T13:04:05.999Z</time></trkpt><trkpt lat="42.9096836553791" lon="10.881757312145867"><ele>231.2</ele><time>2026-04-04T13:04:06.999Z</time></trkpt><trkpt lat="42.90969228286937" lon="10.88187673512779"><ele>232.4</ele><time>2026-04-04T13:04:07.999Z</time></trkpt><trkpt lat="42.90968666355184" lon="10.882019542421883"><ele>233.60000000000002</ele><time>2026-04-04T13:04:08.999Z</time></trkpt><trkpt lat="42.90965775280628" lon="10.882168618337655"><ele>234.8</ele><time>2026-04-04T13:04:09.999Z</time></trkpt><trkpt lat="42.909618975520594" lon="10.882323883490356"><ele>236.0</ele><time>2026-04-04T13:04:10.999Z</time></trkpt><trkpt lat="42.9096038967909" lon="10.882496692245102"><ele>238.0</ele><time>2026-04-04T13:04:11.999Z</time></trkpt><trkpt lat="42.90962168114553" lon="10.882685810487953"><ele>240.0</ele><time>2026-04-04T13:04:12.999Z</time></trkpt><trkpt lat="42.909632847093626" lon="10.882845862630022"><ele>242.0</ele><time>2026-04-04T13:04:13.999Z</time></trkpt><trkpt lat="42.909619999913005" lon="10.88296665969771"><ele>244.0</ele><time>2026-04-04T13:04:14.999Z</time></trkpt><trkpt lat="42.90963029312617" lon="10.88315210485553"><ele>244.0</ele><time>2026-04-04T13:04:15.999Z</time></trkpt><trkpt lat="42.909657920907875" lon="10.883323966010337"><ele>243.99999999999997</ele><time>2026-04-04T13:04:17Z</time></trkpt><trkpt lat="42.909709182387665" lon="10.883428595961842"><ele>243.99999999999997</ele><time>2026-04-04T13:04:18Z</time></trkpt><trkpt lat="42.909775058550885" lon="10.883516049751782"><ele>244.0</ele><time>2026-04-04T13:04:19Z</time></trkpt><trkpt lat="42.909843554083544" lon="10.883584981517464"><ele>244.0</ele><time>2026-04-04T13:04:20Z</time></trkpt><trkpt lat="42.90994561353487" lon="10.883569246862846"><ele>244.0</ele><time>2026-04-04T13:04:22Z</time></trkpt><trkpt lat="42.91000504060125" lon="10.883529901596733"><ele>244.0</ele><time>2026-04-04T13:04:23Z</time></trkpt><trkpt lat="42.91009570554786" lon="10.883442394096381"><ele>244.0</ele><time>2026-04-04T13:04:24Z</time></trkpt><trkpt lat="42.910196322081504" lon="10.883279278719934"><ele>244.0</ele><time>2026-04-04T13:04:25Z</time></trkpt><trkpt lat="42.910289140852406" lon="10.883102375036717"><ele>244.0</ele><time>2026-04-04T13:04:26Z</time></trkpt><trkpt lat="42.9103050755676" lon="10.882987370919132"><ele>243.99999999999997</ele><time>2026-04-04T13:04:27Z</time></trkpt><trkpt lat="42.910369977826576" lon="10.882920212360364"><ele>243.99999999999997</ele><time>2026-04-04T13:04:28Z</time></trkpt><trkpt lat="42.910434242122975" lon="10.882836373036167"><ele>244.0</ele><time>2026-04-04T13:04:29Z</time></trkpt><trkpt lat="42.91049473066626" lon="10.88273645061276"><ele>244.0</ele><time>2026-04-04T13:04:30Z</time></trkpt><trkpt lat="42.9105876914217" lon="10.882661653307673"><ele>243.99999999999997</ele><time>2026-04-04T13:04:31Z</time></trkpt><trkpt lat="42.910645428039366" lon="10.882610752324164"><ele>244.0</ele><time>2026-04-04T13:04:32Z</time></trkpt><trkpt lat="42.91072503810394" lon="10.882634304936976"><ele>244.0</ele><time>2026-04-04T13:04:35Z</time></trkpt><trkpt lat="42.910796441057144" lon="10.882623728002114"><ele>244.0</ele><time>2026-04-04T13:04:37Z</time></trkpt><trkpt lat="42.91085270091754" lon="10.882716077268505"><ele>243.99999999999997</ele><time>2026-04-04T13:04:38Z</time></trkpt><trkpt lat="42.91087930214621" lon="10.882864540067176"><ele>244.0</ele><time>2026-04-04T13:04:43Z</time></trkpt><trkpt lat="42.91091052891637" lon="10.882973111322784"><ele>246.39999999999998</ele><time>2026-04-04T13:04:44Z</time></trkpt><trkpt lat="42.910927232433785" lon="10.883076405856835"><ele>248.79999999999998</ele><time>2026-04-04T13:04:45Z</time></trkpt><trkpt lat="42.91094067426095" lon="10.883193948646975"><ele>251.20000000000002</ele><time>2026-04-04T13:04:46Z</time></trkpt><trkpt lat="42.91094692193272" lon="10.883324467934974"><ele>253.60000000000002</ele><time>2026-04-04T13:04:48Z</time></trkpt><trkpt lat="42.910832688041786" lon="10.883465054199888"><ele>256.0</ele><time>2026-04-04T13:04:50Z</time></trkpt><trkpt lat="42.910767315352615" lon="10.883561597229637"><ele>256.0</ele><time>2026-04-04T13:04:51Z</time></trkpt><trkpt lat="42.91071533992041" lon="10.88364713337661"><ele>256.0</ele><time>2026-04-04T13:04:52Z</time></trkpt><trkpt lat="42.91064555556414" lon="10.88371825095514"><ele>256.0</ele><time>2026-04-04T13:04:53Z</time></trkpt><trkpt lat="42.910536157207" lon="10.88378617547343"><ele>256.0</ele><time>2026-04-04T13:04:54Z</time></trkpt><trkpt lat="42.91045513147446" lon="10.883888543680142"><ele>256.0</ele><time>2026-04-04T13:04:55Z</time></trkpt><trkpt lat="42.91039430550932" lon="10.883975989337053"><ele>256.0</ele><time>2026-04-04T13:04:56Z</time></trkpt><trkpt lat="42.91035324500428" lon="10.88411704062418"><ele>256.0</ele><time>2026-04-04T13:04:58Z</time></trkpt><trkpt lat="42.91038268833961" lon="10.884210362634636"><ele>256.0</ele><time>2026-04-04T13:04:59Z</time></trkpt><trkpt lat="42.91039458105867" lon="10.884364037386602"><ele>256.0</ele><time>2026-04-04T13:05:00Z</time></trkpt><trkpt lat="42.91038837466939" lon="10.884456230175434"><ele>256.0</ele><time>2026-04-04T13:05:01Z</time></trkpt><trkpt lat="42.91035904529296" lon="10.88458769045935"><ele>256.6</ele><time>2026-04-04T13:05:02Z</time></trkpt><trkpt lat="42.9103170551797" lon="10.884731124487578"><ele>257.20000000000005</ele><time>2026-04-04T13:05:03Z</time></trkpt><trkpt lat="42.91030300195482" lon="10.88487731494536"><ele>257.79999999999995</ele><time>2026-04-04T13:05:04Z</time></trkpt><trkpt lat="42.910279111353056" lon="10.884970351687816"><ele>258.4</ele><time>2026-04-04T13:05:05Z</time></trkpt><trkpt lat="42.910207644360206" lon="10.885044132526938"><ele>259.0</ele><time>2026-04-04T13:05:06Z</time></trkpt><trkpt lat="42.9101435549522" lon="10.885128496140693"><ele>259.0</ele><time>2026-04-04T13:05:07Z</time></trkpt><trkpt lat="42.910104233798414" lon="10.885241145953804"><ele>259.0</ele><time>2026-04-04T13:05:08Z</time></trkpt><trkpt lat="42.91006684643675" lon="10.885369455440035"><ele>259.0</ele><time>2026-04-04T13:05:09Z</time></trkpt><trkpt lat="42.910030187197215" lon="10.885486935782382"><ele>259.0</ele><time>2026-04-04T13:05:10Z</time></trkpt><trkpt lat="42.90999522841381" lon="10.885598156470033"><ele>259.0</ele><time>2026-04-04T13:05:11Z</time></trkpt><trkpt lat="42.90995614411701" lon="10.885723807532232"><ele>262.4</ele><time>2026-04-04T13:05:12Z</time></trkpt><trkpt lat="42.9099244331357" lon="10.88582580709514"><ele>265.79999999999995</ele><time>2026-04-04T13:05:13Z</time></trkpt><trkpt lat="42.909889522161826" lon="10.885950171490235"><ele>269.20000000000005</ele><time>2026-04-04T13:05:14Z</time></trkpt><trkpt lat="42.90983986061055" lon="10.886072636281675"><ele>272.6</ele><time>2026-04-04T13:05:15Z</time></trkpt><trkpt lat="42.90980037422049" lon="10.886202903335052"><ele>276.0</ele><time>2026-04-04T13:05:16Z</time></trkpt><trkpt lat="42.9097424018282" lon="10.886323594966283"><ele>276.0</ele><time>2026-04-04T13:05:17Z</time></trkpt><trkpt lat="42.90968528005506" lon="10.88642136480871"><ele>276.0</ele><time>2026-04-04T13:05:18Z</time></trkpt><trkpt lat="42.90963823380585" lon="10.886514733450506"><ele>276.0</ele><time>2026-04-04T13:05:22Z</time></trkpt><trkpt lat="42.9095768122415" lon="10.886645851514272"><ele>276.0</ele><time>2026-04-04T13:05:23.999Z</time></trkpt><trkpt lat="42.909473459855064" lon="10.88677855759152"><ele>276.0</ele><time>2026-04-04T13:05:25.999Z</time></trkpt><trkpt lat="42.9093323288662" lon="10.886984367514994"><ele>278.6</ele><time>2026-04-04T13:05:26.999Z</time></trkpt><trkpt lat="42.90922172528235" lon="10.887125737335612"><ele>281.20000000000005</ele><time>2026-04-04T13:05:27.999Z</time></trkpt><trkpt lat="42.909143567196466" lon="10.887221817306214"><ele>283.79999999999995</ele><time>2026-04-04T13:05:28.999Z</time></trkpt><trkpt lat="42.90906199927315" lon="10.887278183027995"><ele>286.4</ele><time>2026-04-04T13:05:29.999Z</time></trkpt><trkpt lat="42.90899587656874" lon="10.887315435268995"><ele>289.0</ele><time>2026-04-04T13:05:30.999Z</time></trkpt><trkpt lat="42.90892620297954" lon="10.887334349001332"><ele>289.0</ele><time>2026-04-04T13:05:31.999Z</time></trkpt><trkpt lat="42.90886350919429" lon="10.887373041959776"><ele>289.0</ele><time>2026-04-04T13:05:32.999Z</time></trkpt><trkpt lat="42.908800963569576" lon="10.887428939577758"><ele>289.0</ele><time>2026-04-04T13:05:33.999Z</time></trkpt><trkpt lat="42.90874264337319" lon="10.887500067019811"><ele>289.0</ele><time>2026-04-04T13:05:34.999Z</time></trkpt><trkpt lat="42.908684370796294" lon="10.887575129023285"><ele>289.0</ele><time>2026-04-04T13:05:35.999Z</time></trkpt><trkpt lat="42.90862527505988" lon="10.887659692916788"><ele>289.0</ele><time>2026-04-04T13:05:36.999Z</time></trkpt><trkpt lat="42.90855235359242" lon="10.887751981300879"><ele>290.4</ele><time>2026-04-04T13:05:37.999Z</time></trkpt><trkpt lat="42.90848651513534" lon="10.887842077997137"><ele>291.79999999999995</ele><time>2026-04-04T13:05:38.999Z</time></trkpt><trkpt lat="42.908417048342415" lon="10.887921901875236"><ele>293.20000000000005</ele><time>2026-04-04T13:05:39.999Z</time></trkpt><trkpt lat="42.908334885938636" lon="10.8879639540907"><ele>294.6</ele><time>2026-04-04T13:05:40.999Z</time></trkpt><trkpt lat="42.90822014345016" lon="10.888014024917176"><ele>296.0</ele><time>2026-04-04T13:05:41.999Z</time></trkpt><trkpt lat="42.90810840912369" lon="10.888070764872328"><ele>296.0</ele><time>2026-04-04T13:05:42.999Z</time></trkpt><trkpt lat="42.90799691682733" lon="10.88812711150234"><ele>296.0</ele><time>2026-04-04T13:05:43.999Z</time></trkpt><trkpt lat="42.907899366372845" lon="10.888138505745745"><ele>296.0</ele><time>2026-04-04T13:05:44.999Z</time></trkpt><trkpt lat="42.90781684843695" lon="10.888132000610865"><ele>296.0</ele><time>2026-04-04T13:05:45.999Z</time></trkpt><trkpt lat="42.90773327913659" lon="10.888148351999911"><ele>296.0</ele><time>2026-04-04T13:05:46.999Z</time></trkpt><trkpt lat="42.90765782188409" lon="10.888209271328808"><ele>299.8</ele><time>2026-04-04T13:05:47.999Z</time></trkpt><trkpt lat="42.90757117220405" lon="10.888246527076795"><ele>303.6</ele><time>2026-04-04T13:05:48.999Z</time></trkpt><trkpt lat="42.9074872977158" lon="10.88828386677727"><ele>307.4</ele><time>2026-04-04T13:05:49.999Z</time></trkpt><trkpt lat="42.9073867753062" lon="10.888320786217976"><ele>311.2</ele><time>2026-04-04T13:05:50.999Z</time></trkpt><trkpt lat="42.90730618997574" lon="10.888378835981827"><ele>315.0</ele><time>2026-04-04T13:05:51.999Z</time></trkpt><trkpt lat="42.907217842084584" lon="10.888359889066564"><ele>315.0</ele><time>2026-04-04T13:05:53.999Z</time></trkpt><trkpt lat="42.907175708069694" lon="10.888283910868758"><ele>315.0</ele><time>2026-04-04T13:05:54.999Z</time></trkpt><trkpt lat="42.90709171630619" lon="10.888247124300312"><ele>315.0</ele><time>2026-04-04T13:05:56.999Z</time></trkpt><trkpt lat="42.90700847007624" lon="10.888342493843528"><ele>315.0</ele><time>2026-04-04T13:05:58.999Z</time></trkpt><trkpt lat="42.9069634853491" lon="10.888445708529826"><ele>315.0</ele><time>2026-04-04T13:06:00.999Z</time></trkpt><trkpt lat="42.90690767927532" lon="10.888551316996102"><ele>312.3333333333333</ele><time>2026-04-04T13:06:01.999Z</time></trkpt><trkpt lat="42.90684524421032" lon="10.888655743207702"><ele>309.6666666666667</ele><time>2026-04-04T13:06:02.999Z</time></trkpt><trkpt lat="42.90677992201529" lon="10.888699286005199"><ele>307.0</ele><time>2026-04-04T13:06:03.999Z</time></trkpt><trkpt lat="42.906714807426994" lon="10.888706431074453"><ele>304.33333333333337</ele><time>2026-04-04T13:06:04.999Z</time></trkpt><trkpt lat="42.90662938427557" lon="10.888675230159327"><ele>301.6666666666667</ele><time>2026-04-04T13:06:05.999Z</time></trkpt><trkpt lat="42.90656778076067" lon="10.888618487015494"><ele>299.0</ele><time>2026-04-04T13:06:06.999Z</time></trkpt><trkpt lat="42.9064919240815" lon="10.888637103628671"><ele>306.2</ele><time>2026-04-04T13:06:08.999Z</time></trkpt><trkpt lat="42.90638107579391" lon="10.888652873685041"><ele>313.4</ele><time>2026-04-04T13:06:10.999Z</time></trkpt><trkpt lat="42.90630583321397" lon="10.88874039036999"><ele>320.6</ele><time>2026-04-04T13:06:11.999Z</time></trkpt><trkpt lat="42.90626652959173" lon="10.888847928230534"><ele>327.8</ele><time>2026-04-04T13:06:12.999Z</time></trkpt><trkpt lat="42.90620368923613" lon="10.888957138326306"><ele>335.0</ele><time>2026-04-04T13:06:13.999Z</time></trkpt><trkpt lat="42.90613673284551" lon="10.889078551053936"><ele>334.99999999999994</ele><time>2026-04-04T13:06:14.999Z</time></trkpt><trkpt lat="42.9060946614193" lon="10.889176500752166"><ele>335.0</ele><time>2026-04-04T13:06:15.999Z</time></trkpt><trkpt lat="42.90603982634995" lon="10.889243482904817"><ele>335.0</ele><time>2026-04-04T13:06:16.999Z</time></trkpt><trkpt lat="42.905962662900095" lon="10.889267204955676"><ele>335.0</ele><time>2026-04-04T13:06:17.999Z</time></trkpt><trkpt lat="42.9058921911202" lon="10.88929676561719"><ele>335.0</ele><time>2026-04-04T13:06:18.999Z</time></trkpt><trkpt lat="42.90584009431143" lon="10.88935398530767"><ele>334.99999999999994</ele><time>2026-04-04T13:06:19.999Z</time></trkpt><trkpt lat="42.905817353325084" lon="10.88944214250888"><ele>335.0</ele><time>2026-04-04T13:06:20.999Z</time></trkpt><trkpt lat="42.905809956973506" lon="10.889568191339801"><ele>339.8</ele><time>2026-04-04T13:06:21.999Z</time></trkpt><trkpt lat="42.90577196093205" lon="10.889693274097542"><ele>344.6</ele><time>2026-04-04T13:06:23Z</time></trkpt><trkpt lat="42.90572760425934" lon="10.889779671654045"><ele>349.4</ele><time>2026-04-04T13:06:24Z</time></trkpt><trkpt lat="42.90567668911386" lon="10.889920449620421"><ele>354.2</ele><time>2026-04-04T13:06:26Z</time></trkpt><trkpt lat="42.90562188373916" lon="10.889997428905888"><ele>359.0</ele><time>2026-04-04T13:06:27Z</time></trkpt><trkpt lat="42.90556023816347" lon="10.890127110589845"><ele>359.0</ele><time>2026-04-04T13:06:28Z</time></trkpt><trkpt lat="42.905519935969544" lon="10.890242368234704"><ele>359.0</ele><time>2026-04-04T13:06:29Z</time></trkpt><trkpt lat="42.905471049504676" lon="10.89034872657615"><ele>359.0</ele><time>2026-04-04T13:06:30Z</time></trkpt><trkpt lat="42.90542271393152" lon="10.890407727635859"><ele>359.0</ele><time>2026-04-04T13:06:31Z</time></trkpt><trkpt lat="42.90534850364254" lon="10.890472680358425"><ele>359.0</ele><time>2026-04-04T13:06:32Z</time></trkpt><trkpt lat="42.90526010934432" lon="10.890531232450083"><ele>359.0</ele><time>2026-04-04T13:06:33Z</time></trkpt><trkpt lat="42.905146458202246" lon="10.890590402067886"><ele>363.6666666666667</ele><time>2026-04-04T13:06:34Z</time></trkpt><trkpt lat="42.90506124914749" lon="10.890574850730829"><ele>368.33333333333337</ele><time>2026-04-04T13:06:35Z</time></trkpt><trkpt lat="42.90502021920295" lon="10.890654402599203"><ele>373.0</ele><time>2026-04-04T13:06:37Z</time></trkpt><trkpt lat="42.90505978942996" lon="10.8907801252226"><ele>377.6666666666667</ele><time>2026-04-04T13:06:39Z</time></trkpt><trkpt lat="42.905056724028604" lon="10.890869295752731"><ele>382.3333333333333</ele><time>2026-04-04T13:06:40Z</time></trkpt><trkpt lat="42.90501366041501" lon="10.89101251298958"><ele>387.0</ele><time>2026-04-04T13:06:42Z</time></trkpt><trkpt lat="42.90492880519905" lon="10.89113796906902"><ele>388.6</ele><time>2026-04-04T13:06:44Z</time></trkpt><trkpt lat="42.90485224386596" lon="10.89121211068287"><ele>390.20000000000005</ele><time>2026-04-04T13:06:45Z</time></trkpt><trkpt lat="42.90476839089559" lon="10.89129235521174"><ele>391.8</ele><time>2026-04-04T13:06:46Z</time></trkpt><trkpt lat="42.90468633671807" lon="10.891388053226006"><ele>393.4</ele><time>2026-04-04T13:06:47Z</time></trkpt><trkpt lat="42.90463147276878" lon="10.891470164382005"><ele>395.0</ele><time>2026-04-04T13:06:48Z</time></trkpt><trkpt lat="42.90458674219353" lon="10.891558051452659"><ele>395.0</ele><time>2026-04-04T13:06:49Z</time></trkpt><trkpt lat="42.90455400985352" lon="10.891668085477214"><ele>395.0</ele><time>2026-04-04T13:06:50Z</time></trkpt><trkpt lat="42.904516853311954" lon="10.891752853384851"><ele>395.0</ele><time>2026-04-04T13:06:51Z</time></trkpt><trkpt lat="42.90444855837262" lon="10.891831301360726"><ele>395.0</ele><time>2026-04-04T13:06:52Z</time></trkpt><trkpt lat="42.904351160232714" lon="10.891925927501175"><ele>395.0</ele><time>2026-04-04T13:06:53Z</time></trkpt><trkpt lat="42.90428033717604" lon="10.892018780292787"><ele>401.8</ele><time>2026-04-04T13:06:54Z</time></trkpt><trkpt lat="42.90423241365835" lon="10.892095655027928"><ele>408.6</ele><time>2026-04-04T13:06:55Z</time></trkpt><trkpt lat="42.90414709554885" lon="10.892202497325037"><ele>415.4</ele><time>2026-04-04T13:06:57Z</time></trkpt><trkpt lat="42.90408511630452" lon="10.892261342139049"><ele>422.2</ele><time>2026-04-04T13:06:58Z</time></trkpt><trkpt lat="42.904043143659315" lon="10.892343838967316"><ele>429.0</ele><time>2026-04-04T13:07:12Z</time></trkpt><trkpt lat="42.90400901321309" lon="10.892518443953037"><ele>429.6666666666667</ele><time>2026-04-04T13:07:14Z</time></trkpt><trkpt lat="42.903971454135736" lon="10.892609705380613"><ele>430.33333333333337</ele><time>2026-04-04T13:07:15Z</time></trkpt><trkpt lat="42.90394568302377" lon="10.892699053279273"><ele>431.0</ele><time>2026-04-04T13:07:16Z</time></trkpt><trkpt lat="42.903969227371164" lon="10.892872476375407"><ele>431.6666666666667</ele><time>2026-04-04T13:07:18Z</time></trkpt><trkpt lat="42.903956511951584" lon="10.892991672007987"><ele>432.33333333333337</ele><time>2026-04-04T13:07:19Z</time></trkpt><trkpt lat="42.903945697346934" lon="10.893105961994028"><ele>433.0</ele><time>2026-04-04T13:07:21Z</time></trkpt><trkpt lat="42.90395168320055" lon="10.89323928157329"><ele>433.00000000000006</ele><time>2026-04-04T13:07:23Z</time></trkpt><trkpt lat="42.90400297955089" lon="10.893326924915886"><ele>433.0</ele><time>2026-04-04T13:07:26Z</time></trkpt><trkpt lat="42.90404110432144" lon="10.893395918104765"><ele>433.0</ele><time>2026-04-04T13:07:27Z</time></trkpt><trkpt lat="42.90406661486487" lon="10.893481603685101"><ele>433.0</ele><time>2026-04-04T13:07:28Z</time></trkpt><trkpt lat="42.90409955436925" lon="10.893577251263102"><ele>433.00000000000006</ele><time>2026-04-04T13:07:29Z</time></trkpt><trkpt lat="42.90413373751479" lon="10.893665847040827"><ele>433.0</ele><time>2026-04-04T13:07:30Z</time></trkpt><trkpt lat="42.904140247517994" lon="10.893790234769476"><ele>433.1666666666667</ele><time>2026-04-04T13:07:31Z</time></trkpt><trkpt lat="42.90414213234168" lon="10.893902811349044"><ele>433.33333333333337</ele><time>2026-04-04T13:07:32Z</time></trkpt><trkpt lat="42.904150245692314" lon="10.894018397320734"><ele>433.5</ele><time>2026-04-04T13:07:33Z</time></trkpt><trkpt lat="42.904167129507854" lon="10.894141384299061"><ele>433.66666666666663</ele><time>2026-04-04T13:07:34Z</time></trkpt><trkpt lat="42.904195407238646" lon="10.894252099313785"><ele>433.8333333333333</ele><time>2026-04-04T13:07:35Z</time></trkpt><trkpt lat="42.90422682419876" lon="10.89434496821879"><ele>434.0</ele><time>2026-04-04T13:07:36Z</time></trkpt><trkpt lat="42.90425515475109" lon="10.8944613288555"><ele>432.8333333333333</ele><time>2026-04-04T13:07:37Z</time></trkpt><trkpt lat="42.90426770202961" lon="10.8945733313094"><ele>431.66666666666663</ele><time>2026-04-04T13:07:37.999Z</time></trkpt><trkpt lat="42.90424145398728" lon="10.894667016136383"><ele>430.5</ele><time>2026-04-04T13:07:38.999Z</time></trkpt><trkpt lat="42.90420355575557" lon="10.894751191137136"><ele>429.33333333333337</ele><time>2026-04-04T13:07:39.999Z</time></trkpt><trkpt lat="42.90417364794244" lon="10.894837830328441"><ele>428.1666666666667</ele><time>2026-04-04T13:07:40.999Z</time></trkpt><trkpt lat="42.90416286304654" lon="10.894952668566157"><ele>427.0</ele><time>2026-04-04T13:07:41.999Z</time></trkpt><trkpt lat="42.904158917223796" lon="10.895093599600468"><ele>425.50000000000006</ele><time>2026-04-04T13:07:42.999Z</time></trkpt><trkpt lat="42.904159886466644" lon="10.895221888271864"><ele>424.0</ele><time>2026-04-04T13:07:43.999Z</time></trkpt><trkpt lat="42.904161812733285" lon="10.895343270068365"><ele>422.5</ele><time>2026-04-04T13:07:44.999Z</time></trkpt><trkpt lat="42.90415203540318" lon="10.895445325469888"><ele>421.0</ele><time>2026-04-04T13:07:45.999Z</time></trkpt><trkpt lat="42.90411538796323" lon="10.895531666102032"><ele>419.50000000000006</ele><time>2026-04-04T13:07:46.999Z</time></trkpt><trkpt lat="42.90405816426471" lon="10.895629465623141"><ele>418.0</ele><time>2026-04-04T13:07:47.999Z</time></trkpt><trkpt lat="42.90401885345379" lon="10.895726864486432"><ele>418.00000000000006</ele><time>2026-04-04T13:07:48.999Z</time></trkpt><trkpt lat="42.904000275154964" lon="10.895815139667944"><ele>418.0</ele><time>2026-04-04T13:07:49.999Z</time></trkpt><trkpt lat="42.90401398418792" lon="10.89590830499122"><ele>418.0</ele><time>2026-04-04T13:07:51.999Z</time></trkpt><trkpt lat="42.904067429632974" lon="10.895956364036298"><ele>418.0</ele><time>2026-04-04T13:07:54.999Z</time></trkpt><trkpt lat="42.90417834488123" lon="10.896027299486784"><ele>418.00000000000006</ele><time>2026-04-04T13:07:56.999Z</time></trkpt><trkpt lat="42.90423858482502" lon="10.896081478955471"><ele>418.0</ele><time>2026-04-04T13:07:57.999Z</time></trkpt><trkpt lat="42.90432251359597" lon="10.896135694445102"><ele>413.79999999999995</ele><time>2026-04-04T13:07:58.999Z</time></trkpt><trkpt lat="42.904395669430336" lon="10.896203581274149"><ele>409.6</ele><time>2026-04-04T13:07:59.999Z</time></trkpt><trkpt lat="42.90445774033538" lon="10.896274839152431"><ele>405.4</ele><time>2026-04-04T13:08:00.999Z</time></trkpt><trkpt lat="42.90455034340966" lon="10.896359630449005"><ele>401.20000000000005</ele><time>2026-04-04T13:08:02.999Z</time></trkpt><trkpt lat="42.90465974443758" lon="10.896365293197253"><ele>397.0</ele><time>2026-04-04T13:08:04.999Z</time></trkpt><trkpt lat="42.904777634109095" lon="10.896427234516926"><ele>397.00000000000006</ele><time>2026-04-04T13:08:06.999Z</time></trkpt><trkpt lat="42.904852141812256" lon="10.896488932592527"><ele>397.0</ele><time>2026-04-04T13:08:07.999Z</time></trkpt><trkpt lat="42.90491541905311" lon="10.896529927549052"><ele>397.0</ele><time>2026-04-04T13:08:08.999Z</time></trkpt><trkpt lat="42.90501012108822" lon="10.896577163519598"><ele>397.0</ele><time>2026-04-04T13:08:10.999Z</time></trkpt><trkpt lat="42.905036991664666" lon="10.896668976027456"><ele>397.00000000000006</ele><time>2026-04-04T13:08:20.999Z</time></trkpt><trkpt lat="42.905101455563866" lon="10.896703661567173"><ele>397.0</ele><time>2026-04-04T13:08:22.999Z</time></trkpt><trkpt lat="42.90520832168347" lon="10.896694801808202"><ele>391.6666666666667</ele><time>2026-04-04T13:08:24.999Z</time></trkpt><trkpt lat="42.90528694230406" lon="10.896691307826954"><ele>386.33333333333337</ele><time>2026-04-04T13:08:26.999Z</time></trkpt><trkpt lat="42.905314594377785" lon="10.896792457670745"><ele>381.0</ele><time>2026-04-04T13:08:29Z</time></trkpt><trkpt lat="42.90534271164129" lon="10.896916529900238"><ele>375.6666666666667</ele><time>2026-04-04T13:08:31Z</time></trkpt><trkpt lat="42.90533917006609" lon="10.897083690551396"><ele>370.33333333333337</ele><time>2026-04-04T13:08:33Z</time></trkpt><trkpt lat="42.905350009588894" lon="10.89717930660382"><ele>365.0</ele><time>2026-04-04T13:08:34Z</time></trkpt><trkpt lat="42.90535782461188" lon="10.89728083630859"><ele>365.0</ele><time>2026-04-04T13:08:35Z</time></trkpt><trkpt lat="42.90536269911445" lon="10.897373849765005"><ele>365.0</ele><time>2026-04-04T13:08:36Z</time></trkpt><trkpt lat="42.90533467559479" lon="10.897525649217398"><ele>365.0</ele><time>2026-04-04T13:08:38Z</time></trkpt><trkpt lat="42.90528592102466" lon="10.897608508252254"><ele>365.0</ele><time>2026-04-04T13:08:39Z</time></trkpt><trkpt lat="42.905233919040555" lon="10.897700561475865"><ele>365.0</ele><time>2026-04-04T13:08:40Z</time></trkpt><trkpt lat="42.90521401296574" lon="10.897787462870442"><ele>365.0</ele><time>2026-04-04T13:08:41Z</time></trkpt><trkpt lat="42.90514927476866" lon="10.897886132301336"><ele>365.0</ele><time>2026-04-04T13:08:43Z</time></trkpt><trkpt lat="42.905117573907724" lon="10.898039022709058"><ele>365.0</ele><time>2026-04-04T13:08:45Z</time></trkpt><trkpt lat="42.90507019112363" lon="10.898159565826692"><ele>365.0</ele><time>2026-04-04T13:08:47Z</time></trkpt><trkpt lat="42.90499644744676" lon="10.89826438936859"><ele>365.0</ele><time>2026-04-04T13:08:49Z</time></trkpt><trkpt lat="42.90499873993697" lon="10.89841383749751"><ele>365.0</ele><time>2026-04-04T13:08:51Z</time></trkpt><trkpt lat="42.905013748457776" lon="10.898592597098661"><ele>365.0</ele><time>2026-04-04T13:08:53Z</time></trkpt><trkpt lat="42.90502492904781" lon="10.898697860022711"><ele>365.0</ele><time>2026-04-04T13:08:54Z</time></trkpt><trkpt lat="42.90501593352787" lon="10.898786273922497"><ele>365.0</ele><time>2026-04-04T13:08:55Z</time></trkpt><trkpt lat="42.904984495367394" lon="10.898866017235529"><ele>365.0</ele><time>2026-04-04T13:08:56Z</time></trkpt><trkpt lat="42.90496281083709" lon="10.898993222964048"><ele>365.0</ele><time>2026-04-04T13:08:58Z</time></trkpt><trkpt lat="42.904974427259276" lon="10.89913529957805"><ele>365.0</ele><time>2026-04-04T13:09:00Z</time></trkpt><trkpt lat="42.90497907928252" lon="10.899252924193778"><ele>363.6</ele><time>2026-04-04T13:09:02Z</time></trkpt><trkpt lat="42.90506581382832" lon="10.89931720132122"><ele>362.2</ele><time>2026-04-04T13:09:04Z</time></trkpt><trkpt lat="42.905130001537295" lon="10.89943373684545"><ele>360.79999999999995</ele><time>2026-04-04T13:09:06Z</time></trkpt><trkpt lat="42.9051820507818" lon="10.899548243056204"><ele>359.4</ele><time>2026-04-04T13:09:08Z</time></trkpt><trkpt lat="42.905188991221316" lon="10.899659061680913"><ele>358.0</ele><time>2026-04-04T13:09:10Z</time></trkpt><trkpt lat="42.90522024873905" lon="10.89980403962256"><ele>357.2</ele><time>2026-04-04T13:09:12Z</time></trkpt><trkpt lat="42.90529235076715" lon="10.899903975832835"><ele>356.4</ele><time>2026-04-04T13:09:14Z</time></trkpt><trkpt lat="42.90537856460911" lon="10.899995299426704"><ele>355.59999999999997</ele><time>2026-04-04T13:09:16Z</time></trkpt><trkpt lat="42.90545482137306" lon="10.900108061908771"><ele>354.79999999999995</ele><time>2026-04-04T13:09:18Z</time></trkpt><trkpt lat="42.905498958209236" lon="10.900252843644328"><ele>354.0</ele><time>2026-04-04T13:09:20Z</time></trkpt><trkpt lat="42.90552541976883" lon="10.900398994492358"><ele>354.0</ele><time>2026-04-04T13:09:22Z</time></trkpt><trkpt lat="42.90559509934002" lon="10.900474919859022"><ele>354.0</ele><time>2026-04-04T13:09:24Z</time></trkpt><trkpt lat="42.90566990890037" lon="10.900471066899412"><ele>354.0</ele><time>2026-04-04T13:09:26Z</time></trkpt><trkpt lat="42.905746693334194" lon="10.90040025844045"><ele>354.0</ele><time>2026-04-04T13:09:37Z</time></trkpt><trkpt lat="42.905786081873785" lon="10.900294752471144"><ele>354.0</ele><time>2026-04-04T13:09:38Z</time></trkpt><trkpt lat="42.90581926667643" lon="10.900213492362475"><ele>354.0</ele><time>2026-04-04T13:09:39Z</time></trkpt><trkpt lat="42.90586283379652" lon="10.900128364893131"><ele>352.5</ele><time>2026-04-04T13:09:40Z</time></trkpt><trkpt lat="42.90592940369105" lon="10.900050424539563"><ele>351.0</ele><time>2026-04-04T13:09:41Z</time></trkpt><trkpt lat="42.905982258611246" lon="10.899966834932163"><ele>349.5</ele><time>2026-04-04T13:09:42Z</time></trkpt><trkpt lat="42.906046377124625" lon="10.899843321546099"><ele>348.0</ele><time>2026-04-04T13:09:43Z</time></trkpt><trkpt lat="42.90609651559966" lon="10.899774265376491"><ele>346.5</ele><time>2026-04-04T13:09:44Z</time></trkpt><trkpt lat="42.90615007686128" lon="10.899699092162773"><ele>345.0</ele><time>2026-04-04T13:09:46Z</time></trkpt><trkpt lat="42.90612925096511" lon="10.89951323808079"><ele>345.0</ele><time>2026-04-04T13:09:53.999Z</time></trkpt><trkpt lat="42.90611403275129" lon="10.899412576025664"><ele>345.0</ele><time>2026-04-04T13:09:54.999Z</time></trkpt><trkpt lat="42.90611208973724" lon="10.899319811229251"><ele>345.0</ele><time>2026-04-04T13:09:55.999Z</time></trkpt><trkpt lat="42.90610702884718" lon="10.89921902712186"><ele>345.0</ele><time>2026-04-04T13:09:56.999Z</time></trkpt><trkpt lat="42.9061011802458" lon="10.899107986029502"><ele>345.0</ele><time>2026-04-04T13:09:57.999Z</time></trkpt><trkpt lat="42.90609339911011" lon="10.899003791042285"><ele>345.0</ele><time>2026-04-04T13:09:58.999Z</time></trkpt><trkpt lat="42.90610109541725" lon="10.898908261776924"><ele>345.0</ele><time>2026-04-04T13:09:59.999Z</time></trkpt><trkpt lat="42.90612437743598" lon="10.89880610256055"><ele>341.1666666666667</ele><time>2026-04-04T13:10:00.999Z</time></trkpt><trkpt lat="42.906172849349126" lon="10.898718336506056"><ele>337.3333333333333</ele><time>2026-04-04T13:10:01.999Z</time></trkpt><trkpt lat="42.90621986263224" lon="10.898629238540806"><ele>333.5</ele><time>2026-04-04T13:10:02.999Z</time></trkpt><trkpt lat="42.90628778060035" lon="10.89856749546682"><ele>329.66666666666663</ele><time>2026-04-04T13:10:03.999Z</time></trkpt><trkpt lat="42.90635559466024" lon="10.898519268487348"><ele>325.8333333333333</ele><time>2026-04-04T13:10:04.999Z</time></trkpt><trkpt lat="42.906425904395036" lon="10.898472134138268"><ele>322.0</ele><time>2026-04-04T13:10:05.999Z</time></trkpt><trkpt lat="42.90646587483187" lon="10.898393274902336"><ele>320.6</ele><time>2026-04-04T13:10:06.999Z</time></trkpt><trkpt lat="42.90653132134887" lon="10.898322726848583"><ele>319.20000000000005</ele><time>2026-04-04T13:10:07.999Z</time></trkpt><trkpt lat="42.90658495632837" lon="10.898240413752555"><ele>317.8</ele><time>2026-04-04T13:10:08.999Z</time></trkpt><trkpt lat="42.9066895028776" lon="10.89819549326861"><ele>316.4</ele><time>2026-04-04T13:10:09.999Z</time></trkpt><trkpt lat="42.906774725589415" lon="10.898137363868699"><ele>315.0</ele><time>2026-04-04T13:10:10.999Z</time></trkpt><trkpt lat="42.90687756691722" lon="10.898076812744856"><ele>310.8</ele><time>2026-04-04T13:10:11.999Z</time></trkpt><trkpt lat="42.906986163932146" lon="10.897998849969834"><ele>306.6</ele><time>2026-04-04T13:10:12.999Z</time></trkpt><trkpt lat="42.90707370919679" lon="10.897908110806672"><ele>302.4</ele><time>2026-04-04T13:10:13.999Z</time></trkpt><trkpt lat="42.90713130333847" lon="10.89781312077998"><ele>298.2</ele><time>2026-04-04T13:10:14.999Z</time></trkpt><trkpt lat="42.907171186585664" lon="10.89772077504822"><ele>294.0</ele><time>2026-04-04T13:10:15.999Z</time></trkpt><trkpt lat="42.90721830313596" lon="10.89760698894318"><ele>292.59999999999997</ele><time>2026-04-04T13:10:16.999Z</time></trkpt><trkpt lat="42.90728847367607" lon="10.897477477471199"><ele>291.2</ele><time>2026-04-04T13:10:17.999Z</time></trkpt><trkpt lat="42.90732040165179" lon="10.89731799243667"><ele>289.79999999999995</ele><time>2026-04-04T13:10:18.999Z</time></trkpt><trkpt lat="42.90733405625505" lon="10.897193500510326"><ele>288.4</ele><time>2026-04-04T13:10:19.999Z</time></trkpt><trkpt lat="42.90735606442086" lon="10.897060144469433"><ele>287.0</ele><time>2026-04-04T13:10:20.999Z</time></trkpt><trkpt lat="42.90733810750045" lon="10.89692458959148"><ele>287.0</ele><time>2026-04-04T13:10:21.999Z</time></trkpt><trkpt lat="42.90733926415695" lon="10.896789361910884"><ele>287.0</ele><time>2026-04-04T13:10:22.999Z</time></trkpt><trkpt lat="42.90733391756485" lon="10.896651280186248"><ele>287.0</ele><time>2026-04-04T13:10:23.999Z</time></trkpt><trkpt lat="42.90733391841864" lon="10.896560252137219"><ele>287.0</ele><time>2026-04-04T13:10:24.999Z</time></trkpt><trkpt lat="42.90737174858604" lon="10.89648874228236"><ele>287.0</ele><time>2026-04-04T13:10:25.999Z</time></trkpt><trkpt lat="42.9074944025419" lon="10.896490978623424"><ele>287.6</ele><time>2026-04-04T13:10:27.999Z</time></trkpt><trkpt lat="42.90756436787881" lon="10.896527933169919"><ele>288.2</ele><time>2026-04-04T13:10:28.999Z</time></trkpt><trkpt lat="42.90763191604729" lon="10.896557653199352"><ele>288.8</ele><time>2026-04-04T13:10:29.999Z</time></trkpt><trkpt lat="42.90773978055366" lon="10.896607410696806"><ele>289.4</ele><time>2026-04-04T13:10:30.999Z</time></trkpt><trkpt lat="42.90785293276774" lon="10.896627116597204"><ele>290.0</ele><time>2026-04-04T13:10:31.999Z</time></trkpt><trkpt lat="42.90796447196018" lon="10.89665201932575"><ele>287.6</ele><time>2026-04-04T13:10:33Z</time></trkpt><trkpt lat="42.908035131640446" lon="10.896684281534277"><ele>285.2</ele><time>2026-04-04T13:10:34Z</time></trkpt><trkpt lat="42.90814584915609" lon="10.896732458522584"><ele>282.8</ele><time>2026-04-04T13:10:35Z</time></trkpt><trkpt lat="42.90823721788118" lon="10.896752933205095"><ele>280.4</ele><time>2026-04-04T13:10:36Z</time></trkpt><trkpt lat="42.90833492154802" lon="10.896793807686642"><ele>278.0</ele><time>2026-04-04T13:10:37Z</time></trkpt><trkpt lat="42.908400353710995" lon="10.89689399060614"><ele>275.83333333333337</ele><time>2026-04-04T13:10:38Z</time></trkpt><trkpt lat="42.90846710974988" lon="10.896948517056863"><ele>273.6666666666667</ele><time>2026-04-04T13:10:39Z</time></trkpt><trkpt lat="42.908540592519884" lon="10.896954140119703"><ele>271.5</ele><time>2026-04-04T13:10:40Z</time></trkpt><trkpt lat="42.90860824434896" lon="10.896900279031257"><ele>269.3333333333333</ele><time>2026-04-04T13:10:41Z</time></trkpt><trkpt lat="42.90866741900209" lon="10.896861610596803"><ele>267.16666666666663</ele><time>2026-04-04T13:10:42Z</time></trkpt><trkpt lat="42.90875545042318" lon="10.896816952654376"><ele>265.0</ele><time>2026-04-04T13:10:43Z</time></trkpt><trkpt lat="42.90882493568414" lon="10.896770039391154"><ele>263.16666666666663</ele><time>2026-04-04T13:10:44Z</time></trkpt><trkpt lat="42.90887198560984" lon="10.89670382190534"><ele>261.3333333333333</ele><time>2026-04-04T13:10:45Z</time></trkpt><trkpt lat="42.908939943371145" lon="10.896656269566089"><ele>259.5</ele><time>2026-04-04T13:10:46Z</time></trkpt><trkpt lat="42.90901126976196" lon="10.896617105866605"><ele>257.6666666666667</ele><time>2026-04-04T13:10:47Z</time></trkpt><trkpt lat="42.909081694910135" lon="10.896552454213326"><ele>255.83333333333334</ele><time>2026-04-04T13:10:48Z</time></trkpt><trkpt lat="42.90915568134665" lon="10.896474140265127"><ele>254.0</ele><time>2026-04-04T13:10:49Z</time></trkpt><trkpt lat="42.9092545010722" lon="10.896392913377793"><ele>250.5</ele><time>2026-04-04T13:10:50Z</time></trkpt><trkpt lat="42.90937635746535" lon="10.896295703237692"><ele>247.0</ele><time>2026-04-04T13:10:51Z</time></trkpt><trkpt lat="42.909485541563924" lon="10.896237194092414"><ele>243.5</ele><time>2026-04-04T13:10:52Z</time></trkpt><trkpt lat="42.909619373090074" lon="10.896192229104269"><ele>240.0</ele><time>2026-04-04T13:10:53Z</time></trkpt><trkpt lat="42.909768112395284" lon="10.89614886781824"><ele>240.0</ele><time>2026-04-04T13:10:54Z</time></trkpt><trkpt lat="42.90992400391536" lon="10.896099861449208"><ele>240.0</ele><time>2026-04-04T13:10:55Z</time></trkpt><trkpt lat="42.91008922351724" lon="10.896036528638968"><ele>240.0</ele><time>2026-04-04T13:10:56Z</time></trkpt><trkpt lat="42.91022373971325" lon="10.895998537724848"><ele>239.4</ele><time>2026-04-04T13:10:57Z</time></trkpt><trkpt lat="42.910334574922636" lon="10.89597331806299"><ele>238.8</ele><time>2026-04-04T13:10:58Z</time></trkpt><trkpt lat="42.91042961351229" lon="10.895939644692042"><ele>238.2</ele><time>2026-04-04T13:10:59Z</time></trkpt><trkpt lat="42.91052230833997" lon="10.895883350606942"><ele>237.6</ele><time>2026-04-04T13:11:00Z</time></trkpt><trkpt lat="42.910605255514604" lon="10.8958379265103"><ele>237.0</ele><time>2026-04-04T13:11:01Z</time></trkpt><trkpt lat="42.910684284976" lon="10.895775957537309"><ele>234.16666666666666</ele><time>2026-04-04T13:11:02Z</time></trkpt><trkpt lat="42.910745358091006" lon="10.895689275651405"><ele>231.33333333333331</ele><time>2026-04-04T13:11:03Z</time></trkpt><trkpt lat="42.91082516109838" lon="10.895589040767371"><ele>228.5</ele><time>2026-04-04T13:11:04Z</time></trkpt><trkpt lat="42.91088511008067" lon="10.895497648591567"><ele>225.66666666666666</ele><time>2026-04-04T13:11:05Z</time></trkpt><trkpt lat="42.91094783638803" lon="10.895406349043377"><ele>222.83333333333331</ele><time>2026-04-04T13:11:06Z</time></trkpt><trkpt lat="42.911004897809406" lon="10.895356491370348"><ele>220.0</ele><time>2026-04-04T13:11:08Z</time></trkpt><trkpt lat="42.91107680536853" lon="10.895573100800876"><ele>218.16666666666666</ele><time>2026-04-04T13:11:10Z</time></trkpt><trkpt lat="42.911098670932525" lon="10.89568667452712"><ele>216.33333333333331</ele><time>2026-04-04T13:11:11Z</time></trkpt><trkpt lat="42.911126381345944" lon="10.895768998790615"><ele>214.5</ele><time>2026-04-04T13:11:12Z</time></trkpt><trkpt lat="42.91111902640141" lon="10.895896072883275"><ele>212.66666666666669</ele><time>2026-04-04T13:11:14Z</time></trkpt><trkpt lat="42.91109134468918" lon="10.896010261076714"><ele>210.83333333333334</ele><time>2026-04-04T13:11:16Z</time></trkpt><trkpt lat="42.91118025930342" lon="10.89607895376888"><ele>209.0</ele><time>2026-04-04T13:11:18Z</time></trkpt><trkpt lat="42.91131384247312" lon="10.895902363649466"><ele>209.0</ele><time>2026-04-04T13:11:22Z</time></trkpt><trkpt lat="42.91143888214158" lon="10.895839112067204"><ele>209.0</ele><time>2026-04-04T13:11:23Z</time></trkpt><trkpt lat="42.911577633782116" lon="10.895781866986665"><ele>209.0</ele><time>2026-04-04T13:11:24Z</time></trkpt><trkpt lat="42.91167464716764" lon="10.895735961551523"><ele>209.0</ele><time>2026-04-04T13:11:25Z</time></trkpt><trkpt lat="42.91175625449653" lon="10.895718774614911"><ele>208.75</ele><time>2026-04-04T13:11:26Z</time></trkpt><trkpt lat="42.91184726786918" lon="10.895696037126894"><ele>208.5</ele><time>2026-04-04T13:11:27Z</time></trkpt><trkpt lat="42.91195897079543" lon="10.895639721288918"><ele>208.25</ele><time>2026-04-04T13:11:28Z</time></trkpt><trkpt lat="42.91205574948279" lon="10.895545001591032"><ele>208.0</ele><time>2026-04-04T13:11:29Z</time></trkpt><trkpt lat="42.91215025459011" lon="10.895408255231747"><ele>208.0</ele><time>2026-04-04T13:11:30Z</time></trkpt><trkpt lat="42.9122694526279" lon="10.89531130604254"><ele>208.0</ele><time>2026-04-04T13:11:31Z</time></trkpt><trkpt lat="42.91237670462632" lon="10.895251478783424"><ele>208.0</ele><time>2026-04-04T13:11:32Z</time></trkpt><trkpt lat="42.912459782946264" lon="10.895186043718974"><ele>208.0</ele><time>2026-04-04T13:11:33Z</time></trkpt><trkpt lat="42.912546421869294" lon="10.89510675673412"><ele>206.4</ele><time>2026-04-04T13:11:34Z</time></trkpt><trkpt lat="42.912623094909065" lon="10.895011517325234"><ele>204.8</ele><time>2026-04-04T13:11:35Z</time></trkpt><trkpt lat="42.912699561215014" lon="10.894908813214212"><ele>203.2</ele><time>2026-04-04T13:11:36Z</time></trkpt><trkpt lat="42.91277862231141" lon="10.894820059479658"><ele>201.6</ele><time>2026-04-04T13:11:37Z</time></trkpt><trkpt lat="42.912868272424454" lon="10.894739676538698"><ele>200.0</ele><time>2026-04-04T13:11:38Z</time></trkpt><trkpt lat="42.91295145001564" lon="10.894691534444854"><ele>200.0</ele><time>2026-04-04T13:11:39Z</time></trkpt><trkpt lat="42.91307227033413" lon="10.894630355058672"><ele>200.0</ele><time>2026-04-04T13:11:40Z</time></trkpt><trkpt lat="42.91316325630533" lon="10.89453430065933"><ele>200.0</ele><time>2026-04-04T13:11:41Z</time></trkpt><trkpt lat="42.91325031015312" lon="10.894442503297194"><ele>200.0</ele><time>2026-04-04T13:11:42Z</time></trkpt><trkpt lat="42.913356625859485" lon="10.894387648810525"><ele>201.0</ele><time>2026-04-04T13:11:43Z</time></trkpt><trkpt lat="42.913464828881125" lon="10.894370589285398"><ele>202.0</ele><time>2026-04-04T13:11:44Z</time></trkpt><trkpt lat="42.91360839714785" lon="10.894383599141714"><ele>203.0</ele><time>2026-04-04T13:11:45Z</time></trkpt><trkpt lat="42.91373721828585" lon="10.894351453951833"><ele>204.0</ele><time>2026-04-04T13:11:46Z</time></trkpt><trkpt lat="42.91387373897866" lon="10.894292079026807"><ele>198.33333333333334</ele><time>2026-04-04T13:11:47Z</time></trkpt><trkpt lat="42.91402160584984" lon="10.89420374049634"><ele>192.66666666666669</ele><time>2026-04-04T13:11:48Z</time></trkpt><trkpt lat="42.91416250909875" lon="10.894098004109095"><ele>187.0</ele><time>2026-04-04T13:11:49Z</time></trkpt><trkpt lat="42.91428819554755" lon="10.894048020507524"><ele>185.39999999999998</ele><time>2026-04-04T13:11:50Z</time></trkpt><trkpt lat="42.91440150207381" lon="10.89401290818901"><ele>183.79999999999998</ele><time>2026-04-04T13:11:51Z</time></trkpt><trkpt lat="42.91450177532084" lon="10.893994162290081"><ele>182.2</ele><time>2026-04-04T13:11:52Z</time></trkpt><trkpt lat="42.91458222641688" lon="10.893989940034405"><ele>180.6</ele><time>2026-04-04T13:11:53Z</time></trkpt><trkpt lat="42.91467955882629" lon="10.894024629526749"><ele>179.0</ele><time>2026-04-04T13:11:54Z</time></trkpt><trkpt lat="42.914739951290095" lon="10.894049676603021"><ele>179.0</ele><time>2026-04-04T13:11:55Z</time></trkpt><trkpt lat="42.91482450124484" lon="10.894121772864397"><ele>179.0</ele><time>2026-04-04T13:11:56Z</time></trkpt><trkpt lat="42.914873772092484" lon="10.894214989714165"><ele>179.0</ele><time>2026-04-04T13:11:57Z</time></trkpt><trkpt lat="42.9149331935027" lon="10.894277614116845"><ele>179.0</ele><time>2026-04-04T13:11:58Z</time></trkpt><trkpt lat="42.915001145284464" lon="10.894389014511217"><ele>179.0</ele><time>2026-04-04T13:11:59Z</time></trkpt><trkpt lat="42.91502332164879" lon="10.89455085623699"><ele>182.25</ele><time>2026-04-04T13:12:00Z</time></trkpt><trkpt lat="42.915126526844624" lon="10.89452003729089"><ele>185.5</ele><time>2026-04-04T13:12:01Z</time></trkpt><trkpt lat="42.91510104244997" lon="10.89478259385615"><ele>188.75</ele><time>2026-04-04T13:12:02Z</time></trkpt><trkpt lat="42.91522514719451" lon="10.894696411200036"><ele>192.0</ele><time>2026-04-04T13:12:03Z</time></trkpt><trkpt lat="42.915309589898705" lon="10.894696567533714"><ele>192.0</ele><time>2026-04-04T13:12:04Z</time></trkpt><trkpt lat="42.91541874120243" lon="10.894665074231897"><ele>192.0</ele><time>2026-04-04T13:12:05Z</time></trkpt><trkpt lat="42.91551856756994" lon="10.89463277926631"><ele>192.0</ele><time>2026-04-04T13:12:06Z</time></trkpt><trkpt lat="42.9156135274236" lon="10.89462417058873"><ele>192.0</ele><time>2026-04-04T13:12:06.999Z</time></trkpt><trkpt lat="42.91572505966224" lon="10.89462326514941"><ele>192.0</ele><time>2026-04-04T13:12:07.999Z</time></trkpt><trkpt lat="42.91583614127138" lon="10.894608022682116"><ele>190.8</ele><time>2026-04-04T13:12:08.999Z</time></trkpt><trkpt lat="42.91593675075553" lon="10.894566085686929"><ele>189.6</ele><time>2026-04-04T13:12:09.999Z</time></trkpt><trkpt lat="42.91603290843681" lon="10.894520189331082"><ele>188.4</ele><time>2026-04-04T13:12:10.999Z</time></trkpt><trkpt lat="42.916129423498546" lon="10.894451114917816"><ele>187.20000000000002</ele><time>2026-04-04T13:12:11.999Z</time></trkpt><trkpt lat="42.916214210398635" lon="10.89438682577463"><ele>186.0</ele><time>2026-04-04T13:12:12.999Z</time></trkpt><trkpt lat="42.91629152560199" lon="10.89431946759962"><ele>186.0</ele><time>2026-04-04T13:12:13.999Z</time></trkpt><trkpt lat="42.91637522128885" lon="10.894259443853576"><ele>186.0</ele><time>2026-04-04T13:12:14.999Z</time></trkpt><trkpt lat="42.91645404539864" lon="10.894269332715147"><ele>186.0</ele><time>2026-04-04T13:12:15.999Z</time></trkpt><trkpt lat="42.916518437685184" lon="10.894285853963215"><ele>186.0</ele><time>2026-04-04T13:12:16.999Z</time></trkpt><trkpt lat="42.916592547995656" lon="10.894327928128115"><ele>186.0</ele><time>2026-04-04T13:12:17.999Z</time></trkpt><trkpt lat="42.916655668187055" lon="10.894394798912863"><ele>186.0</ele><time>2026-04-04T13:12:18.999Z</time></trkpt><trkpt lat="42.916716174742454" lon="10.8944496850619"><ele>183.20000000000002</ele><time>2026-04-04T13:12:19.999Z</time></trkpt><trkpt lat="42.91677854488797" lon="10.89452709786911"><ele>180.4</ele><time>2026-04-04T13:12:20.999Z</time></trkpt><trkpt lat="42.916854936627814" lon="10.894649550250918"><ele>177.6</ele><time>2026-04-04T13:12:22.999Z</time></trkpt><trkpt lat="42.916945328767426" lon="10.894730504778776"><ele>174.8</ele><time>2026-04-04T13:12:24.999Z</time></trkpt><trkpt lat="42.917037785493555" lon="10.894761241120479"><ele>172.0</ele><time>2026-04-04T13:12:26.999Z</time></trkpt><trkpt lat="42.917123863669225" lon="10.894787494394892"><ele>172.00000000000003</ele><time>2026-04-04T13:12:28.999Z</time></trkpt><trkpt lat="42.917185709458586" lon="10.894813406842196"><ele>172.0</ele><time>2026-04-04T13:12:29.999Z</time></trkpt><trkpt lat="42.91726554744558" lon="10.89485755087982"><ele>172.0</ele><time>2026-04-04T13:12:30.999Z</time></trkpt><trkpt lat="42.917338089751325" lon="10.89489121703693"><ele>172.0</ele><time>2026-04-04T13:12:31.999Z</time></trkpt><trkpt lat="42.917405408836565" lon="10.89493476673389"><ele>172.0</ele><time>2026-04-04T13:12:32.999Z</time></trkpt><trkpt lat="42.91746392823938" lon="10.894972574102328"><ele>172.00000000000003</ele><time>2026-04-04T13:12:33.999Z</time></trkpt><trkpt lat="42.917532485000606" lon="10.894987094008636"><ele>172.0</ele><time>2026-04-04T13:12:34.999Z</time></trkpt><trkpt lat="42.91760792339788" lon="10.894992611562259"><ele>170.5</ele><time>2026-04-04T13:12:35.999Z</time></trkpt><trkpt lat="42.91770952693376" lon="10.895011488206963"><ele>169.0</ele><time>2026-04-04T13:12:37.999Z</time></trkpt><trkpt lat="42.91775593245854" lon="10.89493195854727"><ele>167.5</ele><time>2026-04-04T13:13:12Z</time></trkpt><trkpt lat="42.91784436435793" lon="10.894893527955594"><ele>166.0</ele><time>2026-04-04T13:13:14Z</time></trkpt><trkpt lat="42.917937479377045" lon="10.894827661586575"><ele>164.5</ele><time>2026-04-04T13:13:16Z</time></trkpt><trkpt lat="42.91797763442861" lon="10.894745430605905"><ele>163.0</ele><time>2026-04-04T13:13:18Z</time></trkpt><trkpt lat="42.91804818408181" lon="10.89467390804921"><ele>163.0</ele><time>2026-04-04T13:13:20Z</time></trkpt><trkpt lat="42.918120998597516" lon="10.894640748120151"><ele>163.0</ele><time>2026-04-04T13:13:22Z</time></trkpt><trkpt lat="42.91821151192687" lon="10.894605609206504"><ele>163.0</ele><time>2026-04-04T13:13:24Z</time></trkpt><trkpt lat="42.918273338939635" lon="10.894588496432421"><ele>163.0</ele><time>2026-04-04T13:13:25Z</time></trkpt><trkpt lat="42.918354230059876" lon="10.894573666893265"><ele>163.0</ele><time>2026-04-04T13:13:25.999Z</time></trkpt><trkpt lat="42.91842259020759" lon="10.894559130844614"><ele>163.0</ele><time>2026-04-04T13:13:26.999Z</time></trkpt><trkpt lat="42.91853454843998" lon="10.894524416222765"><ele>161.6</ele><time>2026-04-04T13:13:28.999Z</time></trkpt><trkpt lat="42.91864635877384" lon="10.894506384817685"><ele>160.20000000000002</ele><time>2026-04-04T13:13:30.999Z</time></trkpt><trkpt lat="42.91874841610273" lon="10.894491228180264"><ele>158.8</ele><time>2026-04-04T13:13:32.999Z</time></trkpt><trkpt lat="42.918812269194376" lon="10.894433260859625"><ele>157.4</ele><time>2026-04-04T13:13:34.999Z</time></trkpt><trkpt lat="42.918883405542566" lon="10.894489560293076"><ele>156.0</ele><time>2026-04-04T13:13:36.999Z</time></trkpt><trkpt lat="42.91900239082678" lon="10.89458457415782"><ele>156.0</ele><time>2026-04-04T13:13:38.999Z</time></trkpt><trkpt lat="42.91906533578984" lon="10.894638353769937"><ele>156.0</ele><time>2026-04-04T13:13:39.999Z</time></trkpt><trkpt lat="42.91912584929895" lon="10.894674999569304"><ele>156.0</ele><time>2026-04-04T13:13:40.999Z</time></trkpt><trkpt lat="42.91919943574417" lon="10.894694227377062"><ele>156.0</ele><time>2026-04-04T13:13:41.999Z</time></trkpt><trkpt lat="42.91928742053887" lon="10.894707008338033"><ele>156.0</ele><time>2026-04-04T13:13:42.999Z</time></trkpt><trkpt lat="42.91938855046408" lon="10.894725380961756"><ele>156.0</ele><time>2026-04-04T13:13:43.999Z</time></trkpt><trkpt lat="42.919486131134036" lon="10.894749584763625"><ele>152.75</ele><time>2026-04-04T13:13:44.999Z</time></trkpt><trkpt lat="42.919589030449266" lon="10.894748894100736"><ele>149.5</ele><time>2026-04-04T13:13:45.999Z</time></trkpt><trkpt lat="42.919713392630705" lon="10.894713041838"><ele>146.25</ele><time>2026-04-04T13:13:46.999Z</time></trkpt><trkpt lat="42.91985839997092" lon="10.894653618398781"><ele>143.0</ele><time>2026-04-04T13:13:47.999Z</time></trkpt><trkpt lat="42.92000945974335" lon="10.894591174219817"><ele>140.5</ele><time>2026-04-04T13:13:48.999Z</time></trkpt><trkpt lat="42.920152456466326" lon="10.894544374906111"><ele>138.0</ele><time>2026-04-04T13:13:49.999Z</time></trkpt><trkpt lat="42.92029083987328" lon="10.894492074403015"><ele>135.5</ele><time>2026-04-04T13:13:50.999Z</time></trkpt><trkpt lat="42.9204285439453" lon="10.894436519910132"><ele>133.0</ele><time>2026-04-04T13:13:51.999Z</time></trkpt><trkpt lat="42.92056001935474" lon="10.894381848957112"><ele>133.0</ele><time>2026-04-04T13:13:52.999Z</time></trkpt><trkpt lat="42.92068698754592" lon="10.89431405195503"><ele>133.0</ele><time>2026-04-04T13:13:53.999Z</time></trkpt><trkpt lat="42.92080540199201" lon="10.89423031013268"><ele>133.0</ele><time>2026-04-04T13:13:54.999Z</time></trkpt><trkpt lat="42.92091398841774" lon="10.894134011274618"><ele>133.0</ele><time>2026-04-04T13:13:55.999Z</time></trkpt><trkpt lat="42.92101150402874" lon="10.894027019490453"><ele>129.25</ele><time>2026-04-04T13:13:56.999Z</time></trkpt><trkpt lat="42.921102073957314" lon="10.893917124969562"><ele>125.5</ele><time>2026-04-04T13:13:57.999Z</time></trkpt><trkpt lat="42.921186926681145" lon="10.89380172671326"><ele>121.75</ele><time>2026-04-04T13:13:58.999Z</time></trkpt><trkpt lat="42.92126652205801" lon="10.893685082829716"><ele>118.0</ele><time>2026-04-04T13:13:59.999Z</time></trkpt><trkpt lat="42.92134549851583" lon="10.893570314157325"><ele>118.0</ele><time>2026-04-04T13:14:00.999Z</time></trkpt><trkpt lat="42.92141822959894" lon="10.893455474688828"><ele>118.00000000000001</ele><time>2026-04-04T13:14:01.999Z</time></trkpt><trkpt lat="42.921485731455036" lon="10.893345123524027"><ele>118.00000000000001</ele><time>2026-04-04T13:14:02.999Z</time></trkpt><trkpt lat="42.921564128799304" lon="10.89323912942063"><ele>118.0</ele><time>2026-04-04T13:14:03.999Z</time></trkpt><trkpt lat="42.921650266037595" lon="10.893154093725046"><ele>118.0</ele><time>2026-04-04T13:14:04.999Z</time></trkpt><trkpt lat="42.921742926604686" lon="10.893098606094764"><ele>115.60000000000001</ele><time>2026-04-04T13:14:05.999Z</time></trkpt><trkpt lat="42.92184456357688" lon="10.893084072947493"><ele>113.20000000000002</ele><time>2026-04-04T13:14:06.999Z</time></trkpt><trkpt lat="42.921949493930356" lon="10.89308351401422"><ele>110.8</ele><time>2026-04-04T13:14:07.999Z</time></trkpt><trkpt lat="42.92204861763814" lon="10.893091952450304"><ele>108.4</ele><time>2026-04-04T13:14:08.999Z</time></trkpt><trkpt lat="42.92214160071927" lon="10.893101863904572"><ele>106.0</ele><time>2026-04-04T13:14:09.999Z</time></trkpt><trkpt lat="42.92221879847717" lon="10.89311347763843"><ele>106.0</ele><time>2026-04-04T13:14:10.999Z</time></trkpt><trkpt lat="42.922302471222984" lon="10.893103897728045"><ele>106.0</ele><time>2026-04-04T13:14:12.999Z</time></trkpt><trkpt lat="42.92232033042079" lon="10.89295999139932"><ele>106.0</ele><time>2026-04-04T13:14:14.999Z</time></trkpt><trkpt lat="42.922319206991766" lon="10.892849710691818"><ele>106.0</ele><time>2026-04-04T13:14:15.999Z</time></trkpt><trkpt lat="42.922314131786905" lon="10.892703862159093"><ele>106.0</ele><time>2026-04-04T13:14:16.999Z</time></trkpt><trkpt lat="42.9223121538574" lon="10.89254116892444"><ele>104.25</ele><time>2026-04-04T13:14:17.999Z</time></trkpt><trkpt lat="42.92231623505739" lon="10.892371073291507"><ele>102.5</ele><time>2026-04-04T13:14:18.998Z</time></trkpt><trkpt lat="42.92232058274395" lon="10.892181276525319"><ele>100.75</ele><time>2026-04-04T13:14:19.998Z</time></trkpt><trkpt lat="42.92232496615382" lon="10.891965439389322"><ele>99.0</ele><time>2026-04-04T13:14:20.998Z</time></trkpt><trkpt lat="42.92233021626318" lon="10.891726378412601"><ele>97.33333333333333</ele><time>2026-04-04T13:14:21.998Z</time></trkpt><trkpt lat="42.92232745897674" lon="10.891485411470034"><ele>95.66666666666666</ele><time>2026-04-04T13:14:22.998Z</time></trkpt><trkpt lat="42.92232860340862" lon="10.891228778330136"><ele>94.0</ele><time>2026-04-04T13:14:23.998Z</time></trkpt><trkpt lat="42.9223433157721" lon="10.890975946661987"><ele>92.5</ele><time>2026-04-04T13:14:24.998Z</time></trkpt><trkpt lat="42.92234842732883" lon="10.890766661760075"><ele>91.0</ele><time>2026-04-04T13:14:25.998Z</time></trkpt><trkpt lat="42.922344156355365" lon="10.890579859016139"><ele>89.5</ele><time>2026-04-04T13:14:26.998Z</time></trkpt><trkpt lat="42.922341049071974" lon="10.890384779957168"><ele>88.0</ele><time>2026-04-04T13:14:27.998Z</time></trkpt><trkpt lat="42.92235082727902" lon="10.890183309797285"><ele>87.5</ele><time>2026-04-04T13:14:28.998Z</time></trkpt><trkpt lat="42.92235747663273" lon="10.889968291088213"><ele>87.0</ele><time>2026-04-04T13:14:29.998Z</time></trkpt><trkpt lat="42.92235931738482" lon="10.88975946759145"><ele>86.5</ele><time>2026-04-04T13:14:30.998Z</time></trkpt><trkpt lat="42.922368102702656" lon="10.88958345986568"><ele>86.0</ele><time>2026-04-04T13:14:31.998Z</time></trkpt><trkpt lat="42.9223744105272" lon="10.889418018312929"><ele>86.0</ele><time>2026-04-04T13:14:32.998Z</time></trkpt><trkpt lat="42.92240218847726" lon="10.889265424194587"><ele>86.0</ele><time>2026-04-04T13:14:33.998Z</time></trkpt><trkpt lat="42.9224623570864" lon="10.889120068257144"><ele>86.0</ele><time>2026-04-04T13:14:34.998Z</time></trkpt><trkpt lat="42.92255336290175" lon="10.888984322159885"><ele>86.0</ele><time>2026-04-04T13:14:35.998Z</time></trkpt><trkpt lat="42.92265881381242" lon="10.888871460471904"><ele>85.4</ele><time>2026-04-04T13:14:36.998Z</time></trkpt><trkpt lat="42.92274267216615" lon="10.888746339072364"><ele>84.8</ele><time>2026-04-04T13:14:37.998Z</time></trkpt><trkpt lat="42.9228048953736" lon="10.88862637244017"><ele>84.2</ele><time>2026-04-04T13:14:38.998Z</time></trkpt><trkpt lat="42.92284918042678" lon="10.888492633818897"><ele>83.60000000000001</ele><time>2026-04-04T13:14:39.998Z</time></trkpt><trkpt lat="42.922864114326565" lon="10.888361732740199"><ele>83.0</ele><time>2026-04-04T13:14:40.998Z</time></trkpt><trkpt lat="42.922850631283566" lon="10.888220096833983"><ele>83.0</ele><time>2026-04-04T13:14:41.998Z</time></trkpt><trkpt lat="42.92280636227027" lon="10.888071086247896"><ele>83.0</ele><time>2026-04-04T13:14:42.998Z</time></trkpt><trkpt lat="42.92273071924693" lon="10.887906082014394"><ele>83.0</ele><time>2026-04-04T13:14:43.998Z</time></trkpt><trkpt lat="42.922653505726366" lon="10.887731270281336"><ele>83.0</ele><time>2026-04-04T13:14:45Z</time></trkpt><trkpt lat="42.92258726438395" lon="10.887534870789377"><ele>83.66666666666667</ele><time>2026-04-04T13:14:46Z</time></trkpt><trkpt lat="42.92253738748601" lon="10.887328157250261"><ele>84.33333333333333</ele><time>2026-04-04T13:14:47Z</time></trkpt><trkpt lat="42.92250087224844" lon="10.887133822854098"><ele>85.0</ele><time>2026-04-04T13:14:48Z</time></trkpt><trkpt lat="42.92248184410309" lon="10.886935675737663"><ele>84.66666666666666</ele><time>2026-04-04T13:14:49Z</time></trkpt><trkpt lat="42.922474909342554" lon="10.886715894781734"><ele>84.33333333333333</ele><time>2026-04-04T13:14:50Z</time></trkpt><trkpt lat="42.92246851087228" lon="10.886476877926004"><ele>84.0</ele><time>2026-04-04T13:14:51Z</time></trkpt><trkpt lat="42.922455195262266" lon="10.886227927537737"><ele>84.0</ele><time>2026-04-04T13:14:52Z</time></trkpt><trkpt lat="42.92244235080821" lon="10.885987965498227"><ele>84.0</ele><time>2026-04-04T13:14:53Z</time></trkpt><trkpt lat="42.92244019604211" lon="10.885768411192258"><ele>84.0</ele><time>2026-04-04T13:14:54Z</time></trkpt><trkpt lat="42.9224519171459" lon="10.885560942915674"><ele>83.0</ele><time>2026-04-04T13:14:55Z</time></trkpt><trkpt lat="42.92246973637922" lon="10.88536671969005"><ele>82.0</ele><time>2026-04-04T13:14:56Z</time></trkpt><trkpt lat="42.922501703061734" lon="10.885183721702798"><ele>81.0</ele><time>2026-04-04T13:14:57Z</time></trkpt><trkpt lat="42.92254951254104" lon="10.885006542280102"><ele>80.0</ele><time>2026-04-04T13:14:58Z</time></trkpt><trkpt lat="42.922596329742355" lon="10.88483488418296"><ele>77.25</ele><time>2026-04-04T13:14:59Z</time></trkpt><trkpt lat="42.922632100678214" lon="10.884676925632503"><ele>74.5</ele><time>2026-04-04T13:15:00Z</time></trkpt><trkpt lat="42.92265252978476" lon="10.884536217965412"><ele>71.75</ele><time>2026-04-04T13:15:01Z</time></trkpt><trkpt lat="42.92267055489129" lon="10.884388049495874"><ele>69.0</ele><time>2026-04-04T13:15:02Z</time></trkpt><trkpt lat="42.92267285992487" lon="10.884221494659299"><ele>69.0</ele><time>2026-04-04T13:15:03Z</time></trkpt><trkpt lat="42.92266266202896" lon="10.884039267276519"><ele>69.0</ele><time>2026-04-04T13:15:04Z</time></trkpt><trkpt lat="42.92263069446079" lon="10.88383043435534"><ele>69.0</ele><time>2026-04-04T13:15:05Z</time></trkpt><trkpt lat="42.92259694700211" lon="10.88361037230173"><ele>68.66666666666667</ele><time>2026-04-04T13:15:05.999Z</time></trkpt><trkpt lat="42.9225646873621" lon="10.883382916195568"><ele>68.33333333333334</ele><time>2026-04-04T13:15:06.999Z</time></trkpt><trkpt lat="42.922537675462316" lon="10.883160907523012"><ele>68.0</ele><time>2026-04-04T13:15:07.999Z</time></trkpt><trkpt lat="42.92251601608658" lon="10.88293173829136"><ele>69.75</ele><time>2026-04-04T13:15:08.999Z</time></trkpt><trkpt lat="42.92251784941553" lon="10.882702553786965"><ele>71.5</ele><time>2026-04-04T13:15:09.999Z</time></trkpt><trkpt lat="42.92253323524388" lon="10.882504016723141"><ele>73.25</ele><time>2026-04-04T13:15:10.999Z</time></trkpt><trkpt lat="42.92254938482763" lon="10.882331438746384"><ele>75.0</ele><time>2026-04-04T13:15:11.999Z</time></trkpt><trkpt lat="42.922561411079506" lon="10.882149435668664"><ele>74.66666666666667</ele><time>2026-04-04T13:15:12.999Z</time></trkpt><trkpt lat="42.92256780471656" lon="10.88192565140988"><ele>74.33333333333334</ele><time>2026-04-04T13:15:13.999Z</time></trkpt><trkpt lat="42.92256870844596" lon="10.881694772679053"><ele>74.0</ele><time>2026-04-04T13:15:14.999Z</time></trkpt><trkpt lat="42.922559745274" lon="10.881467484806631"><ele>74.66666666666667</ele><time>2026-04-04T13:15:15.999Z</time></trkpt><trkpt lat="42.92255188474035" lon="10.881249192268564"><ele>75.33333333333333</ele><time>2026-04-04T13:15:16.999Z</time></trkpt><trkpt lat="42.92254023057368" lon="10.881038759404193"><ele>76.0</ele><time>2026-04-04T13:15:17.999Z</time></trkpt><trkpt lat="42.92251922991695" lon="10.880845240388942"><ele>75.0</ele><time>2026-04-04T13:15:18.999Z</time></trkpt><trkpt lat="42.92250126580577" lon="10.880663484192203"><ele>74.0</ele><time>2026-04-04T13:15:19.999Z</time></trkpt><trkpt lat="42.92251170604266" lon="10.880492959559596"><ele>73.0</ele><time>2026-04-04T13:15:20.999Z</time></trkpt><trkpt lat="42.92255068802057" lon="10.88033524690555"><ele>72.0</ele><time>2026-04-04T13:15:21.999Z</time></trkpt><trkpt lat="42.92261418594667" lon="10.880183299451817"><ele>70.33333333333333</ele><time>2026-04-04T13:15:22.999Z</time></trkpt><trkpt lat="42.922705981332534" lon="10.880033765355774"><ele>68.66666666666666</ele><time>2026-04-04T13:15:23.999Z</time></trkpt><trkpt lat="42.92281442060116" lon="10.879882904126088"><ele>67.0</ele><time>2026-04-04T13:15:24.999Z</time></trkpt><trkpt lat="42.92292437926072" lon="10.87973141749137"><ele>67.0</ele><time>2026-04-04T13:15:25.999Z</time></trkpt><trkpt lat="42.92303600515688" lon="10.879562968982253"><ele>67.0</ele><time>2026-04-04T13:15:26.999Z</time></trkpt><trkpt lat="42.92315464174919" lon="10.879403833873578"><ele>67.0</ele><time>2026-04-04T13:15:27.999Z</time></trkpt><trkpt lat="42.92328058789184" lon="10.879254762063065"><ele>63.666666666666664</ele><time>2026-04-04T13:15:28.999Z</time></trkpt><trkpt lat="42.92342679596959" lon="10.879127363863253"><ele>60.33333333333333</ele><time>2026-04-04T13:15:29.999Z</time></trkpt><trkpt lat="42.923590873874616" lon="10.878991235878056"><ele>57.0</ele><time>2026-04-04T13:15:30.999Z</time></trkpt><trkpt lat="42.92374759112413" lon="10.878836717774574"><ele>57.0</ele><time>2026-04-04T13:15:31.999Z</time></trkpt><trkpt lat="42.92388563303563" lon="10.878669795325633"><ele>57.0</ele><time>2026-04-04T13:15:32.999Z</time></trkpt><trkpt lat="42.92402487363617" lon="10.878461752660568"><ele>57.0</ele><time>2026-04-04T13:15:33.999Z</time></trkpt><trkpt lat="42.92417112486278" lon="10.87823892699422"><ele>55.33333333333333</ele><time>2026-04-04T13:15:34.999Z</time></trkpt><trkpt lat="42.92432030621092" lon="10.878031850463788"><ele>53.666666666666664</ele><time>2026-04-04T13:15:35.999Z</time></trkpt><trkpt lat="42.92446775452137" lon="10.877825384297484"><ele>52.0</ele><time>2026-04-04T13:15:36.999Z</time></trkpt><trkpt lat="42.92460639541136" lon="10.877634707806628"><ele>51.0</ele><time>2026-04-04T13:15:37.999Z</time></trkpt><trkpt lat="42.924737346219864" lon="10.877462147312421"><ele>50.0</ele><time>2026-04-04T13:15:38.999Z</time></trkpt><trkpt lat="42.92485491687529" lon="10.877297385019315"><ele>49.0</ele><time>2026-04-04T13:15:39.999Z</time></trkpt><trkpt lat="42.924969251658055" lon="10.877131838577494"><ele>48.75</ele><time>2026-04-04T13:15:40.999Z</time></trkpt><trkpt lat="42.925085114003224" lon="10.876978204391616"><ele>48.5</ele><time>2026-04-04T13:15:41.999Z</time></trkpt><trkpt lat="42.92518961329569" lon="10.876847265279386"><ele>48.25</ele><time>2026-04-04T13:15:42.999Z</time></trkpt><trkpt lat="42.92529443158907" lon="10.876741352074342"><ele>48.0</ele><time>2026-04-04T13:15:43.999Z</time></trkpt><trkpt lat="42.925400102090805" lon="10.876656728223717"><ele>47.25</ele><time>2026-04-04T13:15:44.999Z</time></trkpt><trkpt lat="42.9255179897779" lon="10.876587484533342"><ele>46.5</ele><time>2026-04-04T13:15:45.999Z</time></trkpt><trkpt lat="42.92564912401127" lon="10.876539273466413"><ele>45.75</ele><time>2026-04-04T13:15:46.999Z</time></trkpt><trkpt lat="42.925788806073925" lon="10.876497384146354"><ele>45.0</ele><time>2026-04-04T13:15:47.999Z</time></trkpt><trkpt lat="42.92593588585694" lon="10.876450471123558"><ele>44.0</ele><time>2026-04-04T13:15:48.999Z</time></trkpt><trkpt lat="42.9260865097629" lon="10.876393742624856"><ele>43.0</ele><time>2026-04-04T13:15:49.999Z</time></trkpt><trkpt lat="42.926242074578646" lon="10.876328893062318"><ele>42.0</ele><time>2026-04-04T13:15:50.999Z</time></trkpt><trkpt lat="42.9264023056345" lon="10.87626962087151"><ele>42.0</ele><time>2026-04-04T13:15:51.999Z</time></trkpt><trkpt lat="42.926564370899435" lon="10.876212453194833"><ele>42.0</ele><time>2026-04-04T13:15:52.999Z</time></trkpt><trkpt lat="42.926725647652454" lon="10.87615749335272"><ele>42.0</ele><time>2026-04-04T13:15:53.999Z</time></trkpt><trkpt lat="42.92688802718553" lon="10.876105303187977"><ele>42.333333333333336</ele><time>2026-04-04T13:15:54.999Z</time></trkpt><trkpt lat="42.92704926517903" lon="10.876050987408288"><ele>42.66666666666667</ele><time>2026-04-04T13:15:55.999Z</time></trkpt><trkpt lat="42.927209188067046" lon="10.876000166163424"><ele>43.0</ele><time>2026-04-04T13:15:56.999Z</time></trkpt><trkpt lat="42.92736831647388" lon="10.875944606123564"><ele>42.66666666666667</ele><time>2026-04-04T13:15:57.999Z</time></trkpt><trkpt lat="42.9275272056782" lon="10.875885118917669"><ele>42.333333333333336</ele><time>2026-04-04T13:15:58.999Z</time></trkpt><trkpt lat="42.927685731146525" lon="10.87581939047208"><ele>42.0</ele><time>2026-04-04T13:15:59.999Z</time></trkpt><trkpt lat="42.92783525218574" lon="10.875749536026575"><ele>43.0</ele><time>2026-04-04T13:16:00.999Z</time></trkpt><trkpt lat="42.92796661250327" lon="10.87568029215796"><ele>44.0</ele><time>2026-04-04T13:16:01.999Z</time></trkpt><trkpt lat="42.92808419045642" lon="10.875591842414153"><ele>45.0</ele><time>2026-04-04T13:16:02.999Z</time></trkpt><trkpt lat="42.9281941282675" lon="10.875477046663994"><ele>46.0</ele><time>2026-04-04T13:16:03.999Z</time></trkpt><trkpt lat="42.928306171520354" lon="10.87534591012351"><ele>45.333333333333336</ele><time>2026-04-04T13:16:04.999Z</time></trkpt><trkpt lat="42.928424250605026" lon="10.875207351603175"><ele>44.666666666666664</ele><time>2026-04-04T13:16:05.999Z</time></trkpt><trkpt lat="42.92854494484957" lon="10.875059437393924"><ele>44.0</ele><time>2026-04-04T13:16:06.999Z</time></trkpt><trkpt lat="42.92866897616211" lon="10.874903497981196"><ele>44.0</ele><time>2026-04-04T13:16:07.999Z</time></trkpt><trkpt lat="42.928790882022994" lon="10.87474066067817"><ele>44.0</ele><time>2026-04-04T13:16:08.999Z</time></trkpt><trkpt lat="42.92891455905746" lon="10.874556773574673"><ele>44.0</ele><time>2026-04-04T13:16:09.999Z</time></trkpt><trkpt lat="42.92904067341994" lon="10.874340960968215"><ele>43.0</ele><time>2026-04-04T13:16:10.999Z</time></trkpt><trkpt lat="42.92916386416491" lon="10.874091666472541"><ele>42.0</ele><time>2026-04-04T13:16:11.999Z</time></trkpt><trkpt lat="42.92927788982228" lon="10.873796883927982"><ele>42.0</ele><time>2026-04-04T13:16:12.999Z</time></trkpt><trkpt lat="42.92939104055446" lon="10.873482936651008"><ele>42.0</ele><time>2026-04-04T13:16:13.999Z</time></trkpt><trkpt lat="42.929503236386296" lon="10.873144248291375"><ele>40.5</ele><time>2026-04-04T13:16:14.999Z</time></trkpt><trkpt lat="42.92959155111255" lon="10.872835524021683"><ele>39.0</ele><time>2026-04-04T13:16:15.999Z</time></trkpt><trkpt lat="42.929670892992874" lon="10.872540715292486"><ele>37.0</ele><time>2026-04-04T13:16:16.999Z</time></trkpt><trkpt lat="42.929751189869805" lon="10.872226082452555"><ele>35.0</ele><time>2026-04-04T13:16:17.999Z</time></trkpt><trkpt lat="42.929839989150416" lon="10.871884229085403"><ele>35.0</ele><time>2026-04-04T13:16:18.999Z</time></trkpt><trkpt lat="42.92993511751604" lon="10.871516901832285"><ele>35.0</ele><time>2026-04-04T13:16:19.999Z</time></trkpt><trkpt lat="42.93003063424898" lon="10.871148066843812"><ele>35.0</ele><time>2026-04-04T13:16:20.999Z</time></trkpt><trkpt lat="42.93011390289497" lon="10.870825234946171"><ele>35.0</ele><time>2026-04-04T13:16:21.999Z</time></trkpt><trkpt lat="42.93018785761449" lon="10.870530589267293"><ele>35.0</ele><time>2026-04-04T13:16:22.999Z</time></trkpt><trkpt lat="42.93026076029611" lon="10.870257867702982"><ele>35.0</ele><time>2026-04-04T13:16:23.999Z</time></trkpt><trkpt lat="42.930325221709104" lon="10.870008685737439"><ele>35.0</ele><time>2026-04-04T13:16:24.999Z</time></trkpt><trkpt lat="42.930394689030074" lon="10.869767001859111"><ele>34.666666666666664</ele><time>2026-04-04T13:16:25.999Z</time></trkpt><trkpt lat="42.930471092801334" lon="10.869524664435714"><ele>34.333333333333336</ele><time>2026-04-04T13:16:26.999Z</time></trkpt><trkpt lat="42.93056556865593" lon="10.869272828509065"><ele>34.0</ele><time>2026-04-04T13:16:27.999Z</time></trkpt><trkpt lat="42.93068287300402" lon="10.869006610633196"><ele>33.0</ele><time>2026-04-04T13:16:28.999Z</time></trkpt><trkpt lat="42.93078561271121" lon="10.868776772144114"><ele>32.0</ele><time>2026-04-04T13:16:29.999Z</time></trkpt><trkpt lat="42.93087787870511" lon="10.868566078650245"><ele>31.0</ele><time>2026-04-04T13:16:30.999Z</time></trkpt><trkpt lat="42.93095976115582" lon="10.8683736558539"><ele>30.75</ele><time>2026-04-04T13:16:31.998Z</time></trkpt><trkpt lat="42.93104054143126" lon="10.868197579389232"><ele>30.5</ele><time>2026-04-04T13:16:32.998Z</time></trkpt><trkpt lat="42.93111423468521" lon="10.868035287851676"><ele>30.25</ele><time>2026-04-04T13:16:33.998Z</time></trkpt><trkpt lat="42.931169849192244" lon="10.86789612841859"><ele>30.0</ele><time>2026-04-04T13:16:34.998Z</time></trkpt><trkpt lat="42.93120978088268" lon="10.867782080588396"><ele>30.0</ele><time>2026-04-04T13:16:35.998Z</time></trkpt><trkpt lat="42.93123307581879" lon="10.867696516107914"><ele>30.0</ele><time>2026-04-04T13:16:36.998Z</time></trkpt><trkpt lat="42.931227706777136" lon="10.867595737342809"><ele>30.0</ele><time>2026-04-04T13:16:38.998Z</time></trkpt><trkpt lat="42.931140233642296" lon="10.867461365534345"><ele>30.0</ele><time>2026-04-04T13:16:40.998Z</time></trkpt><trkpt lat="42.931045060646554" lon="10.867412423773898"><ele>30.0</ele><time>2026-04-04T13:16:41.998Z</time></trkpt><trkpt lat="42.93092329918169" lon="10.86738047745506"><ele>30.0</ele><time>2026-04-04T13:16:42.998Z</time></trkpt><trkpt lat="42.93079295169088" lon="10.867331465307243"><ele>30.0</ele><time>2026-04-04T13:16:43.998Z</time></trkpt><trkpt lat="42.930643767156496" lon="10.86726623271352"><ele>30.0</ele><time>2026-04-04T13:16:44.998Z</time></trkpt><trkpt lat="42.93048787019641" lon="10.8672009142643"><ele>30.0</ele><time>2026-04-04T13:16:45.998Z</time></trkpt><trkpt lat="42.93031950839489" lon="10.867138938305029"><ele>30.0</ele><time>2026-04-04T13:16:46.998Z</time></trkpt><trkpt lat="42.93014589666089" lon="10.86707043590686"><ele>30.0</ele><time>2026-04-04T13:16:47.998Z</time></trkpt><trkpt lat="42.92997628219925" lon="10.867003002415881"><ele>29.666666666666664</ele><time>2026-04-04T13:16:48.998Z</time></trkpt><trkpt lat="42.92979915812107" lon="10.866935535540287"><ele>29.333333333333332</ele><time>2026-04-04T13:16:49.998Z</time></trkpt><trkpt lat="42.9296209310276" lon="10.86686000147964"><ele>29.0</ele><time>2026-04-04T13:16:51Z</time></trkpt><trkpt lat="42.929445258253814" lon="10.866783689632648"><ele>30.0</ele><time>2026-04-04T13:16:52Z</time></trkpt><trkpt lat="42.92926865649381" lon="10.866709678156662"><ele>31.0</ele><time>2026-04-04T13:16:53Z</time></trkpt><trkpt lat="42.92909443355456" lon="10.866635571726178"><ele>32.0</ele><time>2026-04-04T13:16:54Z</time></trkpt><trkpt lat="42.928923811391904" lon="10.866551666766343"><ele>32.33333333333333</ele><time>2026-04-04T13:16:55Z</time></trkpt><trkpt lat="42.92876015434004" lon="10.86645206575228"><ele>32.666666666666664</ele><time>2026-04-04T13:16:56Z</time></trkpt><trkpt lat="42.92860217636149" lon="10.8663447585291"><ele>33.0</ele><time>2026-04-04T13:16:57Z</time></trkpt><trkpt lat="42.92844634703362" lon="10.86623648036317"><ele>34.0</ele><time>2026-04-04T13:16:58Z</time></trkpt><trkpt lat="42.92829591994021" lon="10.866117263415006"><ele>35.0</ele><time>2026-04-04T13:16:59Z</time></trkpt><trkpt lat="42.92815422352756" lon="10.86598388289887"><ele>36.0</ele><time>2026-04-04T13:17:00Z</time></trkpt><trkpt lat="42.92802028039516" lon="10.86584282403569"><ele>36.0</ele><time>2026-04-04T13:17:01Z</time></trkpt><trkpt lat="42.92789083494557" lon="10.865700775454854"><ele>36.0</ele><time>2026-04-04T13:17:02Z</time></trkpt><trkpt lat="42.927764059079784" lon="10.865552803843357"><ele>36.0</ele><time>2026-04-04T13:17:03Z</time></trkpt><trkpt lat="42.927642850784345" lon="10.865394696055459"><ele>36.333333333333336</ele><time>2026-04-04T13:17:04Z</time></trkpt><trkpt lat="42.92752902256239" lon="10.865228400244982"><ele>36.66666666666667</ele><time>2026-04-04T13:17:05Z</time></trkpt><trkpt lat="42.92742500128865" lon="10.865057303673977"><ele>37.0</ele><time>2026-04-04T13:17:06Z</time></trkpt><trkpt lat="42.92732161697624" lon="10.864884271086472"><ele>38.0</ele><time>2026-04-04T13:17:07Z</time></trkpt><trkpt lat="42.927220249108736" lon="10.864708461564987"><ele>39.0</ele><time>2026-04-04T13:17:08Z</time></trkpt><trkpt lat="42.9271115556847" lon="10.864538857806995"><ele>40.0</ele><time>2026-04-04T13:17:09Z</time></trkpt><trkpt lat="42.92700459942447" lon="10.86436548728168"><ele>40.66666666666667</ele><time>2026-04-04T13:17:10Z</time></trkpt><trkpt lat="42.92689909034365" lon="10.864189330118911"><ele>41.333333333333336</ele><time>2026-04-04T13:17:11Z</time></trkpt><trkpt lat="42.926792674904625" lon="10.864010687371271"><ele>42.0</ele><time>2026-04-04T13:17:12Z</time></trkpt><trkpt lat="42.92668500204031" lon="10.863832406644141"><ele>40.666666666666664</ele><time>2026-04-04T13:17:13Z</time></trkpt><trkpt lat="42.9265752480576" lon="10.863653609863077"><ele>39.33333333333333</ele><time>2026-04-04T13:17:14Z</time></trkpt><trkpt lat="42.92646486430288" lon="10.863476640198233"><ele>38.0</ele><time>2026-04-04T13:17:15Z</time></trkpt><trkpt lat="42.92635484876311" lon="10.863298118007679"><ele>38.0</ele><time>2026-04-04T13:17:15.999Z</time></trkpt><trkpt lat="42.92624208655376" lon="10.863123873987591"><ele>38.0</ele><time>2026-04-04T13:17:16.999Z</time></trkpt><trkpt lat="42.9261201141315" lon="10.862957673623542"><ele>38.0</ele><time>2026-04-04T13:17:17.999Z</time></trkpt><trkpt lat="42.925989720975075" lon="10.862802234652094"><ele>37.0</ele><time>2026-04-04T13:17:18.999Z</time></trkpt><trkpt lat="42.92585544554959" lon="10.862648725831004"><ele>36.0</ele><time>2026-04-04T13:17:19.999Z</time></trkpt><trkpt lat="42.9257140265564" lon="10.862502214079274"><ele>35.0</ele><time>2026-04-04T13:17:20.999Z</time></trkpt><trkpt lat="42.9255655200632" lon="10.862367699071138"><ele>34.666666666666664</ele><time>2026-04-04T13:17:21.999Z</time></trkpt><trkpt lat="42.9254123215752" lon="10.862249544806216"><ele>34.333333333333336</ele><time>2026-04-04T13:17:22.999Z</time></trkpt><trkpt lat="42.92525531822087" lon="10.862139153902637"><ele>34.0</ele><time>2026-04-04T13:17:23.999Z</time></trkpt><trkpt lat="42.925092701925834" lon="10.862031877841435"><ele>35.0</ele><time>2026-04-04T13:17:24.999Z</time></trkpt><trkpt lat="42.92493017015956" lon="10.861925396968344"><ele>36.0</ele><time>2026-04-04T13:17:25.999Z</time></trkpt><trkpt lat="42.924765272008415" lon="10.86182097352898"><ele>37.0</ele><time>2026-04-04T13:17:26.999Z</time></trkpt><trkpt lat="42.92459924332035" lon="10.861720289055379"><ele>37.0</ele><time>2026-04-04T13:17:27.999Z</time></trkpt><trkpt lat="42.92442857249849" lon="10.861621077435329"><ele>37.0</ele><time>2026-04-04T13:17:28.999Z</time></trkpt><trkpt lat="42.92425885254866" lon="10.861520595943595"><ele>37.0</ele><time>2026-04-04T13:17:29.999Z</time></trkpt><trkpt lat="42.92408997700041" lon="10.86142065961121"><ele>37.66666666666667</ele><time>2026-04-04T13:17:30.999Z</time></trkpt><trkpt lat="42.92392354752974" lon="10.86132617744324"><ele>38.333333333333336</ele><time>2026-04-04T13:17:31.999Z</time></trkpt><trkpt lat="42.92376216595599" lon="10.861222226456816"><ele>39.0</ele><time>2026-04-04T13:17:32.999Z</time></trkpt><trkpt lat="42.92360871397302" lon="10.861102641277116"><ele>39.0</ele><time>2026-04-04T13:17:33.999Z</time></trkpt><trkpt lat="42.92346103694424" lon="10.860981905212567"><ele>39.0</ele><time>2026-04-04T13:17:34.999Z</time></trkpt><trkpt lat="42.92331796029981" lon="10.860848710196183"><ele>39.0</ele><time>2026-04-04T13:17:35.999Z</time></trkpt><trkpt lat="42.9231704029905" lon="10.860697510719158"><ele>38.333333333333336</ele><time>2026-04-04T13:17:36.999Z</time></trkpt><trkpt lat="42.92302031705502" lon="10.860533357731896"><ele>37.66666666666667</ele><time>2026-04-04T13:17:37.999Z</time></trkpt><trkpt lat="42.92287230754663" lon="10.86036142995271"><ele>37.0</ele><time>2026-04-04T13:17:38.999Z</time></trkpt><trkpt lat="42.92272078842436" lon="10.860185898543783"><ele>38.0</ele><time>2026-04-04T13:17:39.999Z</time></trkpt><trkpt lat="42.92255648780117" lon="10.860004245208465"><ele>39.0</ele><time>2026-04-04T13:17:40.999Z</time></trkpt><trkpt lat="42.92238814960225" lon="10.859825148798587"><ele>40.0</ele><time>2026-04-04T13:17:41.999Z</time></trkpt><trkpt lat="42.922221212749335" lon="10.859642636232522"><ele>40.0</ele><time>2026-04-04T13:17:42.999Z</time></trkpt><trkpt lat="42.92205263085688" lon="10.8594579866318"><ele>40.0</ele><time>2026-04-04T13:17:43.999Z</time></trkpt><trkpt lat="42.92188703493074" lon="10.859274634909472"><ele>40.0</ele><time>2026-04-04T13:17:44.999Z</time></trkpt><trkpt lat="42.921725002870005" lon="10.859088894182815"><ele>41.333333333333336</ele><time>2026-04-04T13:17:45.999Z</time></trkpt><trkpt lat="42.92156922573459" lon="10.858905536856659"><ele>42.666666666666664</ele><time>2026-04-04T13:17:46.999Z</time></trkpt><trkpt lat="42.92141912228204" lon="10.858727437400391"><ele>44.0</ele><time>2026-04-04T13:17:47.999Z</time></trkpt><trkpt lat="42.921272467554736" lon="10.858552894913075"><ele>44.0</ele><time>2026-04-04T13:17:48.999Z</time></trkpt><trkpt lat="42.921130808909126" lon="10.858376539647551"><ele>44.0</ele><time>2026-04-04T13:17:49.999Z</time></trkpt><trkpt lat="42.920992151060574" lon="10.858186702822334"><ele>44.0</ele><time>2026-04-04T13:17:50.999Z</time></trkpt><trkpt lat="42.92085048428135" lon="10.857973194610237"><ele>44.5</ele><time>2026-04-04T13:17:51.999Z</time></trkpt><trkpt lat="42.92071088197988" lon="10.857732064922187"><ele>45.0</ele><time>2026-04-04T13:17:52.999Z</time></trkpt><trkpt lat="42.920566594087944" lon="10.85746472385807"><ele>45.0</ele><time>2026-04-04T13:17:53.999Z</time></trkpt><trkpt lat="42.92041652174171" lon="10.85717715795338"><ele>45.0</ele><time>2026-04-04T13:17:54.999Z</time></trkpt><trkpt lat="42.920268765636884" lon="10.856880581643697"><ele>44.5</ele><time>2026-04-04T13:17:55.999Z</time></trkpt><trkpt lat="42.92012429146484" lon="10.856593642093985"><ele>44.0</ele><time>2026-04-04T13:17:56.999Z</time></trkpt><trkpt lat="42.91997223893511" lon="10.856298195072094"><ele>44.0</ele><time>2026-04-04T13:17:57.999Z</time></trkpt><trkpt lat="42.91980959410962" lon="10.855987036773778"><ele>44.0</ele><time>2026-04-04T13:17:58.999Z</time></trkpt><trkpt lat="42.91966002321734" lon="10.855699344839902"><ele>43.0</ele><time>2026-04-04T13:17:59.999Z</time></trkpt><trkpt lat="42.91952620424732" lon="10.85544979404303"><ele>42.0</ele><time>2026-04-04T13:18:00.999Z</time></trkpt><trkpt lat="42.919389482073015" lon="10.855226577481826"><ele>41.0</ele><time>2026-04-04T13:18:01.999Z</time></trkpt><trkpt lat="42.919244166613176" lon="10.85500288045021"><ele>42.0</ele><time>2026-04-04T13:18:02.999Z</time></trkpt><trkpt lat="42.919091036701445" lon="10.854781246853982"><ele>43.0</ele><time>2026-04-04T13:18:03.999Z</time></trkpt><trkpt lat="42.918921456211436" lon="10.85455440566496"><ele>43.0</ele><time>2026-04-04T13:18:04.999Z</time></trkpt><trkpt lat="42.91874042824917" lon="10.854322675244777"><ele>43.0</ele><time>2026-04-04T13:18:05.999Z</time></trkpt><trkpt lat="42.918556371089096" lon="10.854084046674991"><ele>44.0</ele><time>2026-04-04T13:18:06.999Z</time></trkpt><trkpt lat="42.918364806733344" lon="10.85383592438466"><ele>45.0</ele><time>2026-04-04T13:18:07.999Z</time></trkpt><trkpt lat="42.91816121859099" lon="10.853572028089596"><ele>44.5</ele><time>2026-04-04T13:18:08.999Z</time></trkpt><trkpt lat="42.91794716186913" lon="10.853294414617622"><ele>44.0</ele><time>2026-04-04T13:18:09.999Z</time></trkpt><trkpt lat="42.91773491693216" lon="10.853019457905674"><ele>44.5</ele><time>2026-04-04T13:18:10.999Z</time></trkpt><trkpt lat="42.917551685902964" lon="10.852780808404045"><ele>45.0</ele><time>2026-04-04T13:18:11.999Z</time></trkpt><trkpt lat="42.91738622473187" lon="10.852562518350208"><ele>44.0</ele><time>2026-04-04T13:18:12.999Z</time></trkpt><trkpt lat="42.917233231801305" lon="10.852363901654877"><ele>43.0</ele><time>2026-04-04T13:18:13.999Z</time></trkpt><trkpt lat="42.91709292685133" lon="10.852186499341489"><ele>42.0</ele><time>2026-04-04T13:18:14.999Z</time></trkpt><trkpt lat="42.91696751776287" lon="10.85202580218322"><ele>42.0</ele><time>2026-04-04T13:18:15.999Z</time></trkpt><trkpt lat="42.91684789186921" lon="10.851887487944014"><ele>42.0</ele><time>2026-04-04T13:18:16.999Z</time></trkpt><trkpt lat="42.916741623271285" lon="10.851750552702647"><ele>42.0</ele><time>2026-04-04T13:18:17.999Z</time></trkpt><trkpt lat="42.91664590346691" lon="10.851618025900768"><ele>42.0</ele><time>2026-04-04T13:18:18.999Z</time></trkpt><trkpt lat="42.9165584253735" lon="10.851495546951215"><ele>42.400000000000006</ele><time>2026-04-04T13:18:19.999Z</time></trkpt><trkpt lat="42.9164794321838" lon="10.851381085475495"><ele>42.800000000000004</ele><time>2026-04-04T13:18:20.999Z</time></trkpt><trkpt lat="42.916403818009165" lon="10.851275731255194"><ele>43.2</ele><time>2026-04-04T13:18:21.999Z</time></trkpt><trkpt lat="42.91633122370565" lon="10.851178052916953"><ele>43.6</ele><time>2026-04-04T13:18:22.999Z</time></trkpt><trkpt lat="42.91626038083257" lon="10.85109277762371"><ele>44.0</ele><time>2026-04-04T13:18:23.999Z</time></trkpt><trkpt lat="42.916203411274296" lon="10.851016728928931"><ele>43.6</ele><time>2026-04-04T13:18:24.999Z</time></trkpt><trkpt lat="42.916194247358106" lon="10.850892093121843"><ele>43.2</ele><time>2026-04-04T13:18:26.999Z</time></trkpt><trkpt lat="42.91625328868891" lon="10.850822700846136"><ele>42.800000000000004</ele><time>2026-04-04T13:18:27.999Z</time></trkpt><trkpt lat="42.91635034158446" lon="10.850770454503333"><ele>42.400000000000006</ele><time>2026-04-04T13:18:28.999Z</time></trkpt><trkpt lat="42.91642930423239" lon="10.85072536446401"><ele>42.0</ele><time>2026-04-04T13:18:29.999Z</time></trkpt><trkpt lat="42.91651064317038" lon="10.850629094469793"><ele>42.0</ele><time>2026-04-04T13:18:31.999Z</time></trkpt><trkpt lat="42.91650872141186" lon="10.850522509839777"><ele>42.0</ele><time>2026-04-04T13:18:33.999Z</time></trkpt><trkpt lat="42.916439742365" lon="10.850531427475989"><ele>42.0</ele><time>2026-04-04T13:18:36.999Z</time></trkpt></trkseg></trk></gpx>